Wetterdaten: Donnerstag, 07.09.2017
Datum Zeit Temp. A. Temp. A. max Feuchte A. Luftdruck Regen Wind Richtung Richtung Sonnenschein ET UV Solar Taupunkt Windchill Windböen
07.09.2017 00:00 12,4 °C 12,4 °C 85 % 1017,4 hPa 0,0 mm 3,4 km/h (1 Bft) W 260 ° 0 min 0,000 mm 0,0 UV-I 0 W/m² 9,9 °C 12,4 °C 4,8 km/h (1 Bft)
07.09.2017 00:01 12,3 °C 12,4 °C 86 % 1017,4 hPa 0,0 mm 2,5 km/h (1 Bft) S-SW 206 ° 0 min 0,000 mm 0,0 UV-I 0 W/m² 10,0 °C 12,3 °C 4,8 km/h (1 Bft)
07.09.2017 00:02 12,3 °C 12,3 °C 85 % 1017,3 hPa 0,2 mm 3,8 km/h (1 Bft) SW 219 ° 0 min 0,000 mm 0,0 UV-I 0 W/m² 9,9 °C 12,3 °C 4,8 km/h (1 Bft)
07.09.2017 00:03 12,3 °C 12,3 °C 85 % 1017,3 hPa 0,0 mm 2,9 km/h (1 Bft) SW 234 ° 0 min 0,000 mm 0,0 UV-I 0 W/m² 9,9 °C 12,3 °C 8,0 km/h (2 Bft)
07.09.2017 00:04 12,3 °C 12,3 °C 85 % 1017,4 hPa 0,0 mm 2,0 km/h (1 Bft) S-SW 202 ° 0 min 0,000 mm 0,0 UV-I 0 W/m² 9,9 °C 12,3 °C 3,2 km/h (1 Bft)
07.09.2017 00:05 12,2 °C 12,3 °C 85 % 1017,3 hPa 0,0 mm 5,7 km/h (1 Bft) S-SW 211 ° 0 min 0,000 mm 0,0 UV-I 0 W/m² 9,8 °C 12,2 °C 12,9 km/h (3 Bft)
07.09.2017 00:06 12,2 °C 12,2 °C 85 % 1017,4 hPa 0,0 mm 4,0 km/h (1 Bft) S-SW 202 ° 0 min 0,000 mm 0,0 UV-I 0 W/m² 9,8 °C 12,2 °C 6,4 km/h (2 Bft)
07.09.2017 00:07 12,2 °C 12,2 °C 85 % 1017,4 hPa 0,0 mm 3,6 km/h (1 Bft) S 188 ° 0 min 0,000 mm 0,0 UV-I 0 W/m² 9,8 °C 12,2 °C 4,8 km/h (1 Bft)
07.09.2017 00:08 12,2 °C 12,2 °C 86 % 1017,3 hPa 0,0 mm 1,9 km/h (1 Bft) S 188 ° 0 min 0,000 mm 0,0 UV-I 0 W/m² 9,9 °C 12,2 °C 3,2 km/h (1 Bft)
07.09.2017 00:09 12,1 °C 12,2 °C 86 % 1017,3 hPa 0,0 mm 2,0 km/h (1 Bft) S 188 ° 0 min 0,000 mm 0,0 UV-I 0 W/m² 9,8 °C 12,1 °C 3,2 km/h (1 Bft)
07.09.2017 00:10 12,1 °C 12,1 °C 86 % 1017,3 hPa 0,0 mm 0,8 km/h (0 Bft) S 188 ° 0 min 0,000 mm 0,0 UV-I 0 W/m² 9,8 °C 12,1 °C 1,6 km/h (1 Bft)
07.09.2017 00:11 12,0 °C 12,1 °C 86 % 1017,4 hPa 0,0 mm 2,8 km/h (1 Bft) SW 215 ° 0 min 0,000 mm 0,0 UV-I 0 W/m² 9,7 °C 12,0 °C 4,8 km/h (1 Bft)
07.09.2017 00:12 11,9 °C 12,1 °C 86 % 1017,4 hPa 0,0 mm 1,3 km/h (1 Bft) SW 215 ° 0 min 0,000 mm 0,0 UV-I 0 W/m² 9,6 °C 11,9 °C 3,2 km/h (1 Bft)
07.09.2017 00:13 11,9 °C 12,0 °C 87 % 1017,4 hPa 0,0 mm 1,1 km/h (1 Bft) SW 215 ° 0 min 0,000 mm 0,0 UV-I 0 W/m² 9,8 °C 11,9 °C 3,2 km/h (1 Bft)
07.09.2017 00:14 11,9 °C 11,9 °C 87 % 1017,4 hPa 0,0 mm 3,4 km/h (1 Bft) S-SW 205 ° 0 min 0,000 mm 0,0 UV-I 0 W/m² 9,8 °C 11,9 °C 6,4 km/h (2 Bft)
07.09.2017 00:15 11,9 °C 11,9 °C 87 % 1017,4 hPa 0,0 mm 4,0 km/h (1 Bft) S-SW 196 ° 0 min 0,000 mm 0,0 UV-I 0 W/m² 9,8 °C 11,9 °C 6,4 km/h (2 Bft)
07.09.2017 00:16 11,9 °C 11,9 °C 87 % 1017,4 hPa 0,0 mm 4,1 km/h (1 Bft) S-SW 194 ° 0 min 0,000 mm 0,0 UV-I 0 W/m² 9,8 °C 11,9 °C 6,4 km/h (2 Bft)
07.09.2017 00:17 11,9 °C 11,9 °C 87 % 1017,4 hPa 0,0 mm 1,7 km/h (1 Bft) S-SW 194 ° 0 min 0,000 mm 0,0 UV-I 0 W/m² 9,8 °C 11,9 °C 4,8 km/h (1 Bft)
07.09.2017 00:18 11,9 °C 11,9 °C 87 % 1017,4 hPa 0,0 mm 2,9 km/h (1 Bft) S-SW 194 ° 0 min 0,000 mm 0,0 UV-I 0 W/m² 9,8 °C 11,9 °C 4,8 km/h (1 Bft)
07.09.2017 00:19 11,9 °C 11,9 °C 87 % 1017,4 hPa 0,0 mm 4,4 km/h (1 Bft) S-SW 195 ° 0 min 0,000 mm 0,0 UV-I 0 W/m² 9,8 °C 11,9 °C 6,4 km/h (2 Bft)
07.09.2017 00:20 11,8 °C 11,9 °C 87 % 1017,4 hPa 0,0 mm 5,4 km/h (1 Bft) S 184 ° 0 min 0,000 mm 0,0 UV-I 0 W/m² 9,7 °C 11,8 °C 8,0 km/h (2 Bft)
07.09.2017 00:21 11,8 °C 11,9 °C 87 % 1017,3 hPa 0,0 mm 4,3 km/h (1 Bft) S 188 ° 0 min 0,000 mm 0,0 UV-I 0 W/m² 9,7 °C 11,8 °C 6,4 km/h (2 Bft)
07.09.2017 00:22 11,8 °C 11,9 °C 87 % 1017,3 hPa 0,0 mm 2,0 km/h (1 Bft) S 183 ° 0 min 0,000 mm 0,0 UV-I 0 W/m² 9,7 °C 11,8 °C 4,8 km/h (1 Bft)
07.09.2017 00:23 11,9 °C 11,9 °C 87 % 1017,3 hPa 0,0 mm 5,0 km/h (1 Bft) S 187 ° 0 min 0,000 mm 0,0 UV-I 0 W/m² 9,8 °C 11,9 °C 8,0 km/h (2 Bft)
07.09.2017 00:24 11,8 °C 11,9 °C 87 % 1017,4 hPa 0,0 mm 4,4 km/h (1 Bft) S 184 ° 0 min 0,000 mm 0,0 UV-I 0 W/m² 9,7 °C 11,8 °C 8,0 km/h (2 Bft)
07.09.2017 00:25 11,8 °C 11,9 °C 87 % 1017,3 hPa 0,0 mm 7,9 km/h (2 Bft) S 183 ° 0 min 0,000 mm 0,0 UV-I 0 W/m² 9,7 °C 11,8 °C 12,9 km/h (3 Bft)
07.09.2017 00:26 11,8 °C 11,9 °C 87 % 1017,3 hPa 0,0 mm 3,3 km/h (1 Bft) S 187 ° 0 min 0,000 mm 0,0 UV-I 0 W/m² 9,7 °C 11,8 °C 8,0 km/h (2 Bft)
07.09.2017 00:27 11,8 °C 11,8 °C 87 % 1017,4 hPa 0,0 mm 1,3 km/h (1 Bft) S 188 ° 0 min 0,000 mm 0,0 UV-I 0 W/m² 9,7 °C 11,8 °C 3,2 km/h (1 Bft)
07.09.2017 00:28 11,8 °C 11,9 °C 88 % 1017,4 hPa 0,0 mm 2,0 km/h (1 Bft) S-SW 209 ° 0 min 0,000 mm 0,0 UV-I 0 W/m² 9,9 °C 11,8 °C 3,2 km/h (1 Bft)
07.09.2017 00:29 11,8 °C 11,8 °C 88 % 1017,4 hPa 0,0 mm 3,0 km/h (1 Bft) S-SW 212 ° 0 min 0,000 mm 0,0 UV-I 0 W/m² 9,9 °C 11,8 °C 6,4 km/h (2 Bft)
07.09.2017 00:30 11,8 °C 11,8 °C 88 % 1017,4 hPa 0,0 mm 2,7 km/h (1 Bft) S-SW 212 ° 0 min 0,000 mm 0,0 UV-I 0 W/m² 9,9 °C 11,8 °C 4,8 km/h (1 Bft)
07.09.2017 00:31 11,8 °C 11,8 °C 88 % 1017,3 hPa 0,0 mm 4,1 km/h (1 Bft) S-SW 200 ° 0 min 0,000 mm 0,0 UV-I 0 W/m² 9,9 °C 11,8 °C 6,4 km/h (2 Bft)
07.09.2017 00:32 11,8 °C 11,8 °C 88 % 1017,4 hPa 0,0 mm 1,7 km/h (1 Bft) S-SW 196 ° 0 min 0,000 mm 0,0 UV-I 0 W/m² 9,9 °C 11,8 °C 4,8 km/h (1 Bft)
07.09.2017 00:33 11,7 °C 11,8 °C 88 % 1017,3 hPa 0,0 mm 2,1 km/h (1 Bft) S-SW 198 ° 0 min 0,000 mm 0,0 UV-I 0 W/m² 9,8 °C 11,7 °C 4,8 km/h (1 Bft)
07.09.2017 00:34 11,8 °C 11,8 °C 88 % 1017,3 hPa 0,0 mm 3,2 km/h (1 Bft) S-SW 203 ° 0 min 0,000 mm 0,0 UV-I 0 W/m² 9,9 °C 11,8 °C 4,8 km/h (1 Bft)
07.09.2017 00:35 11,7 °C 11,8 °C 88 % 1017,3 hPa 0,0 mm 5,8 km/h (2 Bft) S 188 ° 0 min 0,000 mm 0,0 UV-I 0 W/m² 9,8 °C 11,7 °C 9,7 km/h (2 Bft)
07.09.2017 00:36 11,7 °C 11,7 °C 88 % 1017,3 hPa 0,0 mm 4,2 km/h (1 Bft) S 189 ° 0 min 0,000 mm 0,0 UV-I 0 W/m² 9,8 °C 11,7 °C 6,4 km/h (2 Bft)
07.09.2017 00:37 11,7 °C 11,7 °C 88 % 1017,3 hPa 0,0 mm 3,9 km/h (1 Bft) S 188 ° 0 min 0,000 mm 0,0 UV-I 0 W/m² 9,8 °C 11,7 °C 6,4 km/h (2 Bft)
07.09.2017 00:38 11,7 °C 11,7 °C 88 % 1017,3 hPa 0,0 mm 2,2 km/h (1 Bft) S 189 ° 0 min 0,000 mm 0,0 UV-I 0 W/m² 9,8 °C 11,7 °C 4,8 km/h (1 Bft)
07.09.2017 00:39 11,7 °C 11,7 °C 88 % 1017,4 hPa 0,0 mm 2,4 km/h (1 Bft) S-SW 192 ° 0 min 0,000 mm 0,0 UV-I 0 W/m² 9,8 °C 11,7 °C 8,0 km/h (2 Bft)
07.09.2017 00:40 11,7 °C 11,8 °C 88 % 1017,3 hPa 0,0 mm 2,8 km/h (1 Bft) S-SW 193 ° 0 min 0,000 mm 0,0 UV-I 0 W/m² 9,8 °C 11,7 °C 8,0 km/h (2 Bft)
07.09.2017 00:41 11,7 °C 11,7 °C 88 % 1017,3 hPa 0,0 mm 4,0 km/h (1 Bft) S 187 ° 0 min 0,000 mm 0,0 UV-I 0 W/m² 9,8 °C 11,7 °C 8,0 km/h (2 Bft)
07.09.2017 00:42 11,8 °C 11,8 °C 87 % 1017,3 hPa 0,0 mm 2,6 km/h (1 Bft) W-SW 246 ° 0 min 0,000 mm 0,0 UV-I 0 W/m² 9,7 °C 11,8 °C 4,8 km/h (1 Bft)
07.09.2017 00:43 11,8 °C 11,8 °C 87 % 1017,3 hPa 0,0 mm 2,1 km/h (1 Bft) W-SW 254 ° 0 min 0,000 mm 0,0 UV-I 0 W/m² 9,7 °C 11,8 °C 4,8 km/h (1 Bft)
07.09.2017 00:44 11,8 °C 11,8 °C 87 % 1017,3 hPa 0,0 mm 4,5 km/h (1 Bft) S-SW 194 ° 0 min 0,000 mm 0,0 UV-I 0 W/m² 9,7 °C 11,8 °C 8,0 km/h (2 Bft)
07.09.2017 00:45 11,8 °C 11,8 °C 87 % 1017,3 hPa 0,0 mm 2,0 km/h (1 Bft) SW 223 ° 0 min 0,000 mm 0,0 UV-I 0 W/m² 9,7 °C 11,8 °C 4,8 km/h (1 Bft)
07.09.2017 00:46 11,8 °C 11,8 °C 87 % 1017,3 hPa 0,0 mm 3,5 km/h (1 Bft) S-SW 205 ° 0 min 0,000 mm 0,0 UV-I 0 W/m² 9,7 °C 11,8 °C 4,8 km/h (1 Bft)
07.09.2017 00:47 11,8 °C 11,8 °C 87 % 1017,3 hPa 0,0 mm 2,3 km/h (1 Bft) W-SW 257 ° 0 min 0,000 mm 0,0 UV-I 0 W/m² 9,7 °C 11,8 °C 6,4 km/h (2 Bft)
07.09.2017 00:48 11,8 °C 11,8 °C 87 % 1017,3 hPa 0,0 mm 1,3 km/h (1 Bft) W 259 ° 0 min 0,000 mm 0,0 UV-I 0 W/m² 9,7 °C 11,8 °C 3,2 km/h (1 Bft)
07.09.2017 00:49 11,8 °C 11,8 °C 87 % 1017,3 hPa 0,0 mm 3,3 km/h (1 Bft) SW 219 ° 0 min 0,000 mm 0,0 UV-I 0 W/m² 9,7 °C 11,8 °C 6,4 km/h (2 Bft)
07.09.2017 00:50 11,8 °C 11,8 °C 87 % 1017,3 hPa 0,0 mm 4,2 km/h (1 Bft) SW 216 ° 0 min 0,000 mm 0,0 UV-I 0 W/m² 9,7 °C 11,8 °C 6,4 km/h (2 Bft)
07.09.2017 00:51 11,8 °C 11,8 °C 87 % 1017,3 hPa 0,0 mm 5,6 km/h (1 Bft) SW 232 ° 0 min 0,000 mm 0,0 UV-I 0 W/m² 9,7 °C 11,8 °C 12,9 km/h (3 Bft)
07.09.2017 00:52 11,8 °C 11,8 °C 87 % 1017,3 hPa 0,0 mm 4,6 km/h (1 Bft) S-SW 207 ° 0 min 0,000 mm 0,0 UV-I 0 W/m² 9,7 °C 11,8 °C 11,3 km/h (2 Bft)
07.09.2017 00:53 11,8 °C 11,8 °C 87 % 1017,3 hPa 0,0 mm 2,8 km/h (1 Bft) W-SW 256 ° 0 min 0,000 mm 0,0 UV-I 0 W/m² 9,7 °C 11,8 °C 6,4 km/h (2 Bft)
07.09.2017 00:54 11,8 °C 11,8 °C 87 % 1017,3 hPa 0,0 mm 3,2 km/h (1 Bft) W 281 ° 0 min 0,000 mm 0,0 UV-I 0 W/m² 9,7 °C 11,8 °C 6,4 km/h (2 Bft)
07.09.2017 00:55 11,8 °C 11,8 °C 88 % 1017,3 hPa 0,0 mm 4,6 km/h (1 Bft) W 261 ° 0 min 0,000 mm 0,0 UV-I 0 W/m² 9,9 °C 11,8 °C 6,4 km/h (2 Bft)
07.09.2017 00:56 11,8 °C 11,8 °C 88 % 1017,3 hPa 0,0 mm 3,5 km/h (1 Bft) W-SW 254 ° 0 min 0,000 mm 0,0 UV-I 0 W/m² 9,9 °C 11,8 °C 6,4 km/h (2 Bft)
07.09.2017 00:57 11,8 °C 11,8 °C 88 % 1017,3 hPa 0,0 mm 2,7 km/h (1 Bft) W-SW 238 ° 0 min 0,000 mm 0,0 UV-I 0 W/m² 9,9 °C 11,8 °C 6,4 km/h (2 Bft)
07.09.2017 00:58 11,8 °C 11,8 °C 88 % 1017,3 hPa 0,0 mm 4,2 km/h (1 Bft) SW 221 ° 0 min 0,000 mm 0,0 UV-I 0 W/m² 9,9 °C 11,8 °C 9,7 km/h (2 Bft)
07.09.2017 00:59 11,7 °C 11,8 °C 88 % 1017,4 hPa 0,0 mm 5,1 km/h (1 Bft) S-SW 198 ° 0 min 0,000 mm 0,0 UV-I 0 W/m² 9,8 °C 11,7 °C 11,3 km/h (2 Bft)
07.09.2017 01:00 11,8 °C 11,8 °C 88 % 1017,3 hPa 0,0 mm 1,5 km/h (1 Bft) S-SW 198 ° 0 min 0,000 mm 0,0 UV-I 0 W/m² 9,9 °C 11,8 °C 3,2 km/h (1 Bft)
07.09.2017 01:01 11,7 °C 11,8 °C 88 % 1017,4 hPa 0,0 mm 4,1 km/h (1 Bft) W-SW 246 ° 0 min 0,025 mm 0,0 UV-I 0 W/m² 9,8 °C 11,7 °C 6,4 km/h (2 Bft)
07.09.2017 01:02 11,8 °C 11,8 °C 88 % 1017,3 hPa 0,0 mm 3,0 km/h (1 Bft) W 266 ° 0 min 0,000 mm 0,0 UV-I 0 W/m² 9,9 °C 11,8 °C 6,4 km/h (2 Bft)
07.09.2017 01:03 11,8 °C 11,8 °C 88 % 1017,4 hPa 0,0 mm 2,7 km/h (1 Bft) SW 232 ° 0 min 0,000 mm 0,0 UV-I 0 W/m² 9,9 °C 11,8 °C 6,4 km/h (2 Bft)
07.09.2017 01:04 11,7 °C 11,8 °C 88 % 1017,4 hPa 0,0 mm 3,3 km/h (1 Bft) SW 219 ° 0 min 0,000 mm 0,0 UV-I 0 W/m² 9,8 °C 11,7 °C 6,4 km/h (2 Bft)
07.09.2017 01:05 11,7 °C 11,8 °C 89 % 1017,4 hPa 0,0 mm 7,4 km/h (2 Bft) SW 232 ° 0 min 0,000 mm 0,0 UV-I 0 W/m² 9,9 °C 11,7 °C 12,9 km/h (3 Bft)
07.09.2017 01:06 11,7 °C 11,8 °C 89 % 1017,3 hPa 0,0 mm 1,9 km/h (1 Bft) SW 234 ° 0 min 0,000 mm 0,0 UV-I 0 W/m² 9,9 °C 11,7 °C 4,8 km/h (1 Bft)
07.09.2017 01:07 11,7 °C 11,7 °C 88 % 1017,4 hPa 0,0 mm 6,9 km/h (2 Bft) SW 222 ° 0 min 0,000 mm 0,0 UV-I 0 W/m² 9,8 °C 11,7 °C 11,3 km/h (2 Bft)
07.09.2017 01:08 11,7 °C 11,8 °C 89 % 1017,4 hPa 0,0 mm 5,4 km/h (1 Bft) W-SW 257 ° 0 min 0,000 mm 0,0 UV-I 0 W/m² 9,9 °C 11,7 °C 12,9 km/h (3 Bft)
07.09.2017 01:09 11,7 °C 11,7 °C 88 % 1017,4 hPa 0,0 mm 0,9 km/h (0 Bft) W-SW 241 ° 0 min 0,000 mm 0,0 UV-I 0 W/m² 9,8 °C 11,7 °C 3,2 km/h (1 Bft)
07.09.2017 01:10 11,7 °C 11,7 °C 89 % 1017,4 hPa 0,0 mm 2,7 km/h (1 Bft) W-SW 245 ° 0 min 0,000 mm 0,0 UV-I 0 W/m² 9,9 °C 11,7 °C 6,4 km/h (2 Bft)
07.09.2017 01:11 11,7 °C 11,7 °C 88 % 1017,3 hPa 0,2 mm 5,4 km/h (1 Bft) W-SW 250 ° 0 min 0,000 mm 0,0 UV-I 0 W/m² 9,8 °C 11,7 °C 8,0 km/h (2 Bft)
07.09.2017 01:12 11,7 °C 11,7 °C 89 % 1017,4 hPa 0,0 mm 5,6 km/h (1 Bft) W-SW 256 ° 0 min 0,000 mm 0,0 UV-I 0 W/m² 9,9 °C 11,7 °C 8,0 km/h (2 Bft)
07.09.2017 01:13 11,7 °C 11,7 °C 89 % 1017,4 hPa 0,0 mm 3,7 km/h (1 Bft) W-NW 284 ° 0 min 0,000 mm 0,0 UV-I 0 W/m² 9,9 °C 11,7 °C 8,0 km/h (2 Bft)
07.09.2017 01:14 11,7 °C 11,7 °C 89 % 1017,4 hPa 0,0 mm 3,8 km/h (1 Bft) W-SW 248 ° 0 min 0,000 mm 0,0 UV-I 0 W/m² 9,9 °C 11,7 °C 6,4 km/h (2 Bft)
07.09.2017 01:15 11,6 °C 11,7 °C 89 % 1017,4 hPa 0,0 mm 2,7 km/h (1 Bft) S-SW 213 ° 0 min 0,000 mm 0,0 UV-I 0 W/m² 9,8 °C 11,6 °C 4,8 km/h (1 Bft)
07.09.2017 01:16 11,6 °C 11,7 °C 89 % 1017,5 hPa 0,0 mm 4,7 km/h (1 Bft) W-SW 253 ° 0 min 0,000 mm 0,0 UV-I 0 W/m² 9,8 °C 11,6 °C 8,0 km/h (2 Bft)
07.09.2017 01:17 11,6 °C 11,6 °C 89 % 1017,4 hPa 0,0 mm 5,4 km/h (1 Bft) SW 223 ° 0 min 0,000 mm 0,0 UV-I 0 W/m² 9,8 °C 11,6 °C 11,3 km/h (2 Bft)
07.09.2017 01:18 11,6 °C 11,6 °C 89 % 1017,4 hPa 0,0 mm 4,2 km/h (1 Bft) W-NW 300 ° 0 min 0,000 mm 0,0 UV-I 0 W/m² 9,8 °C 11,6 °C 11,3 km/h (2 Bft)
07.09.2017 01:19 11,6 °C 11,6 °C 89 % 1017,4 hPa 0,0 mm 4,0 km/h (1 Bft) W-SW 247 ° 0 min 0,000 mm 0,0 UV-I 0 W/m² 9,8 °C 11,6 °C 8,0 km/h (2 Bft)
07.09.2017 01:20 11,6 °C 11,6 °C 89 % 1017,3 hPa 0,0 mm 6,0 km/h (2 Bft) W 267 ° 0 min 0,000 mm 0,0 UV-I 0 W/m² 9,8 °C 11,6 °C 9,7 km/h (2 Bft)
07.09.2017 01:21 11,6 °C 11,6 °C 89 % 1017,3 hPa 0,0 mm 5,2 km/h (1 Bft) W-SW 252 ° 0 min 0,000 mm 0,0 UV-I 0 W/m² 9,8 °C 11,6 °C 6,4 km/h (2 Bft)
07.09.2017 01:22 11,6 °C 11,6 °C 89 % 1017,4 hPa 0,0 mm 3,8 km/h (1 Bft) W 260 ° 0 min 0,000 mm 0,0 UV-I 0 W/m² 9,8 °C 11,6 °C 6,4 km/h (2 Bft)
07.09.2017 01:23 11,6 °C 11,6 °C 89 % 1017,4 hPa 0,0 mm 9,8 km/h (2 Bft) W-SW 252 ° 0 min 0,000 mm 0,0 UV-I 0 W/m² 9,8 °C 11,6 °C 14,5 km/h (3 Bft)
07.09.2017 01:24 11,6 °C 11,6 °C 88 % 1017,4 hPa 0,0 mm 5,6 km/h (1 Bft) W-SW 248 ° 0 min 0,000 mm 0,0 UV-I 0 W/m² 9,7 °C 11,6 °C 12,9 km/h (3 Bft)
07.09.2017 01:25 11,6 °C 11,6 °C 89 % 1017,5 hPa 0,0 mm 5,0 km/h (1 Bft) W-SW 248 ° 0 min 0,000 mm 0,0 UV-I 0 W/m² 9,8 °C 11,6 °C 11,3 km/h (2 Bft)
07.09.2017 01:26 11,5 °C 11,6 °C 89 % 1017,5 hPa 0,0 mm 4,1 km/h (1 Bft) W 262 ° 0 min 0,000 mm 0,0 UV-I 0 W/m² 9,8 °C 11,5 °C 6,4 km/h (2 Bft)
07.09.2017 01:27 11,4 °C 11,5 °C 89 % 1017,4 hPa 0,0 mm 6,1 km/h (2 Bft) W-SW 237 ° 0 min 0,000 mm 0,0 UV-I 0 W/m² 9,7 °C 11,4 °C 9,7 km/h (2 Bft)
07.09.2017 01:28 11,4 °C 11,4 °C 89 % 1017,5 hPa 0,0 mm 5,3 km/h (1 Bft) W-SW 253 ° 0 min 0,000 mm 0,0 UV-I 0 W/m² 9,7 °C 11,4 °C 9,7 km/h (2 Bft)
07.09.2017 01:29 11,4 °C 11,4 °C 89 % 1017,5 hPa 0,0 mm 5,7 km/h (1 Bft) SW 225 ° 0 min 0,000 mm 0,0 UV-I 0 W/m² 9,7 °C 11,4 °C 12,9 km/h (3 Bft)
07.09.2017 01:30 11,4 °C 11,4 °C 89 % 1017,5 hPa 0,0 mm 6,5 km/h (2 Bft) W-SW 239 ° 0 min 0,000 mm 0,0 UV-I 0 W/m² 9,7 °C 11,4 °C 11,3 km/h (2 Bft)
07.09.2017 01:31 11,3 °C 11,4 °C 89 % 1017,4 hPa 0,0 mm 8,2 km/h (2 Bft) W-SW 250 ° 0 min 0,000 mm 0,0 UV-I 0 W/m² 9,6 °C 11,3 °C 12,9 km/h (3 Bft)
07.09.2017 01:32 11,3 °C 11,3 °C 89 % 1017,4 hPa 0,0 mm 4,4 km/h (1 Bft) W-SW 238 ° 0 min 0,000 mm 0,0 UV-I 0 W/m² 9,6 °C 11,3 °C 6,4 km/h (2 Bft)
07.09.2017 01:33 11,3 °C 11,3 °C 89 % 1017,4 hPa 0,0 mm 2,3 km/h (1 Bft) W-SW 252 ° 0 min 0,000 mm 0,0 UV-I 0 W/m² 9,6 °C 11,3 °C 4,8 km/h (1 Bft)
07.09.2017 01:34 11,3 °C 11,3 °C 89 % 1017,4 hPa 0,0 mm 3,6 km/h (1 Bft) SW 229 ° 0 min 0,000 mm 0,0 UV-I 0 W/m² 9,6 °C 11,3 °C 8,0 km/h (2 Bft)
07.09.2017 01:35 11,3 °C 11,3 °C 89 % 1017,4 hPa 0,2 mm 5,5 km/h (1 Bft) S-SW 194 ° 0 min 0,000 mm 0,0 UV-I 0 W/m² 9,6 °C 11,3 °C 9,7 km/h (2 Bft)
07.09.2017 01:36 11,3 °C 11,3 °C 89 % 1017,4 hPa 0,0 mm 3,0 km/h (1 Bft) SW 225 ° 0 min 0,000 mm 0,0 UV-I 0 W/m² 9,6 °C 11,3 °C 4,8 km/h (1 Bft)
07.09.2017 01:37 11,3 °C 11,3 °C 89 % 1017,4 hPa 0,0 mm 8,3 km/h (2 Bft) S-SW 212 ° 0 min 0,000 mm 0,0 UV-I 0 W/m² 9,6 °C 11,3 °C 17,7 km/h (3 Bft)
07.09.2017 01:38 11,3 °C 11,3 °C 89 % 1017,5 hPa 0,0 mm 3,0 km/h (1 Bft) SW 221 ° 0 min 0,000 mm 0,0 UV-I 0 W/m² 9,6 °C 11,3 °C 4,8 km/h (1 Bft)
07.09.2017 01:39 11,3 °C 11,3 °C 89 % 1017,5 hPa 0,0 mm 3,1 km/h (1 Bft) SW 230 ° 0 min 0,000 mm 0,0 UV-I 0 W/m² 9,6 °C 11,3 °C 6,4 km/h (2 Bft)
07.09.2017 01:40 11,3 °C 11,3 °C 89 % 1017,5 hPa 0,0 mm 2,9 km/h (1 Bft) W-SW 254 ° 0 min 0,000 mm 0,0 UV-I 0 W/m² 9,6 °C 11,3 °C 4,8 km/h (1 Bft)
07.09.2017 01:41 11,3 °C 11,3 °C 89 % 1017,4 hPa 0,0 mm 4,4 km/h (1 Bft) W 263 ° 0 min 0,000 mm 0,0 UV-I 0 W/m² 9,6 °C 11,3 °C 6,4 km/h (2 Bft)
07.09.2017 01:42 11,3 °C 11,3 °C 89 % 1017,4 hPa 0,0 mm 1,4 km/h (1 Bft) W 260 ° 0 min 0,000 mm 0,0 UV-I 0 W/m² 9,6 °C 11,3 °C 4,8 km/h (1 Bft)
07.09.2017 01:43 11,2 °C 11,3 °C 89 % 1017,4 hPa 0,0 mm 2,2 km/h (1 Bft) W 271 ° 0 min 0,000 mm 0,0 UV-I 0 W/m² 9,5 °C 11,2 °C 3,2 km/h (1 Bft)
07.09.2017 01:44 11,2 °C 11,3 °C 88 % 1017,4 hPa 0,0 mm 5,0 km/h (1 Bft) W-SW 252 ° 0 min 0,000 mm 0,0 UV-I 0 W/m² 9,3 °C 11,2 °C 9,7 km/h (2 Bft)
07.09.2017 01:45 11,2 °C 11,3 °C 89 % 1017,3 hPa 0,0 mm 5,5 km/h (1 Bft) W-SW 241 ° 0 min 0,000 mm 0,0 UV-I 0 W/m² 9,5 °C 11,2 °C 8,0 km/h (2 Bft)
07.09.2017 01:46 11,2 °C 11,3 °C 88 % 1017,3 hPa 0,0 mm 3,3 km/h (1 Bft) W 276 ° 0 min 0,000 mm 0,0 UV-I 0 W/m² 9,3 °C 11,2 °C 8,0 km/h (2 Bft)
07.09.2017 01:47 11,2 °C 11,2 °C 88 % 1017,3 hPa 0,0 mm 3,0 km/h (1 Bft) W-SW 258 ° 0 min 0,000 mm 0,0 UV-I 0 W/m² 9,3 °C 11,2 °C 6,4 km/h (2 Bft)
07.09.2017 01:48 11,2 °C 11,2 °C 88 % 1017,4 hPa 0,0 mm 3,7 km/h (1 Bft) W-SW 254 ° 0 min 0,000 mm 0,0 UV-I 0 W/m² 9,3 °C 11,2 °C 6,4 km/h (2 Bft)
07.09.2017 01:49 11,2 °C 11,2 °C 88 % 1017,4 hPa 0,0 mm 6,6 km/h (2 Bft) S-SW 209 ° 0 min 0,000 mm 0,0 UV-I 0 W/m² 9,3 °C 11,2 °C 11,3 km/h (2 Bft)
07.09.2017 01:50 11,2 °C 11,2 °C 88 % 1017,4 hPa 0,0 mm 4,4 km/h (1 Bft) S-SW 198 ° 0 min 0,000 mm 0,0 UV-I 0 W/m² 9,3 °C 11,2 °C 12,9 km/h (3 Bft)
07.09.2017 01:51 11,2 °C 11,2 °C 88 % 1017,3 hPa 0,0 mm 3,2 km/h (1 Bft) SW 227 ° 0 min 0,000 mm 0,0 UV-I 0 W/m² 9,3 °C 11,2 °C 4,8 km/h (1 Bft)
07.09.2017 01:52 11,2 °C 11,2 °C 88 % 1017,3 hPa 0,0 mm 4,0 km/h (1 Bft) S-SW 194 ° 0 min 0,000 mm 0,0 UV-I 0 W/m² 9,3 °C 11,2 °C 6,4 km/h (2 Bft)
07.09.2017 01:53 11,2 °C 11,2 °C 88 % 1017,3 hPa 0,0 mm 2,0 km/h (1 Bft) S-SW 196 ° 0 min 0,000 mm 0,0 UV-I 0 W/m² 9,3 °C 11,2 °C 4,8 km/h (1 Bft)
07.09.2017 01:54 11,2 °C 11,2 °C 88 % 1017,3 hPa 0,0 mm 0,8 km/h (0 Bft) W-SW 239 ° 0 min 0,000 mm 0,0 UV-I 0 W/m² 9,3 °C 11,2 °C 4,8 km/h (1 Bft)
07.09.2017 01:55 11,2 °C 11,2 °C 88 % 1017,3 hPa 0,0 mm 9,7 km/h (2 Bft) SW 231 ° 0 min 0,000 mm 0,0 UV-I 0 W/m² 9,3 °C 11,2 °C 19,3 km/h (3 Bft)
07.09.2017 01:56 11,2 °C 11,2 °C 88 % 1017,3 hPa 0,0 mm 6,0 km/h (2 Bft) SW 225 ° 0 min 0,000 mm 0,0 UV-I 0 W/m² 9,3 °C 11,2 °C 11,3 km/h (2 Bft)
07.09.2017 01:57 11,2 °C 11,2 °C 88 % 1017,3 hPa 0,0 mm 3,0 km/h (1 Bft) W-SW 237 ° 0 min 0,000 mm 0,0 UV-I 0 W/m² 9,3 °C 11,2 °C 4,8 km/h (1 Bft)
07.09.2017 01:58 11,2 °C 11,2 °C 88 % 1017,3 hPa 0,0 mm 2,4 km/h (1 Bft) SW 232 ° 0 min 0,000 mm 0,0 UV-I 0 W/m² 9,3 °C 11,2 °C 4,8 km/h (1 Bft)
07.09.2017 01:59 11,1 °C 11,2 °C 88 % 1017,3 hPa 0,0 mm 0,8 km/h (0 Bft) SW 232 ° 0 min 0,000 mm 0,0 UV-I 0 W/m² 9,2 °C 11,1 °C 1,6 km/h (1 Bft)
07.09.2017 02:00 11,1 °C 11,1 °C 88 % 1017,3 hPa 0,0 mm 5,9 km/h (2 Bft) S-SW 198 ° 0 min 0,000 mm 0,0 UV-I 0 W/m² 9,2 °C 11,1 °C 9,7 km/h (2 Bft)
07.09.2017 02:01 11,1 °C 11,1 °C 88 % 1017,3 hPa 0,0 mm 7,3 km/h (2 Bft) S-SW 211 ° 0 min 0,000 mm 0,0 UV-I 0 W/m² 9,2 °C 11,1 °C 12,9 km/h (3 Bft)
07.09.2017 02:02 11,1 °C 11,1 °C 87 % 1017,3 hPa 0,0 mm 3,0 km/h (1 Bft) SW 229 ° 0 min 0,000 mm 0,0 UV-I 0 W/m² 9,0 °C 11,1 °C 4,8 km/h (1 Bft)
07.09.2017 02:03 11,1 °C 11,1 °C 87 % 1017,3 hPa 0,0 mm 2,1 km/h (1 Bft) SW 225 ° 0 min 0,000 mm 0,0 UV-I 0 W/m² 9,0 °C 11,1 °C 4,8 km/h (1 Bft)
07.09.2017 02:04 11,1 °C 11,1 °C 87 % 1017,3 hPa 0,0 mm 2,3 km/h (1 Bft) SW 219 ° 0 min 0,000 mm 0,0 UV-I 0 W/m² 9,0 °C 11,1 °C 4,8 km/h (1 Bft)
07.09.2017 02:05 11,1 °C 11,1 °C 88 % 1017,3 hPa 0,0 mm 2,9 km/h (1 Bft) W 266 ° 0 min 0,000 mm 0,0 UV-I 0 W/m² 9,2 °C 11,1 °C 9,7 km/h (2 Bft)
07.09.2017 02:06 11,1 °C 11,1 °C 87 % 1017,3 hPa 0,0 mm 3,7 km/h (1 Bft) W-SW 238 ° 0 min 0,000 mm 0,0 UV-I 0 W/m² 9,0 °C 11,1 °C 9,7 km/h (2 Bft)
07.09.2017 02:07 11,0 °C 11,1 °C 87 % 1017,3 hPa 0,0 mm 5,0 km/h (1 Bft) W 274 ° 0 min 0,000 mm 0,0 UV-I 0 W/m² 8,9 °C 11,0 °C 9,7 km/h (2 Bft)
07.09.2017 02:08 11,0 °C 11,1 °C 88 % 1017,3 hPa 0,0 mm 3,8 km/h (1 Bft) W-SW 238 ° 0 min 0,000 mm 0,0 UV-I 0 W/m² 9,1 °C 11,0 °C 9,7 km/h (2 Bft)
07.09.2017 02:09 11,0 °C 11,1 °C 88 % 1017,3 hPa 0,0 mm 4,1 km/h (1 Bft) W 267 ° 0 min 0,000 mm 0,0 UV-I 0 W/m² 9,1 °C 11,0 °C 6,4 km/h (2 Bft)
07.09.2017 02:10 11,0 °C 11,0 °C 88 % 1017,3 hPa 0,2 mm 2,5 km/h (1 Bft) W-NW 291 ° 0 min 0,000 mm 0,0 UV-I 0 W/m² 9,1 °C 11,0 °C 3,2 km/h (1 Bft)
07.09.2017 02:11 10,9 °C 11,0 °C 88 % 1017,2 hPa 0,0 mm 3,0 km/h (1 Bft) W-NW 282 ° 0 min 0,000 mm 0,0 UV-I 0 W/m² 9,0 °C 10,9 °C 4,8 km/h (1 Bft)
07.09.2017 02:12 10,9 °C 10,9 °C 88 % 1017,3 hPa 0,0 mm 4,6 km/h (1 Bft) SW 224 ° 0 min 0,000 mm 0,0 UV-I 0 W/m² 9,0 °C 10,9 °C 6,4 km/h (2 Bft)
07.09.2017 02:13 10,9 °C 10,9 °C 88 % 1017,3 hPa 0,0 mm 1,7 km/h (1 Bft) SW 224 ° 0 min 0,000 mm 0,0 UV-I 0 W/m² 9,0 °C 10,9 °C 3,2 km/h (1 Bft)
07.09.2017 02:14 10,9 °C 10,9 °C 88 % 1017,3 hPa 0,0 mm 4,9 km/h (1 Bft) S-SW 211 ° 0 min 0,000 mm 0,0 UV-I 0 W/m² 9,0 °C 10,9 °C 11,3 km/h (2 Bft)
07.09.2017 02:15 10,8 °C 10,9 °C 89 % 1017,3 hPa 0,0 mm 2,1 km/h (1 Bft) SW 221 ° 0 min 0,000 mm 0,0 UV-I 0 W/m² 9,1 °C 10,8 °C 4,8 km/h (1 Bft)
07.09.2017 02:16 10,8 °C 10,8 °C 88 % 1017,3 hPa 0,0 mm 2,5 km/h (1 Bft) S-SW 204 ° 0 min 0,000 mm 0,0 UV-I 0 W/m² 8,9 °C 10,8 °C 6,4 km/h (2 Bft)
07.09.2017 02:17 10,8 °C 10,8 °C 88 % 1017,2 hPa 0,0 mm 5,4 km/h (1 Bft) S-SW 198 ° 0 min 0,000 mm 0,0 UV-I 0 W/m² 8,9 °C 10,8 °C 8,0 km/h (2 Bft)
07.09.2017 02:18 10,8 °C 10,8 °C 88 % 1017,2 hPa 0,0 mm 3,3 km/h (1 Bft) W-SW 253 ° 0 min 0,000 mm 0,0 UV-I 0 W/m² 8,9 °C 10,8 °C 4,8 km/h (1 Bft)
07.09.2017 02:19 10,8 °C 10,9 °C 88 % 1017,2 hPa 0,0 mm 3,3 km/h (1 Bft) W-SW 250 ° 0 min 0,000 mm 0,0 UV-I 0 W/m² 8,9 °C 10,8 °C 4,8 km/h (1 Bft)
07.09.2017 02:20 10,8 °C 10,8 °C 88 % 1017,2 hPa 0,0 mm 4,2 km/h (1 Bft) W-SW 243 ° 0 min 0,000 mm 0,0 UV-I 0 W/m² 8,9 °C 10,8 °C 8,0 km/h (2 Bft)
07.09.2017 02:21 10,8 °C 10,8 °C 88 % 1017,2 hPa 0,0 mm 1,8 km/h (1 Bft) W-SW 240 ° 0 min 0,000 mm 0,0 UV-I 0 W/m² 8,9 °C 10,8 °C 3,2 km/h (1 Bft)
07.09.2017 02:22 10,8 °C 10,8 °C 88 % 1017,2 hPa 0,0 mm 5,3 km/h (1 Bft) W-SW 242 ° 0 min 0,000 mm 0,0 UV-I 0 W/m² 8,9 °C 10,8 °C 8,0 km/h (2 Bft)
07.09.2017 02:23 10,8 °C 10,8 °C 88 % 1017,2 hPa 0,0 mm 0,9 km/h (0 Bft) W-SW 238 ° 0 min 0,000 mm 0,0 UV-I 0 W/m² 8,9 °C 10,8 °C 3,2 km/h (1 Bft)
07.09.2017 02:24 10,8 °C 10,9 °C 88 % 1017,2 hPa 0,0 mm 5,2 km/h (1 Bft) SW 236 ° 0 min 0,000 mm 0,0 UV-I 0 W/m² 8,9 °C 10,8 °C 11,3 km/h (2 Bft)
07.09.2017 02:25 10,8 °C 10,8 °C 88 % 1017,2 hPa 0,0 mm 4,3 km/h (1 Bft) SW 233 ° 0 min 0,000 mm 0,0 UV-I 0 W/m² 8,9 °C 10,8 °C 8,0 km/h (2 Bft)
07.09.2017 02:26 10,8 °C 10,8 °C 88 % 1017,2 hPa 0,0 mm 2,6 km/h (1 Bft) SW 234 ° 0 min 0,000 mm 0,0 UV-I 0 W/m² 8,9 °C 10,8 °C 4,8 km/h (1 Bft)
07.09.2017 02:27 10,8 °C 10,8 °C 88 % 1017,2 hPa 0,0 mm 4,5 km/h (1 Bft) W 259 ° 0 min 0,000 mm 0,0 UV-I 0 W/m² 8,9 °C 10,8 °C 6,4 km/h (2 Bft)
07.09.2017 02:28 10,8 °C 10,8 °C 88 % 1017,2 hPa 0,0 mm 3,6 km/h (1 Bft) SW 229 ° 0 min 0,000 mm 0,0 UV-I 0 W/m² 8,9 °C 10,8 °C 6,4 km/h (2 Bft)
07.09.2017 02:29 10,8 °C 10,8 °C 88 % 1017,2 hPa 0,0 mm 3,4 km/h (1 Bft) SW 236 ° 0 min 0,000 mm 0,0 UV-I 0 W/m² 8,9 °C 10,8 °C 8,0 km/h (2 Bft)
07.09.2017 02:30 10,8 °C 10,8 °C 88 % 1017,2 hPa 0,0 mm 3,8 km/h (1 Bft) W-SW 247 ° 0 min 0,000 mm 0,0 UV-I 0 W/m² 8,9 °C 10,8 °C 8,0 km/h (2 Bft)
07.09.2017 02:31 10,8 °C 10,8 °C 88 % 1017,2 hPa 0,0 mm 2,3 km/h (1 Bft) W 269 ° 0 min 0,000 mm 0,0 UV-I 0 W/m² 8,9 °C 10,8 °C 4,8 km/h (1 Bft)
07.09.2017 02:32 10,8 °C 10,8 °C 88 % 1017,2 hPa 0,0 mm 3,9 km/h (1 Bft) SW 227 ° 0 min 0,000 mm 0,0 UV-I 0 W/m² 8,9 °C 10,8 °C 8,0 km/h (2 Bft)
07.09.2017 02:33 10,9 °C 10,9 °C 88 % 1017,1 hPa 0,0 mm 1,8 km/h (1 Bft) W 259 ° 0 min 0,000 mm 0,0 UV-I 0 W/m² 9,0 °C 10,9 °C 4,8 km/h (1 Bft)
07.09.2017 02:34 10,8 °C 10,9 °C 88 % 1017,2 hPa 0,0 mm 3,1 km/h (1 Bft) SW 232 ° 0 min 0,000 mm 0,0 UV-I 0 W/m² 8,9 °C 10,8 °C 6,4 km/h (2 Bft)
07.09.2017 02:35 10,8 °C 10,8 °C 88 % 1017,1 hPa 0,0 mm 0,7 km/h (0 Bft) SW 232 ° 0 min 0,000 mm 0,0 UV-I 0 W/m² 8,9 °C 10,8 °C 3,2 km/h (1 Bft)
07.09.2017 02:36 10,8 °C 10,9 °C 88 % 1017,1 hPa 0,0 mm 4,0 km/h (1 Bft) SW 224 ° 0 min 0,000 mm 0,0 UV-I 0 W/m² 8,9 °C 10,8 °C 11,3 km/h (2 Bft)
07.09.2017 02:37 10,8 °C 10,8 °C 88 % 1017,1 hPa 0,0 mm 2,7 km/h (1 Bft) SW 227 ° 0 min 0,000 mm 0,0 UV-I 0 W/m² 8,9 °C 10,8 °C 4,8 km/h (1 Bft)
07.09.2017 02:38 10,8 °C 10,8 °C 88 % 1017,2 hPa 0,0 mm 1,5 km/h (1 Bft) SW 227 ° 0 min 0,000 mm 0,0 UV-I 0 W/m² 8,9 °C 10,8 °C 3,2 km/h (1 Bft)
07.09.2017 02:39 10,8 °C 10,8 °C 88 % 1017,1 hPa 0,0 mm 2,2 km/h (1 Bft) SW 219 ° 0 min 0,000 mm 0,0 UV-I 0 W/m² 8,9 °C 10,8 °C 6,4 km/h (2 Bft)
07.09.2017 02:40 10,8 °C 10,8 °C 88 % 1017,1 hPa 0,0 mm 6,2 km/h (2 Bft) W-SW 247 ° 0 min 0,000 mm 0,0 UV-I 0 W/m² 8,9 °C 10,8 °C 9,7 km/h (2 Bft)
07.09.2017 02:41 10,8 °C 10,8 °C 88 % 1017,2 hPa 0,0 mm 4,1 km/h (1 Bft) W 275 ° 0 min 0,000 mm 0,0 UV-I 0 W/m² 8,9 °C 10,8 °C 6,4 km/h (2 Bft)
07.09.2017 02:42 10,8 °C 10,8 °C 88 % 1017,2 hPa 0,0 mm 7,1 km/h (2 Bft) W 272 ° 0 min 0,000 mm 0,0 UV-I 0 W/m² 8,9 °C 10,8 °C 12,9 km/h (3 Bft)
07.09.2017 02:43 10,8 °C 10,8 °C 88 % 1017,1 hPa 0,0 mm 7,6 km/h (2 Bft) W 263 ° 0 min 0,000 mm 0,0 UV-I 0 W/m² 8,9 °C 10,8 °C 12,9 km/h (3 Bft)
07.09.2017 02:44 10,8 °C 10,8 °C 88 % 1017,1 hPa 0,0 mm 5,0 km/h (1 Bft) W 272 ° 0 min 0,000 mm 0,0 UV-I 0 W/m² 8,9 °C 10,8 °C 9,7 km/h (2 Bft)
07.09.2017 02:45 10,8 °C 10,8 °C 88 % 1017,2 hPa 0,0 mm 4,0 km/h (1 Bft) W 264 ° 0 min 0,000 mm 0,0 UV-I 0 W/m² 8,9 °C 10,8 °C 6,4 km/h (2 Bft)
07.09.2017 02:46 10,8 °C 10,8 °C 88 % 1017,2 hPa 0,0 mm 5,0 km/h (1 Bft) W-SW 243 ° 0 min 0,000 mm 0,0 UV-I 0 W/m² 8,9 °C 10,8 °C 9,7 km/h (2 Bft)
07.09.2017 02:47 10,8 °C 10,8 °C 88 % 1017,1 hPa 0,0 mm 3,8 km/h (1 Bft) W-SW 250 ° 0 min 0,000 mm 0,0 UV-I 0 W/m² 8,9 °C 10,8 °C 6,4 km/h (2 Bft)
07.09.2017 02:48 10,8 °C 10,8 °C 87 % 1017,2 hPa 0,0 mm 3,4 km/h (1 Bft) W-SW 252 ° 0 min 0,000 mm 0,0 UV-I 0 W/m² 8,7 °C 10,8 °C 6,4 km/h (2 Bft)
07.09.2017 02:49 10,8 °C 10,8 °C 88 % 1017,1 hPa 0,0 mm 3,7 km/h (1 Bft) NW 318 ° 0 min 0,000 mm 0,0 UV-I 0 W/m² 8,9 °C 10,8 °C 6,4 km/h (2 Bft)
07.09.2017 02:50 10,8 °C 10,8 °C 88 % 1017,1 hPa 0,0 mm 6,0 km/h (2 Bft) W-SW 239 ° 0 min 0,000 mm 0,0 UV-I 0 W/m² 8,9 °C 10,8 °C 12,9 km/h (3 Bft)
07.09.2017 02:51 10,7 °C 10,8 °C 88 % 1017,1 hPa 0,0 mm 2,7 km/h (1 Bft) S-SW 194 ° 0 min 0,000 mm 0,0 UV-I 0 W/m² 8,8 °C 10,7 °C 4,8 km/h (1 Bft)
07.09.2017 02:52 10,8 °C 10,8 °C 87 % 1017,1 hPa 0,0 mm 4,6 km/h (1 Bft) S-SW 203 ° 0 min 0,000 mm 0,0 UV-I 0 W/m² 8,7 °C 10,8 °C 11,3 km/h (2 Bft)
07.09.2017 02:53 10,8 °C 10,8 °C 86 % 1017,1 hPa 0,0 mm 1,8 km/h (1 Bft) S 180 ° 0 min 0,000 mm 0,0 UV-I 0 W/m² 8,6 °C 10,8 °C 3,2 km/h (1 Bft)
07.09.2017 02:54 10,8 °C 10,8 °C 86 % 1017,1 hPa 0,0 mm 2,2 km/h (1 Bft) S 180 ° 0 min 0,000 mm 0,0 UV-I 0 W/m² 8,6 °C 10,8 °C 4,8 km/h (1 Bft)
07.09.2017 02:55 10,9 °C 10,9 °C 86 % 1017,1 hPa 0,0 mm 1,7 km/h (1 Bft) S 180 ° 0 min 0,000 mm 0,0 UV-I 0 W/m² 8,7 °C 10,9 °C 3,2 km/h (1 Bft)
07.09.2017 02:56 10,9 °C 10,9 °C 86 % 1017,0 hPa 0,0 mm 4,4 km/h (1 Bft) W 267 ° 0 min 0,000 mm 0,0 UV-I 0 W/m² 8,7 °C 10,9 °C 9,7 km/h (2 Bft)
07.09.2017 02:57 10,9 °C 10,9 °C 86 % 1017,1 hPa 0,0 mm 2,0 km/h (1 Bft) W 263 ° 0 min 0,000 mm 0,0 UV-I 0 W/m² 8,7 °C 10,9 °C 4,8 km/h (1 Bft)
07.09.2017 02:58 10,9 °C 10,9 °C 86 % 1017,1 hPa 0,0 mm 5,5 km/h (1 Bft) S-SW 212 ° 0 min 0,000 mm 0,0 UV-I 0 W/m² 8,7 °C 10,9 °C 9,7 km/h (2 Bft)
07.09.2017 02:59 10,9 °C 10,9 °C 85 % 1017,1 hPa 0,0 mm 5,8 km/h (2 Bft) S-SW 212 ° 0 min 0,000 mm 0,0 UV-I 0 W/m² 8,5 °C 10,9 °C 11,3 km/h (2 Bft)
07.09.2017 03:00 10,9 °C 11,0 °C 85 % 1017,1 hPa 0,0 mm 4,9 km/h (1 Bft) S 191 ° 0 min 0,000 mm 0,0 UV-I 0 W/m² 8,5 °C 10,9 °C 14,5 km/h (3 Bft)
07.09.2017 03:01 11,0 °C 11,0 °C 85 % 1017,1 hPa 0,0 mm 4,1 km/h (1 Bft) SW 227 ° 0 min 0,000 mm 0,0 UV-I 0 W/m² 8,6 °C 11,0 °C 12,9 km/h (3 Bft)
07.09.2017 03:02 11,0 °C 11,0 °C 85 % 1017,1 hPa 0,0 mm 1,1 km/h (1 Bft) SW 227 ° 0 min 0,000 mm 0,0 UV-I 0 W/m² 8,6 °C 11,0 °C 4,8 km/h (1 Bft)
07.09.2017 03:03 11,0 °C 11,0 °C 85 % 1017,1 hPa 0,0 mm 1,8 km/h (1 Bft) S 188 ° 0 min 0,000 mm 0,0 UV-I 0 W/m² 8,6 °C 11,0 °C 4,8 km/h (1 Bft)
07.09.2017 03:04 11,0 °C 11,0 °C 86 % 1017,0 hPa 0,0 mm 4,2 km/h (1 Bft) W 259 ° 0 min 0,000 mm 0,0 UV-I 0 W/m² 8,7 °C 11,0 °C 6,4 km/h (2 Bft)
07.09.2017 03:05 11,0 °C 11,0 °C 86 % 1017,1 hPa 0,0 mm 2,3 km/h (1 Bft) W 260 ° 0 min 0,000 mm 0,0 UV-I 0 W/m² 8,7 °C 11,0 °C 4,8 km/h (1 Bft)
07.09.2017 03:06 10,9 °C 11,0 °C 86 % 1017,0 hPa 0,0 mm 0,0 km/h (0 Bft) W 260 ° 0 min 0,000 mm 0,0 UV-I 0 W/m² 8,7 °C 10,9 °C 0,0 km/h (0 Bft)
07.09.2017 03:07 10,9 °C 10,9 °C 86 % 1017,0 hPa 0,0 mm 2,7 km/h (1 Bft) SW 223 ° 0 min 0,000 mm 0,0 UV-I 0 W/m² 8,7 °C 10,9 °C 6,4 km/h (2 Bft)
07.09.2017 03:08 10,9 °C 10,9 °C 86 % 1017,0 hPa 0,0 mm 5,0 km/h (1 Bft) W-SW 243 ° 0 min 0,000 mm 0,0 UV-I 0 W/m² 8,7 °C 10,9 °C 9,7 km/h (2 Bft)
07.09.2017 03:09 10,9 °C 10,9 °C 86 % 1017,0 hPa 0,0 mm 4,3 km/h (1 Bft) SW 231 ° 0 min 0,000 mm 0,0 UV-I 0 W/m² 8,7 °C 10,9 °C 8,0 km/h (2 Bft)
07.09.2017 03:10 10,9 °C 10,9 °C 86 % 1017,0 hPa 0,0 mm 5,2 km/h (1 Bft) W 268 ° 0 min 0,000 mm 0,0 UV-I 0 W/m² 8,7 °C 10,9 °C 8,0 km/h (2 Bft)
07.09.2017 03:11 10,9 °C 10,9 °C 86 % 1017,0 hPa 0,0 mm 4,6 km/h (1 Bft) S-SW 212 ° 0 min 0,000 mm 0,0 UV-I 0 W/m² 8,7 °C 10,9 °C 9,7 km/h (2 Bft)
07.09.2017 03:12 10,8 °C 10,9 °C 87 % 1016,9 hPa 0,0 mm 5,1 km/h (1 Bft) W 272 ° 0 min 0,000 mm 0,0 UV-I 0 W/m² 8,7 °C 10,8 °C 9,7 km/h (2 Bft)
07.09.2017 03:13 10,8 °C 10,9 °C 87 % 1017,0 hPa 0,0 mm 4,0 km/h (1 Bft) SW 226 ° 0 min 0,000 mm 0,0 UV-I 0 W/m² 8,7 °C 10,8 °C 6,4 km/h (2 Bft)
07.09.2017 03:14 10,8 °C 10,8 °C 87 % 1016,9 hPa 0,0 mm 5,5 km/h (1 Bft) W-SW 254 ° 0 min 0,000 mm 0,0 UV-I 0 W/m² 8,7 °C 10,8 °C 8,0 km/h (2 Bft)
07.09.2017 03:15 10,8 °C 10,8 °C 88 % 1016,9 hPa 0,0 mm 2,7 km/h (1 Bft) S-SW 197 ° 0 min 0,000 mm 0,0 UV-I 0 W/m² 8,9 °C 10,8 °C 3,2 km/h (1 Bft)
07.09.2017 03:16 10,8 °C 10,8 °C 87 % 1016,9 hPa 0,0 mm 2,5 km/h (1 Bft) SW 231 ° 0 min 0,000 mm 0,0 UV-I 0 W/m² 8,7 °C 10,8 °C 6,4 km/h (2 Bft)
07.09.2017 03:17 10,7 °C 10,8 °C 88 % 1016,9 hPa 0,0 mm 6,3 km/h (2 Bft) S-SW 199 ° 0 min 0,000 mm 0,0 UV-I 0 W/m² 8,8 °C 10,7 °C 11,3 km/h (2 Bft)
07.09.2017 03:18 10,7 °C 10,8 °C 87 % 1016,9 hPa 0,2 mm 2,8 km/h (1 Bft) S-SW 207 ° 0 min 0,000 mm 0,0 UV-I 0 W/m² 8,6 °C 10,7 °C 6,4 km/h (2 Bft)
07.09.2017 03:19 10,7 °C 10,7 °C 87 % 1016,9 hPa 0,0 mm 1,8 km/h (1 Bft) S-SW 201 ° 0 min 0,000 mm 0,0 UV-I 0 W/m² 8,6 °C 10,7 °C 3,2 km/h (1 Bft)
07.09.2017 03:20 10,7 °C 10,7 °C 87 % 1016,9 hPa 0,0 mm 0,4 km/h (0 Bft) S-SW 202 ° 0 min 0,000 mm 0,0 UV-I 0 W/m² 8,6 °C 10,7 °C 1,6 km/h (1 Bft)
07.09.2017 03:21 10,7 °C 10,7 °C 88 % 1016,9 hPa 0,0 mm 0,5 km/h (0 Bft) S-SW 202 ° 0 min 0,000 mm 0,0 UV-I 0 W/m² 8,8 °C 10,7 °C 3,2 km/h (1 Bft)
07.09.2017 03:22 10,7 °C 10,7 °C 89 % 1016,9 hPa 0,0 mm 4,4 km/h (1 Bft) SW 232 ° 0 min 0,000 mm 0,0 UV-I 0 W/m² 9,0 °C 10,7 °C 8,0 km/h (2 Bft)
07.09.2017 03:23 10,7 °C 10,7 °C 88 % 1016,9 hPa 0,0 mm 2,8 km/h (1 Bft) W-SW 257 ° 0 min 0,000 mm 0,0 UV-I 0 W/m² 8,8 °C 10,7 °C 4,8 km/h (1 Bft)
07.09.2017 03:24 10,7 °C 10,7 °C 88 % 1016,9 hPa 0,0 mm 1,6 km/h (1 Bft) S-SW 193 ° 0 min 0,000 mm 0,0 UV-I 0 W/m² 8,8 °C 10,7 °C 4,8 km/h (1 Bft)
07.09.2017 03:25 10,7 °C 10,7 °C 88 % 1016,9 hPa 0,0 mm 3,7 km/h (1 Bft) W-SW 244 ° 0 min 0,000 mm 0,0 UV-I 0 W/m² 8,8 °C 10,7 °C 4,8 km/h (1 Bft)
07.09.2017 03:26 10,7 °C 10,7 °C 88 % 1016,9 hPa 0,0 mm 1,1 km/h (1 Bft) W-SW 246 ° 0 min 0,000 mm 0,0 UV-I 0 W/m² 8,8 °C 10,7 °C 3,2 km/h (1 Bft)
07.09.2017 03:27 10,7 °C 10,7 °C 88 % 1016,8 hPa 0,0 mm 4,3 km/h (1 Bft) SW 227 ° 0 min 0,000 mm 0,0 UV-I 0 W/m² 8,8 °C 10,7 °C 8,0 km/h (2 Bft)
07.09.2017 03:28 10,6 °C 10,7 °C 89 % 1016,8 hPa 0,0 mm 0,1 km/h (0 Bft) SW 227 ° 0 min 0,000 mm 0,0 UV-I 0 W/m² 8,9 °C 10,6 °C 1,6 km/h (1 Bft)
07.09.2017 03:29 10,6 °C 10,7 °C 89 % 1016,8 hPa 0,0 mm 0,9 km/h (0 Bft) SW 229 ° 0 min 0,000 mm 0,0 UV-I 0 W/m² 8,9 °C 10,6 °C 3,2 km/h (1 Bft)
07.09.2017 03:30 10,6 °C 10,6 °C 89 % 1016,8 hPa 0,0 mm 1,3 km/h (1 Bft) S-SW 204 ° 0 min 0,000 mm 0,0 UV-I 0 W/m² 8,9 °C 10,6 °C 3,2 km/h (1 Bft)
07.09.2017 03:31 10,6 °C 10,6 °C 89 % 1016,8 hPa 0,0 mm 2,4 km/h (1 Bft) W-SW 256 ° 0 min 0,000 mm 0,0 UV-I 0 W/m² 8,9 °C 10,6 °C 4,8 km/h (1 Bft)
07.09.2017 03:32 10,6 °C 10,6 °C 89 % 1016,8 hPa 0,0 mm 0,8 km/h (0 Bft) W-SW 256 ° 0 min 0,000 mm 0,0 UV-I 0 W/m² 8,9 °C 10,6 °C 1,6 km/h (1 Bft)
07.09.2017 03:33 10,6 °C 10,6 °C 89 % 1016,8 hPa 0,0 mm 1,7 km/h (1 Bft) S-SW 207 ° 0 min 0,000 mm 0,0 UV-I 0 W/m² 8,9 °C 10,6 °C 4,8 km/h (1 Bft)
07.09.2017 03:34 10,6 °C 10,6 °C 89 % 1016,8 hPa 0,0 mm 1,8 km/h (1 Bft) SW 217 ° 0 min 0,000 mm 0,0 UV-I 0 W/m² 8,9 °C 10,6 °C 3,2 km/h (1 Bft)
07.09.2017 03:35 10,6 °C 10,6 °C 89 % 1016,8 hPa 0,0 mm 1,5 km/h (1 Bft) SW 217 ° 0 min 0,000 mm 0,0 UV-I 0 W/m² 8,9 °C 10,6 °C 3,2 km/h (1 Bft)
07.09.2017 03:36 10,6 °C 10,6 °C 89 % 1016,8 hPa 0,0 mm 1,9 km/h (1 Bft) W 279 ° 0 min 0,000 mm 0,0 UV-I 0 W/m² 8,9 °C 10,6 °C 4,8 km/h (1 Bft)
07.09.2017 03:37 10,6 °C 10,6 °C 89 % 1016,8 hPa 0,0 mm 2,2 km/h (1 Bft) W 279 ° 0 min 0,000 mm 0,0 UV-I 0 W/m² 8,9 °C 10,6 °C 3,2 km/h (1 Bft)
07.09.2017 03:38 10,5 °C 10,6 °C 89 % 1016,8 hPa 0,0 mm 1,5 km/h (1 Bft) W 277 ° 0 min 0,000 mm 0,0 UV-I 0 W/m² 8,8 °C 10,5 °C 3,2 km/h (1 Bft)
07.09.2017 03:39 10,5 °C 10,6 °C 89 % 1016,8 hPa 0,0 mm 1,4 km/h (1 Bft) W 260 ° 0 min 0,000 mm 0,0 UV-I 0 W/m² 8,8 °C 10,5 °C 4,8 km/h (1 Bft)
07.09.2017 03:40 10,5 °C 10,5 °C 89 % 1016,8 hPa 0,0 mm 1,0 km/h (0 Bft) W 260 ° 0 min 0,000 mm 0,0 UV-I 0 W/m² 8,8 °C 10,5 °C 1,6 km/h (1 Bft)
07.09.2017 03:41 10,5 °C 10,5 °C 89 % 1016,7 hPa 0,0 mm 2,1 km/h (1 Bft) W-SW 257 ° 0 min 0,000 mm 0,0 UV-I 0 W/m² 8,8 °C 10,5 °C 3,2 km/h (1 Bft)
07.09.2017 03:42 10,5 °C 10,5 °C 89 % 1016,7 hPa 0,0 mm 1,4 km/h (1 Bft) W-SW 257 ° 0 min 0,000 mm 0,0 UV-I 0 W/m² 8,8 °C 10,5 °C 3,2 km/h (1 Bft)
07.09.2017 03:43 10,4 °C 10,5 °C 89 % 1016,7 hPa 0,0 mm 3,1 km/h (1 Bft) W-SW 258 ° 0 min 0,000 mm 0,0 UV-I 0 W/m² 8,7 °C 10,4 °C 4,8 km/h (1 Bft)
07.09.2017 03:44 10,4 °C 10,4 °C 89 % 1016,7 hPa 0,0 mm 2,3 km/h (1 Bft) W-SW 258 ° 0 min 0,000 mm 0,0 UV-I 0 W/m² 8,7 °C 10,4 °C 3,2 km/h (1 Bft)
07.09.2017 03:45 10,4 °C 10,4 °C 89 % 1016,7 hPa 0,0 mm 3,5 km/h (1 Bft) W-SW 255 ° 0 min 0,000 mm 0,0 UV-I 0 W/m² 8,7 °C 10,4 °C 6,4 km/h (2 Bft)
07.09.2017 03:46 10,4 °C 10,4 °C 89 % 1016,7 hPa 0,0 mm 3,2 km/h (1 Bft) W 266 ° 0 min 0,000 mm 0,0 UV-I 0 W/m² 8,7 °C 10,4 °C 6,4 km/h (2 Bft)
07.09.2017 03:47 10,4 °C 10,4 °C 89 % 1016,7 hPa 0,0 mm 6,8 km/h (2 Bft) W-SW 238 ° 0 min 0,000 mm 0,0 UV-I 0 W/m² 8,7 °C 10,4 °C 12,9 km/h (3 Bft)
07.09.2017 03:48 10,4 °C 10,4 °C 89 % 1016,8 hPa 0,0 mm 1,0 km/h (0 Bft) W-SW 238 ° 0 min 0,000 mm 0,0 UV-I 0 W/m² 8,7 °C 10,4 °C 3,2 km/h (1 Bft)
07.09.2017 03:49 10,4 °C 10,4 °C 89 % 1016,8 hPa 0,0 mm 1,3 km/h (1 Bft) W-SW 257 ° 0 min 0,000 mm 0,0 UV-I 0 W/m² 8,7 °C 10,4 °C 4,8 km/h (1 Bft)
07.09.2017 03:50 10,4 °C 10,4 °C 89 % 1016,8 hPa 0,0 mm 3,6 km/h (1 Bft) W-SW 238 ° 0 min 0,000 mm 0,0 UV-I 0 W/m² 8,7 °C 10,4 °C 4,8 km/h (1 Bft)
07.09.2017 03:51 10,4 °C 10,4 °C 89 % 1016,7 hPa 0,0 mm 4,2 km/h (1 Bft) W-SW 248 ° 0 min 0,000 mm 0,0 UV-I 0 W/m² 8,7 °C 10,4 °C 6,4 km/h (2 Bft)
07.09.2017 03:52 10,4 °C 10,4 °C 89 % 1016,8 hPa 0,0 mm 3,3 km/h (1 Bft) W-NW 284 ° 0 min 0,000 mm 0,0 UV-I 0 W/m² 8,7 °C 10,4 °C 4,8 km/h (1 Bft)
07.09.2017 03:53 10,4 °C 10,4 °C 89 % 1016,8 hPa 0,0 mm 1,9 km/h (1 Bft) W-SW 240 ° 0 min 0,000 mm 0,0 UV-I 0 W/m² 8,7 °C 10,4 °C 3,2 km/h (1 Bft)
07.09.2017 03:54 10,4 °C 10,4 °C 89 % 1016,8 hPa 0,0 mm 3,5 km/h (1 Bft) W-SW 238 ° 0 min 0,000 mm 0,0 UV-I 0 W/m² 8,7 °C 10,4 °C 6,4 km/h (2 Bft)
07.09.2017 03:55 10,4 °C 10,4 °C 89 % 1016,8 hPa 0,2 mm 4,1 km/h (1 Bft) S-SW 192 ° 0 min 0,000 mm 0,0 UV-I 0 W/m² 8,7 °C 10,4 °C 6,4 km/h (2 Bft)
07.09.2017 03:56 10,4 °C 10,4 °C 89 % 1016,7 hPa 0,0 mm 1,3 km/h (1 Bft) S 190 ° 0 min 0,000 mm 0,0 UV-I 0 W/m² 8,7 °C 10,4 °C 3,2 km/h (1 Bft)
07.09.2017 03:57 10,4 °C 10,4 °C 89 % 1016,8 hPa 0,0 mm 5,4 km/h (1 Bft) W 273 ° 0 min 0,000 mm 0,0 UV-I 0 W/m² 8,7 °C 10,4 °C 12,9 km/h (3 Bft)
07.09.2017 03:58 10,4 °C 10,4 °C 89 % 1016,8 hPa 0,0 mm 5,6 km/h (1 Bft) W-SW 245 ° 0 min 0,000 mm 0,0 UV-I 0 W/m² 8,7 °C 10,4 °C 12,9 km/h (3 Bft)
07.09.2017 03:59 10,4 °C 10,4 °C 89 % 1016,8 hPa 0,0 mm 1,6 km/h (1 Bft) SW 234 ° 0 min 0,000 mm 0,0 UV-I 0 W/m² 8,7 °C 10,4 °C 3,2 km/h (1 Bft)
07.09.2017 04:00 10,3 °C 10,4 °C 89 % 1016,8 hPa 0,0 mm 4,2 km/h (1 Bft) W-SW 240 ° 0 min 0,000 mm 0,0 UV-I 0 W/m² 8,6 °C 10,3 °C 9,7 km/h (2 Bft)
07.09.2017 04:01 10,4 °C 10,4 °C 89 % 1016,8 hPa 0,0 mm 4,3 km/h (1 Bft) W-SW 238 ° 0 min 0,000 mm 0,0 UV-I 0 W/m² 8,7 °C 10,4 °C 6,4 km/h (2 Bft)
07.09.2017 04:02 10,3 °C 10,4 °C 89 % 1016,8 hPa 0,0 mm 6,1 km/h (2 Bft) S-SW 200 ° 0 min 0,000 mm 0,0 UV-I 0 W/m² 8,6 °C 10,3 °C 8,0 km/h (2 Bft)
07.09.2017 04:03 10,3 °C 10,3 °C 89 % 1016,7 hPa 0,0 mm 2,6 km/h (1 Bft) W-SW 248 ° 0 min 0,000 mm 0,0 UV-I 0 W/m² 8,6 °C 10,3 °C 4,8 km/h (1 Bft)
07.09.2017 04:04 10,3 °C 10,3 °C 89 % 1016,8 hPa 0,0 mm 5,0 km/h (1 Bft) SW 217 ° 0 min 0,000 mm 0,0 UV-I 0 W/m² 8,6 °C 10,3 °C 11,3 km/h (2 Bft)
07.09.2017 04:05 10,3 °C 10,3 °C 90 % 1016,8 hPa 0,0 mm 3,1 km/h (1 Bft) W 267 ° 0 min 0,000 mm 0,0 UV-I 0 W/m² 8,7 °C 10,3 °C 4,8 km/h (1 Bft)
07.09.2017 04:06 10,3 °C 10,3 °C 90 % 1016,8 hPa 0,0 mm 8,1 km/h (2 Bft) S-SW 207 ° 0 min 0,000 mm 0,0 UV-I 0 W/m² 8,7 °C 10,3 °C 17,7 km/h (3 Bft)
07.09.2017 04:07 10,3 °C 10,3 °C 90 % 1016,8 hPa 0,2 mm 1,7 km/h (1 Bft) S-SW 207 ° 0 min 0,000 mm 0,0 UV-I 0 W/m² 8,7 °C 10,3 °C 4,8 km/h (1 Bft)
07.09.2017 04:08 10,3 °C 10,3 °C 90 % 1016,8 hPa 0,0 mm 4,2 km/h (1 Bft) SW 215 ° 0 min 0,000 mm 0,0 UV-I 0 W/m² 8,7 °C 10,3 °C 6,4 km/h (2 Bft)
07.09.2017 04:09 10,2 °C 10,3 °C 90 % 1016,8 hPa 0,0 mm 3,7 km/h (1 Bft) S 188 ° 0 min 0,000 mm 0,0 UV-I 0 W/m² 8,6 °C 10,2 °C 6,4 km/h (2 Bft)
07.09.2017 04:10 10,3 °C 10,3 °C 90 % 1016,8 hPa 0,0 mm 4,6 km/h (1 Bft) W-NW 286 ° 0 min 0,000 mm 0,0 UV-I 0 W/m² 8,7 °C 10,3 °C 8,0 km/h (2 Bft)
07.09.2017 04:11 10,3 °C 10,3 °C 90 % 1016,8 hPa 0,0 mm 6,0 km/h (2 Bft) S-SW 201 ° 0 min 0,000 mm 0,0 UV-I 0 W/m² 8,7 °C 10,3 °C 11,3 km/h (2 Bft)
07.09.2017 04:12 10,3 °C 10,3 °C 90 % 1016,7 hPa 0,0 mm 3,6 km/h (1 Bft) W-SW 251 ° 0 min 0,000 mm 0,0 UV-I 0 W/m² 8,7 °C 10,3 °C 6,4 km/h (2 Bft)
07.09.2017 04:13 10,2 °C 10,3 °C 90 % 1016,7 hPa 0,0 mm 2,3 km/h (1 Bft) S-SW 194 ° 0 min 0,000 mm 0,0 UV-I 0 W/m² 8,6 °C 10,2 °C 4,8 km/h (1 Bft)
07.09.2017 04:14 10,2 °C 10,2 °C 90 % 1016,6 hPa 0,0 mm 2,5 km/h (1 Bft) W-SW 250 ° 0 min 0,000 mm 0,0 UV-I 0 W/m² 8,6 °C 10,2 °C 6,4 km/h (2 Bft)
07.09.2017 04:15 10,3 °C 10,3 °C 90 % 1016,7 hPa 0,0 mm 2,3 km/h (1 Bft) W 267 ° 0 min 0,000 mm 0,0 UV-I 0 W/m² 8,7 °C 10,3 °C 6,4 km/h (2 Bft)
07.09.2017 04:16 10,2 °C 10,3 °C 90 % 1016,7 hPa 0,0 mm 6,8 km/h (2 Bft) W-SW 245 ° 0 min 0,000 mm 0,0 UV-I 0 W/m² 8,6 °C 10,2 °C 12,9 km/h (3 Bft)
07.09.2017 04:17 10,2 °C 10,2 °C 90 % 1016,6 hPa 0,0 mm 4,4 km/h (1 Bft) W-SW 249 ° 0 min 0,000 mm 0,0 UV-I 0 W/m² 8,6 °C 10,2 °C 12,9 km/h (3 Bft)
07.09.2017 04:18 10,2 °C 10,2 °C 90 % 1016,6 hPa 0,0 mm 4,2 km/h (1 Bft) W 259 ° 0 min 0,000 mm 0,0 UV-I 0 W/m² 8,6 °C 10,2 °C 9,7 km/h (2 Bft)
07.09.2017 04:19 10,2 °C 10,2 °C 90 % 1016,6 hPa 0,0 mm 3,7 km/h (1 Bft) W-SW 246 ° 0 min 0,000 mm 0,0 UV-I 0 W/m² 8,6 °C 10,2 °C 6,4 km/h (2 Bft)
07.09.2017 04:20 10,2 °C 10,2 °C 90 % 1016,7 hPa 0,0 mm 4,6 km/h (1 Bft) SW 226 ° 0 min 0,000 mm 0,0 UV-I 0 W/m² 8,6 °C 10,2 °C 11,3 km/h (2 Bft)
07.09.2017 04:21 10,2 °C 10,2 °C 90 % 1016,6 hPa 0,0 mm 5,7 km/h (1 Bft) W-SW 251 ° 0 min 0,000 mm 0,0 UV-I 0 W/m² 8,6 °C 10,2 °C 8,0 km/h (2 Bft)
07.09.2017 04:22 10,2 °C 10,2 °C 90 % 1016,6 hPa 0,0 mm 4,2 km/h (1 Bft) SW 236 ° 0 min 0,000 mm 0,0 UV-I 0 W/m² 8,6 °C 10,2 °C 9,7 km/h (2 Bft)
07.09.2017 04:23 10,2 °C 10,2 °C 90 % 1016,6 hPa 0,0 mm 5,6 km/h (1 Bft) W-SW 251 ° 0 min 0,000 mm 0,0 UV-I 0 W/m² 8,6 °C 10,2 °C 8,0 km/h (2 Bft)
07.09.2017 04:24 10,2 °C 10,2 °C 90 % 1016,6 hPa 0,0 mm 4,9 km/h (1 Bft) W 274 ° 0 min 0,000 mm 0,0 UV-I 0 W/m² 8,6 °C 10,2 °C 6,4 km/h (2 Bft)
07.09.2017 04:25 10,2 °C 10,2 °C 90 % 1016,6 hPa 0,0 mm 3,2 km/h (1 Bft) SW 230 ° 0 min 0,000 mm 0,0 UV-I 0 W/m² 8,6 °C 10,2 °C 4,8 km/h (1 Bft)
07.09.2017 04:26 10,2 °C 10,2 °C 90 % 1016,6 hPa 0,0 mm 2,9 km/h (1 Bft) SW 233 ° 0 min 0,000 mm 0,0 UV-I 0 W/m² 8,6 °C 10,2 °C 4,8 km/h (1 Bft)
07.09.2017 04:27 10,2 °C 10,2 °C 90 % 1016,6 hPa 0,0 mm 3,9 km/h (1 Bft) W-SW 248 ° 0 min 0,000 mm 0,0 UV-I 0 W/m² 8,6 °C 10,2 °C 11,3 km/h (2 Bft)
07.09.2017 04:28 10,2 °C 10,2 °C 90 % 1016,6 hPa 0,0 mm 5,3 km/h (1 Bft) W-SW 239 ° 0 min 0,000 mm 0,0 UV-I 0 W/m² 8,6 °C 10,2 °C 12,9 km/h (3 Bft)
07.09.2017 04:29 10,1 °C 10,2 °C 90 % 1016,6 hPa 0,0 mm 4,0 km/h (1 Bft) W-SW 256 ° 0 min 0,000 mm 0,0 UV-I 0 W/m² 8,5 °C 10,1 °C 6,4 km/h (2 Bft)
07.09.2017 04:30 10,1 °C 10,2 °C 90 % 1016,6 hPa 0,0 mm 4,7 km/h (1 Bft) W 263 ° 0 min 0,000 mm 0,0 UV-I 0 W/m² 8,5 °C 10,1 °C 6,4 km/h (2 Bft)
07.09.2017 04:31 10,1 °C 10,2 °C 90 % 1016,6 hPa 0,0 mm 3,4 km/h (1 Bft) SW 215 ° 0 min 0,000 mm 0,0 UV-I 0 W/m² 8,5 °C 10,1 °C 4,8 km/h (1 Bft)
07.09.2017 04:32 10,1 °C 10,2 °C 90 % 1016,6 hPa 0,0 mm 5,3 km/h (1 Bft) SW 233 ° 0 min 0,000 mm 0,0 UV-I 0 W/m² 8,5 °C 10,1 °C 11,3 km/h (2 Bft)
07.09.2017 04:33 10,1 °C 10,2 °C 90 % 1016,5 hPa 0,0 mm 3,2 km/h (1 Bft) W 263 ° 0 min 0,000 mm 0,0 UV-I 0 W/m² 8,5 °C 10,1 °C 4,8 km/h (1 Bft)
07.09.2017 04:34 10,1 °C 10,2 °C 90 % 1016,5 hPa 0,0 mm 5,6 km/h (1 Bft) W 259 ° 0 min 0,000 mm 0,0 UV-I 0 W/m² 8,5 °C 10,1 °C 6,4 km/h (2 Bft)
07.09.2017 04:35 10,1 °C 10,2 °C 90 % 1016,5 hPa 0,0 mm 3,1 km/h (1 Bft) SW 224 ° 0 min 0,000 mm 0,0 UV-I 0 W/m² 8,5 °C 10,1 °C 6,4 km/h (2 Bft)
07.09.2017 04:36 10,1 °C 10,2 °C 90 % 1016,5 hPa 0,0 mm 5,1 km/h (1 Bft) W-SW 242 ° 0 min 0,000 mm 0,0 UV-I 0 W/m² 8,5 °C 10,1 °C 11,3 km/h (2 Bft)
07.09.2017 04:37 10,2 °C 10,2 °C 90 % 1016,5 hPa 0,0 mm 7,1 km/h (2 Bft) W 265 ° 0 min 0,000 mm 0,0 UV-I 0 W/m² 8,6 °C 10,2 °C 12,9 km/h (3 Bft)
07.09.2017 04:38 10,2 °C 10,2 °C 90 % 1016,5 hPa 0,0 mm 5,4 km/h (1 Bft) W-SW 240 ° 0 min 0,000 mm 0,0 UV-I 0 W/m² 8,6 °C 10,2 °C 12,9 km/h (3 Bft)
07.09.2017 04:39 10,1 °C 10,2 °C 90 % 1016,5 hPa 0,0 mm 2,2 km/h (1 Bft) SW 229 ° 0 min 0,000 mm 0,0 UV-I 0 W/m² 8,5 °C 10,1 °C 4,8 km/h (1 Bft)
07.09.2017 04:40 10,2 °C 10,2 °C 89 % 1016,5 hPa 0,0 mm 3,4 km/h (1 Bft) W-SW 248 ° 0 min 0,000 mm 0,0 UV-I 0 W/m² 8,5 °C 10,2 °C 6,4 km/h (2 Bft)
07.09.2017 04:41 10,2 °C 10,2 °C 90 % 1016,6 hPa 0,0 mm 6,0 km/h (2 Bft) SW 234 ° 0 min 0,000 mm 0,0 UV-I 0 W/m² 8,6 °C 10,2 °C 8,0 km/h (2 Bft)
07.09.2017 04:42 10,2 °C 10,2 °C 90 % 1016,6 hPa 0,0 mm 4,2 km/h (1 Bft) W 260 ° 0 min 0,000 mm 0,0 UV-I 0 W/m² 8,6 °C 10,2 °C 6,4 km/h (2 Bft)
07.09.2017 04:43 10,2 °C 10,2 °C 90 % 1016,6 hPa 0,0 mm 6,7 km/h (2 Bft) W 259 ° 0 min 0,000 mm 0,0 UV-I 0 W/m² 8,6 °C 10,2 °C 9,7 km/h (2 Bft)
07.09.2017 04:44 10,2 °C 10,2 °C 89 % 1016,6 hPa 0,0 mm 6,0 km/h (2 Bft) W-SW 246 ° 0 min 0,000 mm 0,0 UV-I 0 W/m² 8,5 °C 10,2 °C 9,7 km/h (2 Bft)
07.09.2017 04:45 10,2 °C 10,2 °C 90 % 1016,6 hPa 0,0 mm 5,6 km/h (1 Bft) W-SW 257 ° 0 min 0,000 mm 0,0 UV-I 0 W/m² 8,6 °C 10,2 °C 9,7 km/h (2 Bft)
07.09.2017 04:46 10,2 °C 10,2 °C 90 % 1016,5 hPa 0,0 mm 6,0 km/h (2 Bft) W-SW 244 ° 0 min 0,000 mm 0,0 UV-I 0 W/m² 8,6 °C 10,2 °C 8,0 km/h (2 Bft)
07.09.2017 04:47 10,1 °C 10,2 °C 90 % 1016,5 hPa 0,0 mm 5,2 km/h (1 Bft) W 267 ° 0 min 0,000 mm 0,0 UV-I 0 W/m² 8,5 °C 10,1 °C 11,3 km/h (2 Bft)
07.09.2017 04:48 10,1 °C 10,1 °C 90 % 1016,4 hPa 0,0 mm 4,4 km/h (1 Bft) W-SW 250 ° 0 min 0,000 mm 0,0 UV-I 0 W/m² 8,5 °C 10,1 °C 6,4 km/h (2 Bft)
07.09.2017 04:49 10,1 °C 10,1 °C 90 % 1016,4 hPa 0,0 mm 4,9 km/h (1 Bft) W 267 ° 0 min 0,000 mm 0,0 UV-I 0 W/m² 8,5 °C 10,1 °C 9,7 km/h (2 Bft)
07.09.2017 04:50 10,1 °C 10,1 °C 90 % 1016,4 hPa 0,0 mm 6,2 km/h (2 Bft) W-SW 252 ° 0 min 0,000 mm 0,0 UV-I 0 W/m² 8,5 °C 10,1 °C 14,5 km/h (3 Bft)
07.09.2017 04:51 10,1 °C 10,1 °C 90 % 1016,4 hPa 0,0 mm 6,4 km/h (2 Bft) W-SW 242 ° 0 min 0,000 mm 0,0 UV-I 0 W/m² 8,5 °C 10,1 °C 14,5 km/h (3 Bft)
07.09.2017 04:52 10,1 °C 10,1 °C 90 % 1016,4 hPa 0,0 mm 5,0 km/h (1 Bft) W 264 ° 0 min 0,000 mm 0,0 UV-I 0 W/m² 8,5 °C 10,1 °C 11,3 km/h (2 Bft)
07.09.2017 04:53 10,1 °C 10,1 °C 90 % 1016,4 hPa 0,0 mm 4,9 km/h (1 Bft) W-SW 240 ° 0 min 0,000 mm 0,0 UV-I 0 W/m² 8,5 °C 10,1 °C 9,7 km/h (2 Bft)
07.09.2017 04:54 10,1 °C 10,1 °C 90 % 1016,5 hPa 0,0 mm 3,2 km/h (1 Bft) W 263 ° 0 min 0,000 mm 0,0 UV-I 0 W/m² 8,5 °C 10,1 °C 4,8 km/h (1 Bft)
07.09.2017 04:55 10,1 °C 10,1 °C 90 % 1016,5 hPa 0,0 mm 5,4 km/h (1 Bft) W-SW 251 ° 0 min 0,000 mm 0,0 UV-I 0 W/m² 8,5 °C 10,1 °C 8,0 km/h (2 Bft)
07.09.2017 04:56 10,1 °C 10,1 °C 90 % 1016,5 hPa 0,0 mm 5,9 km/h (2 Bft) S-SW 210 ° 0 min 0,000 mm 0,0 UV-I 0 W/m² 8,5 °C 10,1 °C 12,9 km/h (3 Bft)
07.09.2017 04:57 10,1 °C 10,1 °C 90 % 1016,5 hPa 0,0 mm 7,4 km/h (2 Bft) W-SW 244 ° 0 min 0,000 mm 0,0 UV-I 0 W/m² 8,5 °C 10,1 °C 16,1 km/h (3 Bft)
07.09.2017 04:58 10,1 °C 10,1 °C 90 % 1016,5 hPa 0,0 mm 5,8 km/h (2 Bft) W-SW 250 ° 0 min 0,000 mm 0,0 UV-I 0 W/m² 8,5 °C 10,1 °C 11,3 km/h (2 Bft)
07.09.2017 04:59 10,1 °C 10,1 °C 90 % 1016,5 hPa 0,0 mm 3,6 km/h (1 Bft) W 269 ° 0 min 0,000 mm 0,0 UV-I 0 W/m² 8,5 °C 10,1 °C 6,4 km/h (2 Bft)
07.09.2017 05:00 10,1 °C 10,1 °C 90 % 1016,4 hPa 0,0 mm 6,6 km/h (2 Bft) W-SW 238 ° 0 min 0,000 mm 0,0 UV-I 0 W/m² 8,5 °C 10,1 °C 9,7 km/h (2 Bft)
07.09.2017 05:01 10,1 °C 10,1 °C 90 % 1016,4 hPa 0,0 mm 6,4 km/h (2 Bft) W-SW 258 ° 0 min 0,000 mm 0,0 UV-I 0 W/m² 8,5 °C 10,1 °C 11,3 km/h (2 Bft)
07.09.2017 05:02 10,1 °C 10,1 °C 90 % 1016,4 hPa 0,0 mm 4,8 km/h (1 Bft) SW 225 ° 0 min 0,000 mm 0,0 UV-I 0 W/m² 8,5 °C 10,1 °C 6,4 km/h (2 Bft)
07.09.2017 05:03 10,1 °C 10,1 °C 90 % 1016,5 hPa 0,0 mm 3,7 km/h (1 Bft) W 265 ° 0 min 0,000 mm 0,0 UV-I 0 W/m² 8,5 °C 10,1 °C 4,8 km/h (1 Bft)
07.09.2017 05:04 10,1 °C 10,1 °C 90 % 1016,5 hPa 0,0 mm 6,4 km/h (2 Bft) W-SW 248 ° 0 min 0,000 mm 0,0 UV-I 0 W/m² 8,5 °C 10,1 °C 9,7 km/h (2 Bft)
07.09.2017 05:05 10,1 °C 10,1 °C 90 % 1016,5 hPa 0,0 mm 3,8 km/h (1 Bft) W-SW 244 ° 0 min 0,000 mm 0,0 UV-I 0 W/m² 8,5 °C 10,1 °C 6,4 km/h (2 Bft)
07.09.2017 05:06 10,1 °C 10,1 °C 90 % 1016,5 hPa 0,2 mm 4,8 km/h (1 Bft) S-SW 202 ° 0 min 0,000 mm 0,0 UV-I 0 W/m² 8,5 °C 10,1 °C 8,0 km/h (2 Bft)
07.09.2017 05:07 10,0 °C 10,1 °C 90 % 1016,5 hPa 0,0 mm 4,0 km/h (1 Bft) W 264 ° 0 min 0,000 mm 0,0 UV-I 0 W/m² 8,4 °C 10,0 °C 6,4 km/h (2 Bft)
07.09.2017 05:08 10,0 °C 10,0 °C 90 % 1016,4 hPa 0,0 mm 3,9 km/h (1 Bft) W 280 ° 0 min 0,000 mm 0,0 UV-I 0 W/m² 8,4 °C 10,0 °C 6,4 km/h (2 Bft)
07.09.2017 05:09 10,0 °C 10,0 °C 90 % 1016,4 hPa 0,0 mm 5,7 km/h (1 Bft) W-NW 285 ° 0 min 0,000 mm 0,0 UV-I 0 W/m² 8,4 °C 9,6 °C 11,3 km/h (2 Bft)
07.09.2017 05:10 10,0 °C 10,0 °C 90 % 1016,4 hPa 0,0 mm 5,7 km/h (1 Bft) S-SW 211 ° 0 min 0,000 mm 0,0 UV-I 0 W/m² 8,4 °C 9,6 °C 12,9 km/h (3 Bft)
07.09.2017 05:11 10,0 °C 10,0 °C 90 % 1016,4 hPa 0,0 mm 4,7 km/h (1 Bft) W 259 ° 0 min 0,000 mm 0,0 UV-I 0 W/m² 8,4 °C 9,8 °C 6,4 km/h (2 Bft)
07.09.2017 05:12 10,0 °C 10,0 °C 90 % 1016,4 hPa 0,0 mm 7,3 km/h (2 Bft) S-SW 198 ° 0 min 0,000 mm 0,0 UV-I 0 W/m² 8,4 °C 9,2 °C 14,5 km/h (3 Bft)
07.09.2017 05:13 10,0 °C 10,0 °C 90 % 1016,4 hPa 0,0 mm 6,4 km/h (2 Bft) SW 235 ° 0 min 0,000 mm 0,0 UV-I 0 W/m² 8,4 °C 9,4 °C 11,3 km/h (2 Bft)
07.09.2017 05:14 10,0 °C 10,0 °C 90 % 1016,4 hPa 0,0 mm 5,1 km/h (1 Bft) W-SW 257 ° 0 min 0,000 mm 0,0 UV-I 0 W/m² 8,4 °C 9,7 °C 9,7 km/h (2 Bft)
07.09.2017 05:15 10,0 °C 10,0 °C 90 % 1016,4 hPa 0,0 mm 5,8 km/h (2 Bft) W 271 ° 0 min 0,000 mm 0,0 UV-I 0 W/m² 8,4 °C 9,5 °C 11,3 km/h (2 Bft)
07.09.2017 05:16 10,0 °C 10,0 °C 90 % 1016,3 hPa 0,0 mm 6,4 km/h (2 Bft) SW 219 ° 0 min 0,000 mm 0,0 UV-I 0 W/m² 8,4 °C 9,4 °C 12,9 km/h (3 Bft)
07.09.2017 05:17 10,0 °C 10,0 °C 90 % 1016,4 hPa 0,0 mm 2,9 km/h (1 Bft) SW 218 ° 0 min 0,000 mm 0,0 UV-I 0 W/m² 8,4 °C 10,0 °C 4,8 km/h (1 Bft)
07.09.2017 05:18 10,0 °C 10,0 °C 90 % 1016,4 hPa 0,0 mm 4,6 km/h (1 Bft) W-SW 238 ° 0 min 0,000 mm 0,0 UV-I 0 W/m² 8,4 °C 9,9 °C 9,7 km/h (2 Bft)
07.09.2017 05:19 10,0 °C 10,0 °C 90 % 1016,3 hPa 0,0 mm 7,5 km/h (2 Bft) SW 225 ° 0 min 0,000 mm 0,0 UV-I 0 W/m² 8,4 °C 9,1 °C 11,3 km/h (2 Bft)
07.09.2017 05:20 10,0 °C 10,0 °C 90 % 1016,3 hPa 0,0 mm 5,3 km/h (1 Bft) SW 233 ° 0 min 0,000 mm 0,0 UV-I 0 W/m² 8,4 °C 9,7 °C 12,9 km/h (3 Bft)
07.09.2017 05:21 10,0 °C 10,0 °C 90 % 1016,3 hPa 0,0 mm 8,0 km/h (2 Bft) W-SW 238 ° 0 min 0,000 mm 0,0 UV-I 0 W/m² 8,4 °C 9,0 °C 16,1 km/h (3 Bft)
07.09.2017 05:22 10,0 °C 10,1 °C 90 % 1016,3 hPa 0,0 mm 5,9 km/h (2 Bft) W-SW 248 ° 0 min 0,000 mm 0,0 UV-I 0 W/m² 8,4 °C 9,5 °C 12,9 km/h (3 Bft)
07.09.2017 05:23 10,0 °C 10,0 °C 90 % 1016,3 hPa 0,0 mm 4,2 km/h (1 Bft) SW 218 ° 0 min 0,000 mm 0,0 UV-I 0 W/m² 8,4 °C 10,0 °C 6,4 km/h (2 Bft)
07.09.2017 05:24 10,0 °C 10,0 °C 90 % 1016,3 hPa 0,0 mm 3,1 km/h (1 Bft) W-SW 254 ° 0 min 0,000 mm 0,0 UV-I 0 W/m² 8,4 °C 10,0 °C 4,8 km/h (1 Bft)
07.09.2017 05:25 10,0 °C 10,0 °C 90 % 1016,3 hPa 0,0 mm 3,6 km/h (1 Bft) W 271 ° 0 min 0,000 mm 0,0 UV-I 0 W/m² 8,4 °C 10,0 °C 4,8 km/h (1 Bft)
07.09.2017 05:26 10,0 °C 10,0 °C 90 % 1016,3 hPa 0,0 mm 5,0 km/h (1 Bft) SW 232 ° 0 min 0,000 mm 0,0 UV-I 0 W/m² 8,4 °C 9,8 °C 8,0 km/h (2 Bft)
07.09.2017 05:27 10,0 °C 10,0 °C 90 % 1016,2 hPa 0,0 mm 4,0 km/h (1 Bft) W 267 ° 0 min 0,000 mm 0,0 UV-I 0 W/m² 8,4 °C 10,0 °C 9,7 km/h (2 Bft)
07.09.2017 05:28 10,0 °C 10,0 °C 90 % 1016,3 hPa 0,0 mm 2,4 km/h (1 Bft) W-SW 247 ° 0 min 0,000 mm 0,0 UV-I 0 W/m² 8,4 °C 10,0 °C 3,2 km/h (1 Bft)
07.09.2017 05:29 10,0 °C 10,0 °C 90 % 1016,3 hPa 0,0 mm 4,8 km/h (1 Bft) SW 220 ° 0 min 0,000 mm 0,0 UV-I 0 W/m² 8,4 °C 9,8 °C 8,0 km/h (2 Bft)
07.09.2017 05:30 9,9 °C 10,0 °C 90 % 1016,2 hPa 0,0 mm 3,2 km/h (1 Bft) SW 228 ° 0 min 0,000 mm 0,0 UV-I 0 W/m² 8,3 °C 9,9 °C 6,4 km/h (2 Bft)
07.09.2017 05:31 9,9 °C 9,9 °C 90 % 1016,3 hPa 0,0 mm 1,7 km/h (1 Bft) SW 229 ° 0 min 0,000 mm 0,0 UV-I 0 W/m² 8,3 °C 9,9 °C 4,8 km/h (1 Bft)
07.09.2017 05:32 9,9 °C 9,9 °C 90 % 1016,3 hPa 0,0 mm 3,2 km/h (1 Bft) W-SW 247 ° 0 min 0,000 mm 0,0 UV-I 0 W/m² 8,3 °C 9,9 °C 6,4 km/h (2 Bft)
07.09.2017 05:33 9,9 °C 9,9 °C 90 % 1016,3 hPa 0,0 mm 3,1 km/h (1 Bft) W 265 ° 0 min 0,000 mm 0,0 UV-I 0 W/m² 8,3 °C 9,9 °C 6,4 km/h (2 Bft)
07.09.2017 05:34 10,0 °C 10,0 °C 90 % 1016,3 hPa 0,0 mm 5,0 km/h (1 Bft) SW 224 ° 0 min 0,000 mm 0,0 UV-I 0 W/m² 8,4 °C 9,8 °C 8,0 km/h (2 Bft)
07.09.2017 05:35 10,0 °C 10,0 °C 90 % 1016,3 hPa 0,0 mm 3,3 km/h (1 Bft) SW 234 ° 0 min 0,000 mm 0,0 UV-I 0 W/m² 8,4 °C 10,0 °C 4,8 km/h (1 Bft)
07.09.2017 05:36 9,9 °C 10,0 °C 90 % 1016,3 hPa 0,0 mm 2,5 km/h (1 Bft) SW 231 ° 0 min 0,000 mm 0,0 UV-I 0 W/m² 8,3 °C 9,9 °C 6,4 km/h (2 Bft)
07.09.2017 05:37 9,9 °C 10,0 °C 90 % 1016,3 hPa 0,0 mm 3,6 km/h (1 Bft) W-SW 240 ° 0 min 0,000 mm 0,0 UV-I 0 W/m² 8,3 °C 9,9 °C 4,8 km/h (1 Bft)
07.09.2017 05:38 9,9 °C 10,0 °C 90 % 1016,2 hPa 0,0 mm 1,5 km/h (1 Bft) W-SW 240 ° 0 min 0,000 mm 0,0 UV-I 0 W/m² 8,3 °C 9,9 °C 3,2 km/h (1 Bft)
07.09.2017 05:39 9,9 °C 10,0 °C 90 % 1016,3 hPa 0,0 mm 4,4 km/h (1 Bft) S-SW 194 ° 0 min 0,000 mm 0,0 UV-I 0 W/m² 8,3 °C 9,9 °C 8,0 km/h (2 Bft)
07.09.2017 05:40 9,9 °C 10,0 °C 90 % 1016,4 hPa 0,0 mm 4,6 km/h (1 Bft) W-SW 251 ° 0 min 0,000 mm 0,0 UV-I 0 W/m² 8,3 °C 9,8 °C 6,4 km/h (2 Bft)
07.09.2017 05:41 10,0 °C 10,0 °C 90 % 1016,4 hPa 0,0 mm 3,8 km/h (1 Bft) W-SW 251 ° 0 min 0,000 mm 0,0 UV-I 0 W/m² 8,4 °C 10,0 °C 4,8 km/h (1 Bft)
07.09.2017 05:42 10,0 °C 10,0 °C 90 % 1016,4 hPa 0,0 mm 3,0 km/h (1 Bft) W 259 ° 0 min 0,000 mm 0,0 UV-I 0 W/m² 8,4 °C 10,0 °C 6,4 km/h (2 Bft)
07.09.2017 05:43 10,0 °C 10,0 °C 90 % 1016,3 hPa 0,0 mm 1,2 km/h (1 Bft) W 259 ° 0 min 0,000 mm 0,0 UV-I 0 W/m² 8,4 °C 10,0 °C 3,2 km/h (1 Bft)
07.09.2017 05:44 9,9 °C 10,0 °C 90 % 1016,4 hPa 0,0 mm 6,4 km/h (2 Bft) W 267 ° 0 min 0,000 mm 0,0 UV-I 0 W/m² 8,3 °C 9,3 °C 9,7 km/h (2 Bft)
07.09.2017 05:45 9,9 °C 9,9 °C 90 % 1016,4 hPa 0,0 mm 3,1 km/h (1 Bft) W-SW 254 ° 0 min 0,000 mm 0,0 UV-I 0 W/m² 8,3 °C 9,9 °C 4,8 km/h (1 Bft)
07.09.2017 05:46 9,9 °C 9,9 °C 90 % 1016,3 hPa 0,0 mm 6,6 km/h (2 Bft) W-SW 256 ° 0 min 0,000 mm 0,0 UV-I 0 W/m² 8,3 °C 9,2 °C 12,9 km/h (3 Bft)
07.09.2017 05:47 9,9 °C 9,9 °C 90 % 1016,3 hPa 0,0 mm 2,1 km/h (1 Bft) W-SW 238 ° 0 min 0,000 mm 0,0 UV-I 0 W/m² 8,3 °C 9,9 °C 4,8 km/h (1 Bft)
07.09.2017 05:48 9,9 °C 9,9 °C 90 % 1016,3 hPa 0,0 mm 2,2 km/h (1 Bft) S-SW 208 ° 0 min 0,000 mm 0,0 UV-I 0 W/m² 8,3 °C 9,9 °C 4,8 km/h (1 Bft)
07.09.2017 05:49 9,9 °C 9,9 °C 90 % 1016,3 hPa 0,0 mm 5,2 km/h (1 Bft) W 264 ° 0 min 0,000 mm 0,0 UV-I 0 W/m² 8,3 °C 9,6 °C 9,7 km/h (2 Bft)
07.09.2017 05:50 9,9 °C 9,9 °C 90 % 1016,3 hPa 0,0 mm 4,3 km/h (1 Bft) SW 236 ° 0 min 0,000 mm 0,0 UV-I 0 W/m² 8,3 °C 9,9 °C 6,4 km/h (2 Bft)
07.09.2017 05:51 9,9 °C 10,0 °C 90 % 1016,3 hPa 0,0 mm 3,0 km/h (1 Bft) S 188 ° 0 min 0,000 mm 0,0 UV-I 0 W/m² 8,3 °C 9,9 °C 4,8 km/h (1 Bft)
07.09.2017 05:52 9,9 °C 10,0 °C 90 % 1016,3 hPa 0,0 mm 2,5 km/h (1 Bft) SW 236 ° 0 min 0,000 mm 0,0 UV-I 0 W/m² 8,3 °C 9,9 °C 6,4 km/h (2 Bft)
07.09.2017 05:53 10,0 °C 10,0 °C 89 % 1016,2 hPa 0,0 mm 3,0 km/h (1 Bft) SW 230 ° 0 min 0,000 mm 0,0 UV-I 0 W/m² 8,3 °C 10,0 °C 6,4 km/h (2 Bft)
07.09.2017 05:54 10,0 °C 10,0 °C 89 % 1016,3 hPa 0,0 mm 3,6 km/h (1 Bft) S-SW 194 ° 0 min 0,000 mm 0,0 UV-I 0 W/m² 8,3 °C 10,0 °C 8,0 km/h (2 Bft)
07.09.2017 05:55 10,0 °C 10,0 °C 89 % 1016,3 hPa 0,0 mm 6,4 km/h (2 Bft) S-SW 203 ° 0 min 0,000 mm 0,0 UV-I 0 W/m² 8,3 °C 9,4 °C 11,3 km/h (2 Bft)
07.09.2017 05:56 10,1 °C 10,1 °C 89 % 1016,3 hPa 0,0 mm 4,5 km/h (1 Bft) W-SW 242 ° 0 min 0,000 mm 0,0 UV-I 0 W/m² 8,4 °C 10,1 °C 6,4 km/h (2 Bft)
07.09.2017 05:57 10,1 °C 10,1 °C 89 % 1016,3 hPa 0,0 mm 1,5 km/h (1 Bft) W-SW 242 ° 0 min 0,000 mm 0,0 UV-I 0 W/m² 8,4 °C 10,1 °C 3,2 km/h (1 Bft)
07.09.2017 05:58 10,1 °C 10,1 °C 89 % 1016,3 hPa 0,0 mm 1,9 km/h (1 Bft) S-SW 206 ° 0 min 0,000 mm 0,0 UV-I 0 W/m² 8,4 °C 10,1 °C 4,8 km/h (1 Bft)
07.09.2017 05:59 10,1 °C 10,1 °C 89 % 1016,3 hPa 0,0 mm 3,0 km/h (1 Bft) S-SW 206 ° 0 min 0,000 mm 0,0 UV-I 0 W/m² 8,4 °C 10,1 °C 6,4 km/h (2 Bft)
07.09.2017 06:00 10,1 °C 10,1 °C 88 % 1016,2 hPa 0,0 mm 3,6 km/h (1 Bft) S-SW 204 ° 0 min 0,000 mm 0,0 UV-I 0 W/m² 8,2 °C 10,1 °C 4,8 km/h (1 Bft)
07.09.2017 06:01 10,1 °C 10,1 °C 88 % 1016,2 hPa 0,0 mm 5,4 km/h (1 Bft) S-SW 213 ° 0 min 0,000 mm 0,0 UV-I 0 W/m² 8,2 °C 10,1 °C 8,0 km/h (2 Bft)
07.09.2017 06:02 10,1 °C 10,1 °C 88 % 1016,2 hPa 0,0 mm 3,9 km/h (1 Bft) W-SW 249 ° 0 min 0,000 mm 0,0 UV-I 0 W/m² 8,2 °C 10,1 °C 6,4 km/h (2 Bft)
07.09.2017 06:03 10,1 °C 10,1 °C 88 % 1016,2 hPa 0,0 mm 4,3 km/h (1 Bft) SW 214 ° 0 min 0,000 mm 0,0 UV-I 0 W/m² 8,2 °C 10,1 °C 6,4 km/h (2 Bft)
07.09.2017 06:04 10,1 °C 10,1 °C 88 % 1016,2 hPa 0,0 mm 4,8 km/h (1 Bft) W-SW 254 ° 0 min 0,000 mm 0,0 UV-I 0 W/m² 8,2 °C 10,1 °C 11,3 km/h (2 Bft)
07.09.2017 06:05 10,1 °C 10,1 °C 88 % 1016,2 hPa 0,0 mm 4,4 km/h (1 Bft) S-SW 201 ° 0 min 0,000 mm 0,0 UV-I 0 W/m² 8,2 °C 10,1 °C 8,0 km/h (2 Bft)
07.09.2017 06:06 10,1 °C 10,1 °C 88 % 1016,2 hPa 0,0 mm 3,5 km/h (1 Bft) S-SW 201 ° 0 min 0,000 mm 0,0 UV-I 0 W/m² 8,2 °C 10,1 °C 4,8 km/h (1 Bft)
07.09.2017 06:07 10,1 °C 10,1 °C 88 % 1016,2 hPa 0,0 mm 3,5 km/h (1 Bft) S-SW 196 ° 0 min 0,000 mm 0,0 UV-I 0 W/m² 8,2 °C 10,1 °C 6,4 km/h (2 Bft)
07.09.2017 06:08 10,1 °C 10,1 °C 88 % 1016,1 hPa 0,0 mm 2,6 km/h (1 Bft) W-SW 240 ° 0 min 0,000 mm 0,0 UV-I 0 W/m² 8,2 °C 10,1 °C 4,8 km/h (1 Bft)
07.09.2017 06:09 10,1 °C 10,1 °C 88 % 1016,1 hPa 0,0 mm 1,3 km/h (1 Bft) W-SW 240 ° 0 min 0,000 mm 0,0 UV-I 0 W/m² 8,2 °C 10,1 °C 3,2 km/h (1 Bft)
07.09.2017 06:10 10,1 °C 10,1 °C 88 % 1016,2 hPa 0,0 mm 3,2 km/h (1 Bft) SW 219 ° 0 min 0,000 mm 0,0 UV-I 0 W/m² 8,2 °C 10,1 °C 6,4 km/h (2 Bft)
07.09.2017 06:11 10,1 °C 10,1 °C 88 % 1016,1 hPa 0,0 mm 4,6 km/h (1 Bft) S-SW 207 ° 0 min 0,000 mm 0,0 UV-I 0 W/m² 8,2 °C 10,1 °C 8,0 km/h (2 Bft)
07.09.2017 06:12 10,1 °C 10,1 °C 88 % 1016,1 hPa 0,0 mm 2,3 km/h (1 Bft) S-SW 207 ° 0 min 0,000 mm 0,0 UV-I 0 W/m² 8,2 °C 10,1 °C 4,8 km/h (1 Bft)
07.09.2017 06:13 10,1 °C 10,1 °C 88 % 1016,1 hPa 0,0 mm 0,5 km/h (0 Bft) S-SW 207 ° 0 min 0,000 mm 0,0 UV-I 0 W/m² 8,2 °C 10,1 °C 1,6 km/h (1 Bft)
07.09.2017 06:14 10,0 °C 10,1 °C 88 % 1016,1 hPa 0,0 mm 0,6 km/h (0 Bft) S-SW 207 ° 0 min 0,000 mm 0,0 UV-I 0 W/m² 8,1 °C 10,0 °C 1,6 km/h (1 Bft)
07.09.2017 06:15 10,0 °C 10,0 °C 88 % 1016,1 hPa 0,0 mm 1,2 km/h (1 Bft) S-SW 207 ° 0 min 0,000 mm 0,0 UV-I 0 W/m² 8,1 °C 10,0 °C 3,2 km/h (1 Bft)
07.09.2017 06:16 10,0 °C 10,1 °C 88 % 1016,1 hPa 0,0 mm 1,7 km/h (1 Bft) SW 231 ° 0 min 0,000 mm 0,0 UV-I 0 W/m² 8,1 °C 10,0 °C 4,8 km/h (1 Bft)
07.09.2017 06:17 10,0 °C 10,1 °C 89 % 1016,1 hPa 0,0 mm 0,9 km/h (0 Bft) SW 231 ° 0 min 0,000 mm 0,0 UV-I 0 W/m² 8,3 °C 10,0 °C 3,2 km/h (1 Bft)
07.09.2017 06:18 10,0 °C 10,0 °C 89 % 1016,1 hPa 0,0 mm 0,0 km/h (0 Bft) SW 231 ° 0 min 0,000 mm 0,0 UV-I 0 W/m² 8,3 °C 10,0 °C 0,0 km/h (0 Bft)
07.09.2017 06:19 10,0 °C 10,0 °C 89 % 1016,1 hPa 0,0 mm 2,5 km/h (1 Bft) S-SW 198 ° 0 min 0,000 mm 0,0 UV-I 0 W/m² 8,3 °C 10,0 °C 4,8 km/h (1 Bft)
07.09.2017 06:20 10,0 °C 10,0 °C 89 % 1016,1 hPa 0,0 mm 1,6 km/h (1 Bft) S-SW 198 ° 0 min 0,000 mm 0,0 UV-I 0 W/m² 8,3 °C 10,0 °C 3,2 km/h (1 Bft)
07.09.2017 06:21 10,0 °C 10,0 °C 89 % 1016,1 hPa 0,0 mm 2,4 km/h (1 Bft) W-SW 242 ° 0 min 0,000 mm 0,0 UV-I 0 W/m² 8,3 °C 10,0 °C 4,8 km/h (1 Bft)
07.09.2017 06:22 10,0 °C 10,0 °C 89 % 1016,1 hPa 0,0 mm 1,0 km/h (0 Bft) W-SW 242 ° 0 min 0,000 mm 0,0 UV-I 0 W/m² 8,3 °C 10,0 °C 3,2 km/h (1 Bft)
07.09.2017 06:23 9,9 °C 10,0 °C 89 % 1016,1 hPa 0,0 mm 1,5 km/h (1 Bft) S-SW 210 ° 0 min 0,000 mm 0,0 UV-I 0 W/m² 8,2 °C 9,9 °C 3,2 km/h (1 Bft)
07.09.2017 06:24 10,0 °C 10,0 °C 89 % 1016,1 hPa 0,0 mm 0,7 km/h (0 Bft) S-SW 210 ° 0 min 0,000 mm 0,0 UV-I 0 W/m² 8,3 °C 10,0 °C 1,6 km/h (1 Bft)
07.09.2017 06:25 10,0 °C 10,0 °C 89 % 1016,1 hPa 0,0 mm 0,3 km/h (0 Bft) S-SW 209 ° 0 min 0,000 mm 0,0 UV-I 0 W/m² 8,3 °C 10,0 °C 1,6 km/h (1 Bft)
07.09.2017 06:26 9,9 °C 10,0 °C 89 % 1016,1 hPa 0,0 mm 0,0 km/h (0 Bft) S-SW 210 ° 0 min 0,000 mm 0,0 UV-I 0 W/m² 8,2 °C 9,9 °C 0,0 km/h (0 Bft)
07.09.2017 06:27 9,9 °C 10,0 °C 90 % 1016,2 hPa 0,0 mm 2,8 km/h (1 Bft) SW 225 ° 0 min 0,000 mm 0,0 UV-I 0 W/m² 8,3 °C 9,9 °C 3,2 km/h (1 Bft)
07.09.2017 06:28 9,9 °C 10,0 °C 90 % 1016,2 hPa 0,0 mm 2,0 km/h (1 Bft) SW 225 ° 0 min 0,000 mm 0,0 UV-I 0 W/m² 8,3 °C 9,9 °C 3,2 km/h (1 Bft)
07.09.2017 06:29 9,9 °C 9,9 °C 89 % 1016,1 hPa 0,0 mm 0,5 km/h (0 Bft) SW 225 ° 0 min 0,000 mm 0,0 UV-I 0 W/m² 8,2 °C 9,9 °C 1,6 km/h (1 Bft)
07.09.2017 06:30 9,9 °C 9,9 °C 89 % 1016,2 hPa 0,0 mm 0,1 km/h (0 Bft) SW 225 ° 0 min 0,000 mm 0,0 UV-I 0 W/m² 8,2 °C 9,9 °C 1,6 km/h (1 Bft)
07.09.2017 06:31 9,9 °C 9,9 °C 89 % 1016,2 hPa 0,0 mm 0,2 km/h (0 Bft) SW 225 ° 0 min 0,000 mm 0,0 UV-I 0 W/m² 8,2 °C 9,9 °C 1,6 km/h (1 Bft)
07.09.2017 06:32 9,9 °C 9,9 °C 89 % 1016,1 hPa 0,0 mm 0,0 km/h (0 Bft) SW 225 ° 0 min 0,000 mm 0,0 UV-I 0 W/m² 8,2 °C 9,9 °C 0,0 km/h (0 Bft)
07.09.2017 06:33 9,9 °C 9,9 °C 89 % 1016,1 hPa 0,0 mm 0,1 km/h (0 Bft) SW 225 ° 0 min 0,000 mm 0,0 UV-I 0 W/m² 8,2 °C 9,9 °C 1,6 km/h (1 Bft)
07.09.2017 06:34 9,9 °C 9,9 °C 90 % 1016,1 hPa 0,0 mm 0,3 km/h (0 Bft) SW 225 ° 0 min 0,000 mm 0,0 UV-I 0 W/m² 8,3 °C 9,9 °C 1,6 km/h (1 Bft)
07.09.2017 06:35 9,9 °C 9,9 °C 90 % 1016,1 hPa 0,0 mm 0,1 km/h (0 Bft) SW 225 ° 0 min 0,000 mm 0,0 UV-I 0 W/m² 8,3 °C 9,9 °C 1,6 km/h (1 Bft)
07.09.2017 06:36 9,9 °C 9,9 °C 90 % 1016,1 hPa 0,0 mm 0,5 km/h (0 Bft) SW 225 ° 0 min 0,000 mm 0,0 UV-I 0 W/m² 8,3 °C 9,9 °C 1,6 km/h (1 Bft)
07.09.2017 06:37 9,9 °C 9,9 °C 90 % 1016,1 hPa 0,0 mm 0,0 km/h (0 Bft) SW 225 ° 0 min 0,000 mm 0,0 UV-I 0 W/m² 8,3 °C 9,9 °C 0,0 km/h (0 Bft)
07.09.2017 06:38 9,9 °C 9,9 °C 90 % 1016,1 hPa 0,0 mm 0,0 km/h (0 Bft) SW 225 ° 0 min 0,000 mm 0,0 UV-I 0 W/m² 8,3 °C 9,9 °C 0,0 km/h (0 Bft)
07.09.2017 06:39 9,9 °C 9,9 °C 90 % 1016,1 hPa 0,0 mm 0,3 km/h (0 Bft) SW 225 ° 0 min 0,000 mm 0,0 UV-I 0 W/m² 8,3 °C 9,9 °C 1,6 km/h (1 Bft)
07.09.2017 06:40 9,9 °C 9,9 °C 90 % 1016,1 hPa 0,0 mm 1,0 km/h (0 Bft) SW 225 ° 0 min 0,000 mm 0,0 UV-I 0 W/m² 8,3 °C 9,9 °C 3,2 km/h (1 Bft)
07.09.2017 06:41 9,9 °C 9,9 °C 90 % 1016,1 hPa 0,0 mm 2,2 km/h (1 Bft) W-SW 252 ° 0 min 0,000 mm 0,0 UV-I 0 W/m² 8,3 °C 9,9 °C 4,8 km/h (1 Bft)
07.09.2017 06:42 9,9 °C 9,9 °C 90 % 1016,1 hPa 0,0 mm 1,1 km/h (1 Bft) W-SW 252 ° 0 min 0,000 mm 0,0 UV-I 0 W/m² 8,3 °C 9,9 °C 1,6 km/h (1 Bft)
07.09.2017 06:43 9,9 °C 9,9 °C 90 % 1016,1 hPa 0,0 mm 2,3 km/h (1 Bft) W-SW 248 ° 0 min 0,000 mm 0,0 UV-I 0 W/m² 8,3 °C 9,9 °C 3,2 km/h (1 Bft)
07.09.2017 06:44 9,9 °C 9,9 °C 89 % 1016,1 hPa 0,0 mm 1,9 km/h (1 Bft) W-SW 238 ° 0 min 0,000 mm 0,0 UV-I 0 W/m² 8,2 °C 9,9 °C 4,8 km/h (1 Bft)
07.09.2017 06:45 9,9 °C 9,9 °C 89 % 1016,1 hPa 0,0 mm 2,5 km/h (1 Bft) SW 227 ° 0 min 0,000 mm 0,0 UV-I 0 W/m² 8,2 °C 9,9 °C 4,8 km/h (1 Bft)
07.09.2017 06:46 10,0 °C 10,0 °C 89 % 1016,1 hPa 0,0 mm 1,8 km/h (1 Bft) SW 227 ° 0 min 0,000 mm 0,0 UV-I 0 W/m² 8,3 °C 10,0 °C 3,2 km/h (1 Bft)
07.09.2017 06:47 10,0 °C 10,0 °C 90 % 1016,1 hPa 0,0 mm 3,3 km/h (1 Bft) S-SW 206 ° 0 min 0,000 mm 0,0 UV-I 0 W/m² 8,4 °C 10,0 °C 4,8 km/h (1 Bft)
07.09.2017 06:48 10,0 °C 10,0 °C 89 % 1016,1 hPa 0,0 mm 0,7 km/h (0 Bft) S-SW 206 ° 0 min 0,000 mm 0,0 UV-I 0 W/m² 8,3 °C 10,0 °C 3,2 km/h (1 Bft)
07.09.2017 06:49 10,1 °C 10,1 °C 89 % 1016,1 hPa 0,0 mm 2,2 km/h (1 Bft) SW 214 ° 0 min 0,000 mm 0,0 UV-I 0 W/m² 8,4 °C 10,1 °C 4,8 km/h (1 Bft)
07.09.2017 06:50 10,1 °C 10,1 °C 89 % 1016,1 hPa 0,0 mm 0,7 km/h (0 Bft) SW 214 ° 0 min 0,000 mm 0,0 UV-I 0 W/m² 8,4 °C 10,1 °C 1,6 km/h (1 Bft)
07.09.2017 06:51 10,1 °C 10,1 °C 89 % 1016,1 hPa 0,0 mm 0,1 km/h (0 Bft) SW 214 ° 0 min 0,000 mm 0,0 UV-I 5 W/m² 8,4 °C 10,1 °C 1,6 km/h (1 Bft)
07.09.2017 06:52 10,1 °C 10,2 °C 89 % 1016,1 hPa 0,0 mm 0,0 km/h (0 Bft) SW 214 ° 0 min 0,000 mm 0,0 UV-I 5 W/m² 8,4 °C 10,1 °C 0,0 km/h (0 Bft)
07.09.2017 06:53 10,1 °C 10,2 °C 89 % 1016,1 hPa 0,0 mm 0,6 km/h (0 Bft) SW 214 ° 0 min 0,000 mm 0,0 UV-I 5 W/m² 8,4 °C 10,1 °C 1,6 km/h (1 Bft)
07.09.2017 06:54 10,1 °C 10,1 °C 89 % 1016,1 hPa 0,0 mm 0,1 km/h (0 Bft) SW 214 ° 0 min 0,000 mm 0,0 UV-I 5 W/m² 8,4 °C 10,1 °C 1,6 km/h (1 Bft)
07.09.2017 06:55 10,1 °C 10,1 °C 89 % 1016,0 hPa 0,0 mm 0,1 km/h (0 Bft) SW 214 ° 0 min 0,000 mm 0,0 UV-I 7 W/m² 8,4 °C 10,1 °C 1,6 km/h (1 Bft)
07.09.2017 06:56 10,1 °C 10,1 °C 89 % 1016,0 hPa 0,0 mm 0,0 km/h (0 Bft) SW 214 ° 0 min 0,000 mm 0,0 UV-I 7 W/m² 8,4 °C 10,1 °C 0,0 km/h (0 Bft)
07.09.2017 06:57 10,1 °C 10,1 °C 89 % 1016,0 hPa 0,0 mm 0,9 km/h (0 Bft) SW 214 ° 0 min 0,000 mm 0,0 UV-I 9 W/m² 8,4 °C 10,1 °C 3,2 km/h (1 Bft)
07.09.2017 06:58 10,1 °C 10,1 °C 89 % 1016,0 hPa 0,0 mm 2,2 km/h (1 Bft) SW 214 ° 0 min 0,000 mm 0,0 UV-I 9 W/m² 8,4 °C 10,1 °C 3,2 km/h (1 Bft)
07.09.2017 06:59 10,1 °C 10,1 °C 88 % 1016,1 hPa 0,0 mm 2,7 km/h (1 Bft) SW 214 ° 0 min 0,000 mm 0,0 UV-I 11 W/m² 8,2 °C 10,1 °C 3,2 km/h (1 Bft)
07.09.2017 07:00 10,1 °C 10,1 °C 88 % 1016,0 hPa 0,0 mm 0,9 km/h (0 Bft) SW 214 ° 0 min 0,000 mm 0,0 UV-I 12 W/m² 8,2 °C 10,1 °C 3,2 km/h (1 Bft)
07.09.2017 07:01 10,2 °C 10,2 °C 88 % 1016,0 hPa 0,0 mm 0,3 km/h (0 Bft) SW 214 ° 0 min 0,000 mm 0,0 UV-I 12 W/m² 8,3 °C 10,2 °C 1,6 km/h (1 Bft)
07.09.2017 07:02 10,2 °C 10,2 °C 88 % 1016,0 hPa 0,0 mm 0,0 km/h (0 Bft) SW 214 ° 0 min 0,000 mm 0,0 UV-I 12 W/m² 8,3 °C 10,2 °C 0,0 km/h (0 Bft)
07.09.2017 07:03 10,2 °C 10,2 °C 88 % 1016,0 hPa 0,0 mm 0,0 km/h (0 Bft) SW 214 ° 0 min 0,000 mm 0,0 UV-I 14 W/m² 8,3 °C 10,2 °C 0,0 km/h (0 Bft)
07.09.2017 07:04 10,2 °C 10,2 °C 88 % 1016,0 hPa 0,0 mm 0,0 km/h (0 Bft) SW 214 ° 0 min 0,000 mm 0,0 UV-I 14 W/m² 8,3 °C 10,2 °C 0,0 km/h (0 Bft)
07.09.2017 07:05 10,2 °C 10,2 °C 88 % 1016,0 hPa 0,0 mm 0,0 km/h (0 Bft) SW 214 ° 0 min 0,000 mm 0,0 UV-I 16 W/m² 8,3 °C 10,2 °C 0,0 km/h (0 Bft)
07.09.2017 07:06 10,2 °C 10,2 °C 89 % 1016,1 hPa 0,0 mm 0,0 km/h (0 Bft) SW 214 ° 0 min 0,000 mm 0,0 UV-I 16 W/m² 8,5 °C 10,2 °C 0,0 km/h (0 Bft)
07.09.2017 07:07 10,2 °C 10,2 °C 89 % 1016,1 hPa 0,0 mm 0,0 km/h (0 Bft) SW 214 ° 0 min 0,000 mm 0,0 UV-I 18 W/m² 8,5 °C 10,2 °C 0,0 km/h (0 Bft)
07.09.2017 07:08 10,1 °C 10,2 °C 90 % 1016,1 hPa 0,0 mm 0,0 km/h (0 Bft) SW 214 ° 0 min 0,000 mm 0,0 UV-I 18 W/m² 8,5 °C 10,1 °C 0,0 km/h (0 Bft)
07.09.2017 07:09 10,0 °C 10,1 °C 90 % 1016,1 hPa 0,0 mm 0,0 km/h (0 Bft) SW 214 ° 0 min 0,000 mm 0,0 UV-I 18 W/m² 8,4 °C 10,0 °C 0,0 km/h (0 Bft)
07.09.2017 07:10 9,9 °C 10,0 °C 91 % 1016,1 hPa 0,0 mm 0,0 km/h (0 Bft) SW 214 ° 0 min 0,000 mm 0,0 UV-I 18 W/m² 8,5 °C 9,9 °C 0,0 km/h (0 Bft)
07.09.2017 07:11 9,9 °C 9,9 °C 91 % 1016,1 hPa 0,0 mm 0,0 km/h (0 Bft) SW 214 ° 0 min 0,000 mm 0,0 UV-I 18 W/m² 8,5 °C 9,9 °C 0,0 km/h (0 Bft)
07.09.2017 07:12 9,8 °C 9,9 °C 91 % 1016,1 hPa 0,0 mm 0,0 km/h (0 Bft) SW 214 ° 0 min 0,000 mm 0,0 UV-I 21 W/m² 8,4 °C 9,8 °C 0,0 km/h (0 Bft)
07.09.2017 07:13 9,8 °C 9,8 °C 91 % 1016,1 hPa 0,0 mm 0,0 km/h (0 Bft) SW 214 ° 0 min 0,000 mm 0,0 UV-I 21 W/m² 8,4 °C 9,8 °C 0,0 km/h (0 Bft)
07.09.2017 07:14 9,7 °C 9,8 °C 92 % 1016,1 hPa 0,0 mm 0,0 km/h (0 Bft) SW 214 ° 0 min 0,000 mm 0,0 UV-I 21 W/m² 8,5 °C 9,7 °C 0,0 km/h (0 Bft)
07.09.2017 07:15 9,7 °C 9,7 °C 92 % 1016,1 hPa 0,0 mm 0,0 km/h (0 Bft) SW 214 ° 0 min 0,000 mm 0,0 UV-I 23 W/m² 8,5 °C 9,7 °C 0,0 km/h (0 Bft)
07.09.2017 07:16 9,7 °C 9,7 °C 92 % 1016,1 hPa 0,0 mm 0,0 km/h (0 Bft) SW 214 ° 0 min 0,000 mm 0,0 UV-I 23 W/m² 8,5 °C 9,7 °C 0,0 km/h (0 Bft)
07.09.2017 07:17 9,7 °C 9,7 °C 92 % 1016,2 hPa 0,0 mm 0,0 km/h (0 Bft) SW 214 ° 0 min 0,000 mm 0,0 UV-I 23 W/m² 8,5 °C 9,7 °C 0,0 km/h (0 Bft)
07.09.2017 07:18 9,7 °C 9,7 °C 92 % 1016,2 hPa 0,0 mm 0,7 km/h (0 Bft) S-SW 205 ° 0 min 0,000 mm 0,0 UV-I 23 W/m² 8,5 °C 9,7 °C 3,2 km/h (1 Bft)
07.09.2017 07:19 9,8 °C 9,8 °C 92 % 1016,2 hPa 0,0 mm 0,6 km/h (0 Bft) S-SW 205 ° 0 min 0,000 mm 0,0 UV-I 23 W/m² 8,6 °C 9,8 °C 3,2 km/h (1 Bft)
07.09.2017 07:20 9,8 °C 9,8 °C 92 % 1016,2 hPa 0,0 mm 0,0 km/h (0 Bft) S-SW 205 ° 0 min 0,000 mm 0,0 UV-I 23 W/m² 8,6 °C 9,8 °C 0,0 km/h (0 Bft)
07.09.2017 07:21 9,8 °C 9,8 °C 92 % 1016,2 hPa 0,0 mm 2,0 km/h (1 Bft) S-SW 200 ° 0 min 0,000 mm 0,0 UV-I 25 W/m² 8,6 °C 9,8 °C 4,8 km/h (1 Bft)
07.09.2017 07:22 9,9 °C 9,9 °C 91 % 1016,2 hPa 0,0 mm 0,5 km/h (0 Bft) S-SW 200 ° 0 min 0,000 mm 0,0 UV-I 25 W/m² 8,5 °C 9,9 °C 3,2 km/h (1 Bft)
07.09.2017 07:23 9,9 °C 9,9 °C 91 % 1016,2 hPa 0,0 mm 0,0 km/h (0 Bft) S-SW 200 ° 0 min 0,000 mm 0,0 UV-I 26 W/m² 8,5 °C 9,9 °C 0,0 km/h (0 Bft)
07.09.2017 07:24 9,9 °C 9,9 °C 91 % 1016,2 hPa 0,0 mm 0,0 km/h (0 Bft) S-SW 200 ° 0 min 0,000 mm 0,0 UV-I 28 W/m² 8,5 °C 9,9 °C 0,0 km/h (0 Bft)
07.09.2017 07:25 9,8 °C 9,9 °C 91 % 1016,2 hPa 0,0 mm 0,0 km/h (0 Bft) S-SW 200 ° 0 min 0,000 mm 0,0 UV-I 30 W/m² 8,4 °C 9,8 °C 0,0 km/h (0 Bft)
07.09.2017 07:26 9,8 °C 9,8 °C 92 % 1016,3 hPa 0,0 mm 0,0 km/h (0 Bft) S-SW 200 ° 0 min 0,000 mm 0,0 UV-I 32 W/m² 8,6 °C 9,8 °C 0,0 km/h (0 Bft)
07.09.2017 07:27 9,8 °C 9,8 °C 92 % 1016,3 hPa 0,0 mm 0,0 km/h (0 Bft) S-SW 200 ° 0 min 0,000 mm 0,0 UV-I 33 W/m² 8,6 °C 9,8 °C 0,0 km/h (0 Bft)
07.09.2017 07:28 9,8 °C 9,8 °C 92 % 1016,3 hPa 0,0 mm 0,0 km/h (0 Bft) S-SW 200 ° 0 min 0,000 mm 0,0 UV-I 33 W/m² 8,6 °C 9,8 °C 0,0 km/h (0 Bft)
07.09.2017 07:29 9,8 °C 9,8 °C 92 % 1016,3 hPa 0,0 mm 0,0 km/h (0 Bft) S-SW 200 ° 0 min 0,000 mm 0,0 UV-I 33 W/m² 8,6 °C 9,8 °C 0,0 km/h (0 Bft)
07.09.2017 07:30 9,7 °C 9,8 °C 92 % 1016,3 hPa 0,0 mm 0,0 km/h (0 Bft) S-SW 200 ° 0 min 0,000 mm 0,0 UV-I 33 W/m² 8,5 °C 9,7 °C 0,0 km/h (0 Bft)
07.09.2017 07:31 9,7 °C 9,8 °C 92 % 1016,3 hPa 0,0 mm 0,0 km/h (0 Bft) S-SW 200 ° 0 min 0,000 mm 0,0 UV-I 32 W/m² 8,5 °C 9,7 °C 0,0 km/h (0 Bft)
07.09.2017 07:32 9,8 °C 9,8 °C 93 % 1016,3 hPa 0,0 mm 0,0 km/h (0 Bft) S-SW 200 ° 0 min 0,000 mm 0,0 UV-I 32 W/m² 8,7 °C 9,8 °C 0,0 km/h (0 Bft)
07.09.2017 07:33 9,8 °C 9,8 °C 93 % 1016,3 hPa 0,0 mm 0,0 km/h (0 Bft) S-SW 200 ° 0 min 0,000 mm 0,0 UV-I 33 W/m² 8,7 °C 9,8 °C 0,0 km/h (0 Bft)
07.09.2017 07:34 9,8 °C 9,8 °C 93 % 1016,3 hPa 0,0 mm 0,0 km/h (0 Bft) S-SW 200 ° 0 min 0,000 mm 0,0 UV-I 33 W/m² 8,7 °C 9,8 °C 0,0 km/h (0 Bft)
07.09.2017 07:35 9,8 °C 9,8 °C 93 % 1016,3 hPa 0,0 mm 0,0 km/h (0 Bft) S-SW 200 ° 0 min 0,000 mm 0,0 UV-I 33 W/m² 8,7 °C 9,8 °C 0,0 km/h (0 Bft)
07.09.2017 07:36 9,8 °C 9,8 °C 93 % 1016,3 hPa 0,0 mm 0,0 km/h (0 Bft) S-SW 200 ° 0 min 0,000 mm 0,0 UV-I 33 W/m² 8,7 °C 9,8 °C 0,0 km/h (0 Bft)
07.09.2017 07:37 9,8 °C 9,8 °C 93 % 1016,3 hPa 0,0 mm 0,0 km/h (0 Bft) S-SW 200 ° 0 min 0,000 mm 0,0 UV-I 33 W/m² 8,7 °C 9,8 °C 0,0 km/h (0 Bft)
07.09.2017 07:38 9,8 °C 9,8 °C 93 % 1016,3 hPa 0,0 mm 0,0 km/h (0 Bft) S-SW 200 ° 0 min 0,000 mm 0,0 UV-I 33 W/m² 8,7 °C 9,8 °C 0,0 km/h (0 Bft)
07.09.2017 07:39 9,7 °C 9,8 °C 93 % 1016,3 hPa 0,0 mm 0,0 km/h (0 Bft) S-SW 200 ° 0 min 0,000 mm 0,0 UV-I 35 W/m² 8,6 °C 9,7 °C 0,0 km/h (0 Bft)
07.09.2017 07:40 9,8 °C 9,8 °C 93 % 1016,3 hPa 0,0 mm 0,0 km/h (0 Bft) S-SW 200 ° 0 min 0,000 mm 0,0 UV-I 35 W/m² 8,7 °C 9,8 °C 0,0 km/h (0 Bft)
07.09.2017 07:41 9,8 °C 9,8 °C 93 % 1016,4 hPa 0,0 mm 0,0 km/h (0 Bft) S-SW 200 ° 0 min 0,000 mm 0,0 UV-I 35 W/m² 8,7 °C 9,8 °C 0,0 km/h (0 Bft)
07.09.2017 07:42 9,9 °C 9,9 °C 93 % 1016,4 hPa 0,0 mm 0,0 km/h (0 Bft) S-SW 200 ° 0 min 0,000 mm 0,0 UV-I 37 W/m² 8,8 °C 9,9 °C 0,0 km/h (0 Bft)
07.09.2017 07:43 9,8 °C 9,9 °C 93 % 1016,4 hPa 0,0 mm 0,0 km/h (0 Bft) S-SW 200 ° 0 min 0,000 mm 0,0 UV-I 39 W/m² 8,7 °C 9,8 °C 0,0 km/h (0 Bft)
07.09.2017 07:44 9,9 °C 9,9 °C 93 % 1016,4 hPa 0,0 mm 0,0 km/h (0 Bft) S-SW 200 ° 0 min 0,000 mm 0,0 UV-I 40 W/m² 8,8 °C 9,9 °C 0,0 km/h (0 Bft)
07.09.2017 07:45 9,8 °C 9,9 °C 93 % 1016,4 hPa 0,0 mm 0,0 km/h (0 Bft) S-SW 200 ° 0 min 0,000 mm 0,0 UV-I 42 W/m² 8,7 °C 9,8 °C 0,0 km/h (0 Bft)
07.09.2017 07:46 9,8 °C 9,8 °C 93 % 1016,4 hPa 0,0 mm 0,0 km/h (0 Bft) S-SW 200 ° 0 min 0,000 mm 0,0 UV-I 42 W/m² 8,7 °C 9,8 °C 0,0 km/h (0 Bft)
07.09.2017 07:47 9,9 °C 9,9 °C 93 % 1016,4 hPa 0,0 mm 0,0 km/h (0 Bft) S-SW 200 ° 0 min 0,000 mm 0,0 UV-I 40 W/m² 8,8 °C 9,9 °C 0,0 km/h (0 Bft)
07.09.2017 07:48 9,9 °C 9,9 °C 93 % 1016,4 hPa 0,0 mm 0,0 km/h (0 Bft) S-SW 200 ° 0 min 0,000 mm 0,0 UV-I 40 W/m² 8,8 °C 9,9 °C 0,0 km/h (0 Bft)
07.09.2017 07:49 9,9 °C 9,9 °C 93 % 1016,4 hPa 0,0 mm 0,0 km/h (0 Bft) S-SW 200 ° 0 min 0,000 mm 0,0 UV-I 40 W/m² 8,8 °C 9,9 °C 0,0 km/h (0 Bft)
07.09.2017 07:50 9,9 °C 9,9 °C 93 % 1016,4 hPa 0,0 mm 0,0 km/h (0 Bft) S-SW 200 ° 0 min 0,000 mm 0,0 UV-I 42 W/m² 8,8 °C 9,9 °C 0,0 km/h (0 Bft)
07.09.2017 07:51 9,9 °C 9,9 °C 93 % 1016,4 hPa 0,2 mm 0,0 km/h (0 Bft) S-SW 200 ° 0 min 0,000 mm 0,0 UV-I 42 W/m² 8,8 °C 9,9 °C 0,0 km/h (0 Bft)
07.09.2017 07:52 9,9 °C 9,9 °C 93 % 1016,4 hPa 0,0 mm 0,0 km/h (0 Bft) S-SW 200 ° 0 min 0,000 mm 0,0 UV-I 44 W/m² 8,8 °C 9,9 °C 0,0 km/h (0 Bft)
07.09.2017 07:53 9,9 °C 9,9 °C 93 % 1016,3 hPa 0,0 mm 0,0 km/h (0 Bft) S-SW 200 ° 0 min 0,000 mm 0,0 UV-I 47 W/m² 8,8 °C 9,9 °C 0,0 km/h (0 Bft)
07.09.2017 07:54 9,9 °C 9,9 °C 93 % 1016,4 hPa 0,0 mm 0,0 km/h (0 Bft) S-SW 200 ° 0 min 0,000 mm 0,0 UV-I 47 W/m² 8,8 °C 9,9 °C 0,0 km/h (0 Bft)
07.09.2017 07:55 10,0 °C 10,0 °C 93 % 1016,4 hPa 0,0 mm 0,0 km/h (0 Bft) S-SW 200 ° 0 min 0,000 mm 0,0 UV-I 47 W/m² 8,9 °C 10,0 °C 0,0 km/h (0 Bft)
07.09.2017 07:56 10,0 °C 10,0 °C 93 % 1016,3 hPa 0,0 mm 0,0 km/h (0 Bft) S-SW 200 ° 0 min 0,000 mm 0,0 UV-I 47 W/m² 8,9 °C 10,0 °C 0,0 km/h (0 Bft)
07.09.2017 07:57 10,0 °C 10,0 °C 93 % 1016,3 hPa 0,0 mm 0,0 km/h (0 Bft) S-SW 200 ° 0 min 0,000 mm 0,0 UV-I 47 W/m² 8,9 °C 10,0 °C 0,0 km/h (0 Bft)
07.09.2017 07:58 10,0 °C 10,0 °C 93 % 1016,3 hPa 0,0 mm 0,0 km/h (0 Bft) S-SW 200 ° 0 min 0,000 mm 0,0 UV-I 47 W/m² 8,9 °C 10,0 °C 0,0 km/h (0 Bft)
07.09.2017 07:59 10,1 °C 10,1 °C 93 % 1016,3 hPa 0,0 mm 0,0 km/h (0 Bft) S-SW 200 ° 0 min 0,000 mm 0,0 UV-I 49 W/m² 9,0 °C 10,1 °C 0,0 km/h (0 Bft)
07.09.2017 08:00 10,1 °C 10,1 °C 93 % 1016,3 hPa 0,0 mm 0,0 km/h (0 Bft) S-SW 200 ° 0 min 0,000 mm 0,0 UV-I 49 W/m² 9,0 °C 10,1 °C 0,0 km/h (0 Bft)
07.09.2017 08:01 10,1 °C 10,1 °C 93 % 1016,3 hPa 0,0 mm 0,0 km/h (0 Bft) S-SW 200 ° 0 min 0,026 mm 0,0 UV-I 47 W/m² 9,0 °C 10,1 °C 0,0 km/h (0 Bft)
07.09.2017 08:02 10,1 °C 10,1 °C 93 % 1016,3 hPa 0,0 mm 0,0 km/h (0 Bft) S-SW 200 ° 0 min 0,000 mm 0,0 UV-I 46 W/m² 9,0 °C 10,1 °C 0,0 km/h (0 Bft)
07.09.2017 08:03 10,1 °C 10,1 °C 93 % 1016,3 hPa 0,0 mm 0,0 km/h (0 Bft) S-SW 200 ° 0 min 0,000 mm 0,0 UV-I 44 W/m² 9,0 °C 10,1 °C 0,0 km/h (0 Bft)
07.09.2017 08:04 10,1 °C 10,1 °C 93 % 1016,3 hPa 0,0 mm 0,0 km/h (0 Bft) S-SW 200 ° 0 min 0,000 mm 0,0 UV-I 40 W/m² 9,0 °C 10,1 °C 0,0 km/h (0 Bft)
07.09.2017 08:05 10,1 °C 10,1 °C 93 % 1016,3 hPa 0,0 mm 0,0 km/h (0 Bft) S-SW 200 ° 0 min 0,000 mm 0,0 UV-I 37 W/m² 9,0 °C 10,1 °C 0,0 km/h (0 Bft)
07.09.2017 08:06 10,1 °C 10,1 °C 93 % 1016,3 hPa 0,0 mm 0,0 km/h (0 Bft) S-SW 200 ° 0 min 0,000 mm 0,0 UV-I 37 W/m² 9,0 °C 10,1 °C 0,0 km/h (0 Bft)
07.09.2017 08:07 10,1 °C 10,1 °C 93 % 1016,3 hPa 0,0 mm 0,0 km/h (0 Bft) S-SW 200 ° 0 min 0,000 mm 0,0 UV-I 39 W/m² 9,0 °C 10,1 °C 0,0 km/h (0 Bft)
07.09.2017 08:08 10,2 °C 10,2 °C 93 % 1016,3 hPa 0,0 mm 0,0 km/h (0 Bft) S-SW 200 ° 0 min 0,000 mm 0,0 UV-I 40 W/m² 9,1 °C 10,2 °C 0,0 km/h (0 Bft)
07.09.2017 08:09 10,2 °C 10,2 °C 93 % 1016,3 hPa 0,0 mm 0,0 km/h (0 Bft) S-SW 200 ° 0 min 0,000 mm 0,0 UV-I 42 W/m² 9,1 °C 10,2 °C 0,0 km/h (0 Bft)
07.09.2017 08:10 10,2 °C 10,2 °C 93 % 1016,2 hPa 0,0 mm 0,0 km/h (0 Bft) S-SW 200 ° 0 min 0,000 mm 0,0 UV-I 44 W/m² 9,1 °C 10,2 °C 0,0 km/h (0 Bft)
07.09.2017 08:11 10,2 °C 10,2 °C 93 % 1016,3 hPa 0,0 mm 0,0 km/h (0 Bft) S-SW 200 ° 0 min 0,000 mm 0,0 UV-I 47 W/m² 9,1 °C 10,2 °C 0,0 km/h (0 Bft)
07.09.2017 08:12 10,2 °C 10,2 °C 93 % 1016,3 hPa 0,0 mm 0,0 km/h (0 Bft) S-SW 200 ° 0 min 0,000 mm 0,0 UV-I 49 W/m² 9,1 °C 10,2 °C 0,0 km/h (0 Bft)
07.09.2017 08:13 10,2 °C 10,2 °C 93 % 1016,3 hPa 0,0 mm 0,0 km/h (0 Bft) S-SW 200 ° 0 min 0,000 mm 0,0 UV-I 53 W/m² 9,1 °C 10,2 °C 0,0 km/h (0 Bft)
07.09.2017 08:14 10,3 °C 10,3 °C 93 % 1016,3 hPa 0,0 mm 0,0 km/h (0 Bft) S-SW 200 ° 0 min 0,000 mm 0,0 UV-I 53 W/m² 9,2 °C 10,3 °C 0,0 km/h (0 Bft)
07.09.2017 08:15 10,2 °C 10,3 °C 93 % 1016,2 hPa 0,0 mm 0,0 km/h (0 Bft) S-SW 200 ° 0 min 0,000 mm 0,0 UV-I 54 W/m² 9,1 °C 10,2 °C 0,0 km/h (0 Bft)
07.09.2017 08:16 10,3 °C 10,3 °C 93 % 1016,2 hPa 0,0 mm 0,0 km/h (0 Bft) S-SW 200 ° 0 min 0,000 mm 0,0 UV-I 56 W/m² 9,2 °C 10,3 °C 0,0 km/h (0 Bft)
07.09.2017 08:17 10,3 °C 10,3 °C 93 % 1016,2 hPa 0,0 mm 0,0 km/h (0 Bft) S-SW 200 ° 0 min 0,000 mm 0,0 UV-I 58 W/m² 9,2 °C 10,3 °C 0,0 km/h (0 Bft)
07.09.2017 08:18 10,3 °C 10,3 °C 93 % 1016,2 hPa 0,0 mm 0,0 km/h (0 Bft) S-SW 200 ° 0 min 0,000 mm 0,0 UV-I 60 W/m² 9,2 °C 10,3 °C 0,0 km/h (0 Bft)
07.09.2017 08:19 10,3 °C 10,3 °C 93 % 1016,2 hPa 0,0 mm 0,0 km/h (0 Bft) S-SW 200 ° 0 min 0,000 mm 0,0 UV-I 60 W/m² 9,2 °C 10,3 °C 0,0 km/h (0 Bft)
07.09.2017 08:20 10,4 °C 10,4 °C 93 % 1016,2 hPa 0,0 mm 0,0 km/h (0 Bft) S-SW 200 ° 0 min 0,000 mm 0,0 UV-I 60 W/m² 9,3 °C 10,4 °C 0,0 km/h (0 Bft)
07.09.2017 08:21 10,3 °C 10,4 °C 93 % 1016,2 hPa 0,0 mm 0,0 km/h (0 Bft) S-SW 200 ° 0 min 0,000 mm 0,0 UV-I 60 W/m² 9,2 °C 10,3 °C 0,0 km/h (0 Bft)
07.09.2017 08:22 10,3 °C 10,3 °C 92 % 1016,2 hPa 0,0 mm 0,0 km/h (0 Bft) S-SW 200 ° 0 min 0,000 mm 0,0 UV-I 60 W/m² 9,1 °C 10,3 °C 0,0 km/h (0 Bft)
07.09.2017 08:23 10,4 °C 10,4 °C 92 % 1016,2 hPa 0,0 mm 0,0 km/h (0 Bft) S-SW 200 ° 0 min 0,000 mm 0,0 UV-I 63 W/m² 9,2 °C 10,4 °C 0,0 km/h (0 Bft)
07.09.2017 08:24 10,4 °C 10,4 °C 92 % 1016,2 hPa 0,0 mm 0,0 km/h (0 Bft) S-SW 200 ° 0 min 0,000 mm 0,0 UV-I 67 W/m² 9,2 °C 10,4 °C 0,0 km/h (0 Bft)
07.09.2017 08:25 10,6 °C 10,6 °C 92 % 1016,3 hPa 0,0 mm 0,0 km/h (0 Bft) S-SW 200 ° 0 min 0,000 mm 0,5 UV-I 69 W/m² 9,4 °C 10,6 °C 0,0 km/h (0 Bft)
07.09.2017 08:26 10,6 °C 10,6 °C 92 % 1016,2 hPa 0,0 mm 0,1 km/h (0 Bft) S-SW 200 ° 0 min 0,000 mm 0,5 UV-I 72 W/m² 9,4 °C 10,6 °C 1,6 km/h (1 Bft)
07.09.2017 08:27 10,6 °C 10,6 °C 92 % 1016,3 hPa 0,0 mm 0,0 km/h (0 Bft) S-SW 200 ° 0 min 0,000 mm 0,5 UV-I 74 W/m² 9,4 °C 10,6 °C 0,0 km/h (0 Bft)
07.09.2017 08:28 10,7 °C 10,7 °C 92 % 1016,3 hPa 0,0 mm 1,2 km/h (1 Bft) S-SW 200 ° 0 min 0,000 mm 0,5 UV-I 81 W/m² 9,5 °C 10,7 °C 3,2 km/h (1 Bft)
07.09.2017 08:29 10,7 °C 10,7 °C 91 % 1016,3 hPa 0,0 mm 1,0 km/h (0 Bft) S-SW 200 ° 0 min 0,000 mm 0,5 UV-I 79 W/m² 9,3 °C 10,7 °C 1,6 km/h (1 Bft)
07.09.2017 08:30 10,7 °C 10,7 °C 91 % 1016,3 hPa 0,0 mm 0,4 km/h (0 Bft) S-SW 200 ° 0 min 0,000 mm 0,5 UV-I 77 W/m² 9,3 °C 10,7 °C 1,6 km/h (1 Bft)
07.09.2017 08:31 10,7 °C 10,7 °C 91 % 1016,2 hPa 0,0 mm 0,2 km/h (0 Bft) S-SW 200 ° 0 min 0,000 mm 0,5 UV-I 72 W/m² 9,3 °C 10,7 °C 1,6 km/h (1 Bft)
07.09.2017 08:32 10,7 °C 10,7 °C 91 % 1016,2 hPa 0,0 mm 3,1 km/h (1 Bft) S-SW 200 ° 0 min 0,000 mm 0,0 UV-I 67 W/m² 9,3 °C 10,7 °C 4,8 km/h (1 Bft)
07.09.2017 08:33 10,8 °C 10,8 °C 91 % 1016,2 hPa 0,0 mm 3,6 km/h (1 Bft) S-SW 200 ° 0 min 0,000 mm 0,0 UV-I 62 W/m² 9,4 °C 10,8 °C 4,8 km/h (1 Bft)
07.09.2017 08:34 10,7 °C 10,8 °C 90 % 1016,3 hPa 0,0 mm 2,6 km/h (1 Bft) S-SW 200 ° 0 min 0,000 mm 0,0 UV-I 56 W/m² 9,1 °C 10,7 °C 4,8 km/h (1 Bft)
07.09.2017 08:35 10,8 °C 10,8 °C 90 % 1016,3 hPa 0,0 mm 3,6 km/h (1 Bft) S-SW 197 ° 0 min 0,000 mm 0,0 UV-I 53 W/m² 9,2 °C 10,8 °C 6,4 km/h (2 Bft)
07.09.2017 08:36 10,8 °C 10,8 °C 90 % 1016,3 hPa 0,0 mm 2,5 km/h (1 Bft) S-SW 197 ° 0 min 0,000 mm 0,0 UV-I 53 W/m² 9,2 °C 10,8 °C 4,8 km/h (1 Bft)
07.09.2017 08:37 10,8 °C 10,8 °C 90 % 1016,2 hPa 0,0 mm 1,0 km/h (0 Bft) S-SW 197 ° 0 min 0,000 mm 0,0 UV-I 54 W/m² 9,2 °C 10,8 °C 3,2 km/h (1 Bft)
07.09.2017 08:38 10,8 °C 10,8 °C 90 % 1016,2 hPa 0,0 mm 1,4 km/h (1 Bft) S-SW 197 ° 0 min 0,000 mm 0,0 UV-I 54 W/m² 9,2 °C 10,8 °C 3,2 km/h (1 Bft)
07.09.2017 08:39 10,8 °C 10,8 °C 90 % 1016,3 hPa 0,0 mm 2,0 km/h (1 Bft) S-SW 197 ° 0 min 0,000 mm 0,0 UV-I 62 W/m² 9,2 °C 10,8 °C 3,2 km/h (1 Bft)
07.09.2017 08:40 10,8 °C 10,8 °C 90 % 1016,3 hPa 0,0 mm 0,4 km/h (0 Bft) S-SW 197 ° 0 min 0,000 mm 0,0 UV-I 63 W/m² 9,2 °C 10,8 °C 1,6 km/h (1 Bft)
07.09.2017 08:41 10,9 °C 10,9 °C 91 % 1016,2 hPa 0,0 mm 0,0 km/h (0 Bft) S-SW 197 ° 0 min 0,000 mm 0,0 UV-I 65 W/m² 9,5 °C 10,9 °C 0,0 km/h (0 Bft)
07.09.2017 08:42 10,9 °C 10,9 °C 91 % 1016,2 hPa 0,0 mm 0,0 km/h (0 Bft) S-SW 197 ° 0 min 0,000 mm 0,0 UV-I 67 W/m² 9,5 °C 10,9 °C 0,0 km/h (0 Bft)
07.09.2017 08:43 10,9 °C 10,9 °C 92 % 1016,2 hPa 0,0 mm 0,0 km/h (0 Bft) S-SW 197 ° 0 min 0,000 mm 0,5 UV-I 70 W/m² 9,7 °C 10,9 °C 0,0 km/h (0 Bft)
07.09.2017 08:44 10,9 °C 10,9 °C 92 % 1016,3 hPa 0,0 mm 0,0 km/h (0 Bft) S-SW 197 ° 0 min 0,000 mm 0,5 UV-I 77 W/m² 9,7 °C 10,9 °C 0,0 km/h (0 Bft)
07.09.2017 08:45 10,9 °C 10,9 °C 92 % 1016,3 hPa 0,0 mm 0,0 km/h (0 Bft) S-SW 197 ° 0 min 0,000 mm 0,5 UV-I 81 W/m² 9,7 °C 10,9 °C 0,0 km/h (0 Bft)
07.09.2017 08:46 10,8 °C 10,9 °C 91 % 1016,2 hPa 0,0 mm 0,0 km/h (0 Bft) S-SW 197 ° 0 min 0,000 mm 0,5 UV-I 83 W/m² 9,4 °C 10,8 °C 0,0 km/h (0 Bft)
07.09.2017 08:47 10,8 °C 10,8 °C 91 % 1016,3 hPa 0,0 mm 0,0 km/h (0 Bft) S-SW 197 ° 0 min 0,000 mm 0,5 UV-I 81 W/m² 9,4 °C 10,8 °C 0,0 km/h (0 Bft)
07.09.2017 08:48 10,9 °C 10,9 °C 91 % 1016,3 hPa 0,0 mm 0,8 km/h (0 Bft) S-SW 197 ° 0 min 0,000 mm 0,5 UV-I 77 W/m² 9,5 °C 10,9 °C 1,6 km/h (1 Bft)
07.09.2017 08:49 10,9 °C 10,9 °C 91 % 1016,2 hPa 0,0 mm 0,1 km/h (0 Bft) S-SW 197 ° 0 min 0,000 mm 0,5 UV-I 76 W/m² 9,5 °C 10,9 °C 1,6 km/h (1 Bft)
07.09.2017 08:50 10,9 °C 10,9 °C 91 % 1016,2 hPa 0,0 mm 0,9 km/h (0 Bft) S-SW 197 ° 0 min 0,000 mm 0,5 UV-I 76 W/m² 9,5 °C 10,9 °C 1,6 km/h (1 Bft)
07.09.2017 08:51 10,9 °C 10,9 °C 90 % 1016,3 hPa 0,0 mm 0,7 km/h (0 Bft) S-SW 197 ° 0 min 0,000 mm 0,5 UV-I 74 W/m² 9,3 °C 10,9 °C 1,6 km/h (1 Bft)
07.09.2017 08:52 11,0 °C 11,0 °C 90 % 1016,2 hPa 0,0 mm 0,1 km/h (0 Bft) S-SW 197 ° 0 min 0,000 mm 0,5 UV-I 69 W/m² 9,4 °C 11,0 °C 1,6 km/h (1 Bft)
07.09.2017 08:53 11,0 °C 11,0 °C 90 % 1016,2 hPa 0,0 mm 0,3 km/h (0 Bft) S-SW 197 ° 0 min 0,000 mm 0,5 UV-I 70 W/m² 9,4 °C 11,0 °C 1,6 km/h (1 Bft)
07.09.2017 08:54 11,0 °C 11,1 °C 90 % 1016,3 hPa 0,0 mm 0,3 km/h (0 Bft) S-SW 197 ° 0 min 0,000 mm 0,5 UV-I 74 W/m² 9,4 °C 11,0 °C 1,6 km/h (1 Bft)
07.09.2017 08:55 11,1 °C 11,1 °C 89 % 1016,3 hPa 0,0 mm 0,0 km/h (0 Bft) S-SW 197 ° 0 min 0,000 mm 0,6 UV-I 79 W/m² 9,4 °C 11,1 °C 0,0 km/h (0 Bft)
07.09.2017 08:56 11,1 °C 11,1 °C 89 % 1016,3 hPa 0,0 mm 0,0 km/h (0 Bft) S-SW 197 ° 0 min 0,000 mm 0,6 UV-I 84 W/m² 9,4 °C 11,1 °C 0,0 km/h (0 Bft)
07.09.2017 08:57 11,1 °C 11,1 °C 90 % 1016,2 hPa 0,0 mm 0,4 km/h (0 Bft) S-SW 197 ° 0 min 0,000 mm 0,6 UV-I 90 W/m² 9,5 °C 11,1 °C 1,6 km/h (1 Bft)
07.09.2017 08:58 11,2 °C 11,2 °C 90 % 1016,2 hPa 0,0 mm 0,0 km/h (0 Bft) S-SW 197 ° 0 min 0,000 mm 0,7 UV-I 104 W/m² 9,6 °C 11,2 °C 0,0 km/h (0 Bft)
07.09.2017 08:59 11,2 °C 11,2 °C 90 % 1016,2 hPa 0,0 mm 0,1 km/h (0 Bft) S-SW 197 ° 0 min 0,000 mm 0,8 UV-I 111 W/m² 9,6 °C 11,2 °C 1,6 km/h (1 Bft)
07.09.2017 09:00 11,2 °C 11,2 °C 90 % 1016,3 hPa 0,0 mm 0,0 km/h (0 Bft) S-SW 197 ° 0 min 0,025 mm 0,8 UV-I 118 W/m² 9,6 °C 11,2 °C 0,0 km/h (0 Bft)
07.09.2017 09:01 11,2 °C 11,2 °C 90 % 1016,2 hPa 0,0 mm 0,0 km/h (0 Bft) S-SW 197 ° 0 min 0,000 mm 0,8 UV-I 123 W/m² 9,6 °C 11,2 °C 0,0 km/h (0 Bft)
07.09.2017 09:02 11,2 °C 11,2 °C 90 % 1016,2 hPa 0,0 mm 0,0 km/h (0 Bft) S-SW 197 ° 0 min 0,000 mm 0,8 UV-I 123 W/m² 9,6 °C 11,2 °C 0,0 km/h (0 Bft)
07.09.2017 09:03 11,3 °C 11,3 °C 90 % 1016,2 hPa 0,0 mm 0,5 km/h (0 Bft) S-SW 197 ° 0 min 0,000 mm 0,9 UV-I 132 W/m² 9,7 °C 11,3 °C 1,6 km/h (1 Bft)
07.09.2017 09:04 11,3 °C 11,3 °C 90 % 1016,3 hPa 0,0 mm 0,0 km/h (0 Bft) S-SW 197 ° 0 min 0,000 mm 0,9 UV-I 137 W/m² 9,7 °C 11,3 °C 0,0 km/h (0 Bft)
07.09.2017 09:05 11,3 °C 11,3 °C 89 % 1016,2 hPa 0,0 mm 0,0 km/h (0 Bft) S-SW 197 ° 0 min 0,000 mm 0,9 UV-I 137 W/m² 9,6 °C 11,3 °C 0,0 km/h (0 Bft)
07.09.2017 09:06 11,3 °C 11,3 °C 89 % 1016,3 hPa 0,0 mm 1,9 km/h (1 Bft) SW 223 ° 0 min 0,000 mm 0,9 UV-I 137 W/m² 9,6 °C 11,3 °C 3,2 km/h (1 Bft)
07.09.2017 09:07 11,4 °C 11,4 °C 89 % 1016,3 hPa 0,0 mm 0,0 km/h (0 Bft) SW 223 ° 0 min 0,000 mm 0,9 UV-I 137 W/m² 9,7 °C 11,4 °C 0,0 km/h (0 Bft)
07.09.2017 09:08 11,4 °C 11,4 °C 88 % 1016,2 hPa 0,0 mm 1,0 km/h (0 Bft) SW 223 ° 0 min 0,000 mm 1,0 UV-I 141 W/m² 9,5 °C 11,4 °C 1,6 km/h (1 Bft)
07.09.2017 09:09 11,4 °C 11,4 °C 88 % 1016,2 hPa 0,0 mm 0,0 km/h (0 Bft) SW 223 ° 0 min 0,000 mm 1,0 UV-I 148 W/m² 9,5 °C 11,4 °C 0,0 km/h (0 Bft)
07.09.2017 09:10 11,4 °C 11,4 °C 88 % 1016,2 hPa 0,0 mm 0,0 km/h (0 Bft) SW 223 ° 0 min 0,000 mm 1,0 UV-I 149 W/m² 9,5 °C 11,4 °C 0,0 km/h (0 Bft)
07.09.2017 09:11 11,4 °C 11,4 °C 87 % 1016,2 hPa 0,0 mm 0,0 km/h (0 Bft) SW 223 ° 0 min 0,000 mm 1,0 UV-I 151 W/m² 9,3 °C 11,4 °C 0,0 km/h (0 Bft)
07.09.2017 09:12 11,4 °C 11,4 °C 87 % 1016,2 hPa 0,0 mm 1,5 km/h (1 Bft) S-SW 200 ° 0 min 0,000 mm 1,0 UV-I 153 W/m² 9,3 °C 11,4 °C 3,2 km/h (1 Bft)
07.09.2017 09:13 11,4 °C 11,4 °C 87 % 1016,2 hPa 0,0 mm 0,9 km/h (0 Bft) S-SW 200 ° 0 min 0,000 mm 1,0 UV-I 151 W/m² 9,3 °C 11,4 °C 3,2 km/h (1 Bft)
07.09.2017 09:14 11,4 °C 11,5 °C 89 % 1016,2 hPa 0,0 mm 0,0 km/h (0 Bft) S-SW 200 ° 0 min 0,000 mm 0,9 UV-I 144 W/m² 9,7 °C 11,4 °C 0,0 km/h (0 Bft)
07.09.2017 09:15 11,5 °C 11,5 °C 88 % 1016,3 hPa 0,0 mm 0,8 km/h (0 Bft) S-SW 201 ° 0 min 0,000 mm 0,9 UV-I 125 W/m² 9,6 °C 11,5 °C 3,2 km/h (1 Bft)
07.09.2017 09:16 11,6 °C 11,6 °C 89 % 1016,3 hPa 0,0 mm 3,4 km/h (1 Bft) W 269 ° 0 min 0,000 mm 0,8 UV-I 120 W/m² 9,8 °C 11,6 °C 4,8 km/h (1 Bft)
07.09.2017 09:17 11,6 °C 11,6 °C 89 % 1016,3 hPa 0,0 mm 0,4 km/h (0 Bft) W 269 ° 0 min 0,000 mm 0,8 UV-I 118 W/m² 9,8 °C 11,6 °C 1,6 km/h (1 Bft)
07.09.2017 09:18 11,6 °C 11,6 °C 88 % 1016,3 hPa 0,0 mm 1,7 km/h (1 Bft) W 269 ° 0 min 0,000 mm 0,9 UV-I 118 W/m² 9,7 °C 11,6 °C 3,2 km/h (1 Bft)
07.09.2017 09:19 11,6 °C 11,6 °C 89 % 1016,3 hPa 0,0 mm 0,7 km/h (0 Bft) W 269 ° 0 min 0,000 mm 0,9 UV-I 121 W/m² 9,8 °C 11,6 °C 1,6 km/h (1 Bft)
07.09.2017 09:20 11,6 °C 11,6 °C 88 % 1016,3 hPa 0,0 mm 3,3 km/h (1 Bft) S-SW 199 ° 0 min 0,000 mm 0,9 UV-I 125 W/m² 9,7 °C 11,6 °C 8,0 km/h (2 Bft)
07.09.2017 09:21 11,6 °C 11,6 °C 87 % 1016,3 hPa 0,0 mm 2,9 km/h (1 Bft) S-SW 199 ° 0 min 0,000 mm 0,9 UV-I 132 W/m² 9,5 °C 11,6 °C 4,8 km/h (1 Bft)
07.09.2017 09:22 11,6 °C 11,6 °C 87 % 1016,3 hPa 0,0 mm 1,9 km/h (1 Bft) S-SW 194 ° 0 min 0,000 mm 1,0 UV-I 134 W/m² 9,5 °C 11,6 °C 3,2 km/h (1 Bft)
07.09.2017 09:23 11,5 °C 11,6 °C 86 % 1016,3 hPa 0,0 mm 1,7 km/h (1 Bft) S-SW 194 ° 0 min 0,000 mm 1,0 UV-I 135 W/m² 9,2 °C 11,5 °C 4,8 km/h (1 Bft)
07.09.2017 09:24 11,6 °C 11,6 °C 87 % 1016,3 hPa 0,0 mm 0,6 km/h (0 Bft) S-SW 194 ° 0 min 0,000 mm 1,0 UV-I 137 W/m² 9,5 °C 11,6 °C 3,2 km/h (1 Bft)
07.09.2017 09:25 11,6 °C 11,6 °C 86 % 1016,3 hPa 0,0 mm 0,7 km/h (0 Bft) S-SW 194 ° 0 min 0,000 mm 1,1 UV-I 142 W/m² 9,3 °C 11,6 °C 3,2 km/h (1 Bft)
07.09.2017 09:26 11,6 °C 11,6 °C 87 % 1016,3 hPa 0,0 mm 1,6 km/h (1 Bft) S-SW 194 ° 0 min 0,000 mm 1,1 UV-I 148 W/m² 9,5 °C 11,6 °C 3,2 km/h (1 Bft)
07.09.2017 09:27 11,6 °C 11,6 °C 86 % 1016,3 hPa 0,0 mm 0,7 km/h (0 Bft) S-SW 194 ° 0 min 0,000 mm 1,1 UV-I 151 W/m² 9,3 °C 11,6 °C 1,6 km/h (1 Bft)
07.09.2017 09:28 11,6 °C 11,6 °C 86 % 1016,3 hPa 0,0 mm 3,5 km/h (1 Bft) W-SW 256 ° 0 min 0,000 mm 1,1 UV-I 153 W/m² 9,3 °C 11,6 °C 9,7 km/h (2 Bft)
07.09.2017 09:29 11,7 °C 11,7 °C 87 % 1016,3 hPa 0,0 mm 3,6 km/h (1 Bft) W-NW 283 ° 0 min 0,000 mm 1,1 UV-I 155 W/m² 9,6 °C 11,7 °C 6,4 km/h (2 Bft)
07.09.2017 09:30 11,7 °C 11,7 °C 87 % 1016,3 hPa 0,0 mm 0,9 km/h (0 Bft) W-NW 284 ° 0 min 0,000 mm 1,1 UV-I 153 W/m² 9,6 °C 11,7 °C 3,2 km/h (1 Bft)
07.09.2017 09:31 11,8 °C 11,8 °C 87 % 1016,3 hPa 0,0 mm 1,5 km/h (1 Bft) W-NW 283 ° 0 min 0,000 mm 1,0 UV-I 149 W/m² 9,7 °C 11,8 °C 3,2 km/h (1 Bft)
07.09.2017 09:32 11,8 °C 11,8 °C 87 % 1016,3 hPa 0,0 mm 1,6 km/h (1 Bft) W-NW 283 ° 0 min 0,000 mm 1,0 UV-I 141 W/m² 9,7 °C 11,8 °C 3,2 km/h (1 Bft)
07.09.2017 09:33 11,8 °C 11,8 °C 87 % 1016,3 hPa 0,0 mm 1,7 km/h (1 Bft) W-NW 283 ° 0 min 0,000 mm 1,0 UV-I 134 W/m² 9,7 °C 11,8 °C 3,2 km/h (1 Bft)
07.09.2017 09:34 11,9 °C 11,9 °C 88 % 1016,3 hPa 0,0 mm 1,0 km/h (0 Bft) W-NW 283 ° 0 min 0,000 mm 1,0 UV-I 137 W/m² 10,0 °C 11,9 °C 3,2 km/h (1 Bft)
07.09.2017 09:35 11,9 °C 11,9 °C 88 % 1016,3 hPa 0,0 mm 3,5 km/h (1 Bft) W 277 ° 0 min 0,000 mm 1,0 UV-I 146 W/m² 10,0 °C 11,9 °C 6,4 km/h (2 Bft)
07.09.2017 09:36 11,9 °C 11,9 °C 87 % 1016,3 hPa 0,0 mm 3,8 km/h (1 Bft) NW 306 ° 0 min 0,000 mm 1,1 UV-I 151 W/m² 9,8 °C 11,9 °C 4,8 km/h (1 Bft)
07.09.2017 09:37 11,9 °C 11,9 °C 87 % 1016,3 hPa 0,0 mm 3,9 km/h (1 Bft) W-NW 296 ° 0 min 0,000 mm 1,1 UV-I 151 W/m² 9,8 °C 11,9 °C 6,4 km/h (2 Bft)
07.09.2017 09:38 11,9 °C 11,9 °C 87 % 1016,3 hPa 0,0 mm 5,8 km/h (2 Bft) SW 222 ° 0 min 0,000 mm 1,1 UV-I 149 W/m² 9,8 °C 11,9 °C 9,7 km/h (2 Bft)
07.09.2017 09:39 11,9 °C 11,9 °C 87 % 1016,3 hPa 0,0 mm 4,3 km/h (1 Bft) W 263 ° 0 min 0,000 mm 1,1 UV-I 148 W/m² 9,8 °C 11,9 °C 6,4 km/h (2 Bft)
07.09.2017 09:40 12,0 °C 12,0 °C 87 % 1016,3 hPa 0,0 mm 5,4 km/h (1 Bft) W 263 ° 0 min 0,000 mm 1,1 UV-I 156 W/m² 9,9 °C 12,0 °C 9,7 km/h (2 Bft)
07.09.2017 09:41 12,1 °C 12,1 °C 87 % 1016,4 hPa 0,0 mm 4,8 km/h (1 Bft) W-SW 246 ° 0 min 0,000 mm 1,2 UV-I 162 W/m² 10,0 °C 12,1 °C 9,7 km/h (2 Bft)
07.09.2017 09:42 12,1 °C 12,1 °C 87 % 1016,4 hPa 0,0 mm 4,1 km/h (1 Bft) W-SW 257 ° 0 min 0,000 mm 1,2 UV-I 167 W/m² 10,0 °C 12,1 °C 8,0 km/h (2 Bft)
07.09.2017 09:43 12,1 °C 12,1 °C 87 % 1016,4 hPa 0,0 mm 4,5 km/h (1 Bft) W 263 ° 0 min 0,000 mm 1,2 UV-I 171 W/m² 10,0 °C 12,1 °C 6,4 km/h (2 Bft)
07.09.2017 09:44 12,1 °C 12,1 °C 88 % 1016,4 hPa 0,0 mm 2,2 km/h (1 Bft) W 263 ° 0 min 0,000 mm 1,2 UV-I 172 W/m² 10,2 °C 12,1 °C 3,2 km/h (1 Bft)
07.09.2017 09:45 12,1 °C 12,1 °C 87 % 1016,4 hPa 0,0 mm 3,2 km/h (1 Bft) W-SW 244 ° 0 min 0,000 mm 1,2 UV-I 171 W/m² 10,0 °C 12,1 °C 4,8 km/h (1 Bft)
07.09.2017 09:46 12,1 °C 12,2 °C 87 % 1016,4 hPa 0,0 mm 6,7 km/h (2 Bft) SW 233 ° 0 min 0,000 mm 1,2 UV-I 165 W/m² 10,0 °C 12,1 °C 9,7 km/h (2 Bft)
07.09.2017 09:47 12,1 °C 12,1 °C 86 % 1016,4 hPa 0,0 mm 3,4 km/h (1 Bft) SW 233 ° 0 min 0,000 mm 1,1 UV-I 162 W/m² 9,8 °C 12,1 °C 4,8 km/h (1 Bft)
07.09.2017 09:48 12,1 °C 12,1 °C 87 % 1016,5 hPa 0,0 mm 3,2 km/h (1 Bft) W 265 ° 0 min 0,000 mm 1,1 UV-I 156 W/m² 10,0 °C 12,1 °C 6,4 km/h (2 Bft)
07.09.2017 09:49 12,2 °C 12,2 °C 87 % 1016,4 hPa 0,0 mm 2,5 km/h (1 Bft) W 259 ° 0 min 0,000 mm 1,1 UV-I 155 W/m² 10,1 °C 12,2 °C 3,2 km/h (1 Bft)
07.09.2017 09:50 12,2 °C 12,2 °C 87 % 1016,4 hPa 0,0 mm 5,6 km/h (1 Bft) W-SW 246 ° 0 min 0,000 mm 1,1 UV-I 148 W/m² 10,1 °C 12,2 °C 9,7 km/h (2 Bft)
07.09.2017 09:51 12,2 °C 12,2 °C 85 % 1016,4 hPa 0,0 mm 10,6 km/h (2 Bft) W-SW 255 ° 0 min 0,000 mm 1,0 UV-I 141 W/m² 9,8 °C 12,2 °C 14,5 km/h (3 Bft)
07.09.2017 09:52 12,1 °C 12,2 °C 85 % 1016,5 hPa 0,0 mm 8,6 km/h (2 Bft) W 269 ° 0 min 0,000 mm 1,0 UV-I 132 W/m² 9,7 °C 12,1 °C 12,9 km/h (3 Bft)
07.09.2017 09:53 12,1 °C 12,1 °C 84 % 1016,5 hPa 0,0 mm 8,5 km/h (2 Bft) W 271 ° 0 min 0,000 mm 0,9 UV-I 127 W/m² 9,5 °C 12,1 °C 12,9 km/h (3 Bft)
07.09.2017 09:54 12,1 °C 12,1 °C 85 % 1016,5 hPa 0,0 mm 4,2 km/h (1 Bft) W 269 ° 0 min 0,000 mm 0,9 UV-I 123 W/m² 9,7 °C 12,1 °C 6,4 km/h (2 Bft)
07.09.2017 09:55 12,1 °C 12,1 °C 84 % 1016,5 hPa 0,0 mm 6,2 km/h (2 Bft) W-SW 240 ° 0 min 0,000 mm 0,8 UV-I 116 W/m² 9,5 °C 12,1 °C 11,3 km/h (2 Bft)
07.09.2017 09:56 12,1 °C 12,1 °C 84 % 1016,5 hPa 0,0 mm 4,3 km/h (1 Bft) W 267 ° 0 min 0,000 mm 0,8 UV-I 105 W/m² 9,5 °C 12,1 °C 6,4 km/h (2 Bft)
07.09.2017 09:57 12,0 °C 12,1 °C 84 % 1016,5 hPa 0,0 mm 5,4 km/h (1 Bft) W-SW 244 ° 0 min 0,000 mm 0,8 UV-I 105 W/m² 9,4 °C 12,0 °C 9,7 km/h (2 Bft)
07.09.2017 09:58 12,0 °C 12,0 °C 84 % 1016,5 hPa 0,0 mm 5,7 km/h (1 Bft) W-NW 289 ° 0 min 0,000 mm 0,8 UV-I 107 W/m² 9,4 °C 12,0 °C 8,0 km/h (2 Bft)
07.09.2017 09:59 12,0 °C 12,0 °C 84 % 1016,5 hPa 0,0 mm 5,8 km/h (2 Bft) W-NW 284 ° 0 min 0,000 mm 0,8 UV-I 107 W/m² 9,4 °C 12,0 °C 8,0 km/h (2 Bft)
07.09.2017 10:00 11,9 °C 12,0 °C 84 % 1016,5 hPa 0,0 mm 4,5 km/h (1 Bft) W 275 ° 0 min 0,000 mm 0,8 UV-I 105 W/m² 9,3 °C 11,9 °C 6,4 km/h (2 Bft)
07.09.2017 10:01 11,9 °C 12,0 °C 85 % 1016,6 hPa 0,0 mm 5,1 km/h (1 Bft) W 269 ° 0 min 0,076 mm 0,7 UV-I 104 W/m² 9,5 °C 11,9 °C 6,4 km/h (2 Bft)
07.09.2017 10:02 11,9 °C 11,9 °C 85 % 1016,6 hPa 0,0 mm 2,5 km/h (1 Bft) W 269 ° 0 min 0,000 mm 0,7 UV-I 98 W/m² 9,5 °C 11,9 °C 4,8 km/h (1 Bft)
07.09.2017 10:03 12,0 °C 12,0 °C 86 % 1016,6 hPa 0,0 mm 4,4 km/h (1 Bft) W 269 ° 0 min 0,000 mm 0,8 UV-I 100 W/m² 9,7 °C 12,0 °C 4,8 km/h (1 Bft)
07.09.2017 10:04 11,9 °C 12,0 °C 85 % 1016,6 hPa 0,0 mm 4,2 km/h (1 Bft) W-SW 252 ° 0 min 0,000 mm 0,8 UV-I 105 W/m² 9,5 °C 11,9 °C 4,8 km/h (1 Bft)
07.09.2017 10:05 11,9 °C 12,0 °C 86 % 1016,6 hPa 0,0 mm 2,1 km/h (1 Bft) SW 223 ° 0 min 0,000 mm 0,8 UV-I 109 W/m² 9,6 °C 11,9 °C 6,4 km/h (2 Bft)
07.09.2017 10:06 11,9 °C 12,0 °C 86 % 1016,5 hPa 0,0 mm 3,2 km/h (1 Bft) W-NW 288 ° 0 min 0,000 mm 0,8 UV-I 113 W/m² 9,6 °C 11,9 °C 4,8 km/h (1 Bft)
07.09.2017 10:07 12,0 °C 12,0 °C 87 % 1016,6 hPa 0,0 mm 2,6 km/h (1 Bft) W-NW 288 ° 0 min 0,000 mm 0,9 UV-I 113 W/m² 9,9 °C 12,0 °C 4,8 km/h (1 Bft)
07.09.2017 10:08 12,1 °C 12,1 °C 86 % 1016,6 hPa 0,0 mm 2,7 km/h (1 Bft) W-NW 288 ° 0 min 0,000 mm 1,0 UV-I 137 W/m² 9,8 °C 12,1 °C 3,2 km/h (1 Bft)
07.09.2017 10:09 12,1 °C 12,1 °C 87 % 1016,6 hPa 0,0 mm 3,9 km/h (1 Bft) W 268 ° 0 min 0,000 mm 1,1 UV-I 141 W/m² 10,0 °C 12,1 °C 4,8 km/h (1 Bft)
07.09.2017 10:10 12,1 °C 12,1 °C 86 % 1016,6 hPa 0,0 mm 2,4 km/h (1 Bft) W-SW 240 ° 0 min 0,000 mm 1,1 UV-I 144 W/m² 9,8 °C 12,1 °C 4,8 km/h (1 Bft)
07.09.2017 10:11 12,1 °C 12,1 °C 86 % 1016,6 hPa 0,0 mm 2,3 km/h (1 Bft) W-SW 249 ° 0 min 0,000 mm 1,1 UV-I 146 W/m² 9,8 °C 12,1 °C 4,8 km/h (1 Bft)
07.09.2017 10:12 12,1 °C 12,1 °C 85 % 1016,6 hPa 0,0 mm 1,9 km/h (1 Bft) W-SW 246 ° 0 min 0,000 mm 1,1 UV-I 146 W/m² 9,7 °C 12,1 °C 4,8 km/h (1 Bft)
07.09.2017 10:13 12,1 °C 12,2 °C 85 % 1016,6 hPa 0,0 mm 2,9 km/h (1 Bft) S 187 ° 0 min 0,000 mm 1,2 UV-I 151 W/m² 9,7 °C 12,1 °C 6,4 km/h (2 Bft)
07.09.2017 10:14 12,2 °C 12,2 °C 86 % 1016,6 hPa 0,0 mm 4,0 km/h (1 Bft) W-SW 240 ° 0 min 0,000 mm 1,3 UV-I 183 W/m² 9,9 °C 12,2 °C 6,4 km/h (2 Bft)
07.09.2017 10:15 12,2 °C 12,2 °C 85 % 1016,6 hPa 0,0 mm 11,0 km/h (2 Bft) W 267 ° 0 min 0,000 mm 1,5 UV-I 200 W/m² 9,8 °C 12,2 °C 16,1 km/h (3 Bft)
07.09.2017 10:16 12,2 °C 12,2 °C 85 % 1016,6 hPa 0,0 mm 5,9 km/h (2 Bft) SW 233 ° 0 min 0,000 mm 1,5 UV-I 206 W/m² 9,8 °C 12,2 °C 12,9 km/h (3 Bft)
07.09.2017 10:17 12,2 °C 12,2 °C 84 % 1016,6 hPa 0,0 mm 2,3 km/h (1 Bft) SW 226 ° 0 min 0,000 mm 1,5 UV-I 206 W/m² 9,6 °C 12,2 °C 3,2 km/h (1 Bft)
07.09.2017 10:18 12,2 °C 12,2 °C 85 % 1016,6 hPa 0,0 mm 3,7 km/h (1 Bft) W 269 ° 0 min 0,000 mm 1,5 UV-I 209 W/m² 9,8 °C 12,2 °C 6,4 km/h (2 Bft)
07.09.2017 10:19 12,2 °C 12,2 °C 85 % 1016,6 hPa 0,0 mm 8,4 km/h (2 Bft) SW 236 ° 0 min 0,000 mm 1,6 UV-I 213 W/m² 9,8 °C 12,2 °C 12,9 km/h (3 Bft)
07.09.2017 10:20 12,3 °C 12,3 °C 85 % 1016,6 hPa 0,0 mm 6,7 km/h (2 Bft) W-SW 242 ° 0 min 0,000 mm 1,6 UV-I 211 W/m² 9,9 °C 12,3 °C 11,3 km/h (2 Bft)
07.09.2017 10:21 12,3 °C 12,3 °C 85 % 1016,7 hPa 0,0 mm 3,5 km/h (1 Bft) W-SW 250 ° 0 min 0,000 mm 1,7 UV-I 216 W/m² 9,9 °C 12,3 °C 6,4 km/h (2 Bft)
07.09.2017 10:22 12,4 °C 12,4 °C 85 % 1016,7 hPa 0,0 mm 3,0 km/h (1 Bft) W 275 ° 0 min 0,000 mm 1,8 UV-I 218 W/m² 9,9 °C 12,4 °C 4,8 km/h (1 Bft)
07.09.2017 10:23 12,4 °C 12,4 °C 84 % 1016,6 hPa 0,0 mm 4,3 km/h (1 Bft) W-NW 286 ° 0 min 0,000 mm 1,8 UV-I 218 W/m² 9,8 °C 12,4 °C 6,4 km/h (2 Bft)
07.09.2017 10:24 12,4 °C 12,4 °C 83 % 1016,7 hPa 0,0 mm 3,2 km/h (1 Bft) W 271 ° 0 min 0,000 mm 1,8 UV-I 221 W/m² 9,6 °C 12,4 °C 4,8 km/h (1 Bft)
07.09.2017 10:25 12,4 °C 12,4 °C 82 % 1016,7 hPa 0,0 mm 3,5 km/h (1 Bft) W 281 ° 0 min 0,000 mm 1,8 UV-I 218 W/m² 9,4 °C 12,4 °C 8,0 km/h (2 Bft)
07.09.2017 10:26 12,4 °C 12,4 °C 83 % 1016,7 hPa 0,0 mm 2,6 km/h (1 Bft) W-NW 286 ° 0 min 0,000 mm 1,8 UV-I 214 W/m² 9,6 °C 12,4 °C 4,8 km/h (1 Bft)
07.09.2017 10:27 12,4 °C 12,4 °C 84 % 1016,7 hPa 0,0 mm 5,8 km/h (2 Bft) W 277 ° 0 min 0,000 mm 1,8 UV-I 214 W/m² 9,8 °C 12,4 °C 9,7 km/h (2 Bft)
07.09.2017 10:28 12,4 °C 12,4 °C 84 % 1016,7 hPa 0,0 mm 4,0 km/h (1 Bft) W 261 ° 0 min 0,000 mm 1,9 UV-I 223 W/m² 9,8 °C 12,4 °C 6,4 km/h (2 Bft)
07.09.2017 10:29 12,5 °C 12,5 °C 84 % 1016,7 hPa 0,0 mm 4,0 km/h (1 Bft) W 261 ° 0 min 0,000 mm 1,9 UV-I 237 W/m² 9,9 °C 12,5 °C 6,4 km/h (2 Bft)
07.09.2017 10:30 12,4 °C 12,5 °C 82 % 1016,7 hPa 0,0 mm 7,1 km/h (2 Bft) W-NW 285 ° 0 min 0,000 mm 2,0 UV-I 248 W/m² 9,4 °C 12,4 °C 12,9 km/h (3 Bft)
07.09.2017 10:31 12,5 °C 12,5 °C 84 % 1016,7 hPa 0,0 mm 9,9 km/h (2 Bft) W 265 ° 0 min 0,000 mm 2,0 UV-I 250 W/m² 9,9 °C 12,5 °C 12,9 km/h (3 Bft)
07.09.2017 10:32 12,5 °C 12,5 °C 83 % 1016,7 hPa 0,0 mm 2,0 km/h (1 Bft) W-SW 254 ° 0 min 0,000 mm 2,0 UV-I 246 W/m² 9,7 °C 12,5 °C 3,2 km/h (1 Bft)
07.09.2017 10:33 12,6 °C 12,6 °C 84 % 1016,7 hPa 0,0 mm 5,1 km/h (1 Bft) W-SW 255 ° 0 min 0,000 mm 2,0 UV-I 243 W/m² 10,0 °C 12,6 °C 9,7 km/h (2 Bft)
07.09.2017 10:34 12,6 °C 12,6 °C 84 % 1016,7 hPa 0,0 mm 3,2 km/h (1 Bft) W 259 ° 0 min 0,000 mm 2,0 UV-I 243 W/m² 10,0 °C 12,6 °C 4,8 km/h (1 Bft)
07.09.2017 10:35 12,6 °C 12,6 °C 85 % 1016,7 hPa 0,0 mm 3,5 km/h (1 Bft) W 265 ° 0 min 0,000 mm 2,0 UV-I 244 W/m² 10,1 °C 12,6 °C 4,8 km/h (1 Bft)
07.09.2017 10:36 12,7 °C 12,7 °C 85 % 1016,7 hPa 0,0 mm 5,2 km/h (1 Bft) W-NW 284 ° 0 min 0,000 mm 2,1 UV-I 246 W/m² 10,2 °C 12,7 °C 9,7 km/h (2 Bft)
07.09.2017 10:37 12,7 °C 12,7 °C 83 % 1016,7 hPa 0,0 mm 3,7 km/h (1 Bft) W 269 ° 0 min 0,000 mm 2,3 UV-I 250 W/m² 9,9 °C 12,7 °C 6,4 km/h (2 Bft)
07.09.2017 10:38 12,7 °C 12,7 °C 83 % 1016,7 hPa 0,0 mm 5,9 km/h (2 Bft) W 260 ° 0 min 0,000 mm 2,1 UV-I 239 W/m² 9,9 °C 12,7 °C 11,3 km/h (2 Bft)
07.09.2017 10:39 12,7 °C 12,7 °C 83 % 1016,7 hPa 0,0 mm 5,3 km/h (1 Bft) S 184 ° 0 min 0,000 mm 2,0 UV-I 227 W/m² 9,9 °C 12,7 °C 12,9 km/h (3 Bft)
07.09.2017 10:40 12,6 °C 12,7 °C 81 % 1016,7 hPa 0,0 mm 4,6 km/h (1 Bft) SW 226 ° 0 min 0,000 mm 2,0 UV-I 223 W/m² 9,4 °C 12,6 °C 8,0 km/h (2 Bft)
07.09.2017 10:41 12,6 °C 12,6 °C 82 % 1016,7 hPa 0,0 mm 2,5 km/h (1 Bft) W-SW 250 ° 0 min 0,000 mm 2,1 UV-I 236 W/m² 9,6 °C 12,6 °C 4,8 km/h (1 Bft)
07.09.2017 10:42 12,6 °C 12,6 °C 82 % 1016,7 hPa 0,0 mm 3,9 km/h (1 Bft) W 273 ° 0 min 0,000 mm 2,2 UV-I 264 W/m² 9,6 °C 12,6 °C 6,4 km/h (2 Bft)
07.09.2017 10:43 12,7 °C 12,7 °C 83 % 1016,7 hPa 0,0 mm 8,6 km/h (2 Bft) W 271 ° 1 min 0,000 mm 2,4 UV-I 336 W/m² 9,9 °C 12,7 °C 12,9 km/h (3 Bft)
07.09.2017 10:44 12,7 °C 12,7 °C 83 % 1016,7 hPa 0,0 mm 9,5 km/h (2 Bft) W 261 ° 1 min 0,000 mm 2,7 UV-I 404 W/m² 9,9 °C 12,7 °C 12,9 km/h (3 Bft)
07.09.2017 10:45 12,8 °C 12,8 °C 84 % 1016,7 hPa 0,0 mm 4,0 km/h (1 Bft) W-SW 245 ° 1 min 0,000 mm 2,6 UV-I 367 W/m² 10,2 °C 12,8 °C 6,4 km/h (2 Bft)
07.09.2017 10:46 12,8 °C 12,8 °C 83 % 1016,6 hPa 0,0 mm 4,3 km/h (1 Bft) W-NW 296 ° 1 min 0,000 mm 2,7 UV-I 404 W/m² 10,0 °C 12,8 °C 4,8 km/h (1 Bft)
07.09.2017 10:47 12,9 °C 12,9 °C 84 % 1016,7 hPa 0,0 mm 2,4 km/h (1 Bft) SW 228 ° 1 min 0,000 mm 2,4 UV-I 355 W/m² 10,3 °C 12,9 °C 3,2 km/h (1 Bft)
07.09.2017 10:48 13,1 °C 13,1 °C 85 % 1016,7 hPa 0,0 mm 3,2 km/h (1 Bft) W 277 ° 1 min 0,000 mm 2,4 UV-I 353 W/m² 10,6 °C 13,1 °C 6,4 km/h (2 Bft)
07.09.2017 10:49 13,1 °C 13,1 °C 81 % 1016,6 hPa 0,0 mm 5,2 km/h (1 Bft) W-NW 290 ° 1 min 0,000 mm 2,3 UV-I 301 W/m² 9,9 °C 13,1 °C 12,9 km/h (3 Bft)
07.09.2017 10:50 13,1 °C 13,2 °C 82 % 1016,7 hPa 0,0 mm 4,6 km/h (1 Bft) W-SW 246 ° 1 min 0,000 mm 2,2 UV-I 295 W/m² 10,1 °C 13,1 °C 9,7 km/h (2 Bft)
07.09.2017 10:51 13,1 °C 13,1 °C 82 % 1016,6 hPa 0,0 mm 6,5 km/h (2 Bft) SW 219 ° 1 min 0,000 mm 2,3 UV-I 301 W/m² 10,1 °C 13,1 °C 9,7 km/h (2 Bft)
07.09.2017 10:52 13,1 °C 13,1 °C 83 % 1016,6 hPa 0,0 mm 4,8 km/h (1 Bft) W-NW 290 ° 1 min 0,000 mm 2,3 UV-I 302 W/m² 10,3 °C 13,1 °C 6,4 km/h (2 Bft)
07.09.2017 10:53 13,1 °C 13,1 °C 84 % 1016,6 hPa 0,0 mm 3,4 km/h (1 Bft) W 273 ° 1 min 0,000 mm 2,3 UV-I 302 W/m² 10,5 °C 13,1 °C 6,4 km/h (2 Bft)
07.09.2017 10:54 13,2 °C 13,2 °C 83 % 1016,6 hPa 0,0 mm 5,0 km/h (1 Bft) W-SW 258 ° 1 min 0,000 mm 2,3 UV-I 297 W/m² 10,4 °C 13,2 °C 6,4 km/h (2 Bft)
07.09.2017 10:55 13,2 °C 13,2 °C 83 % 1016,6 hPa 0,0 mm 3,9 km/h (1 Bft) W 262 ° 0 min 0,000 mm 2,3 UV-I 279 W/m² 10,4 °C 13,2 °C 6,4 km/h (2 Bft)
07.09.2017 10:56 13,2 °C 13,2 °C 81 % 1016,6 hPa 0,0 mm 5,3 km/h (1 Bft) S-SO 161 ° 0 min 0,000 mm 2,4 UV-I 288 W/m² 10,0 °C 13,2 °C 8,0 km/h (2 Bft)
07.09.2017 10:57 13,2 °C 13,2 °C 81 % 1016,6 hPa 0,0 mm 2,4 km/h (1 Bft) W 276 ° 1 min 0,000 mm 2,4 UV-I 295 W/m² 10,0 °C 13,2 °C 8,0 km/h (2 Bft)
07.09.2017 10:58 13,2 °C 13,2 °C 81 % 1016,6 hPa 0,0 mm 3,3 km/h (1 Bft) SW 234 ° 1 min 0,000 mm 2,5 UV-I 309 W/m² 10,0 °C 13,2 °C 6,4 km/h (2 Bft)
07.09.2017 10:59 13,2 °C 13,2 °C 81 % 1016,6 hPa 0,0 mm 6,4 km/h (2 Bft) W 269 ° 1 min 0,000 mm 2,6 UV-I 330 W/m² 10,0 °C 13,2 °C 11,3 km/h (2 Bft)
07.09.2017 11:00 13,2 °C 13,2 °C 81 % 1016,6 hPa 0,0 mm 5,6 km/h (1 Bft) W 276 ° 1 min 0,127 mm 2,7 UV-I 385 W/m² 10,0 °C 13,2 °C 11,3 km/h (2 Bft)
07.09.2017 11:01 13,2 °C 13,2 °C 81 % 1016,6 hPa 0,0 mm 4,4 km/h (1 Bft) W 263 ° 1 min 0,000 mm 2,8 UV-I 424 W/m² 10,0 °C 13,2 °C 6,4 km/h (2 Bft)
07.09.2017 11:02 13,3 °C 13,3 °C 81 % 1016,6 hPa 0,0 mm 4,8 km/h (1 Bft) W-NW 290 ° 1 min 0,000 mm 2,8 UV-I 401 W/m² 10,1 °C 13,3 °C 6,4 km/h (2 Bft)
07.09.2017 11:03 13,4 °C 13,4 °C 83 % 1016,6 hPa 0,0 mm 4,3 km/h (1 Bft) W-NW 292 ° 1 min 0,000 mm 2,7 UV-I 383 W/m² 10,6 °C 13,4 °C 6,4 km/h (2 Bft)
07.09.2017 11:04 13,5 °C 13,5 °C 82 % 1016,5 hPa 0,0 mm 6,4 km/h (2 Bft) W-SW 248 ° 1 min 0,000 mm 2,8 UV-I 381 W/m² 10,5 °C 13,5 °C 11,3 km/h (2 Bft)
07.09.2017 11:05 13,6 °C 13,6 °C 82 % 1016,5 hPa 0,0 mm 4,0 km/h (1 Bft) S-SW 198 ° 1 min 0,000 mm 2,7 UV-I 364 W/m² 10,6 °C 13,6 °C 9,7 km/h (2 Bft)
07.09.2017 11:06 13,6 °C 13,6 °C 81 % 1016,5 hPa 0,0 mm 3,6 km/h (1 Bft) SW 221 ° 1 min 0,000 mm 2,8 UV-I 359 W/m² 10,4 °C 13,6 °C 4,8 km/h (1 Bft)
07.09.2017 11:07 13,6 °C 13,6 °C 80 % 1016,6 hPa 0,0 mm 3,6 km/h (1 Bft) W-SW 254 ° 1 min 0,000 mm 3,0 UV-I 396 W/m² 10,2 °C 13,6 °C 4,8 km/h (1 Bft)
07.09.2017 11:08 13,6 °C 13,6 °C 81 % 1016,6 hPa 0,0 mm 4,3 km/h (1 Bft) W-SW 244 ° 1 min 0,000 mm 3,0 UV-I 492 W/m² 10,4 °C 13,6 °C 6,4 km/h (2 Bft)
07.09.2017 11:09 13,6 °C 13,6 °C 80 % 1016,6 hPa 0,0 mm 4,5 km/h (1 Bft) W 261 ° 1 min 0,000 mm 2,9 UV-I 401 W/m² 10,2 °C 13,6 °C 6,4 km/h (2 Bft)
07.09.2017 11:10 13,7 °C 13,7 °C 83 % 1016,6 hPa 0,0 mm 3,3 km/h (1 Bft) W-SW 258 ° 1 min 0,000 mm 2,9 UV-I 385 W/m² 10,9 °C 13,7 °C 4,8 km/h (1 Bft)
07.09.2017 11:11 13,7 °C 13,7 °C 81 % 1016,6 hPa 0,0 mm 3,1 km/h (1 Bft) NW 306 ° 1 min 0,000 mm 2,9 UV-I 369 W/m² 10,5 °C 13,7 °C 4,8 km/h (1 Bft)
07.09.2017 11:12 13,7 °C 13,7 °C 80 % 1016,5 hPa 0,0 mm 4,4 km/h (1 Bft) W-SW 237 ° 1 min 0,000 mm 2,8 UV-I 336 W/m² 10,3 °C 13,7 °C 6,4 km/h (2 Bft)
07.09.2017 11:13 13,7 °C 13,7 °C 78 % 1016,5 hPa 0,0 mm 2,0 km/h (1 Bft) W-SW 247 ° 1 min 0,000 mm 2,6 UV-I 353 W/m² 9,9 °C 13,7 °C 4,8 km/h (1 Bft)
07.09.2017 11:14 13,7 °C 13,7 °C 80 % 1016,5 hPa 0,0 mm 4,3 km/h (1 Bft) W 263 ° 1 min 0,000 mm 2,5 UV-I 334 W/m² 10,3 °C 13,7 °C 9,7 km/h (2 Bft)
07.09.2017 11:15 13,7 °C 13,7 °C 79 % 1016,5 hPa 0,0 mm 0,4 km/h (0 Bft) W 263 ° 1 min 0,000 mm 2,4 UV-I 339 W/m² 10,1 °C 13,7 °C 3,2 km/h (1 Bft)
07.09.2017 11:16 13,7 °C 13,7 °C 80 % 1016,5 hPa 0,0 mm 1,0 km/h (0 Bft) W 263 ° 1 min 0,000 mm 2,4 UV-I 355 W/m² 10,3 °C 13,7 °C 3,2 km/h (1 Bft)
07.09.2017 11:17 13,7 °C 13,7 °C 78 % 1016,6 hPa 0,0 mm 1,9 km/h (1 Bft) W 263 ° 1 min 0,000 mm 2,7 UV-I 350 W/m² 9,9 °C 13,7 °C 3,2 km/h (1 Bft)
07.09.2017 11:18 13,8 °C 13,8 °C 79 % 1016,6 hPa 0,0 mm 1,7 km/h (1 Bft) W 263 ° 1 min 0,000 mm 2,9 UV-I 350 W/m² 10,2 °C 13,8 °C 3,2 km/h (1 Bft)
07.09.2017 11:19 13,8 °C 13,8 °C 78 % 1016,5 hPa 0,0 mm 4,5 km/h (1 Bft) W 261 ° 1 min 0,000 mm 3,1 UV-I 429 W/m² 10,0 °C 13,8 °C 8,0 km/h (2 Bft)
07.09.2017 11:20 13,8 °C 13,8 °C 79 % 1016,5 hPa 0,0 mm 6,9 km/h (2 Bft) S-SW 202 ° 1 min 0,000 mm 2,7 UV-I 401 W/m² 10,2 °C 13,8 °C 12,9 km/h (3 Bft)
07.09.2017 11:21 13,8 °C 13,8 °C 79 % 1016,6 hPa 0,0 mm 4,7 km/h (1 Bft) W-SW 250 ° 1 min 0,000 mm 2,7 UV-I 401 W/m² 10,2 °C 13,8 °C 8,0 km/h (2 Bft)
07.09.2017 11:22 13,9 °C 13,9 °C 77 % 1016,6 hPa 0,0 mm 5,2 km/h (1 Bft) W-NW 294 ° 1 min 0,000 mm 2,7 UV-I 399 W/m² 9,9 °C 13,9 °C 8,0 km/h (2 Bft)
07.09.2017 11:23 13,9 °C 13,9 °C 79 % 1016,5 hPa 0,0 mm 8,3 km/h (2 Bft) W 260 ° 1 min 0,000 mm 2,5 UV-I 353 W/m² 10,3 °C 13,9 °C 12,9 km/h (3 Bft)
07.09.2017 11:24 13,8 °C 13,9 °C 77 % 1016,5 hPa 0,0 mm 8,9 km/h (2 Bft) W 270 ° 1 min 0,000 mm 2,2 UV-I 306 W/m² 9,8 °C 13,8 °C 12,9 km/h (3 Bft)
07.09.2017 11:25 13,9 °C 13,9 °C 79 % 1016,5 hPa 0,0 mm 6,3 km/h (2 Bft) W 273 ° 1 min 0,000 mm 1,9 UV-I 313 W/m² 10,3 °C 13,9 °C 8,0 km/h (2 Bft)
07.09.2017 11:26 13,9 °C 13,9 °C 79 % 1016,5 hPa 0,0 mm 5,6 km/h (1 Bft) W-SW 238 ° 0 min 0,000 mm 1,6 UV-I 229 W/m² 10,3 °C 13,9 °C 12,9 km/h (3 Bft)
07.09.2017 11:27 13,8 °C 13,9 °C 77 % 1016,5 hPa 0,0 mm 4,7 km/h (1 Bft) S 186 ° 0 min 0,000 mm 2,7 UV-I 229 W/m² 9,8 °C 13,8 °C 6,4 km/h (2 Bft)
07.09.2017 11:28 13,8 °C 13,9 °C 75 % 1016,4 hPa 0,0 mm 10,4 km/h (2 Bft) N-NW 330 ° 1 min 0,000 mm 2,2 UV-I 313 W/m² 9,4 °C 13,8 °C 17,7 km/h (3 Bft)
07.09.2017 11:29 13,8 °C 13,8 °C 76 % 1016,4 hPa 0,0 mm 3,4 km/h (1 Bft) W-SW 258 ° 1 min 0,000 mm 1,8 UV-I 299 W/m² 9,6 °C 13,8 °C 6,4 km/h (2 Bft)
07.09.2017 11:30 13,9 °C 13,9 °C 76 % 1016,4 hPa 0,0 mm 9,0 km/h (2 Bft) W-SW 254 ° 0 min 0,000 mm 1,7 UV-I 239 W/m² 9,7 °C 13,9 °C 12,9 km/h (3 Bft)
07.09.2017 11:31 13,9 °C 13,9 °C 76 % 1016,5 hPa 0,0 mm 9,4 km/h (2 Bft) S-SO 164 ° 0 min 0,000 mm 1,6 UV-I 220 W/m² 9,7 °C 13,9 °C 17,7 km/h (3 Bft)
07.09.2017 11:32 13,9 °C 13,9 °C 77 % 1016,5 hPa 0,0 mm 9,9 km/h (2 Bft) W-SW 254 ° 0 min 0,000 mm 1,5 UV-I 211 W/m² 9,9 °C 13,9 °C 17,7 km/h (3 Bft)
07.09.2017 11:33 13,8 °C 13,9 °C 74 % 1016,4 hPa 0,0 mm 9,8 km/h (2 Bft) W 260 ° 0 min 0,000 mm 1,6 UV-I 218 W/m² 9,2 °C 13,8 °C 11,3 km/h (2 Bft)
07.09.2017 11:34 13,8 °C 13,8 °C 76 % 1016,4 hPa 0,0 mm 4,0 km/h (1 Bft) W 273 ° 0 min 0,000 mm 1,7 UV-I 239 W/m² 9,6 °C 13,8 °C 6,4 km/h (2 Bft)
07.09.2017 11:35 13,8 °C 13,8 °C 78 % 1016,4 hPa 0,0 mm 6,8 km/h (2 Bft) SW 225 ° 0 min 0,000 mm 1,8 UV-I 257 W/m² 10,0 °C 13,8 °C 9,7 km/h (2 Bft)
07.09.2017 11:36 13,7 °C 13,8 °C 75 % 1016,4 hPa 0,0 mm 4,7 km/h (1 Bft) W-NW 284 ° 1 min 0,000 mm 1,9 UV-I 290 W/m² 9,3 °C 13,7 °C 6,4 km/h (2 Bft)
07.09.2017 11:37 13,7 °C 13,7 °C 75 % 1016,4 hPa 0,0 mm 6,8 km/h (2 Bft) W-SW 251 ° 0 min 0,000 mm 2,0 UV-I 287 W/m² 9,3 °C 13,7 °C 11,3 km/h (2 Bft)
07.09.2017 11:38 13,7 °C 13,7 °C 76 % 1016,4 hPa 0,0 mm 5,6 km/h (1 Bft) W-SW 237 ° 1 min 0,000 mm 2,3 UV-I 343 W/m² 9,5 °C 13,7 °C 8,0 km/h (2 Bft)
07.09.2017 11:39 13,8 °C 13,8 °C 75 % 1016,4 hPa 0,0 mm 9,7 km/h (2 Bft) W-SW 248 ° 1 min 0,000 mm 3,6 UV-I 343 W/m² 9,4 °C 13,8 °C 12,9 km/h (3 Bft)
07.09.2017 11:40 13,8 °C 13,8 °C 75 % 1016,4 hPa 0,0 mm 5,4 km/h (1 Bft) W 267 ° 1 min 0,000 mm 3,8 UV-I 483 W/m² 9,4 °C 13,8 °C 9,7 km/h (2 Bft)
07.09.2017 11:41 14,1 °C 14,1 °C 79 % 1016,4 hPa 0,0 mm 9,4 km/h (2 Bft) W 263 ° 1 min 0,000 mm 4,3 UV-I 483 W/m² 10,5 °C 14,1 °C 14,5 km/h (3 Bft)
07.09.2017 11:42 14,1 °C 14,1 °C 73 % 1016,3 hPa 0,0 mm 5,2 km/h (1 Bft) W-NW 284 ° 1 min 0,000 mm 2,9 UV-I 483 W/m² 9,3 °C 14,1 °C 9,7 km/h (2 Bft)
07.09.2017 11:43 14,3 °C 14,3 °C 73 % 1016,4 hPa 0,0 mm 5,9 km/h (2 Bft) N-NW 329 ° 1 min 0,000 mm 2,8 UV-I 483 W/m² 9,5 °C 14,3 °C 12,9 km/h (3 Bft)
07.09.2017 11:44 14,4 °C 14,4 °C 74 % 1016,4 hPa 0,0 mm 5,8 km/h (2 Bft) W-SW 251 ° 1 min 0,000 mm 4,0 UV-I 483 W/m² 9,8 °C 14,4 °C 11,3 km/h (2 Bft)
07.09.2017 11:45 14,7 °C 14,7 °C 75 % 1016,4 hPa 0,0 mm 6,3 km/h (2 Bft) W 271 ° 1 min 0,000 mm 3,4 UV-I 483 W/m² 10,3 °C 14,7 °C 9,7 km/h (2 Bft)
07.09.2017 11:46 14,7 °C 14,7 °C 77 % 1016,4 hPa 0,0 mm 4,2 km/h (1 Bft) W 271 ° 1 min 0,000 mm 3,7 UV-I 483 W/m² 10,7 °C 14,7 °C 6,4 km/h (2 Bft)
07.09.2017 11:47 14,8 °C 14,8 °C 73 % 1016,4 hPa 0,0 mm 7,5 km/h (2 Bft) W-NW 293 ° 1 min 0,000 mm 3,0 UV-I 483 W/m² 10,0 °C 14,8 °C 12,9 km/h (3 Bft)
07.09.2017 11:48 14,8 °C 14,8 °C 77 % 1016,4 hPa 0,0 mm 6,7 km/h (2 Bft) W-SW 245 ° 1 min 0,000 mm 3,1 UV-I 483 W/m² 10,8 °C 14,8 °C 9,7 km/h (2 Bft)
07.09.2017 11:49 14,8 °C 14,8 °C 75 % 1016,3 hPa 0,0 mm 6,7 km/h (2 Bft) W-NW 300 ° 1 min 0,000 mm 4,1 UV-I 483 W/m² 10,4 °C 14,8 °C 12,9 km/h (3 Bft)
07.09.2017 11:50 14,8 °C 14,8 °C 76 % 1016,3 hPa 0,0 mm 7,2 km/h (2 Bft) N-NW 328 ° 1 min 0,000 mm 2,8 UV-I 483 W/m² 10,6 °C 14,8 °C 14,5 km/h (3 Bft)
07.09.2017 11:51 14,8 °C 14,8 °C 75 % 1016,3 hPa 0,0 mm 7,5 km/h (2 Bft) W 270 ° 1 min 0,000 mm 2,8 UV-I 366 W/m² 10,4 °C 14,8 °C 11,3 km/h (2 Bft)
07.09.2017 11:52 14,8 °C 14,8 °C 73 % 1016,3 hPa 0,0 mm 9,3 km/h (2 Bft) W-NW 286 ° 1 min 0,000 mm 2,8 UV-I 346 W/m² 10,0 °C 14,8 °C 14,5 km/h (3 Bft)
07.09.2017 11:53 14,7 °C 14,8 °C 73 % 1016,3 hPa 0,0 mm 5,8 km/h (2 Bft) W-SW 255 ° 0 min 0,000 mm 2,6 UV-I 287 W/m² 9,9 °C 14,7 °C 11,3 km/h (2 Bft)
07.09.2017 11:54 14,6 °C 14,7 °C 72 % 1016,3 hPa 0,0 mm 8,5 km/h (2 Bft) W-SW 258 ° 0 min 0,000 mm 2,3 UV-I 264 W/m² 9,6 °C 14,6 °C 14,5 km/h (3 Bft)
07.09.2017 11:55 14,4 °C 14,6 °C 72 % 1016,2 hPa 0,0 mm 9,3 km/h (2 Bft) W 271 ° 0 min 0,000 mm 2,1 UV-I 262 W/m² 9,4 °C 14,4 °C 16,1 km/h (3 Bft)
07.09.2017 11:56 14,3 °C 14,4 °C 74 % 1016,2 hPa 0,0 mm 4,6 km/h (1 Bft) W-NW 292 ° 0 min 0,000 mm 1,9 UV-I 225 W/m² 9,7 °C 14,3 °C 9,7 km/h (2 Bft)
07.09.2017 11:57 14,2 °C 14,3 °C 73 % 1016,2 hPa 0,0 mm 7,7 km/h (2 Bft) NW 310 ° 0 min 0,000 mm 1,7 UV-I 204 W/m² 9,4 °C 14,2 °C 11,3 km/h (2 Bft)
07.09.2017 11:58 14,1 °C 14,2 °C 73 % 1016,2 hPa 0,0 mm 6,3 km/h (2 Bft) W-NW 294 ° 0 min 0,000 mm 1,5 UV-I 174 W/m² 9,3 °C 14,1 °C 11,3 km/h (2 Bft)
07.09.2017 11:59 14,1 °C 14,1 °C 75 % 1016,2 hPa 0,0 mm 8,4 km/h (2 Bft) W-NW 286 ° 0 min 0,000 mm 1,3 UV-I 148 W/m² 9,7 °C 14,1 °C 12,9 km/h (3 Bft)
07.09.2017 12:00 14,1 °C 14,1 °C 74 % 1016,2 hPa 0,0 mm 4,8 km/h (1 Bft) W 263 ° 0 min 0,204 mm 1,3 UV-I 151 W/m² 9,5 °C 14,1 °C 11,3 km/h (2 Bft)
07.09.2017 12:01 14,1 °C 14,1 °C 77 % 1016,2 hPa 0,0 mm 8,6 km/h (2 Bft) W 270 ° 0 min 0,000 mm 1,6 UV-I 172 W/m² 10,1 °C 14,1 °C 16,1 km/h (3 Bft)
07.09.2017 12:02 14,0 °C 14,1 °C 77 % 1016,3 hPa 0,0 mm 10,9 km/h (2 Bft) W 261 ° 0 min 0,000 mm 2,0 UV-I 214 W/m² 10,0 °C 14,0 °C 16,1 km/h (3 Bft)
07.09.2017 12:03 13,9 °C 14,0 °C 72 % 1016,3 hPa 0,0 mm 13,2 km/h (3 Bft) W 259 ° 0 min 0,000 mm 2,4 UV-I 262 W/m² 8,9 °C 13,9 °C 19,3 km/h (3 Bft)
07.09.2017 12:04 13,9 °C 13,9 °C 72 % 1016,3 hPa 0,0 mm 9,6 km/h (2 Bft) W 281 ° 1 min 0,000 mm 2,6 UV-I 295 W/m² 8,9 °C 13,9 °C 12,9 km/h (3 Bft)
07.09.2017 12:05 13,9 °C 13,9 °C 74 % 1016,3 hPa 0,0 mm 11,1 km/h (2 Bft) W-NW 284 ° 1 min 0,000 mm 2,8 UV-I 320 W/m² 9,3 °C 13,9 °C 14,5 km/h (3 Bft)
07.09.2017 12:06 13,8 °C 13,9 °C 73 % 1016,3 hPa 0,0 mm 9,7 km/h (2 Bft) W 260 ° 0 min 0,000 mm 2,4 UV-I 285 W/m² 9,0 °C 13,8 °C 14,5 km/h (3 Bft)
07.09.2017 12:07 13,8 °C 13,9 °C 73 % 1016,3 hPa 0,0 mm 9,2 km/h (2 Bft) W 262 ° 0 min 0,000 mm 2,1 UV-I 255 W/m² 9,0 °C 13,8 °C 14,5 km/h (3 Bft)
07.09.2017 12:08 13,9 °C 13,9 °C 74 % 1016,4 hPa 0,0 mm 8,8 km/h (2 Bft) NW 310 ° 0 min 0,000 mm 1,9 UV-I 229 W/m² 9,3 °C 13,9 °C 16,1 km/h (3 Bft)
07.09.2017 12:10 14,0 °C 14,0 °C 75 % 1016,2 hPa 0,0 mm 6,3 km/h (2 Bft) NW 325 ° 0 min 0,000 mm 1,8 UV-I 239 W/m² 9,6 °C 14,0 °C 16,1 km/h (3 Bft)
07.09.2017 12:11 14,0 °C 14,0 °C 76 % 1016,2 hPa 0,0 mm 6,9 km/h (2 Bft) NW 304 ° 0 min 0,000 mm 2,1 UV-I 264 W/m² 9,8 °C 14,0 °C 12,9 km/h (3 Bft)
07.09.2017 12:12 13,9 °C 14,0 °C 75 % 1016,3 hPa 0,0 mm 6,7 km/h (2 Bft) NW 315 ° 0 min 0,000 mm 2,4 UV-I 281 W/m² 9,5 °C 13,9 °C 8,0 km/h (2 Bft)
07.09.2017 12:13 14,0 °C 14,0 °C 74 % 1016,3 hPa 0,0 mm 6,0 km/h (2 Bft) W 271 ° 1 min 0,000 mm 2,5 UV-I 292 W/m² 9,4 °C 14,0 °C 11,3 km/h (2 Bft)
07.09.2017 12:14 14,1 °C 14,1 °C 74 % 1016,3 hPa 0,0 mm 5,3 km/h (1 Bft) NW 317 ° 1 min 0,000 mm 2,6 UV-I 295 W/m² 9,5 °C 14,1 °C 9,7 km/h (2 Bft)
07.09.2017 12:15 14,0 °C 14,1 °C 72 % 1016,2 hPa 0,0 mm 5,1 km/h (1 Bft) NW 308 ° 1 min 0,000 mm 2,6 UV-I 297 W/m² 9,0 °C 14,0 °C 9,7 km/h (2 Bft)
07.09.2017 12:16 14,0 °C 14,1 °C 73 % 1016,3 hPa 0,0 mm 5,4 km/h (1 Bft) W-NW 286 ° 1 min 0,000 mm 2,6 UV-I 297 W/m² 9,2 °C 14,0 °C 9,7 km/h (2 Bft)
07.09.2017 12:17 14,1 °C 14,1 °C 74 % 1016,3 hPa 0,0 mm 2,7 km/h (1 Bft) W-NW 282 ° 1 min 0,000 mm 2,6 UV-I 295 W/m² 9,5 °C 14,1 °C 4,8 km/h (1 Bft)
07.09.2017 12:18 14,1 °C 14,1 °C 75 % 1016,3 hPa 0,0 mm 3,2 km/h (1 Bft) W 264 ° 1 min 0,000 mm 2,8 UV-I 302 W/m² 9,7 °C 14,1 °C 6,4 km/h (2 Bft)
07.09.2017 12:19 14,2 °C 14,2 °C 74 % 1016,3 hPa 0,0 mm 3,4 km/h (1 Bft) W 268 ° 0 min 0,000 mm 2,8 UV-I 288 W/m² 9,6 °C 14,2 °C 4,8 km/h (1 Bft)
07.09.2017 12:20 14,2 °C 14,2 °C 77 % 1016,3 hPa 0,0 mm 0,9 km/h (0 Bft) SW 236 ° 1 min 0,000 mm 2,8 UV-I 290 W/m² 10,2 °C 14,2 °C 3,2 km/h (1 Bft)
07.09.2017 12:21 14,2 °C 14,2 °C 76 % 1016,3 hPa 0,0 mm 2,4 km/h (1 Bft) W-NW 295 ° 1 min 0,000 mm 3,0 UV-I 316 W/m² 10,0 °C 14,2 °C 4,8 km/h (1 Bft)
07.09.2017 12:22 14,3 °C 14,3 °C 76 % 1016,2 hPa 0,0 mm 4,5 km/h (1 Bft) W 260 ° 1 min 0,000 mm 3,7 UV-I 316 W/m² 10,1 °C 14,3 °C 8,0 km/h (2 Bft)
07.09.2017 12:23 14,3 °C 14,3 °C 74 % 1016,3 hPa 0,0 mm 2,6 km/h (1 Bft) W 260 ° 1 min 0,000 mm 5,0 UV-I 316 W/m² 9,7 °C 14,3 °C 4,8 km/h (1 Bft)
07.09.2017 12:24 14,4 °C 14,4 °C 74 % 1016,2 hPa 0,0 mm 3,9 km/h (1 Bft) W-NW 297 ° 1 min 0,000 mm 3,1 UV-I 323 W/m² 9,8 °C 14,4 °C 6,4 km/h (2 Bft)
07.09.2017 12:25 14,4 °C 14,5 °C 75 % 1016,2 hPa 0,0 mm 10,3 km/h (2 Bft) NW 323 ° 1 min 0,000 mm 3,1 UV-I 322 W/m² 10,0 °C 14,4 °C 17,7 km/h (3 Bft)
07.09.2017 12:26 14,5 °C 14,5 °C 71 % 1016,2 hPa 0,0 mm 8,5 km/h (2 Bft) NW 323 ° 1 min 0,000 mm 3,2 UV-I 353 W/m² 9,3 °C 14,5 °C 12,9 km/h (3 Bft)
07.09.2017 12:27 14,4 °C 14,5 °C 73 % 1016,2 hPa 0,0 mm 5,9 km/h (2 Bft) W 269 ° 1 min 0,000 mm 3,3 UV-I 364 W/m² 9,6 °C 14,4 °C 9,7 km/h (2 Bft)
07.09.2017 12:28 14,4 °C 14,5 °C 73 % 1016,2 hPa 0,0 mm 6,6 km/h (2 Bft) W-NW 288 ° 1 min 0,000 mm 3,3 UV-I 427 W/m² 9,6 °C 14,4 °C 9,7 km/h (2 Bft)
07.09.2017 12:29 14,5 °C 14,5 °C 73 % 1016,2 hPa 0,0 mm 3,8 km/h (1 Bft) W 279 ° 1 min 0,000 mm 3,2 UV-I 338 W/m² 9,7 °C 14,5 °C 9,7 km/h (2 Bft)
07.09.2017 12:30 14,4 °C 14,5 °C 71 % 1016,2 hPa 0,0 mm 7,1 km/h (2 Bft) W-NW 291 ° 1 min 0,000 mm 3,3 UV-I 341 W/m² 9,2 °C 14,4 °C 12,9 km/h (3 Bft)
07.09.2017 12:31 14,4 °C 14,4 °C 71 % 1016,2 hPa 0,0 mm 7,3 km/h (2 Bft) W 281 ° 1 min 0,000 mm 3,5 UV-I 381 W/m² 9,2 °C 14,4 °C 11,3 km/h (2 Bft)
07.09.2017 12:32 14,3 °C 14,4 °C 72 % 1016,3 hPa 0,0 mm 8,2 km/h (2 Bft) W-NW 289 ° 1 min 0,000 mm 3,5 UV-I 394 W/m² 9,3 °C 14,3 °C 12,9 km/h (3 Bft)
07.09.2017 12:33 14,4 °C 14,4 °C 73 % 1016,2 hPa 0,0 mm 7,4 km/h (2 Bft) W-SW 239 ° 1 min 0,000 mm 3,4 UV-I 381 W/m² 9,6 °C 14,4 °C 16,1 km/h (3 Bft)
07.09.2017 12:34 14,4 °C 14,4 °C 70 % 1016,2 hPa 0,0 mm 7,2 km/h (2 Bft) W-NW 285 ° 1 min 0,000 mm 3,3 UV-I 353 W/m² 9,0 °C 14,4 °C 14,5 km/h (3 Bft)
07.09.2017 12:35 14,4 °C 14,4 °C 71 % 1016,2 hPa 0,0 mm 6,6 km/h (2 Bft) W 270 ° 1 min 0,000 mm 3,3 UV-I 367 W/m² 9,2 °C 14,4 °C 9,7 km/h (2 Bft)
07.09.2017 12:36 14,4 °C 14,4 °C 71 % 1016,2 hPa 0,0 mm 9,5 km/h (2 Bft) W-SW 258 ° 1 min 0,000 mm 3,0 UV-I 343 W/m² 9,2 °C 14,4 °C 12,9 km/h (3 Bft)
07.09.2017 12:37 14,3 °C 14,4 °C 73 % 1016,2 hPa 0,0 mm 10,5 km/h (2 Bft) W-SW 249 ° 0 min 0,000 mm 3,0 UV-I 274 W/m² 9,5 °C 14,3 °C 17,7 km/h (3 Bft)
07.09.2017 12:38 14,3 °C 14,3 °C 71 % 1016,2 hPa 0,0 mm 11,5 km/h (2 Bft) W-NW 290 ° 0 min 0,000 mm 2,8 UV-I 237 W/m² 9,1 °C 14,3 °C 19,3 km/h (3 Bft)
07.09.2017 12:39 14,2 °C 14,3 °C 71 % 1016,3 hPa 0,0 mm 12,1 km/h (2 Bft) W-NW 296 ° 0 min 0,000 mm 2,8 UV-I 207 W/m² 9,0 °C 14,2 °C 16,1 km/h (3 Bft)
07.09.2017 12:40 14,2 °C 14,2 °C 71 % 1016,2 hPa 0,0 mm 9,5 km/h (2 Bft) N-NW 344 ° 0 min 0,000 mm 3,4 UV-I 225 W/m² 9,0 °C 14,2 °C 16,1 km/h (3 Bft)
07.09.2017 12:41 14,3 °C 14,3 °C 72 % 1016,1 hPa 0,0 mm 10,2 km/h (2 Bft) N-NW 340 ° 1 min 0,000 mm 5,5 UV-I 867 W/m² 9,3 °C 14,3 °C 16,1 km/h (3 Bft)
07.09.2017 12:42 14,4 °C 14,4 °C 75 % 1016,2 hPa 0,0 mm 11,5 km/h (2 Bft) W-NW 286 ° 1 min 0,000 mm 5,0 UV-I 863 W/m² 10,0 °C 14,4 °C 19,3 km/h (3 Bft)
07.09.2017 12:43 14,7 °C 14,7 °C 74 % 1016,2 hPa 0,0 mm 11,1 km/h (2 Bft) W 276 ° 1 min 0,000 mm 5,6 UV-I 823 W/m² 10,1 °C 14,7 °C 12,9 km/h (3 Bft)
07.09.2017 12:44 14,7 °C 14,7 °C 70 % 1016,1 hPa 0,0 mm 9,1 km/h (2 Bft) W-NW 298 ° 1 min 0,000 mm 3,4 UV-I 823 W/m² 9,3 °C 14,7 °C 12,9 km/h (3 Bft)
07.09.2017 12:45 14,7 °C 14,7 °C 68 % 1016,1 hPa 0,0 mm 12,7 km/h (3 Bft) W-NW 285 ° 1 min 0,000 mm 4,3 UV-I 823 W/m² 8,9 °C 14,7 °C 19,3 km/h (3 Bft)
07.09.2017 12:46 14,6 °C 14,7 °C 70 % 1016,1 hPa 0,0 mm 8,1 km/h (2 Bft) NW 323 ° 1 min 0,000 mm 5,7 UV-I 823 W/m² 9,2 °C 14,6 °C 14,5 km/h (3 Bft)
07.09.2017 12:47 14,7 °C 14,7 °C 72 % 1016,1 hPa 0,0 mm 8,0 km/h (2 Bft) NW 304 ° 1 min 0,000 mm 4,8 UV-I 830 W/m² 9,7 °C 14,7 °C 12,9 km/h (3 Bft)
07.09.2017 12:48 14,7 °C 14,7 °C 72 % 1016,1 hPa 0,0 mm 12,8 km/h (3 Bft) W 269 ° 1 min 0,000 mm 5,7 UV-I 840 W/m² 9,7 °C 14,7 °C 16,1 km/h (3 Bft)
07.09.2017 12:49 14,9 °C 14,9 °C 74 % 1016,0 hPa 0,0 mm 6,7 km/h (2 Bft) W-NW 283 ° 1 min 0,000 mm 5,9 UV-I 926 W/m² 10,3 °C 14,9 °C 11,3 km/h (2 Bft)
07.09.2017 12:50 15,1 °C 15,1 °C 72 % 1016,0 hPa 0,0 mm 6,8 km/h (2 Bft) W-NW 288 ° 1 min 0,000 mm 4,5 UV-I 926 W/m² 10,1 °C 15,1 °C 11,3 km/h (2 Bft)
07.09.2017 12:51 15,1 °C 15,1 °C 72 % 1016,0 hPa 0,0 mm 7,4 km/h (2 Bft) W 277 ° 1 min 0,000 mm 4,5 UV-I 529 W/m² 10,1 °C 15,1 °C 12,9 km/h (3 Bft)
07.09.2017 12:52 15,0 °C 15,1 °C 69 % 1016,0 hPa 0,0 mm 13,3 km/h (3 Bft) W-NW 288 ° 1 min 0,000 mm 3,2 UV-I 529 W/m² 9,4 °C 15,0 °C 16,1 km/h (3 Bft)
07.09.2017 12:53 14,9 °C 15,0 °C 69 % 1016,0 hPa 0,0 mm 10,2 km/h (2 Bft) W-SW 257 ° 1 min 0,000 mm 3,1 UV-I 529 W/m² 9,3 °C 14,9 °C 14,5 km/h (3 Bft)
07.09.2017 12:54 14,9 °C 14,9 °C 71 % 1016,0 hPa 0,0 mm 5,6 km/h (1 Bft) W-SW 238 ° 0 min 0,000 mm 3,1 UV-I 288 W/m² 9,7 °C 14,9 °C 11,3 km/h (2 Bft)
07.09.2017 12:55 14,8 °C 14,9 °C 70 % 1015,9 hPa 0,0 mm 4,3 km/h (1 Bft) SW 226 ° 0 min 0,000 mm 3,1 UV-I 287 W/m² 9,4 °C 14,8 °C 8,0 km/h (2 Bft)
07.09.2017 12:56 14,7 °C 14,8 °C 69 % 1015,9 hPa 0,0 mm 6,6 km/h (2 Bft) W-SW 254 ° 1 min 0,000 mm 3,3 UV-I 330 W/m² 9,1 °C 14,7 °C 11,3 km/h (2 Bft)
07.09.2017 12:57 14,7 °C 14,7 °C 69 % 1015,9 hPa 0,0 mm 8,3 km/h (2 Bft) W-NW 298 ° 1 min 0,000 mm 5,4 UV-I 330 W/m² 9,1 °C 14,7 °C 11,3 km/h (2 Bft)
07.09.2017 12:58 14,8 °C 14,8 °C 72 % 1015,9 hPa 0,0 mm 11,7 km/h (2 Bft) W 265 ° 1 min 0,000 mm 3,7 UV-I 364 W/m² 9,8 °C 14,8 °C 22,5 km/h (4 Bft)
07.09.2017 12:59 14,9 °C 14,9 °C 70 % 1016,0 hPa 0,0 mm 13,5 km/h (3 Bft) W 259 ° 1 min 0,000 mm 3,7 UV-I 381 W/m² 9,5 °C 14,9 °C 20,9 km/h (4 Bft)
07.09.2017 13:00 14,8 °C 14,9 °C 68 % 1015,9 hPa 0,0 mm 7,6 km/h (2 Bft) W 272 ° 1 min 0,000 mm 3,7 UV-I 381 W/m² 9,0 °C 14,8 °C 11,3 km/h (2 Bft)
07.09.2017 13:01 14,8 °C 14,8 °C 69 % 1016,0 hPa 0,0 mm 7,7 km/h (2 Bft) NW 305 ° 1 min 0,228 mm 4,1 UV-I 461 W/m² 9,2 °C 14,8 °C 11,3 km/h (2 Bft)
07.09.2017 13:02 14,8 °C 14,8 °C 70 % 1015,8 hPa 0,0 mm 8,8 km/h (2 Bft) NW 305 ° 1 min 0,000 mm 3,5 UV-I 455 W/m² 9,4 °C 14,8 °C 12,9 km/h (3 Bft)
07.09.2017 13:03 14,9 °C 14,9 °C 70 % 1015,8 hPa 0,0 mm 6,6 km/h (2 Bft) W-NW 288 ° 1 min 0,000 mm 3,4 UV-I 367 W/m² 9,5 °C 14,9 °C 11,3 km/h (2 Bft)
07.09.2017 13:04 14,9 °C 14,9 °C 70 % 1015,9 hPa 0,0 mm 7,2 km/h (2 Bft) NW 312 ° 1 min 0,000 mm 3,5 UV-I 448 W/m² 9,5 °C 14,9 °C 11,3 km/h (2 Bft)
07.09.2017 13:05 15,1 °C 15,1 °C 71 % 1015,8 hPa 0,0 mm 12,1 km/h (2 Bft) W-NW 298 ° 1 min 0,000 mm 4,6 UV-I 455 W/m² 9,9 °C 15,1 °C 20,9 km/h (4 Bft)
07.09.2017 13:06 15,0 °C 15,1 °C 70 % 1015,9 hPa 0,0 mm 15,2 km/h (3 Bft) N-NW 328 ° 1 min 0,000 mm 3,5 UV-I 359 W/m² 9,6 °C 15,0 °C 20,9 km/h (4 Bft)
07.09.2017 13:07 14,9 °C 15,0 °C 69 % 1015,8 hPa 0,0 mm 5,8 km/h (2 Bft) W-NW 287 ° 1 min 0,000 mm 3,5 UV-I 373 W/m² 9,3 °C 14,9 °C 9,7 km/h (2 Bft)
07.09.2017 13:08 14,9 °C 14,9 °C 70 % 1015,8 hPa 0,0 mm 3,8 km/h (1 Bft) W-NW 291 ° 1 min 0,000 mm 3,6 UV-I 373 W/m² 9,5 °C 14,9 °C 6,4 km/h (2 Bft)
07.09.2017 13:09 14,9 °C 14,9 °C 70 % 1015,8 hPa 0,0 mm 7,6 km/h (2 Bft) W 273 ° 1 min 0,000 mm 3,7 UV-I 373 W/m² 9,5 °C 14,9 °C 12,9 km/h (3 Bft)
07.09.2017 13:10 14,9 °C 14,9 °C 72 % 1015,8 hPa 0,0 mm 12,4 km/h (3 Bft) W 267 ° 1 min 0,000 mm 3,5 UV-I 378 W/m² 9,9 °C 14,9 °C 17,7 km/h (3 Bft)
07.09.2017 13:11 14,8 °C 14,9 °C 65 % 1015,9 hPa 0,0 mm 7,3 km/h (2 Bft) NW 308 ° 1 min 0,000 mm 3,6 UV-I 466 W/m² 8,3 °C 14,8 °C 9,7 km/h (2 Bft)
07.09.2017 13:12 14,8 °C 14,8 °C 67 % 1015,9 hPa 0,0 mm 7,8 km/h (2 Bft) W-SW 257 ° 1 min 0,000 mm 3,3 UV-I 466 W/m² 8,7 °C 14,8 °C 14,5 km/h (3 Bft)
07.09.2017 13:13 14,7 °C 14,8 °C 68 % 1015,9 hPa 0,0 mm 9,5 km/h (2 Bft) W-SW 249 ° 1 min 0,000 mm 3,2 UV-I 299 W/m² 8,9 °C 14,7 °C 12,9 km/h (3 Bft)
07.09.2017 13:14 14,7 °C 14,8 °C 70 % 1015,9 hPa 0,0 mm 5,4 km/h (1 Bft) N-NW 344 ° 1 min 0,000 mm 3,2 UV-I 306 W/m² 9,3 °C 14,7 °C 8,0 km/h (2 Bft)
07.09.2017 13:15 14,7 °C 14,7 °C 70 % 1015,9 hPa 0,0 mm 6,8 km/h (2 Bft) W 264 ° 1 min 0,000 mm 3,3 UV-I 313 W/m² 9,3 °C 14,7 °C 12,9 km/h (3 Bft)
07.09.2017 13:16 14,7 °C 14,7 °C 71 % 1015,9 hPa 0,0 mm 9,4 km/h (2 Bft) W 268 ° 1 min 0,000 mm 3,3 UV-I 318 W/m² 9,5 °C 14,7 °C 16,1 km/h (3 Bft)
07.09.2017 13:17 14,7 °C 14,7 °C 69 % 1015,9 hPa 0,0 mm 11,6 km/h (2 Bft) W-SW 252 ° 1 min 0,000 mm 3,4 UV-I 341 W/m² 9,1 °C 14,7 °C 17,7 km/h (3 Bft)
07.09.2017 13:18 14,6 °C 14,7 °C 69 % 1015,9 hPa 0,0 mm 9,3 km/h (2 Bft) W-NW 302 ° 1 min 0,000 mm 3,5 UV-I 346 W/m² 9,0 °C 14,6 °C 14,5 km/h (3 Bft)
07.09.2017 13:19 14,6 °C 14,6 °C 69 % 1015,9 hPa 0,0 mm 9,7 km/h (2 Bft) N-NW 334 ° 1 min 0,000 mm 3,6 UV-I 362 W/m² 9,0 °C 14,6 °C 17,7 km/h (3 Bft)
07.09.2017 13:20 14,6 °C 14,6 °C 67 % 1015,9 hPa 0,0 mm 10,6 km/h (2 Bft) NW 322 ° 1 min 0,000 mm 3,7 UV-I 432 W/m² 8,5 °C 14,6 °C 19,3 km/h (3 Bft)
07.09.2017 13:21 14,6 °C 14,6 °C 68 % 1015,9 hPa 0,0 mm 10,2 km/h (2 Bft) W-NW 297 ° 1 min 0,000 mm 3,7 UV-I 378 W/m² 8,8 °C 14,6 °C 12,9 km/h (3 Bft)
07.09.2017 13:22 14,6 °C 14,6 °C 68 % 1016,0 hPa 0,0 mm 12,7 km/h (3 Bft) W-NW 298 ° 1 min 0,000 mm 3,6 UV-I 387 W/m² 8,8 °C 14,6 °C 17,7 km/h (3 Bft)
07.09.2017 13:23 14,6 °C 14,6 °C 68 % 1016,0 hPa 0,0 mm 8,7 km/h (2 Bft) W 278 ° 1 min 0,000 mm 3,9 UV-I 387 W/m² 8,8 °C 14,6 °C 14,5 km/h (3 Bft)
07.09.2017 13:24 14,7 °C 14,7 °C 70 % 1016,0 hPa 0,0 mm 9,4 km/h (2 Bft) W 280 ° 1 min 0,000 mm 4,4 UV-I 457 W/m² 9,3 °C 14,7 °C 14,5 km/h (3 Bft)
07.09.2017 13:25 14,8 °C 14,8 °C 69 % 1015,9 hPa 0,0 mm 2,5 km/h (1 Bft) NW 324 ° 1 min 0,000 mm 3,6 UV-I 429 W/m² 9,2 °C 14,8 °C 4,8 km/h (1 Bft)
07.09.2017 13:26 14,8 °C 14,8 °C 70 % 1015,9 hPa 0,0 mm 6,0 km/h (2 Bft) W 278 ° 1 min 0,000 mm 3,5 UV-I 399 W/m² 9,4 °C 14,8 °C 9,7 km/h (2 Bft)
07.09.2017 13:27 14,9 °C 14,9 °C 70 % 1015,9 hPa 0,0 mm 8,0 km/h (2 Bft) W-NW 292 ° 1 min 0,000 mm 3,4 UV-I 387 W/m² 9,5 °C 14,9 °C 12,9 km/h (3 Bft)
07.09.2017 13:28 14,9 °C 14,9 °C 69 % 1015,9 hPa 0,0 mm 9,1 km/h (2 Bft) W 263 ° 1 min 0,000 mm 3,3 UV-I 381 W/m² 9,3 °C 14,9 °C 16,1 km/h (3 Bft)
07.09.2017 13:29 15,0 °C 15,0 °C 72 % 1015,9 hPa 0,0 mm 11,4 km/h (2 Bft) W 263 ° 1 min 0,000 mm 3,2 UV-I 380 W/m² 10,0 °C 15,0 °C 19,3 km/h (3 Bft)
07.09.2017 13:30 14,9 °C 15,0 °C 72 % 1015,9 hPa 0,0 mm 11,4 km/h (2 Bft) W-SW 258 ° 1 min 0,000 mm 3,0 UV-I 345 W/m² 9,9 °C 14,9 °C 16,1 km/h (3 Bft)
07.09.2017 13:31 15,0 °C 15,0 °C 70 % 1015,9 hPa 0,0 mm 11,5 km/h (2 Bft) W 264 ° 1 min 0,000 mm 3,0 UV-I 338 W/m² 9,6 °C 15,0 °C 14,5 km/h (3 Bft)
07.09.2017 13:32 14,9 °C 15,0 °C 70 % 1015,9 hPa 0,0 mm 7,9 km/h (2 Bft) W-SW 252 ° 1 min 0,000 mm 2,9 UV-I 329 W/m² 9,5 °C 14,9 °C 11,3 km/h (2 Bft)
07.09.2017 13:33 14,9 °C 14,9 °C 71 % 1015,9 hPa 0,0 mm 11,2 km/h (2 Bft) W-NW 282 ° 1 min 0,000 mm 2,8 UV-I 318 W/m² 9,7 °C 14,9 °C 14,5 km/h (3 Bft)
07.09.2017 13:34 14,9 °C 14,9 °C 70 % 1015,9 hPa 0,0 mm 12,7 km/h (3 Bft) NW 309 ° 1 min 0,000 mm 2,8 UV-I 316 W/m² 9,5 °C 14,9 °C 19,3 km/h (3 Bft)
07.09.2017 13:35 14,9 °C 14,9 °C 70 % 1015,9 hPa 0,0 mm 7,1 km/h (2 Bft) W-NW 288 ° 1 min 0,000 mm 2,7 UV-I 309 W/m² 9,5 °C 14,9 °C 11,3 km/h (2 Bft)
07.09.2017 13:36 14,9 °C 14,9 °C 69 % 1015,9 hPa 0,0 mm 12,5 km/h (3 Bft) W 280 ° 1 min 0,000 mm 2,7 UV-I 304 W/m² 9,3 °C 14,9 °C 20,9 km/h (4 Bft)
07.09.2017 13:37 14,9 °C 14,9 °C 68 % 1016,0 hPa 0,0 mm 14,4 km/h (3 Bft) W 269 ° 1 min 0,000 mm 2,6 UV-I 302 W/m² 9,0 °C 14,9 °C 19,3 km/h (3 Bft)
07.09.2017 13:38 14,8 °C 14,9 °C 66 % 1015,9 hPa 0,0 mm 14,0 km/h (3 Bft) W 272 ° 1 min 0,000 mm 2,6 UV-I 295 W/m² 8,5 °C 14,8 °C 22,5 km/h (4 Bft)
07.09.2017 13:39 14,7 °C 14,8 °C 67 % 1015,9 hPa 0,0 mm 14,6 km/h (3 Bft) W-NW 290 ° 0 min 0,000 mm 2,5 UV-I 276 W/m² 8,6 °C 14,7 °C 19,3 km/h (3 Bft)
07.09.2017 13:40 14,7 °C 14,7 °C 65 % 1015,9 hPa 0,0 mm 12,3 km/h (3 Bft) W-NW 284 ° 0 min 0,000 mm 2,4 UV-I 269 W/m² 8,2 °C 14,7 °C 14,5 km/h (3 Bft)
07.09.2017 13:41 14,6 °C 14,7 °C 67 % 1015,9 hPa 0,0 mm 10,3 km/h (2 Bft) W 275 ° 0 min 0,000 mm 2,4 UV-I 269 W/m² 8,5 °C 14,6 °C 14,5 km/h (3 Bft)
07.09.2017 13:42 14,6 °C 14,6 °C 66 % 1016,0 hPa 0,0 mm 7,1 km/h (2 Bft) W 271 ° 0 min 0,000 mm 2,4 UV-I 274 W/m² 8,3 °C 14,6 °C 11,3 km/h (2 Bft)
07.09.2017 13:43 14,6 °C 14,6 °C 68 % 1015,9 hPa 0,0 mm 6,4 km/h (2 Bft) W-SW 252 ° 0 min 0,000 mm 2,4 UV-I 276 W/m² 8,8 °C 14,6 °C 11,3 km/h (2 Bft)
07.09.2017 13:44 14,6 °C 14,6 °C 69 % 1015,9 hPa 0,0 mm 13,4 km/h (3 Bft) W 261 ° 0 min 0,000 mm 2,4 UV-I 278 W/m² 9,0 °C 14,6 °C 17,7 km/h (3 Bft)
07.09.2017 13:45 14,6 °C 14,6 °C 68 % 1015,9 hPa 0,0 mm 14,7 km/h (3 Bft) W 268 ° 0 min 0,000 mm 2,4 UV-I 279 W/m² 8,8 °C 14,6 °C 20,9 km/h (4 Bft)
07.09.2017 13:46 14,5 °C 14,6 °C 67 % 1015,9 hPa 0,0 mm 7,9 km/h (2 Bft) W 273 ° 0 min 0,000 mm 2,5 UV-I 281 W/m² 8,4 °C 14,5 °C 11,3 km/h (2 Bft)
07.09.2017 13:47 14,5 °C 14,5 °C 70 % 1015,8 hPa 0,0 mm 4,2 km/h (1 Bft) W 263 ° 0 min 0,000 mm 2,5 UV-I 285 W/m² 9,1 °C 14,5 °C 6,4 km/h (2 Bft)
07.09.2017 13:48 14,6 °C 14,6 °C 71 % 1015,8 hPa 0,0 mm 7,4 km/h (2 Bft) NW 306 ° 0 min 0,000 mm 2,5 UV-I 287 W/m² 9,4 °C 14,6 °C 12,9 km/h (3 Bft)
07.09.2017 13:49 14,6 °C 14,6 °C 70 % 1015,9 hPa 0,0 mm 6,2 km/h (2 Bft) W-NW 299 ° 0 min 0,000 mm 2,5 UV-I 287 W/m² 9,2 °C 14,6 °C 9,7 km/h (2 Bft)
07.09.2017 13:50 14,6 °C 14,6 °C 69 % 1015,9 hPa 0,0 mm 12,7 km/h (3 Bft) W 261 ° 0 min 0,000 mm 2,5 UV-I 288 W/m² 9,0 °C 14,6 °C 17,7 km/h (3 Bft)
07.09.2017 13:51 14,6 °C 14,6 °C 67 % 1015,9 hPa 0,0 mm 9,5 km/h (2 Bft) NW 315 ° 0 min 0,000 mm 2,6 UV-I 288 W/m² 8,5 °C 14,6 °C 16,1 km/h (3 Bft)
07.09.2017 13:52 14,5 °C 14,6 °C 68 % 1015,9 hPa 0,0 mm 8,4 km/h (2 Bft) NW 310 ° 0 min 0,000 mm 2,6 UV-I 288 W/m² 8,7 °C 14,5 °C 11,3 km/h (2 Bft)
07.09.2017 13:53 14,4 °C 14,5 °C 69 % 1015,9 hPa 0,0 mm 9,4 km/h (2 Bft) NW 309 ° 1 min 0,000 mm 2,6 UV-I 290 W/m² 8,8 °C 14,4 °C 14,5 km/h (3 Bft)
07.09.2017 13:54 14,4 °C 14,4 °C 68 % 1015,9 hPa 0,0 mm 11,3 km/h (2 Bft) W-NW 284 ° 1 min 0,000 mm 2,6 UV-I 290 W/m² 8,6 °C 14,4 °C 16,1 km/h (3 Bft)
07.09.2017 13:55 14,3 °C 14,4 °C 68 % 1016,0 hPa 0,0 mm 9,9 km/h (2 Bft) W 259 ° 1 min 0,000 mm 2,6 UV-I 292 W/m² 8,5 °C 14,3 °C 16,1 km/h (3 Bft)
07.09.2017 13:56 14,3 °C 14,3 °C 68 % 1016,0 hPa 0,0 mm 8,8 km/h (2 Bft) W-SW 254 ° 1 min 0,000 mm 2,6 UV-I 292 W/m² 8,5 °C 14,3 °C 12,9 km/h (3 Bft)
07.09.2017 13:57 14,2 °C 14,3 °C 69 % 1015,9 hPa 0,0 mm 9,5 km/h (2 Bft) NW 324 ° 0 min 0,000 mm 2,5 UV-I 288 W/m² 8,6 °C 14,2 °C 16,1 km/h (3 Bft)
07.09.2017 13:58 14,2 °C 14,3 °C 69 % 1015,8 hPa 0,0 mm 4,9 km/h (1 Bft) W-NW 288 ° 0 min 0,000 mm 2,5 UV-I 287 W/m² 8,6 °C 14,2 °C 12,9 km/h (3 Bft)
07.09.2017 13:59 14,2 °C 14,2 °C 68 % 1015,8 hPa 0,0 mm 5,8 km/h (2 Bft) W-NW 283 ° 0 min 0,000 mm 2,5 UV-I 288 W/m² 8,4 °C 14,2 °C 12,9 km/h (3 Bft)
07.09.2017 14:00 14,2 °C 14,2 °C 69 % 1015,8 hPa 0,0 mm 6,6 km/h (2 Bft) W-NW 302 ° 1 min 0,000 mm 2,5 UV-I 290 W/m² 8,6 °C 14,2 °C 11,3 km/h (2 Bft)
07.09.2017 14:01 14,2 °C 14,2 °C 71 % 1015,8 hPa 0,0 mm 8,9 km/h (2 Bft) W 277 ° 1 min 0,203 mm 2,5 UV-I 294 W/m² 9,0 °C 14,2 °C 14,5 km/h (3 Bft)
07.09.2017 14:02 14,3 °C 14,3 °C 70 % 1015,9 hPa 0,0 mm 9,6 km/h (2 Bft) W 279 ° 1 min 0,000 mm 2,5 UV-I 297 W/m² 8,9 °C 14,3 °C 16,1 km/h (3 Bft)
07.09.2017 14:03 14,3 °C 14,3 °C 72 % 1015,8 hPa 0,0 mm 4,7 km/h (1 Bft) W-NW 296 ° 1 min 0,000 mm 2,5 UV-I 299 W/m² 9,3 °C 14,3 °C 9,7 km/h (2 Bft)
07.09.2017 14:04 14,4 °C 14,4 °C 70 % 1015,8 hPa 0,0 mm 9,6 km/h (2 Bft) W-SW 256 ° 1 min 0,000 mm 2,6 UV-I 302 W/m² 9,0 °C 14,4 °C 16,1 km/h (3 Bft)
07.09.2017 14:05 14,4 °C 14,4 °C 68 % 1015,8 hPa 0,0 mm 6,7 km/h (2 Bft) SW 215 ° 1 min 0,000 mm 2,6 UV-I 302 W/m² 8,6 °C 14,4 °C 11,3 km/h (2 Bft)
07.09.2017 14:06 14,4 °C 14,4 °C 71 % 1015,8 hPa 0,0 mm 4,6 km/h (1 Bft) W-SW 246 ° 1 min 0,000 mm 2,5 UV-I 302 W/m² 9,2 °C 14,4 °C 6,4 km/h (2 Bft)
07.09.2017 14:07 14,4 °C 14,4 °C 69 % 1015,8 hPa 0,0 mm 3,6 km/h (1 Bft) SW 220 ° 1 min 0,000 mm 2,5 UV-I 301 W/m² 8,8 °C 14,4 °C 6,4 km/h (2 Bft)
07.09.2017 14:08 14,4 °C 14,4 °C 69 % 1015,8 hPa 0,0 mm 4,4 km/h (1 Bft) W-NW 288 ° 1 min 0,000 mm 2,5 UV-I 295 W/m² 8,8 °C 14,4 °C 11,3 km/h (2 Bft)
07.09.2017 14:09 14,6 °C 14,6 °C 71 % 1015,8 hPa 0,0 mm 6,2 km/h (2 Bft) W-NW 286 ° 1 min 0,000 mm 2,5 UV-I 295 W/m² 9,4 °C 14,6 °C 11,3 km/h (2 Bft)
07.09.2017 14:10 14,6 °C 14,6 °C 70 % 1015,8 hPa 0,0 mm 7,1 km/h (2 Bft) W-NW 286 ° 1 min 0,000 mm 2,5 UV-I 295 W/m² 9,2 °C 14,6 °C 12,9 km/h (3 Bft)
07.09.2017 14:11 14,6 °C 14,6 °C 72 % 1015,8 hPa 0,0 mm 3,6 km/h (1 Bft) SW 232 ° 1 min 0,000 mm 2,5 UV-I 295 W/m² 9,6 °C 14,6 °C 6,4 km/h (2 Bft)
07.09.2017 14:12 14,7 °C 14,7 °C 72 % 1015,7 hPa 0,0 mm 5,1 km/h (1 Bft) W-NW 295 ° 1 min 0,000 mm 2,5 UV-I 299 W/m² 9,7 °C 14,7 °C 11,3 km/h (2 Bft)
07.09.2017 14:13 14,7 °C 14,7 °C 72 % 1015,7 hPa 0,0 mm 7,6 km/h (2 Bft) W 279 ° 1 min 0,000 mm 2,5 UV-I 302 W/m² 9,7 °C 14,7 °C 11,3 km/h (2 Bft)
07.09.2017 14:14 14,7 °C 14,8 °C 70 % 1015,8 hPa 0,0 mm 10,2 km/h (2 Bft) W-NW 290 ° 1 min 0,000 mm 2,5 UV-I 350 W/m² 9,3 °C 14,7 °C 16,1 km/h (3 Bft)
07.09.2017 14:15 14,8 °C 14,8 °C 69 % 1015,8 hPa 0,0 mm 9,4 km/h (2 Bft) W-NW 286 ° 1 min 0,000 mm 2,7 UV-I 357 W/m² 9,2 °C 14,8 °C 14,5 km/h (3 Bft)
07.09.2017 14:16 14,7 °C 14,8 °C 68 % 1015,7 hPa 0,0 mm 10,5 km/h (2 Bft) W 278 ° 1 min 0,000 mm 2,5 UV-I 316 W/m² 8,9 °C 14,7 °C 16,1 km/h (3 Bft)
07.09.2017 14:17 14,7 °C 14,8 °C 69 % 1015,8 hPa 0,0 mm 7,8 km/h (2 Bft) W 263 ° 1 min 0,000 mm 2,6 UV-I 318 W/m² 9,1 °C 14,7 °C 12,9 km/h (3 Bft)
07.09.2017 14:18 14,7 °C 14,7 °C 69 % 1015,8 hPa 0,0 mm 11,3 km/h (2 Bft) W-SW 247 ° 1 min 0,000 mm 2,6 UV-I 322 W/m² 9,1 °C 14,7 °C 14,5 km/h (3 Bft)
07.09.2017 14:19 14,7 °C 14,7 °C 71 % 1015,7 hPa 0,0 mm 7,7 km/h (2 Bft) SW 215 ° 1 min 0,000 mm 2,7 UV-I 332 W/m² 9,5 °C 14,7 °C 12,9 km/h (3 Bft)
07.09.2017 14:20 14,7 °C 14,7 °C 71 % 1015,8 hPa 0,0 mm 3,8 km/h (1 Bft) NW 325 ° 1 min 0,000 mm 2,7 UV-I 380 W/m² 9,5 °C 14,7 °C 8,0 km/h (2 Bft)
07.09.2017 14:21 14,7 °C 14,7 °C 70 % 1015,8 hPa 0,0 mm 7,5 km/h (2 Bft) W 280 ° 1 min 0,000 mm 2,9 UV-I 374 W/m² 9,3 °C 14,7 °C 11,3 km/h (2 Bft)
07.09.2017 14:22 14,7 °C 14,7 °C 69 % 1015,7 hPa 0,0 mm 9,2 km/h (2 Bft) W-NW 288 ° 1 min 0,000 mm 2,9 UV-I 366 W/m² 9,1 °C 14,7 °C 12,9 km/h (3 Bft)
07.09.2017 14:23 14,7 °C 14,7 °C 69 % 1015,7 hPa 0,0 mm 7,7 km/h (2 Bft) N-NW 332 ° 1 min 0,000 mm 3,2 UV-I 462 W/m² 9,1 °C 14,7 °C 12,9 km/h (3 Bft)
07.09.2017 14:24 14,7 °C 14,7 °C 69 % 1015,6 hPa 0,0 mm 4,8 km/h (1 Bft) W-NW 303 ° 1 min 0,000 mm 3,1 UV-I 387 W/m² 9,1 °C 14,7 °C 6,4 km/h (2 Bft)
07.09.2017 14:25 14,7 °C 14,7 °C 69 % 1015,7 hPa 0,0 mm 5,3 km/h (1 Bft) W-NW 288 ° 1 min 0,000 mm 3,1 UV-I 455 W/m² 9,1 °C 14,7 °C 14,5 km/h (3 Bft)
07.09.2017 14:26 14,7 °C 14,7 °C 69 % 1015,7 hPa 0,0 mm 6,0 km/h (2 Bft) W 275 ° 1 min 0,000 mm 3,0 UV-I 369 W/m² 9,1 °C 14,7 °C 12,9 km/h (3 Bft)
07.09.2017 14:27 14,6 °C 14,7 °C 68 % 1015,8 hPa 0,0 mm 12,3 km/h (3 Bft) W-NW 290 ° 1 min 0,000 mm 3,1 UV-I 371 W/m² 8,8 °C 14,6 °C 19,3 km/h (3 Bft)
07.09.2017 14:28 14,6 °C 14,6 °C 68 % 1015,7 hPa 0,0 mm 4,9 km/h (1 Bft) NW 315 ° 1 min 0,000 mm 3,2 UV-I 381 W/m² 8,8 °C 14,6 °C 9,7 km/h (2 Bft)
07.09.2017 14:29 14,6 °C 14,6 °C 69 % 1015,7 hPa 0,0 mm 9,3 km/h (2 Bft) W-NW 299 ° 1 min 0,000 mm 3,2 UV-I 396 W/m² 9,0 °C 14,6 °C 16,1 km/h (3 Bft)
07.09.2017 14:30 14,6 °C 14,7 °C 69 % 1015,6 hPa 0,0 mm 6,3 km/h (2 Bft) N-NW 328 ° 1 min 0,000 mm 3,3 UV-I 399 W/m² 9,0 °C 14,6 °C 12,9 km/h (3 Bft)
07.09.2017 14:31 14,7 °C 14,7 °C 71 % 1015,6 hPa 0,0 mm 4,8 km/h (1 Bft) W-NW 287 ° 1 min 0,000 mm 3,2 UV-I 399 W/m² 9,5 °C 14,7 °C 6,4 km/h (2 Bft)
07.09.2017 14:32 14,7 °C 14,7 °C 69 % 1015,6 hPa 0,0 mm 10,5 km/h (2 Bft) NW 315 ° 1 min 0,000 mm 4,7 UV-I 399 W/m² 9,1 °C 14,7 °C 14,5 km/h (3 Bft)
07.09.2017 14:33 14,9 °C 14,9 °C 70 % 1015,6 hPa 0,0 mm 11,4 km/h (2 Bft) W 270 ° 1 min 0,000 mm 4,1 UV-I 399 W/m² 9,5 °C 14,9 °C 17,7 km/h (3 Bft)
07.09.2017 14:34 15,0 °C 15,0 °C 70 % 1015,7 hPa 0,0 mm 12,6 km/h (3 Bft) W-NW 290 ° 1 min 0,000 mm 4,9 UV-I 399 W/m² 9,6 °C 15,0 °C 20,9 km/h (4 Bft)
07.09.2017 14:35 15,0 °C 15,0 °C 66 % 1015,7 hPa 0,0 mm 11,5 km/h (2 Bft) SW 220 ° 1 min 0,000 mm 3,2 UV-I 399 W/m² 8,7 °C 15,0 °C 14,5 km/h (3 Bft)
07.09.2017 14:36 15,0 °C 15,0 °C 67 % 1015,5 hPa 0,0 mm 9,1 km/h (2 Bft) W-SW 252 ° 1 min 0,000 mm 3,4 UV-I 410 W/m² 8,9 °C 15,0 °C 16,1 km/h (3 Bft)
07.09.2017 14:37 15,0 °C 15,0 °C 66 % 1015,6 hPa 0,0 mm 11,3 km/h (2 Bft) W 264 ° 1 min 0,000 mm 5,3 UV-I 410 W/m² 8,7 °C 15,0 °C 12,9 km/h (3 Bft)
07.09.2017 14:38 15,1 °C 15,1 °C 66 % 1015,6 hPa 0,0 mm 10,3 km/h (2 Bft) W 271 ° 1 min 0,000 mm 5,1 UV-I 939 W/m² 8,8 °C 15,1 °C 16,1 km/h (3 Bft)
07.09.2017 14:39 15,2 °C 15,2 °C 70 % 1015,6 hPa 0,0 mm 10,5 km/h (2 Bft) W-SW 248 ° 1 min 0,000 mm 5,6 UV-I 983 W/m² 9,8 °C 15,2 °C 14,5 km/h (3 Bft)
07.09.2017 14:40 15,4 °C 15,4 °C 69 % 1015,5 hPa 0,0 mm 10,6 km/h (2 Bft) W 279 ° 1 min 0,000 mm 4,9 UV-I 983 W/m² 9,7 °C 15,4 °C 17,7 km/h (3 Bft)
07.09.2017 14:41 15,6 °C 15,6 °C 67 % 1015,5 hPa 0,0 mm 10,7 km/h (2 Bft) W-NW 288 ° 1 min 0,000 mm 4,2 UV-I 983 W/m² 9,5 °C 15,6 °C 16,1 km/h (3 Bft)
07.09.2017 14:42 15,7 °C 15,7 °C 73 % 1015,6 hPa 0,0 mm 10,5 km/h (2 Bft) NW 305 ° 1 min 0,000 mm 5,5 UV-I 983 W/m² 10,9 °C 15,7 °C 16,1 km/h (3 Bft)
07.09.2017 14:43 15,8 °C 15,8 °C 69 % 1015,5 hPa 0,0 mm 6,1 km/h (2 Bft) W 265 ° 1 min 0,000 mm 4,3 UV-I 462 W/m² 10,1 °C 15,8 °C 12,9 km/h (3 Bft)
07.09.2017 14:44 15,8 °C 15,8 °C 67 % 1015,5 hPa 0,0 mm 13,5 km/h (3 Bft) W-NW 293 ° 1 min 0,000 mm 3,4 UV-I 413 W/m² 9,7 °C 15,8 °C 17,7 km/h (3 Bft)
07.09.2017 14:45 15,7 °C 15,8 °C 67 % 1015,5 hPa 0,0 mm 10,5 km/h (2 Bft) N-NW 336 ° 1 min 0,000 mm 4,8 UV-I 413 W/m² 9,6 °C 15,7 °C 16,1 km/h (3 Bft)
07.09.2017 14:46 15,6 °C 15,7 °C 66 % 1015,5 hPa 0,0 mm 10,6 km/h (2 Bft) W-NW 296 ° 1 min 0,000 mm 3,3 UV-I 413 W/m² 9,3 °C 15,6 °C 16,1 km/h (3 Bft)
07.09.2017 14:47 15,6 °C 15,6 °C 66 % 1015,5 hPa 0,0 mm 9,5 km/h (2 Bft) NW 325 ° 1 min 0,000 mm 3,1 UV-I 366 W/m² 9,3 °C 15,6 °C 12,9 km/h (3 Bft)
07.09.2017 14:48 15,4 °C 15,6 °C 68 % 1015,5 hPa 0,0 mm 10,8 km/h (2 Bft) W-NW 296 ° 1 min 0,000 mm 3,2 UV-I 367 W/m² 9,5 °C 15,4 °C 16,1 km/h (3 Bft)
07.09.2017 14:49 15,4 °C 15,4 °C 67 % 1015,4 hPa 0,0 mm 15,1 km/h (3 Bft) NW 326 ° 1 min 0,000 mm 3,3 UV-I 438 W/m² 9,3 °C 15,4 °C 22,5 km/h (4 Bft)
07.09.2017 14:50 15,3 °C 15,4 °C 67 % 1015,5 hPa 0,0 mm 10,1 km/h (2 Bft) NW 325 ° 1 min 0,000 mm 4,1 UV-I 438 W/m² 9,2 °C 15,3 °C 17,7 km/h (3 Bft)
07.09.2017 14:51 15,3 °C 15,3 °C 68 % 1015,5 hPa 0,0 mm 9,5 km/h (2 Bft) W-NW 299 ° 1 min 0,000 mm 3,6 UV-I 526 W/m² 9,4 °C 15,3 °C 14,5 km/h (3 Bft)
07.09.2017 14:52 15,4 °C 15,4 °C 69 % 1015,5 hPa 0,0 mm 9,3 km/h (2 Bft) W-NW 292 ° 1 min 0,000 mm 3,4 UV-I 526 W/m² 9,7 °C 15,4 °C 16,1 km/h (3 Bft)
07.09.2017 14:53 15,4 °C 15,4 °C 69 % 1015,4 hPa 0,0 mm 7,1 km/h (2 Bft) W-NW 295 ° 1 min 0,000 mm 4,2 UV-I 526 W/m² 9,7 °C 15,4 °C 14,5 km/h (3 Bft)
07.09.2017 14:54 15,4 °C 15,4 °C 67 % 1015,4 hPa 0,0 mm 6,3 km/h (2 Bft) W 260 ° 1 min 0,000 mm 4,5 UV-I 684 W/m² 9,3 °C 15,4 °C 11,3 km/h (2 Bft)
07.09.2017 14:55 15,4 °C 15,4 °C 67 % 1015,4 hPa 0,0 mm 5,8 km/h (2 Bft) NW 315 ° 1 min 0,000 mm 5,1 UV-I 854 W/m² 9,3 °C 15,4 °C 9,7 km/h (2 Bft)
07.09.2017 14:56 15,6 °C 15,6 °C 70 % 1015,4 hPa 0,0 mm 9,6 km/h (2 Bft) NW 320 ° 1 min 0,000 mm 5,1 UV-I 861 W/m² 10,1 °C 15,6 °C 16,1 km/h (3 Bft)
07.09.2017 14:57 15,8 °C 15,8 °C 70 % 1015,4 hPa 0,0 mm 12,2 km/h (2 Bft) W 280 ° 1 min 0,000 mm 4,8 UV-I 788 W/m² 10,3 °C 15,8 °C 17,7 km/h (3 Bft)
07.09.2017 14:58 15,8 °C 15,8 °C 68 % 1015,4 hPa 0,0 mm 6,9 km/h (2 Bft) NW 318 ° 1 min 0,000 mm 4,2 UV-I 788 W/m² 9,9 °C 15,8 °C 16,1 km/h (3 Bft)
07.09.2017 14:59 15,9 °C 15,9 °C 66 % 1015,3 hPa 0,0 mm 9,4 km/h (2 Bft) W-NW 288 ° 1 min 0,000 mm 4,6 UV-I 788 W/m² 9,6 °C 15,9 °C 12,9 km/h (3 Bft)
07.09.2017 15:00 15,9 °C 15,9 °C 66 % 1015,4 hPa 0,0 mm 9,9 km/h (2 Bft) W 281 ° 1 min 0,000 mm 3,6 UV-I 788 W/m² 9,6 °C 15,9 °C 19,3 km/h (3 Bft)
07.09.2017 15:01 15,7 °C 15,9 °C 64 % 1015,4 hPa 0,0 mm 10,3 km/h (2 Bft) W 271 ° 0 min 0,280 mm 2,9 UV-I 267 W/m² 8,9 °C 15,7 °C 17,7 km/h (3 Bft)
07.09.2017 15:02 15,6 °C 15,7 °C 66 % 1015,4 hPa 0,0 mm 10,7 km/h (2 Bft) NW 312 ° 0 min 0,000 mm 2,9 UV-I 272 W/m² 9,3 °C 15,6 °C 16,1 km/h (3 Bft)
07.09.2017 15:03 15,6 °C 15,6 °C 67 % 1015,3 hPa 0,0 mm 10,8 km/h (2 Bft) W 260 ° 0 min 0,000 mm 2,7 UV-I 244 W/m² 9,5 °C 15,6 °C 16,1 km/h (3 Bft)
07.09.2017 15:04 15,5 °C 15,6 °C 66 % 1015,3 hPa 0,0 mm 13,2 km/h (3 Bft) W-SW 257 ° 0 min 0,000 mm 2,8 UV-I 230 W/m² 9,2 °C 15,5 °C 20,9 km/h (4 Bft)
07.09.2017 15:05 15,3 °C 15,5 °C 66 % 1015,4 hPa 0,0 mm 13,3 km/h (3 Bft) W 261 ° 0 min 0,000 mm 3,3 UV-I 230 W/m² 9,0 °C 15,3 °C 20,9 km/h (4 Bft)
07.09.2017 15:06 15,2 °C 15,3 °C 64 % 1015,3 hPa 0,0 mm 13,3 km/h (3 Bft) W 263 ° 1 min 0,000 mm 4,5 UV-I 740 W/m² 8,4 °C 15,2 °C 17,7 km/h (3 Bft)
07.09.2017 15:07 15,2 °C 15,2 °C 67 % 1015,3 hPa 0,0 mm 13,6 km/h (3 Bft) W 269 ° 1 min 0,000 mm 4,4 UV-I 740 W/m² 9,1 °C 15,2 °C 19,3 km/h (3 Bft)
07.09.2017 15:08 15,2 °C 15,2 °C 66 % 1015,4 hPa 0,0 mm 9,8 km/h (2 Bft) N 5 ° 0 min 0,000 mm 2,5 UV-I 216 W/m² 8,9 °C 15,2 °C 16,1 km/h (3 Bft)
07.09.2017 15:09 15,2 °C 15,2 °C 65 % 1015,3 hPa 0,0 mm 10,5 km/h (2 Bft) NW 309 ° 0 min 0,000 mm 2,4 UV-I 176 W/m² 8,7 °C 15,2 °C 16,1 km/h (3 Bft)
07.09.2017 15:10 15,1 °C 15,2 °C 66 % 1015,5 hPa 0,0 mm 9,3 km/h (2 Bft) W 259 ° 0 min 0,000 mm 2,3 UV-I 169 W/m² 8,8 °C 15,1 °C 16,1 km/h (3 Bft)
07.09.2017 15:11 14,9 °C 15,1 °C 65 % 1015,4 hPa 0,0 mm 9,0 km/h (2 Bft) W 263 ° 0 min 0,000 mm 2,3 UV-I 172 W/m² 8,4 °C 14,9 °C 14,5 km/h (3 Bft)
07.09.2017 15:12 14,9 °C 14,9 °C 68 % 1015,4 hPa 0,0 mm 11,5 km/h (2 Bft) W-SW 244 ° 0 min 0,000 mm 2,5 UV-I 260 W/m² 9,0 °C 14,9 °C 16,1 km/h (3 Bft)
07.09.2017 15:13 14,8 °C 14,9 °C 67 % 1015,4 hPa 0,0 mm 11,9 km/h (2 Bft) W-NW 286 ° 0 min 0,000 mm 2,6 UV-I 243 W/m² 8,7 °C 14,8 °C 17,7 km/h (3 Bft)
07.09.2017 15:14 14,7 °C 14,8 °C 66 % 1015,4 hPa 0,0 mm 10,2 km/h (2 Bft) SW 228 ° 0 min 0,000 mm 2,6 UV-I 260 W/m² 8,4 °C 14,7 °C 19,3 km/h (3 Bft)
07.09.2017 15:15 14,7 °C 14,7 °C 68 % 1015,4 hPa 0,0 mm 6,6 km/h (2 Bft) NW 325 ° 0 min 0,000 mm 2,6 UV-I 281 W/m² 8,9 °C 14,7 °C 11,3 km/h (2 Bft)
07.09.2017 15:16 14,7 °C 14,7 °C 68 % 1015,4 hPa 0,0 mm 5,1 km/h (1 Bft) W 277 ° 1 min 0,000 mm 2,7 UV-I 302 W/m² 8,9 °C 14,7 °C 8,0 km/h (2 Bft)
07.09.2017 15:17 14,7 °C 14,7 °C 71 % 1015,3 hPa 0,0 mm 11,3 km/h (2 Bft) W-NW 292 ° 1 min 0,000 mm 2,8 UV-I 322 W/m² 9,5 °C 14,7 °C 19,3 km/h (3 Bft)
07.09.2017 15:18 14,8 °C 14,8 °C 66 % 1015,4 hPa 0,0 mm 10,5 km/h (2 Bft) W 281 ° 1 min 0,000 mm 2,8 UV-I 353 W/m² 8,5 °C 14,8 °C 19,3 km/h (3 Bft)
07.09.2017 15:19 14,8 °C 14,8 °C 66 % 1015,3 hPa 0,0 mm 8,0 km/h (2 Bft) W 270 ° 1 min 0,000 mm 3,0 UV-I 353 W/m² 8,5 °C 14,8 °C 12,9 km/h (3 Bft)
07.09.2017 15:20 15,0 °C 15,0 °C 67 % 1015,3 hPa 0,0 mm 10,8 km/h (2 Bft) W 262 ° 1 min 0,000 mm 4,4 UV-I 353 W/m² 8,9 °C 15,0 °C 19,3 km/h (3 Bft)
07.09.2017 15:21 15,2 °C 15,2 °C 68 % 1015,3 hPa 0,0 mm 6,0 km/h (2 Bft) W 273 ° 1 min 0,000 mm 4,4 UV-I 353 W/m² 9,3 °C 15,2 °C 8,0 km/h (2 Bft)
07.09.2017 15:22 15,3 °C 15,3 °C 64 % 1015,4 hPa 0,0 mm 11,6 km/h (2 Bft) W 265 ° 1 min 0,000 mm 4,4 UV-I 780 W/m² 8,5 °C 15,3 °C 17,7 km/h (3 Bft)
07.09.2017 15:23 15,3 °C 15,3 °C 65 % 1015,3 hPa 0,0 mm 14,9 km/h (3 Bft) W 281 ° 1 min 0,000 mm 4,2 UV-I 745 W/m² 8,8 °C 15,3 °C 20,9 km/h (4 Bft)
07.09.2017 15:24 15,3 °C 15,3 °C 64 % 1015,3 hPa 0,0 mm 12,9 km/h (3 Bft) W 270 ° 1 min 0,000 mm 3,0 UV-I 745 W/m² 8,5 °C 15,3 °C 20,9 km/h (4 Bft)
07.09.2017 15:25 15,3 °C 15,3 °C 65 % 1015,3 hPa 0,0 mm 13,1 km/h (3 Bft) W-SW 250 ° 0 min 0,000 mm 2,5 UV-I 237 W/m² 8,8 °C 15,3 °C 19,3 km/h (3 Bft)
07.09.2017 15:26 15,2 °C 15,3 °C 66 % 1015,3 hPa 0,0 mm 9,7 km/h (2 Bft) W 275 ° 0 min 0,000 mm 2,7 UV-I 287 W/m² 8,9 °C 15,2 °C 19,3 km/h (3 Bft)
07.09.2017 15:27 15,1 °C 15,2 °C 66 % 1015,3 hPa 0,0 mm 11,3 km/h (2 Bft) W-SW 256 ° 0 min 0,000 mm 2,9 UV-I 287 W/m² 8,8 °C 15,1 °C 19,3 km/h (3 Bft)
07.09.2017 15:28 15,1 °C 15,1 °C 67 % 1015,2 hPa 0,0 mm 7,7 km/h (2 Bft) W 263 ° 0 min 0,000 mm 4,2 UV-I 287 W/m² 9,0 °C 15,1 °C 11,3 km/h (2 Bft)
07.09.2017 15:29 15,1 °C 15,1 °C 68 % 1015,3 hPa 0,0 mm 10,0 km/h (2 Bft) W 272 ° 0 min 0,000 mm 3,9 UV-I 287 W/m² 9,2 °C 15,1 °C 16,1 km/h (3 Bft)
07.09.2017 15:30 15,3 °C 15,3 °C 69 % 1015,3 hPa 0,0 mm 10,1 km/h (2 Bft) W 269 ° 1 min 0,000 mm 4,0 UV-I 645 W/m² 9,6 °C 15,3 °C 14,5 km/h (3 Bft)
07.09.2017 15:31 15,3 °C 15,3 °C 67 % 1015,2 hPa 0,0 mm 6,4 km/h (2 Bft) W-NW 298 ° 1 min 0,000 mm 4,1 UV-I 645 W/m² 9,2 °C 15,3 °C 9,7 km/h (2 Bft)
07.09.2017 15:32 15,3 °C 15,3 °C 65 % 1015,2 hPa 0,0 mm 5,9 km/h (2 Bft) NW 308 ° 1 min 0,000 mm 4,0 UV-I 689 W/m² 8,8 °C 15,3 °C 11,3 km/h (2 Bft)
07.09.2017 15:33 15,4 °C 15,4 °C 66 % 1015,2 hPa 0,0 mm 6,7 km/h (2 Bft) NW 311 ° 1 min 0,000 mm 4,0 UV-I 710 W/m² 9,1 °C 15,4 °C 12,9 km/h (3 Bft)
07.09.2017 15:34 15,5 °C 15,5 °C 68 % 1015,2 hPa 0,0 mm 6,1 km/h (2 Bft) W-NW 297 ° 1 min 0,000 mm 4,0 UV-I 710 W/m² 9,6 °C 15,5 °C 12,9 km/h (3 Bft)
07.09.2017 15:35 15,6 °C 15,6 °C 67 % 1015,1 hPa 0,0 mm 7,3 km/h (2 Bft) W-NW 283 ° 1 min 0,000 mm 3,8 UV-I 642 W/m² 9,5 °C 15,6 °C 14,5 km/h (3 Bft)
07.09.2017 15:36 15,7 °C 15,7 °C 65 % 1015,2 hPa 0,0 mm 9,0 km/h (2 Bft) W 268 ° 1 min 0,000 mm 3,8 UV-I 642 W/m² 9,1 °C 15,7 °C 14,5 km/h (3 Bft)
07.09.2017 15:37 15,7 °C 15,7 °C 67 % 1015,2 hPa 0,0 mm 10,0 km/h (2 Bft) NW 315 ° 1 min 0,000 mm 3,9 UV-I 638 W/m² 9,6 °C 15,7 °C 17,7 km/h (3 Bft)
07.09.2017 15:38 15,7 °C 15,7 °C 67 % 1015,2 hPa 0,0 mm 9,2 km/h (2 Bft) W-NW 302 ° 1 min 0,000 mm 3,8 UV-I 631 W/m² 9,6 °C 15,7 °C 19,3 km/h (3 Bft)
07.09.2017 15:39 15,7 °C 15,7 °C 65 % 1015,1 hPa 0,0 mm 10,7 km/h (2 Bft) N-NW 331 ° 1 min 0,000 mm 3,7 UV-I 622 W/m² 9,1 °C 15,7 °C 14,5 km/h (3 Bft)
07.09.2017 15:40 15,6 °C 15,7 °C 66 % 1015,2 hPa 0,0 mm 11,4 km/h (2 Bft) NW 321 ° 1 min 0,000 mm 3,3 UV-I 564 W/m² 9,3 °C 15,6 °C 16,1 km/h (3 Bft)
07.09.2017 15:41 15,6 °C 15,6 °C 66 % 1015,2 hPa 0,0 mm 10,1 km/h (2 Bft) W-SW 243 ° 1 min 0,000 mm 2,5 UV-I 564 W/m² 9,3 °C 15,6 °C 14,5 km/h (3 Bft)
07.09.2017 15:42 15,6 °C 15,6 °C 65 % 1015,2 hPa 0,0 mm 11,3 km/h (2 Bft) W-NW 292 ° 1 min 0,000 mm 3,8 UV-I 633 W/m² 9,0 °C 15,6 °C 17,7 km/h (3 Bft)
07.09.2017 15:43 15,5 °C 15,6 °C 66 % 1015,2 hPa 0,0 mm 7,5 km/h (2 Bft) NW 311 ° 1 min 0,000 mm 3,8 UV-I 642 W/m² 9,2 °C 15,5 °C 12,9 km/h (3 Bft)
07.09.2017 15:44 15,4 °C 15,5 °C 65 % 1015,2 hPa 0,0 mm 5,2 km/h (1 Bft) W-NW 290 ° 1 min 0,000 mm 3,8 UV-I 638 W/m² 8,9 °C 15,4 °C 12,9 km/h (3 Bft)
07.09.2017 15:45 15,4 °C 15,4 °C 65 % 1015,2 hPa 0,0 mm 11,4 km/h (2 Bft) NW 325 ° 1 min 0,000 mm 3,0 UV-I 638 W/m² 8,9 °C 15,4 °C 19,3 km/h (3 Bft)
07.09.2017 15:46 15,4 °C 15,4 °C 67 % 1015,2 hPa 0,0 mm 14,1 km/h (3 Bft) W-NW 285 ° 0 min 0,000 mm 2,6 UV-I 251 W/m² 9,3 °C 15,4 °C 22,5 km/h (4 Bft)
07.09.2017 15:47 15,4 °C 15,4 °C 65 % 1015,2 hPa 0,0 mm 13,6 km/h (3 Bft) W-NW 284 ° 1 min 0,000 mm 3,2 UV-I 339 W/m² 8,9 °C 15,4 °C 17,7 km/h (3 Bft)
07.09.2017 15:48 15,4 °C 15,4 °C 66 % 1015,2 hPa 0,0 mm 13,4 km/h (3 Bft) N 355 ° 1 min 0,000 mm 3,5 UV-I 473 W/m² 9,1 °C 15,4 °C 17,7 km/h (3 Bft)
07.09.2017 15:49 15,4 °C 15,4 °C 67 % 1015,2 hPa 0,0 mm 11,9 km/h (2 Bft) N-NW 337 ° 1 min 0,000 mm 3,4 UV-I 473 W/m² 9,3 °C 15,4 °C 19,3 km/h (3 Bft)
07.09.2017 15:50 15,4 °C 15,4 °C 66 % 1015,1 hPa 0,0 mm 4,9 km/h (1 Bft) NW 316 ° 1 min 0,000 mm 3,5 UV-I 596 W/m² 9,1 °C 15,4 °C 9,7 km/h (2 Bft)
07.09.2017 15:51 15,4 °C 15,4 °C 67 % 1015,0 hPa 0,0 mm 11,8 km/h (2 Bft) NW 324 ° 1 min 0,000 mm 3,4 UV-I 552 W/m² 9,3 °C 15,4 °C 19,3 km/h (3 Bft)
07.09.2017 15:52 15,5 °C 15,5 °C 68 % 1015,0 hPa 0,0 mm 8,9 km/h (2 Bft) W-NW 293 ° 1 min 0,000 mm 3,5 UV-I 575 W/m² 9,6 °C 15,5 °C 16,1 km/h (3 Bft)
07.09.2017 15:54 15,7 °C 15,7 °C 68 % 1015,0 hPa 0,0 mm 7,5 km/h (2 Bft) NW 304 ° 2 min 0,000 mm 3,5 UV-I 584 W/m² 9,8 °C 15,7 °C 12,9 km/h (3 Bft)
07.09.2017 15:55 15,7 °C 15,7 °C 67 % 1015,0 hPa 0,0 mm 12,8 km/h (3 Bft) W 266 ° 1 min 0,000 mm 3,4 UV-I 568 W/m² 9,6 °C 15,7 °C 17,7 km/h (3 Bft)
07.09.2017 15:56 15,7 °C 15,7 °C 64 % 1015,0 hPa 0,0 mm 10,4 km/h (2 Bft) W-NW 283 ° 1 min 0,000 mm 3,3 UV-I 564 W/m² 8,9 °C 15,7 °C 14,5 km/h (3 Bft)
07.09.2017 15:57 15,7 °C 15,7 °C 65 % 1015,0 hPa 0,0 mm 10,0 km/h (2 Bft) W-NW 284 ° 1 min 0,000 mm 3,4 UV-I 536 W/m² 9,1 °C 15,7 °C 17,7 km/h (3 Bft)
07.09.2017 15:58 15,7 °C 15,7 °C 67 % 1015,0 hPa 0,0 mm 15,7 km/h (3 Bft) N-NW 338 ° 1 min 0,000 mm 3,3 UV-I 547 W/m² 9,6 °C 15,7 °C 20,9 km/h (4 Bft)
07.09.2017 15:59 15,7 °C 15,7 °C 67 % 1015,1 hPa 0,0 mm 11,1 km/h (2 Bft) W-NW 298 ° 1 min 0,000 mm 3,2 UV-I 550 W/m² 9,6 °C 15,7 °C 19,3 km/h (3 Bft)
07.09.2017 16:00 15,7 °C 15,7 °C 67 % 1015,0 hPa 0,0 mm 9,6 km/h (2 Bft) W 277 ° 1 min 0,000 mm 3,3 UV-I 541 W/m² 9,6 °C 15,7 °C 17,7 km/h (3 Bft)
07.09.2017 16:01 15,8 °C 15,8 °C 65 % 1015,1 hPa 0,0 mm 13,8 km/h (3 Bft) W-SW 257 ° 1 min 0,305 mm 3,2 UV-I 541 W/m² 9,2 °C 15,8 °C 17,7 km/h (3 Bft)
07.09.2017 16:02 15,7 °C 15,8 °C 64 % 1015,1 hPa 0,0 mm 9,3 km/h (2 Bft) NW 316 ° 1 min 0,000 mm 2,0 UV-I 529 W/m² 8,9 °C 15,7 °C 12,9 km/h (3 Bft)
07.09.2017 16:03 15,7 °C 15,7 °C 66 % 1015,0 hPa 0,0 mm 9,1 km/h (2 Bft) W-NW 294 ° 1 min 0,000 mm 3,1 UV-I 529 W/m² 9,4 °C 15,7 °C 16,1 km/h (3 Bft)
07.09.2017 16:04 15,7 °C 15,7 °C 66 % 1015,1 hPa 0,0 mm 5,1 km/h (1 Bft) NW 321 ° 1 min 0,000 mm 2,0 UV-I 529 W/m² 9,4 °C 15,7 °C 6,4 km/h (2 Bft)
07.09.2017 16:05 15,7 °C 15,7 °C 68 % 1015,1 hPa 0,0 mm 8,0 km/h (2 Bft) N-NW 331 ° 0 min 0,000 mm 2,0 UV-I 86 W/m² 9,8 °C 15,7 °C 16,1 km/h (3 Bft)
07.09.2017 16:06 15,7 °C 15,7 °C 66 % 1015,0 hPa 0,0 mm 4,6 km/h (1 Bft) W-NW 288 ° 0 min 0,000 mm 2,3 UV-I 86 W/m² 9,4 °C 15,7 °C 6,4 km/h (2 Bft)
07.09.2017 16:07 15,6 °C 15,7 °C 67 % 1014,9 hPa 0,0 mm 7,4 km/h (2 Bft) W-SW 242 ° 0 min 0,000 mm 1,8 UV-I 86 W/m² 9,5 °C 15,6 °C 14,5 km/h (3 Bft)
07.09.2017 16:08 15,4 °C 15,6 °C 68 % 1015,0 hPa 0,0 mm 8,8 km/h (2 Bft) W 280 ° 0 min 0,000 mm 1,9 UV-I 107 W/m² 9,5 °C 15,4 °C 14,5 km/h (3 Bft)
07.09.2017 16:09 15,3 °C 15,4 °C 67 % 1015,0 hPa 0,0 mm 9,7 km/h (2 Bft) W 276 ° 0 min 0,000 mm 3,1 UV-I 107 W/m² 9,2 °C 15,3 °C 14,5 km/h (3 Bft)
07.09.2017 16:10 15,3 °C 15,3 °C 65 % 1015,0 hPa 0,0 mm 12,1 km/h (2 Bft) W-NW 291 ° 1 min 0,000 mm 3,1 UV-I 554 W/m² 8,8 °C 15,3 °C 14,5 km/h (3 Bft)
07.09.2017 16:11 15,3 °C 15,3 °C 65 % 1014,9 hPa 0,0 mm 8,5 km/h (2 Bft) W 273 ° 1 min 0,000 mm 2,8 UV-I 548 W/m² 8,8 °C 15,3 °C 12,9 km/h (3 Bft)
07.09.2017 16:12 15,3 °C 15,3 °C 64 % 1015,0 hPa 0,0 mm 7,8 km/h (2 Bft) NW 323 ° 1 min 0,000 mm 3,0 UV-I 508 W/m² 8,5 °C 15,3 °C 12,9 km/h (3 Bft)
07.09.2017 16:14 15,4 °C 15,4 °C 66 % 1014,9 hPa 0,0 mm 7,1 km/h (2 Bft) NO 42 ° 2 min 0,000 mm 2,9 UV-I 499 W/m² 9,1 °C 15,4 °C 14,5 km/h (3 Bft)
07.09.2017 16:15 15,4 °C 15,4 °C 66 % 1014,9 hPa 0,0 mm 9,9 km/h (2 Bft) W 278 ° 1 min 0,000 mm 2,9 UV-I 489 W/m² 9,1 °C 15,4 °C 16,1 km/h (3 Bft)
07.09.2017 16:16 15,6 °C 15,6 °C 66 % 1014,9 hPa 0,0 mm 12,6 km/h (3 Bft) W 277 ° 1 min 0,000 mm 2,8 UV-I 461 W/m² 9,3 °C 15,6 °C 17,7 km/h (3 Bft)
07.09.2017 16:17 15,6 °C 15,6 °C 64 % 1014,9 hPa 0,0 mm 9,6 km/h (2 Bft) NW 311 ° 1 min 0,000 mm 2,7 UV-I 366 W/m² 8,8 °C 15,6 °C 16,1 km/h (3 Bft)
07.09.2017 16:18 15,6 °C 15,6 °C 64 % 1014,9 hPa 0,0 mm 8,5 km/h (2 Bft) NW 315 ° 0 min 0,000 mm 1,9 UV-I 105 W/m² 8,8 °C 15,6 °C 16,1 km/h (3 Bft)
07.09.2017 16:19 15,5 °C 15,6 °C 64 % 1014,9 hPa 0,0 mm 11,7 km/h (2 Bft) W-NW 283 ° 0 min 0,000 mm 1,8 UV-I 84 W/m² 8,7 °C 15,5 °C 14,5 km/h (3 Bft)
07.09.2017 16:20 15,6 °C 15,6 °C 66 % 1014,9 hPa 0,0 mm 8,9 km/h (2 Bft) W-SW 249 ° 0 min 0,000 mm 1,7 UV-I 84 W/m² 9,3 °C 15,6 °C 14,5 km/h (3 Bft)
07.09.2017 16:21 15,5 °C 15,6 °C 64 % 1014,9 hPa 0,0 mm 12,0 km/h (2 Bft) N-NW 341 ° 0 min 0,000 mm 1,7 UV-I 83 W/m² 8,7 °C 15,5 °C 17,7 km/h (3 Bft)
07.09.2017 16:22 15,5 °C 15,6 °C 64 % 1014,9 hPa 0,0 mm 10,8 km/h (2 Bft) W 275 ° 0 min 0,000 mm 1,7 UV-I 83 W/m² 8,7 °C 15,5 °C 16,1 km/h (3 Bft)
07.09.2017 16:23 15,4 °C 15,5 °C 64 % 1014,8 hPa 0,0 mm 10,1 km/h (2 Bft) W 271 ° 0 min 0,000 mm 1,7 UV-I 84 W/m² 8,6 °C 15,4 °C 16,1 km/h (3 Bft)
07.09.2017 16:24 15,4 °C 15,5 °C 63 % 1014,8 hPa 0,0 mm 12,2 km/h (2 Bft) NW 304 ° 0 min 0,000 mm 1,7 UV-I 93 W/m² 8,4 °C 15,4 °C 17,7 km/h (3 Bft)
07.09.2017 16:25 15,4 °C 15,5 °C 64 % 1014,8 hPa 0,0 mm 5,6 km/h (1 Bft) W 261 ° 0 min 0,000 mm 1,7 UV-I 102 W/m² 8,6 °C 15,4 °C 14,5 km/h (3 Bft)
07.09.2017 16:26 15,4 °C 15,5 °C 64 % 1014,8 hPa 0,0 mm 5,4 km/h (1 Bft) W-NW 290 ° 0 min 0,000 mm 1,8 UV-I 139 W/m² 8,6 °C 15,4 °C 9,7 km/h (2 Bft)
07.09.2017 16:27 15,5 °C 15,5 °C 66 % 1014,8 hPa 0,0 mm 5,6 km/h (1 Bft) W-NW 295 ° 0 min 0,000 mm 1,8 UV-I 144 W/m² 9,2 °C 15,5 °C 14,5 km/h (3 Bft)
07.09.2017 16:28 15,5 °C 15,6 °C 65 % 1014,8 hPa 0,0 mm 7,1 km/h (2 Bft) W-NW 288 ° 0 min 0,000 mm 1,9 UV-I 134 W/m² 8,9 °C 15,5 °C 14,5 km/h (3 Bft)
07.09.2017 16:29 15,6 °C 15,6 °C 65 % 1014,7 hPa 0,0 mm 9,7 km/h (2 Bft) W 276 ° 0 min 0,000 mm 1,8 UV-I 144 W/m² 9,0 °C 15,6 °C 14,5 km/h (3 Bft)
07.09.2017 16:30 15,6 °C 15,6 °C 65 % 1014,7 hPa 0,0 mm 9,7 km/h (2 Bft) NW 315 ° 0 min 0,000 mm 1,8 UV-I 134 W/m² 9,0 °C 15,6 °C 14,5 km/h (3 Bft)
07.09.2017 16:31 15,6 °C 15,6 °C 66 % 1014,8 hPa 0,0 mm 5,3 km/h (1 Bft) W-NW 296 ° 0 min 0,000 mm 1,8 UV-I 91 W/m² 9,3 °C 15,6 °C 6,4 km/h (2 Bft)
07.09.2017 16:32 15,6 °C 15,6 °C 64 % 1014,7 hPa 0,0 mm 7,4 km/h (2 Bft) W 266 ° 0 min 0,000 mm 1,7 UV-I 155 W/m² 8,8 °C 15,6 °C 12,9 km/h (3 Bft)
07.09.2017 16:33 15,6 °C 15,6 °C 63 % 1014,7 hPa 0,0 mm 6,9 km/h (2 Bft) NW 307 ° 0 min 0,000 mm 1,9 UV-I 227 W/m² 8,6 °C 15,6 °C 11,3 km/h (2 Bft)
07.09.2017 16:34 15,5 °C 15,6 °C 63 % 1014,7 hPa 0,0 mm 7,0 km/h (2 Bft) W-NW 283 ° 0 min 0,000 mm 1,8 UV-I 195 W/m² 8,5 °C 15,5 °C 16,1 km/h (3 Bft)
07.09.2017 16:35 15,4 °C 15,5 °C 63 % 1014,8 hPa 0,0 mm 11,5 km/h (2 Bft) W 261 ° 0 min 0,000 mm 1,8 UV-I 90 W/m² 8,4 °C 15,4 °C 17,7 km/h (3 Bft)
07.09.2017 16:36 15,3 °C 15,4 °C 63 % 1014,8 hPa 0,0 mm 10,1 km/h (2 Bft) W-SW 244 ° 0 min 0,000 mm 1,5 UV-I 69 W/m² 8,3 °C 15,3 °C 17,7 km/h (3 Bft)
07.09.2017 16:37 15,3 °C 15,3 °C 63 % 1014,8 hPa 0,0 mm 10,9 km/h (2 Bft) W-NW 294 ° 0 min 0,000 mm 1,5 UV-I 69 W/m² 8,3 °C 15,3 °C 16,1 km/h (3 Bft)
07.09.2017 16:38 15,2 °C 15,3 °C 64 % 1014,8 hPa 0,0 mm 6,8 km/h (2 Bft) W-NW 302 ° 0 min 0,000 mm 1,6 UV-I 107 W/m² 8,4 °C 15,2 °C 12,9 km/h (3 Bft)
07.09.2017 16:39 15,1 °C 15,2 °C 65 % 1014,7 hPa 0,0 mm 8,6 km/h (2 Bft) W 264 ° 0 min 0,000 mm 1,6 UV-I 113 W/m² 8,6 °C 15,1 °C 14,5 km/h (3 Bft)
07.09.2017 16:40 15,1 °C 15,2 °C 64 % 1014,7 hPa 0,0 mm 8,0 km/h (2 Bft) NW 309 ° 0 min 0,000 mm 1,6 UV-I 146 W/m² 8,3 °C 15,1 °C 12,9 km/h (3 Bft)
07.09.2017 16:41 15,2 °C 15,2 °C 63 % 1014,7 hPa 0,0 mm 8,6 km/h (2 Bft) W 279 ° 0 min 0,000 mm 1,6 UV-I 100 W/m² 8,2 °C 15,2 °C 12,9 km/h (3 Bft)
07.09.2017 16:42 15,2 °C 15,2 °C 64 % 1014,8 hPa 0,0 mm 12,0 km/h (2 Bft) NW 321 ° 0 min 0,000 mm 1,5 UV-I 74 W/m² 8,4 °C 15,2 °C 16,1 km/h (3 Bft)
07.09.2017 16:43 15,2 °C 15,2 °C 64 % 1014,8 hPa 0,0 mm 7,2 km/h (2 Bft) W-NW 292 ° 0 min 0,000 mm 1,5 UV-I 70 W/m² 8,4 °C 15,2 °C 14,5 km/h (3 Bft)
07.09.2017 16:44 15,3 °C 15,3 °C 63 % 1014,7 hPa 0,0 mm 6,4 km/h (2 Bft) W 261 ° 0 min 0,000 mm 1,5 UV-I 69 W/m² 8,3 °C 15,3 °C 11,3 km/h (2 Bft)
07.09.2017 16:45 15,3 °C 15,3 °C 62 % 1014,8 hPa 0,0 mm 9,3 km/h (2 Bft) W 271 ° 0 min 0,000 mm 1,4 UV-I 69 W/m² 8,1 °C 15,3 °C 14,5 km/h (3 Bft)
07.09.2017 16:46 15,3 °C 15,3 °C 61 % 1014,8 hPa 0,0 mm 8,7 km/h (2 Bft) W 262 ° 0 min 0,000 mm 1,4 UV-I 65 W/m² 7,8 °C 15,3 °C 12,9 km/h (3 Bft)
07.09.2017 16:47 15,3 °C 15,3 °C 62 % 1014,8 hPa 0,0 mm 9,3 km/h (2 Bft) W-NW 296 ° 0 min 0,000 mm 1,4 UV-I 65 W/m² 8,1 °C 15,3 °C 14,5 km/h (3 Bft)
07.09.2017 16:48 15,3 °C 15,3 °C 62 % 1014,8 hPa 0,0 mm 13,2 km/h (3 Bft) NW 309 ° 0 min 0,000 mm 1,4 UV-I 65 W/m² 8,1 °C 15,3 °C 19,3 km/h (3 Bft)
07.09.2017 16:49 15,3 °C 15,3 °C 62 % 1014,8 hPa 0,0 mm 13,1 km/h (3 Bft) N-NW 329 ° 0 min 0,000 mm 1,4 UV-I 63 W/m² 8,1 °C 15,3 °C 17,7 km/h (3 Bft)
07.09.2017 16:50 15,3 °C 15,3 °C 64 % 1014,8 hPa 0,0 mm 6,6 km/h (2 Bft) NW 323 ° 0 min 0,000 mm 1,4 UV-I 65 W/m² 8,5 °C 15,3 °C 11,3 km/h (2 Bft)
07.09.2017 16:51 15,3 °C 15,3 °C 63 % 1014,9 hPa 0,0 mm 9,0 km/h (2 Bft) W-NW 284 ° 0 min 0,000 mm 1,4 UV-I 67 W/m² 8,3 °C 15,3 °C 14,5 km/h (3 Bft)
07.09.2017 16:52 15,3 °C 15,3 °C 61 % 1014,8 hPa 0,0 mm 11,7 km/h (2 Bft) N-NW 347 ° 0 min 0,000 mm 1,4 UV-I 67 W/m² 7,8 °C 15,3 °C 14,5 km/h (3 Bft)
07.09.2017 16:53 15,3 °C 15,3 °C 63 % 1014,8 hPa 0,0 mm 11,9 km/h (2 Bft) W-NW 301 ° 0 min 0,000 mm 1,4 UV-I 67 W/m² 8,3 °C 15,3 °C 16,1 km/h (3 Bft)
07.09.2017 16:54 15,3 °C 15,3 °C 62 % 1014,8 hPa 0,0 mm 11,5 km/h (2 Bft) W-SW 252 ° 0 min 0,000 mm 1,4 UV-I 67 W/m² 8,1 °C 15,3 °C 19,3 km/h (3 Bft)
07.09.2017 16:55 15,2 °C 15,3 °C 63 % 1014,8 hPa 0,0 mm 13,6 km/h (3 Bft) W-NW 291 ° 0 min 0,000 mm 1,3 UV-I 69 W/m² 8,2 °C 15,2 °C 16,1 km/h (3 Bft)
07.09.2017 16:56 15,2 °C 15,2 °C 64 % 1014,8 hPa 0,0 mm 11,0 km/h (2 Bft) W 268 ° 0 min 0,000 mm 1,3 UV-I 69 W/m² 8,4 °C 15,2 °C 17,7 km/h (3 Bft)
07.09.2017 16:57 15,2 °C 15,2 °C 62 % 1014,8 hPa 0,0 mm 9,6 km/h (2 Bft) W 280 ° 0 min 0,000 mm 1,3 UV-I 67 W/m² 8,0 °C 15,2 °C 14,5 km/h (3 Bft)
07.09.2017 16:59 15,2 °C 15,2 °C 61 % 1014,8 hPa 0,0 mm 5,8 km/h (2 Bft) W-NW 296 ° 0 min 0,000 mm 1,3 UV-I 69 W/m² 7,7 °C 15,2 °C 12,9 km/h (3 Bft)
07.09.2017 17:00 15,2 °C 15,2 °C 62 % 1014,8 hPa 0,0 mm 10,4 km/h (2 Bft) NW 323 ° 0 min 0,000 mm 1,3 UV-I 69 W/m² 8,0 °C 15,2 °C 16,1 km/h (3 Bft)
07.09.2017 17:01 15,2 °C 15,2 °C 62 % 1014,8 hPa 0,0 mm 12,0 km/h (2 Bft) W-NW 288 ° 0 min 0,127 mm 1,3 UV-I 76 W/m² 8,0 °C 15,2 °C 17,7 km/h (3 Bft)
07.09.2017 17:02 15,2 °C 15,2 °C 62 % 1014,7 hPa 0,0 mm 8,5 km/h (2 Bft) W-SW 256 ° 0 min 0,000 mm 1,3 UV-I 81 W/m² 8,0 °C 15,2 °C 16,1 km/h (3 Bft)
07.09.2017 17:03 15,2 °C 15,2 °C 64 % 1014,7 hPa 0,0 mm 7,5 km/h (2 Bft) W-NW 298 ° 0 min 0,000 mm 1,3 UV-I 86 W/m² 8,4 °C 15,2 °C 14,5 km/h (3 Bft)
07.09.2017 17:04 15,3 °C 15,3 °C 64 % 1014,7 hPa 0,0 mm 9,3 km/h (2 Bft) W-SW 254 ° 0 min 0,000 mm 1,3 UV-I 86 W/m² 8,5 °C 15,3 °C 17,7 km/h (3 Bft)
07.09.2017 17:05 15,3 °C 15,3 °C 63 % 1014,7 hPa 0,0 mm 17,1 km/h (3 Bft) W 272 ° 0 min 0,000 mm 1,3 UV-I 86 W/m² 8,3 °C 15,3 °C 22,5 km/h (4 Bft)
07.09.2017 17:06 15,2 °C 15,3 °C 62 % 1014,7 hPa 0,0 mm 14,8 km/h (3 Bft) W-SW 238 ° 0 min 0,000 mm 1,3 UV-I 83 W/m² 8,0 °C 15,2 °C 22,5 km/h (4 Bft)
07.09.2017 17:07 15,2 °C 15,3 °C 62 % 1014,7 hPa 0,0 mm 13,2 km/h (3 Bft) W-NW 296 ° 0 min 0,000 mm 1,2 UV-I 86 W/m² 8,0 °C 15,2 °C 19,3 km/h (3 Bft)
07.09.2017 17:08 15,2 °C 15,2 °C 62 % 1014,7 hPa 0,0 mm 12,0 km/h (2 Bft) W-NW 294 ° 0 min 0,000 mm 1,2 UV-I 90 W/m² 8,0 °C 15,2 °C 16,1 km/h (3 Bft)
07.09.2017 17:09 15,2 °C 15,2 °C 65 % 1014,6 hPa 0,0 mm 11,0 km/h (2 Bft) W 275 ° 0 min 0,000 mm 1,2 UV-I 81 W/m² 8,7 °C 15,2 °C 14,5 km/h (3 Bft)
07.09.2017 17:10 15,2 °C 15,2 °C 64 % 1014,7 hPa 0,0 mm 5,4 km/h (1 Bft) W 262 ° 0 min 0,000 mm 1,2 UV-I 69 W/m² 8,4 °C 15,2 °C 9,7 km/h (2 Bft)
07.09.2017 17:11 15,2 °C 15,2 °C 64 % 1014,7 hPa 0,0 mm 9,7 km/h (2 Bft) W-NW 293 ° 0 min 0,000 mm 1,2 UV-I 69 W/m² 8,4 °C 15,2 °C 12,9 km/h (3 Bft)
07.09.2017 17:12 15,2 °C 15,2 °C 64 % 1014,7 hPa 0,0 mm 8,1 km/h (2 Bft) W 260 ° 0 min 0,000 mm 1,2 UV-I 70 W/m² 8,4 °C 15,2 °C 12,9 km/h (3 Bft)
07.09.2017 17:13 15,2 °C 15,2 °C 64 % 1014,6 hPa 0,0 mm 5,5 km/h (1 Bft) W-NW 287 ° 0 min 0,000 mm 1,2 UV-I 74 W/m² 8,4 °C 15,2 °C 9,7 km/h (2 Bft)
07.09.2017 17:14 15,2 °C 15,2 °C 64 % 1014,6 hPa 0,0 mm 4,1 km/h (1 Bft) W-SW 257 ° 0 min 0,000 mm 1,2 UV-I 77 W/m² 8,4 °C 15,2 °C 11,3 km/h (2 Bft)
07.09.2017 17:15 15,2 °C 15,2 °C 63 % 1014,7 hPa 0,0 mm 6,9 km/h (2 Bft) W 279 ° 0 min 0,000 mm 1,2 UV-I 79 W/m² 8,2 °C 15,2 °C 12,9 km/h (3 Bft)
07.09.2017 17:16 15,2 °C 15,2 °C 64 % 1014,7 hPa 0,0 mm 3,9 km/h (1 Bft) N-NW 331 ° 0 min 0,000 mm 1,2 UV-I 76 W/m² 8,4 °C 15,2 °C 6,4 km/h (2 Bft)
07.09.2017 17:17 15,2 °C 15,2 °C 65 % 1014,7 hPa 0,0 mm 9,0 km/h (2 Bft) NW 306 ° 0 min 0,000 mm 1,1 UV-I 79 W/m² 8,7 °C 15,2 °C 14,5 km/h (3 Bft)
07.09.2017 17:18 15,3 °C 15,3 °C 66 % 1014,7 hPa 0,0 mm 7,0 km/h (2 Bft) NW 311 ° 0 min 0,000 mm 1,1 UV-I 88 W/m² 9,0 °C 15,3 °C 14,5 km/h (3 Bft)
07.09.2017 17:19 15,3 °C 15,3 °C 63 % 1014,7 hPa 0,0 mm 5,6 km/h (1 Bft) W-NW 296 ° 0 min 0,000 mm 1,1 UV-I 97 W/m² 8,3 °C 15,3 °C 11,3 km/h (2 Bft)
07.09.2017 17:20 15,3 °C 15,3 °C 63 % 1014,7 hPa 0,0 mm 5,4 km/h (1 Bft) NW 304 ° 0 min 0,000 mm 1,1 UV-I 109 W/m² 8,3 °C 15,3 °C 11,3 km/h (2 Bft)
07.09.2017 17:21 15,3 °C 15,3 °C 64 % 1014,7 hPa 0,0 mm 5,0 km/h (1 Bft) N-NW 329 ° 0 min 0,000 mm 1,1 UV-I 130 W/m² 8,5 °C 15,3 °C 8,0 km/h (2 Bft)
07.09.2017 17:22 15,3 °C 15,3 °C 64 % 1014,7 hPa 0,0 mm 7,2 km/h (2 Bft) NW 312 ° 0 min 0,000 mm 1,2 UV-I 137 W/m² 8,5 °C 15,3 °C 11,3 km/h (2 Bft)
07.09.2017 17:23 15,3 °C 15,3 °C 62 % 1014,7 hPa 0,0 mm 7,1 km/h (2 Bft) N-NW 346 ° 0 min 0,000 mm 1,2 UV-I 134 W/m² 8,1 °C 15,3 °C 11,3 km/h (2 Bft)
07.09.2017 17:24 15,4 °C 15,4 °C 63 % 1014,7 hPa 0,0 mm 4,8 km/h (1 Bft) NW 308 ° 0 min 0,000 mm 1,2 UV-I 121 W/m² 8,4 °C 15,4 °C 8,0 km/h (2 Bft)
07.09.2017 17:25 15,5 °C 15,5 °C 67 % 1014,6 hPa 0,0 mm 4,2 km/h (1 Bft) W-NW 300 ° 0 min 0,000 mm 1,1 UV-I 109 W/m² 9,4 °C 15,5 °C 8,0 km/h (2 Bft)
07.09.2017 17:26 15,6 °C 15,6 °C 65 % 1014,7 hPa 0,0 mm 7,9 km/h (2 Bft) N-NW 331 ° 0 min 0,000 mm 1,1 UV-I 116 W/m² 9,0 °C 15,6 °C 11,3 km/h (2 Bft)
07.09.2017 17:27 15,6 °C 15,6 °C 64 % 1014,6 hPa 0,0 mm 5,3 km/h (1 Bft) NW 324 ° 0 min 0,000 mm 1,1 UV-I 90 W/m² 8,8 °C 15,6 °C 8,0 km/h (2 Bft)
07.09.2017 17:28 15,5 °C 15,6 °C 63 % 1014,7 hPa 0,0 mm 7,8 km/h (2 Bft) W 269 ° 0 min 0,000 mm 1,1 UV-I 81 W/m² 8,5 °C 15,5 °C 12,9 km/h (3 Bft)
07.09.2017 17:29 15,4 °C 15,6 °C 61 % 1014,6 hPa 0,0 mm 7,9 km/h (2 Bft) W-NW 303 ° 0 min 0,000 mm 1,1 UV-I 88 W/m² 7,9 °C 15,4 °C 11,3 km/h (2 Bft)
07.09.2017 17:30 15,4 °C 15,4 °C 62 % 1014,6 hPa 0,0 mm 5,8 km/h (2 Bft) NW 317 ° 0 min 0,000 mm 1,1 UV-I 88 W/m² 8,2 °C 15,4 °C 8,0 km/h (2 Bft)
07.09.2017 17:31 15,4 °C 15,4 °C 62 % 1014,6 hPa 0,0 mm 6,8 km/h (2 Bft) NW 315 ° 0 min 0,000 mm 1,1 UV-I 86 W/m² 8,2 °C 15,4 °C 11,3 km/h (2 Bft)
07.09.2017 17:32 15,3 °C 15,4 °C 62 % 1014,6 hPa 0,0 mm 5,3 km/h (1 Bft) W-NW 300 ° 0 min 0,000 mm 1,1 UV-I 97 W/m² 8,1 °C 15,3 °C 8,0 km/h (2 Bft)
07.09.2017 17:33 15,3 °C 15,3 °C 62 % 1014,6 hPa 0,0 mm 4,0 km/h (1 Bft) N-NW 331 ° 0 min 0,000 mm 1,0 UV-I 100 W/m² 8,1 °C 15,3 °C 4,8 km/h (1 Bft)
07.09.2017 17:34 15,2 °C 15,3 °C 62 % 1014,5 hPa 0,0 mm 5,4 km/h (1 Bft) NW 305 ° 0 min 0,000 mm 1,0 UV-I 100 W/m² 8,0 °C 15,2 °C 8,0 km/h (2 Bft)
07.09.2017 17:35 15,2 °C 15,2 °C 62 % 1014,6 hPa 0,0 mm 5,8 km/h (2 Bft) W-NW 289 ° 0 min 0,000 mm 1,0 UV-I 97 W/m² 8,0 °C 15,2 °C 9,7 km/h (2 Bft)
07.09.2017 17:36 15,2 °C 15,2 °C 65 % 1014,6 hPa 0,0 mm 6,8 km/h (2 Bft) W-NW 303 ° 0 min 0,000 mm 1,0 UV-I 93 W/m² 8,7 °C 15,2 °C 11,3 km/h (2 Bft)
07.09.2017 17:37 15,2 °C 15,2 °C 64 % 1014,6 hPa 0,0 mm 5,5 km/h (1 Bft) NW 310 ° 0 min 0,000 mm 1,0 UV-I 90 W/m² 8,4 °C 15,2 °C 8,0 km/h (2 Bft)
07.09.2017 17:38 15,2 °C 15,2 °C 65 % 1014,6 hPa 0,0 mm 3,5 km/h (1 Bft) NW 304 ° 0 min 0,000 mm 1,0 UV-I 88 W/m² 8,7 °C 15,2 °C 4,8 km/h (1 Bft)
07.09.2017 17:39 15,2 °C 15,2 °C 67 % 1014,6 hPa 0,0 mm 4,8 km/h (1 Bft) W-NW 298 ° 0 min 0,000 mm 0,9 UV-I 84 W/m² 9,1 °C 15,2 °C 6,4 km/h (2 Bft)
07.09.2017 17:40 15,1 °C 15,2 °C 66 % 1014,5 hPa 0,0 mm 2,9 km/h (1 Bft) W-NW 297 ° 0 min 0,000 mm 0,9 UV-I 81 W/m² 8,8 °C 15,1 °C 8,0 km/h (2 Bft)
07.09.2017 17:41 15,1 °C 15,2 °C 65 % 1014,5 hPa 0,0 mm 5,2 km/h (1 Bft) NW 308 ° 0 min 0,000 mm 0,9 UV-I 77 W/m² 8,6 °C 15,1 °C 8,0 km/h (2 Bft)
07.09.2017 17:42 15,1 °C 15,1 °C 64 % 1014,5 hPa 0,0 mm 7,4 km/h (2 Bft) W-NW 287 ° 0 min 0,000 mm 0,9 UV-I 76 W/m² 8,3 °C 15,1 °C 11,3 km/h (2 Bft)
07.09.2017 17:43 15,1 °C 15,1 °C 64 % 1014,6 hPa 0,0 mm 5,6 km/h (1 Bft) NW 314 ° 0 min 0,000 mm 0,9 UV-I 76 W/m² 8,3 °C 15,1 °C 8,0 km/h (2 Bft)
07.09.2017 17:44 15,1 °C 15,1 °C 65 % 1014,5 hPa 0,0 mm 6,1 km/h (2 Bft) W 280 ° 0 min 0,000 mm 0,9 UV-I 72 W/m² 8,6 °C 15,1 °C 11,3 km/h (2 Bft)
07.09.2017 17:45 15,0 °C 15,1 °C 64 % 1014,5 hPa 0,0 mm 5,6 km/h (1 Bft) W-NW 296 ° 0 min 0,000 mm 0,9 UV-I 76 W/m² 8,2 °C 15,0 °C 9,7 km/h (2 Bft)
07.09.2017 17:46 15,0 °C 15,0 °C 65 % 1014,5 hPa 0,0 mm 5,2 km/h (1 Bft) W-NW 303 ° 0 min 0,000 mm 0,9 UV-I 70 W/m² 8,5 °C 15,0 °C 8,0 km/h (2 Bft)
07.09.2017 17:47 15,0 °C 15,0 °C 65 % 1014,5 hPa 0,0 mm 6,0 km/h (2 Bft) NW 305 ° 0 min 0,000 mm 0,9 UV-I 69 W/m² 8,5 °C 15,0 °C 8,0 km/h (2 Bft)
07.09.2017 17:48 15,0 °C 15,0 °C 64 % 1014,5 hPa 0,0 mm 4,6 km/h (1 Bft) W 265 ° 0 min 0,000 mm 0,9 UV-I 65 W/m² 8,2 °C 15,0 °C 6,4 km/h (2 Bft)
07.09.2017 17:49 14,9 °C 15,0 °C 64 % 1014,5 hPa 0,0 mm 10,6 km/h (2 Bft) W-NW 289 ° 0 min 0,000 mm 0,9 UV-I 63 W/m² 8,2 °C 14,9 °C 14,5 km/h (3 Bft)
07.09.2017 17:50 14,9 °C 14,9 °C 63 % 1014,6 hPa 0,0 mm 9,9 km/h (2 Bft) W 277 ° 0 min 0,000 mm 0,9 UV-I 60 W/m² 7,9 °C 14,9 °C 16,1 km/h (3 Bft)
07.09.2017 17:51 14,9 °C 14,9 °C 64 % 1014,5 hPa 0,0 mm 6,6 km/h (2 Bft) NW 311 ° 0 min 0,000 mm 0,8 UV-I 58 W/m² 8,2 °C 14,9 °C 11,3 km/h (2 Bft)
07.09.2017 17:52 14,9 °C 14,9 °C 64 % 1014,5 hPa 0,0 mm 5,2 km/h (1 Bft) NW 315 ° 0 min 0,000 mm 0,8 UV-I 56 W/m² 8,2 °C 14,9 °C 11,3 km/h (2 Bft)
07.09.2017 17:53 14,8 °C 14,9 °C 65 % 1014,6 hPa 0,0 mm 5,0 km/h (1 Bft) W-SW 252 ° 0 min 0,000 mm 0,0 UV-I 54 W/m² 8,3 °C 14,8 °C 8,0 km/h (2 Bft)
07.09.2017 17:54 14,8 °C 14,9 °C 64 % 1014,6 hPa 0,0 mm 10,0 km/h (2 Bft) NW 324 ° 0 min 0,000 mm 0,0 UV-I 54 W/m² 8,1 °C 14,8 °C 12,9 km/h (3 Bft)
07.09.2017 17:55 14,8 °C 14,8 °C 66 % 1014,6 hPa 0,0 mm 5,0 km/h (1 Bft) NW 324 ° 0 min 0,000 mm 0,8 UV-I 56 W/m² 8,5 °C 14,8 °C 6,4 km/h (2 Bft)
07.09.2017 17:56 14,8 °C 14,9 °C 66 % 1014,6 hPa 0,0 mm 6,2 km/h (2 Bft) N-NW 331 ° 0 min 0,000 mm 0,0 UV-I 54 W/m² 8,5 °C 14,8 °C 9,7 km/h (2 Bft)
07.09.2017 17:57 14,8 °C 14,8 °C 65 % 1014,6 hPa 0,0 mm 5,2 km/h (1 Bft) W 278 ° 0 min 0,000 mm 0,0 UV-I 56 W/m² 8,3 °C 14,8 °C 11,3 km/h (2 Bft)
07.09.2017 17:58 14,8 °C 14,8 °C 64 % 1014,6 hPa 0,0 mm 4,7 km/h (1 Bft) W-NW 300 ° 0 min 0,000 mm 0,8 UV-I 56 W/m² 8,1 °C 14,8 °C 9,7 km/h (2 Bft)
07.09.2017 17:59 14,7 °C 14,8 °C 65 % 1014,6 hPa 0,0 mm 4,0 km/h (1 Bft) NW 319 ° 0 min 0,000 mm 0,0 UV-I 54 W/m² 8,2 °C 14,7 °C 6,4 km/h (2 Bft)
07.09.2017 18:00 14,7 °C 14,7 °C 65 % 1014,5 hPa 0,0 mm 1,5 km/h (1 Bft) NW 319 ° 0 min 0,000 mm 0,0 UV-I 54 W/m² 8,2 °C 14,7 °C 3,2 km/h (1 Bft)
07.09.2017 18:01 14,7 °C 14,7 °C 66 % 1014,6 hPa 0,0 mm 1,9 km/h (1 Bft) NW 325 ° 0 min 0,076 mm 0,7 UV-I 56 W/m² 8,4 °C 14,7 °C 3,2 km/h (1 Bft)
07.09.2017 18:02 14,6 °C 14,7 °C 65 % 1014,5 hPa 0,0 mm 2,7 km/h (1 Bft) W-NW 282 ° 0 min 0,000 mm 0,7 UV-I 56 W/m² 8,1 °C 14,6 °C 6,4 km/h (2 Bft)
07.09.2017 18:03 14,6 °C 14,6 °C 66 % 1014,5 hPa 0,0 mm 5,2 km/h (1 Bft) NW 311 ° 0 min 0,000 mm 0,7 UV-I 58 W/m² 8,3 °C 14,6 °C 9,7 km/h (2 Bft)
07.09.2017 18:04 14,4 °C 14,6 °C 67 % 1014,5 hPa 0,0 mm 7,2 km/h (2 Bft) W-NW 286 ° 0 min 0,000 mm 0,7 UV-I 58 W/m² 8,4 °C 14,4 °C 9,7 km/h (2 Bft)
07.09.2017 18:05 14,4 °C 14,4 °C 68 % 1014,5 hPa 0,0 mm 5,8 km/h (2 Bft) W-NW 296 ° 0 min 0,000 mm 0,7 UV-I 60 W/m² 8,6 °C 14,4 °C 9,7 km/h (2 Bft)
07.09.2017 18:06 14,3 °C 14,4 °C 68 % 1014,5 hPa 0,0 mm 5,0 km/h (1 Bft) W-NW 298 ° 0 min 0,000 mm 0,7 UV-I 60 W/m² 8,5 °C 14,3 °C 8,0 km/h (2 Bft)
07.09.2017 18:07 14,2 °C 14,3 °C 69 % 1014,5 hPa 0,0 mm 2,5 km/h (1 Bft) W-NW 298 ° 0 min 0,000 mm 0,7 UV-I 58 W/m² 8,6 °C 14,2 °C 4,8 km/h (1 Bft)
07.09.2017 18:08 14,1 °C 14,2 °C 69 % 1014,5 hPa 0,0 mm 1,7 km/h (1 Bft) W-NW 287 ° 0 min 0,000 mm 0,7 UV-I 53 W/m² 8,5 °C 14,1 °C 4,8 km/h (1 Bft)
07.09.2017 18:09 14,1 °C 14,1 °C 67 % 1014,5 hPa 0,0 mm 5,0 km/h (1 Bft) W-NW 292 ° 0 min 0,000 mm 0,0 UV-I 51 W/m² 8,1 °C 14,1 °C 8,0 km/h (2 Bft)
07.09.2017 18:10 14,1 °C 14,1 °C 70 % 1014,5 hPa 0,0 mm 2,2 km/h (1 Bft) W-NW 292 ° 0 min 0,000 mm 0,0 UV-I 49 W/m² 8,7 °C 14,1 °C 3,2 km/h (1 Bft)
07.09.2017 18:11 13,9 °C 14,1 °C 70 % 1014,5 hPa 0,0 mm 3,8 km/h (1 Bft) W 263 ° 0 min 0,000 mm 0,0 UV-I 47 W/m² 8,5 °C 13,9 °C 6,4 km/h (2 Bft)
07.09.2017 18:12 13,9 °C 13,9 °C 71 % 1014,5 hPa 0,0 mm 3,4 km/h (1 Bft) W-SW 250 ° 0 min 0,000 mm 0,0 UV-I 47 W/m² 8,7 °C 13,9 °C 4,8 km/h (1 Bft)
07.09.2017 18:13 13,8 °C 13,9 °C 71 % 1014,5 hPa 0,0 mm 1,6 km/h (1 Bft) W-SW 246 ° 0 min 0,000 mm 0,0 UV-I 47 W/m² 8,6 °C 13,8 °C 4,8 km/h (1 Bft)
07.09.2017 18:14 13,8 °C 13,8 °C 71 % 1014,5 hPa 0,0 mm 2,1 km/h (1 Bft) W-SW 246 ° 0 min 0,000 mm 0,0 UV-I 51 W/m² 8,6 °C 13,8 °C 3,2 km/h (1 Bft)
07.09.2017 18:15 13,7 °C 13,8 °C 71 % 1014,5 hPa 0,0 mm 3,3 km/h (1 Bft) W-SW 257 ° 0 min 0,000 mm 0,0 UV-I 51 W/m² 8,5 °C 13,7 °C 4,8 km/h (1 Bft)
07.09.2017 18:16 13,7 °C 13,7 °C 72 % 1014,5 hPa 0,0 mm 1,3 km/h (1 Bft) W-SW 257 ° 0 min 0,000 mm 0,0 UV-I 51 W/m² 8,7 °C 13,7 °C 3,2 km/h (1 Bft)
07.09.2017 18:17 13,7 °C 13,7 °C 72 % 1014,5 hPa 0,0 mm 0,0 km/h (0 Bft) W-SW 257 ° 0 min 0,000 mm 0,0 UV-I 53 W/m² 8,7 °C 13,7 °C 0,0 km/h (0 Bft)
07.09.2017 18:18 13,6 °C 13,7 °C 73 % 1014,5 hPa 0,0 mm 0,2 km/h (0 Bft) W-SW 257 ° 0 min 0,000 mm 0,5 UV-I 56 W/m² 8,9 °C 13,6 °C 3,2 km/h (1 Bft)
07.09.2017 18:19 13,6 °C 13,6 °C 72 % 1014,5 hPa 0,0 mm 2,3 km/h (1 Bft) W-SW 257 ° 0 min 0,000 mm 0,5 UV-I 60 W/m² 8,6 °C 13,6 °C 3,2 km/h (1 Bft)
07.09.2017 18:20 13,6 °C 13,6 °C 72 % 1014,6 hPa 0,0 mm 0,6 km/h (0 Bft) W-SW 257 ° 0 min 0,000 mm 0,5 UV-I 63 W/m² 8,6 °C 13,6 °C 3,2 km/h (1 Bft)
07.09.2017 18:21 13,5 °C 13,6 °C 73 % 1014,5 hPa 0,0 mm 0,0 km/h (0 Bft) W-SW 257 ° 0 min 0,000 mm 0,5 UV-I 65 W/m² 8,8 °C 13,5 °C 0,0 km/h (0 Bft)
07.09.2017 18:22 13,5 °C 13,6 °C 72 % 1014,6 hPa 0,0 mm 0,0 km/h (0 Bft) W-SW 257 ° 0 min 0,000 mm 0,5 UV-I 65 W/m² 8,6 °C 13,5 °C 0,0 km/h (0 Bft)
07.09.2017 18:23 13,5 °C 13,5 °C 72 % 1014,6 hPa 0,0 mm 0,0 km/h (0 Bft) W-SW 257 ° 0 min 0,000 mm 0,5 UV-I 63 W/m² 8,6 °C 13,5 °C 0,0 km/h (0 Bft)
07.09.2017 18:24 13,6 °C 13,6 °C 73 % 1014,6 hPa 0,0 mm 0,0 km/h (0 Bft) W-SW 257 ° 0 min 0,000 mm 0,5 UV-I 62 W/m² 8,9 °C 13,6 °C 0,0 km/h (0 Bft)
07.09.2017 18:25 13,6 °C 13,6 °C 73 % 1014,6 hPa 0,0 mm 0,0 km/h (0 Bft) W-SW 257 ° 0 min 0,000 mm 0,0 UV-I 60 W/m² 8,9 °C 13,6 °C 0,0 km/h (0 Bft)
07.09.2017 18:26 13,6 °C 13,6 °C 72 % 1014,6 hPa 0,0 mm 0,0 km/h (0 Bft) W-SW 257 ° 0 min 0,000 mm 0,0 UV-I 58 W/m² 8,6 °C 13,6 °C 0,0 km/h (0 Bft)
07.09.2017 18:27 13,6 °C 13,6 °C 75 % 1014,6 hPa 0,0 mm 0,0 km/h (0 Bft) W-SW 257 ° 0 min 0,000 mm 0,0 UV-I 62 W/m² 9,3 °C 13,6 °C 0,0 km/h (0 Bft)
07.09.2017 18:28 13,6 °C 13,7 °C 73 % 1014,6 hPa 0,0 mm 0,0 km/h (0 Bft) W-SW 257 ° 0 min 0,000 mm 0,0 UV-I 62 W/m² 8,9 °C 13,6 °C 0,0 km/h (0 Bft)
07.09.2017 18:29 13,7 °C 13,7 °C 74 % 1014,6 hPa 0,0 mm 0,4 km/h (0 Bft) W-SW 257 ° 0 min 0,000 mm 0,0 UV-I 58 W/m² 9,2 °C 13,7 °C 1,6 km/h (1 Bft)
07.09.2017 18:30 13,7 °C 13,7 °C 74 % 1014,6 hPa 0,0 mm 0,0 km/h (0 Bft) W-SW 257 ° 0 min 0,000 mm 0,0 UV-I 63 W/m² 9,2 °C 13,7 °C 0,0 km/h (0 Bft)
07.09.2017 18:31 13,7 °C 13,7 °C 74 % 1014,6 hPa 0,0 mm 0,0 km/h (0 Bft) W-SW 257 ° 0 min 0,000 mm 0,0 UV-I 62 W/m² 9,2 °C 13,7 °C 0,0 km/h (0 Bft)
07.09.2017 18:32 13,7 °C 13,7 °C 74 % 1014,6 hPa 0,0 mm 0,0 km/h (0 Bft) W-SW 257 ° 0 min 0,000 mm 0,0 UV-I 60 W/m² 9,2 °C 13,7 °C 0,0 km/h (0 Bft)
07.09.2017 18:33 13,7 °C 13,7 °C 73 % 1014,6 hPa 0,0 mm 0,0 km/h (0 Bft) W-SW 257 ° 0 min 0,000 mm 0,0 UV-I 60 W/m² 8,9 °C 13,7 °C 0,0 km/h (0 Bft)
07.09.2017 18:34 13,7 °C 13,7 °C 73 % 1014,6 hPa 0,0 mm 0,0 km/h (0 Bft) W-SW 257 ° 0 min 0,000 mm 0,0 UV-I 58 W/m² 8,9 °C 13,7 °C 0,0 km/h (0 Bft)
07.09.2017 18:35 13,7 °C 13,7 °C 75 % 1014,6 hPa 0,0 mm 0,0 km/h (0 Bft) W-SW 257 ° 0 min 0,000 mm 0,0 UV-I 58 W/m² 9,3 °C 13,7 °C 0,0 km/h (0 Bft)
07.09.2017 18:36 13,7 °C 13,7 °C 73 % 1014,6 hPa 0,0 mm 0,0 km/h (0 Bft) W-SW 257 ° 0 min 0,000 mm 0,0 UV-I 58 W/m² 8,9 °C 13,7 °C 0,0 km/h (0 Bft)
07.09.2017 18:37 13,7 °C 13,7 °C 75 % 1014,7 hPa 0,0 mm 0,0 km/h (0 Bft) W-SW 257 ° 0 min 0,000 mm 0,0 UV-I 56 W/m² 9,3 °C 13,7 °C 0,0 km/h (0 Bft)
07.09.2017 18:38 13,7 °C 13,8 °C 75 % 1014,6 hPa 0,0 mm 0,0 km/h (0 Bft) W-SW 257 ° 0 min 0,000 mm 0,0 UV-I 56 W/m² 9,3 °C 13,7 °C 0,0 km/h (0 Bft)
07.09.2017 18:39 13,7 °C 13,7 °C 73 % 1014,6 hPa 0,0 mm 0,0 km/h (0 Bft) W-SW 257 ° 0 min 0,000 mm 0,0 UV-I 56 W/m² 8,9 °C 13,7 °C 0,0 km/h (0 Bft)
07.09.2017 18:40 13,8 °C 13,8 °C 74 % 1014,6 hPa 0,0 mm 0,0 km/h (0 Bft) W-SW 257 ° 0 min 0,000 mm 0,0 UV-I 54 W/m² 9,2 °C 13,8 °C 0,0 km/h (0 Bft)
07.09.2017 18:41 13,8 °C 13,8 °C 75 % 1014,7 hPa 0,0 mm 0,0 km/h (0 Bft) W-SW 257 ° 0 min 0,000 mm 0,0 UV-I 54 W/m² 9,4 °C 13,8 °C 0,0 km/h (0 Bft)
07.09.2017 18:42 13,8 °C 13,8 °C 74 % 1014,7 hPa 0,0 mm 0,0 km/h (0 Bft) W-SW 257 ° 0 min 0,000 mm 0,0 UV-I 56 W/m² 9,2 °C 13,8 °C 0,0 km/h (0 Bft)
07.09.2017 18:43 13,8 °C 13,8 °C 73 % 1014,7 hPa 0,0 mm 0,0 km/h (0 Bft) W-SW 257 ° 0 min 0,000 mm 0,0 UV-I 56 W/m² 9,0 °C 13,8 °C 0,0 km/h (0 Bft)
07.09.2017 18:44 13,8 °C 13,8 °C 76 % 1014,7 hPa 0,0 mm 0,0 km/h (0 Bft) W-SW 257 ° 0 min 0,000 mm 0,0 UV-I 54 W/m² 9,6 °C 13,8 °C 0,0 km/h (0 Bft)
07.09.2017 18:45 13,8 °C 13,8 °C 75 % 1014,7 hPa 0,0 mm 0,0 km/h (0 Bft) W-SW 257 ° 0 min 0,000 mm 0,0 UV-I 51 W/m² 9,4 °C 13,8 °C 0,0 km/h (0 Bft)
07.09.2017 18:46 13,8 °C 13,8 °C 76 % 1014,6 hPa 0,0 mm 0,0 km/h (0 Bft) W-SW 257 ° 0 min 0,000 mm 0,0 UV-I 49 W/m² 9,6 °C 13,8 °C 0,0 km/h (0 Bft)
07.09.2017 18:47 13,8 °C 13,8 °C 75 % 1014,6 hPa 0,0 mm 0,0 km/h (0 Bft) W-SW 257 ° 0 min 0,000 mm 0,0 UV-I 46 W/m² 9,4 °C 13,8 °C 0,0 km/h (0 Bft)
07.09.2017 18:48 13,8 °C 13,8 °C 75 % 1014,7 hPa 0,0 mm 0,1 km/h (0 Bft) W-SW 257 ° 0 min 0,000 mm 0,0 UV-I 44 W/m² 9,4 °C 13,8 °C 1,6 km/h (1 Bft)
07.09.2017 18:49 13,7 °C 13,8 °C 75 % 1014,7 hPa 0,0 mm 0,0 km/h (0 Bft) W-SW 257 ° 0 min 0,000 mm 0,0 UV-I 42 W/m² 9,3 °C 13,7 °C 0,0 km/h (0 Bft)
07.09.2017 18:50 13,7 °C 13,8 °C 76 % 1014,7 hPa 0,0 mm 0,0 km/h (0 Bft) W-SW 257 ° 0 min 0,000 mm 0,0 UV-I 42 W/m² 9,5 °C 13,7 °C 0,0 km/h (0 Bft)
07.09.2017 18:51 13,7 °C 13,7 °C 76 % 1014,7 hPa 0,0 mm 0,0 km/h (0 Bft) W-SW 257 ° 0 min 0,000 mm 0,0 UV-I 42 W/m² 9,5 °C 13,7 °C 0,0 km/h (0 Bft)
07.09.2017 18:52 13,8 °C 13,8 °C 74 % 1014,7 hPa 0,0 mm 0,0 km/h (0 Bft) W-SW 257 ° 0 min 0,000 mm 0,0 UV-I 42 W/m² 9,2 °C 13,8 °C 0,0 km/h (0 Bft)
07.09.2017 18:53 13,8 °C 13,8 °C 79 % 1014,7 hPa 0,0 mm 0,0 km/h (0 Bft) W-SW 257 ° 0 min 0,000 mm 0,0 UV-I 44 W/m² 10,2 °C 13,8 °C 0,0 km/h (0 Bft)
07.09.2017 18:54 13,7 °C 13,8 °C 78 % 1014,7 hPa 0,0 mm 0,1 km/h (0 Bft) W-SW 257 ° 0 min 0,000 mm 0,0 UV-I 44 W/m² 9,9 °C 13,7 °C 1,6 km/h (1 Bft)
07.09.2017 18:55 13,6 °C 13,7 °C 77 % 1014,7 hPa 0,0 mm 0,0 km/h (0 Bft) W-SW 257 ° 0 min 0,000 mm 0,0 UV-I 44 W/m² 9,6 °C 13,6 °C 0,0 km/h (0 Bft)
07.09.2017 18:56 13,6 °C 13,7 °C 77 % 1014,8 hPa 0,0 mm 0,0 km/h (0 Bft) W-SW 257 ° 0 min 0,000 mm 0,0 UV-I 44 W/m² 9,6 °C 13,6 °C 0,0 km/h (0 Bft)
07.09.2017 18:57 13,6 °C 13,6 °C 76 % 1014,8 hPa 0,0 mm 0,0 km/h (0 Bft) W-SW 257 ° 0 min 0,000 mm 0,0 UV-I 44 W/m² 9,4 °C 13,6 °C 0,0 km/h (0 Bft)
07.09.2017 18:58 13,6 °C 13,6 °C 77 % 1014,8 hPa 0,0 mm 0,0 km/h (0 Bft) W-SW 257 ° 0 min 0,000 mm 0,0 UV-I 44 W/m² 9,6 °C 13,6 °C 0,0 km/h (0 Bft)
07.09.2017 18:59 13,6 °C 13,6 °C 77 % 1014,8 hPa 0,0 mm 0,0 km/h (0 Bft) W-SW 257 ° 0 min 0,000 mm 0,0 UV-I 42 W/m² 9,6 °C 13,6 °C 0,0 km/h (0 Bft)
07.09.2017 19:00 13,5 °C 13,6 °C 78 % 1014,8 hPa 0,0 mm 0,0 km/h (0 Bft) W-SW 257 ° 0 min 0,000 mm 0,0 UV-I 40 W/m² 9,7 °C 13,5 °C 0,0 km/h (0 Bft)
07.09.2017 19:01 13,5 °C 13,5 °C 80 % 1014,9 hPa 0,0 mm 0,0 km/h (0 Bft) W-SW 257 ° 0 min 0,025 mm 0,0 UV-I 39 W/m² 10,1 °C 13,5 °C 0,0 km/h (0 Bft)
07.09.2017 19:02 13,4 °C 13,5 °C 80 % 1014,8 hPa 0,0 mm 0,0 km/h (0 Bft) W-SW 257 ° 0 min 0,000 mm 0,0 UV-I 39 W/m² 10,0 °C 13,4 °C 0,0 km/h (0 Bft)
07.09.2017 19:04 13,4 °C 13,4 °C 79 % 1014,9 hPa 0,0 mm 0,0 km/h (0 Bft) W-SW 257 ° 0 min 0,000 mm 0,0 UV-I 40 W/m² 9,8 °C 13,4 °C 0,0 km/h (0 Bft)
07.09.2017 19:05 13,4 °C 13,4 °C 79 % 1014,9 hPa 0,0 mm 0,0 km/h (0 Bft) W-SW 257 ° 0 min 0,000 mm 0,0 UV-I 39 W/m² 9,8 °C 13,4 °C 0,0 km/h (0 Bft)
07.09.2017 19:06 13,3 °C 13,4 °C 79 % 1014,9 hPa 0,0 mm 0,0 km/h (0 Bft) W-SW 257 ° 0 min 0,000 mm 0,0 UV-I 37 W/m² 9,7 °C 13,3 °C 0,0 km/h (0 Bft)
07.09.2017 19:07 13,3 °C 13,3 °C 80 % 1014,9 hPa 0,0 mm 0,0 km/h (0 Bft) W-SW 257 ° 0 min 0,000 mm 0,0 UV-I 33 W/m² 9,9 °C 13,3 °C 0,0 km/h (0 Bft)
07.09.2017 19:08 13,2 °C 13,3 °C 79 % 1014,9 hPa 0,0 mm 0,0 km/h (0 Bft) W-SW 257 ° 0 min 0,000 mm 0,0 UV-I 33 W/m² 9,6 °C 13,2 °C 0,0 km/h (0 Bft)
07.09.2017 19:09 13,2 °C 13,2 °C 78 % 1014,9 hPa 0,0 mm 0,0 km/h (0 Bft) W-SW 257 ° 0 min 0,000 mm 0,0 UV-I 33 W/m² 9,4 °C 13,2 °C 0,0 km/h (0 Bft)
07.09.2017 19:10 13,2 °C 13,2 °C 78 % 1014,9 hPa 0,0 mm 0,0 km/h (0 Bft) W-SW 257 ° 0 min 0,000 mm 0,0 UV-I 32 W/m² 9,4 °C 13,2 °C 0,0 km/h (0 Bft)
07.09.2017 19:11 13,2 °C 13,3 °C 79 % 1014,9 hPa 0,0 mm 0,0 km/h (0 Bft) W-SW 257 ° 0 min 0,000 mm 0,0 UV-I 30 W/m² 9,6 °C 13,2 °C 0,0 km/h (0 Bft)
07.09.2017 19:12 13,2 °C 13,2 °C 79 % 1014,9 hPa 0,0 mm 0,0 km/h (0 Bft) W-SW 257 ° 0 min 0,000 mm 0,0 UV-I 30 W/m² 9,6 °C 13,2 °C 0,0 km/h (0 Bft)
07.09.2017 19:13 13,2 °C 13,2 °C 79 % 1014,9 hPa 0,0 mm 0,0 km/h (0 Bft) W-SW 257 ° 0 min 0,000 mm 0,0 UV-I 30 W/m² 9,6 °C 13,2 °C 0,0 km/h (0 Bft)
07.09.2017 19:14 13,2 °C 13,2 °C 79 % 1014,9 hPa 0,0 mm 0,0 km/h (0 Bft) W-SW 257 ° 0 min 0,000 mm 0,0 UV-I 25 W/m² 9,6 °C 13,2 °C 0,0 km/h (0 Bft)
07.09.2017 19:15 13,2 °C 13,2 °C 81 % 1014,9 hPa 0,0 mm 0,0 km/h (0 Bft) W-SW 257 ° 0 min 0,000 mm 0,0 UV-I 23 W/m² 10,0 °C 13,2 °C 0,0 km/h (0 Bft)
07.09.2017 19:16 13,2 °C 13,2 °C 81 % 1015,0 hPa 0,0 mm 0,0 km/h (0 Bft) W-SW 257 ° 0 min 0,000 mm 0,0 UV-I 21 W/m² 10,0 °C 13,2 °C 0,0 km/h (0 Bft)
07.09.2017 19:17 13,2 °C 13,2 °C 81 % 1014,9 hPa 0,0 mm 0,0 km/h (0 Bft) W-SW 257 ° 0 min 0,000 mm 0,0 UV-I 23 W/m² 10,0 °C 13,2 °C 0,0 km/h (0 Bft)
07.09.2017 19:18 13,2 °C 13,2 °C 81 % 1014,9 hPa 0,0 mm 0,0 km/h (0 Bft) W-SW 257 ° 0 min 0,000 mm 0,0 UV-I 21 W/m² 10,0 °C 13,2 °C 0,0 km/h (0 Bft)
07.09.2017 19:19 13,2 °C 13,2 °C 81 % 1014,9 hPa 0,0 mm 0,0 km/h (0 Bft) W-SW 257 ° 0 min 0,000 mm 0,0 UV-I 19 W/m² 10,0 °C 13,2 °C 0,0 km/h (0 Bft)
07.09.2017 19:20 13,2 °C 13,2 °C 81 % 1015,0 hPa 0,0 mm 0,0 km/h (0 Bft) W-SW 257 ° 0 min 0,000 mm 0,0 UV-I 19 W/m² 10,0 °C 13,2 °C 0,0 km/h (0 Bft)
07.09.2017 19:21 13,2 °C 13,2 °C 83 % 1015,0 hPa 0,0 mm 0,0 km/h (0 Bft) W-SW 257 ° 0 min 0,000 mm 0,0 UV-I 18 W/m² 10,4 °C 13,2 °C 0,0 km/h (0 Bft)
07.09.2017 19:22 13,2 °C 13,2 °C 83 % 1015,0 hPa 0,0 mm 0,0 km/h (0 Bft) W-SW 257 ° 0 min 0,000 mm 0,0 UV-I 18 W/m² 10,4 °C 13,2 °C 0,0 km/h (0 Bft)
07.09.2017 19:23 13,2 °C 13,2 °C 83 % 1015,0 hPa 0,0 mm 0,0 km/h (0 Bft) W-SW 257 ° 0 min 0,000 mm 0,0 UV-I 16 W/m² 10,4 °C 13,2 °C 0,0 km/h (0 Bft)
07.09.2017 19:24 13,2 °C 13,2 °C 83 % 1015,0 hPa 0,0 mm 0,0 km/h (0 Bft) W-SW 257 ° 0 min 0,000 mm 0,0 UV-I 16 W/m² 10,4 °C 13,2 °C 0,0 km/h (0 Bft)
07.09.2017 19:25 13,1 °C 13,2 °C 82 % 1015,0 hPa 0,0 mm 0,0 km/h (0 Bft) W-SW 257 ° 0 min 0,000 mm 0,0 UV-I 14 W/m² 10,1 °C 13,1 °C 0,0 km/h (0 Bft)
07.09.2017 19:26 13,1 °C 13,2 °C 83 % 1015,0 hPa 0,0 mm 0,0 km/h (0 Bft) W-SW 257 ° 0 min 0,000 mm 0,0 UV-I 14 W/m² 10,3 °C 13,1 °C 0,0 km/h (0 Bft)
07.09.2017 19:27 13,1 °C 13,1 °C 85 % 1015,0 hPa 0,0 mm 0,0 km/h (0 Bft) W-SW 257 ° 0 min 0,000 mm 0,0 UV-I 12 W/m² 10,6 °C 13,1 °C 0,0 km/h (0 Bft)
07.09.2017 19:28 12,9 °C 13,1 °C 85 % 1015,0 hPa 0,0 mm 0,0 km/h (0 Bft) W-SW 257 ° 0 min 0,000 mm 0,0 UV-I 12 W/m² 10,4 °C 12,9 °C 0,0 km/h (0 Bft)
07.09.2017 19:29 12,9 °C 12,9 °C 84 % 1014,9 hPa 0,0 mm 0,0 km/h (0 Bft) W-SW 257 ° 0 min 0,000 mm 0,0 UV-I 12 W/m² 10,3 °C 12,9 °C 0,0 km/h (0 Bft)
07.09.2017 19:30 12,8 °C 12,9 °C 86 % 1014,9 hPa 0,0 mm 0,0 km/h (0 Bft) W-SW 257 ° 0 min 0,000 mm 0,0 UV-I 11 W/m² 10,5 °C 12,8 °C 0,0 km/h (0 Bft)
07.09.2017 19:31 12,8 °C 12,8 °C 85 % 1014,9 hPa 0,0 mm 0,0 km/h (0 Bft) W-SW 257 ° 0 min 0,000 mm 0,0 UV-I 9 W/m² 10,3 °C 12,8 °C 0,0 km/h (0 Bft)
07.09.2017 19:32 12,7 °C 12,8 °C 85 % 1015,0 hPa 0,0 mm 0,0 km/h (0 Bft) W-SW 257 ° 0 min 0,000 mm 0,0 UV-I 9 W/m² 10,2 °C 12,7 °C 0,0 km/h (0 Bft)
07.09.2017 19:33 12,7 °C 12,8 °C 86 % 1015,0 hPa 0,0 mm 0,0 km/h (0 Bft) W-SW 257 ° 0 min 0,000 mm 0,0 UV-I 9 W/m² 10,4 °C 12,7 °C 0,0 km/h (0 Bft)
07.09.2017 19:34 12,7 °C 12,7 °C 85 % 1014,9 hPa 0,0 mm 0,0 km/h (0 Bft) W-SW 257 ° 0 min 0,000 mm 0,0 UV-I 7 W/m² 10,2 °C 12,7 °C 0,0 km/h (0 Bft)
07.09.2017 19:35 12,7 °C 12,7 °C 85 % 1014,9 hPa 0,0 mm 0,0 km/h (0 Bft) W-SW 257 ° 0 min 0,000 mm 0,0 UV-I 7 W/m² 10,2 °C 12,7 °C 0,0 km/h (0 Bft)
07.09.2017 19:36 12,7 °C 12,7 °C 85 % 1014,9 hPa 0,0 mm 0,0 km/h (0 Bft) W-SW 257 ° 0 min 0,000 mm 0,0 UV-I 7 W/m² 10,2 °C 12,7 °C 0,0 km/h (0 Bft)
07.09.2017 19:37 12,7 °C 12,7 °C 84 % 1014,9 hPa 0,0 mm 0,0 km/h (0 Bft) W-SW 257 ° 0 min 0,000 mm 0,0 UV-I 7 W/m² 10,1 °C 12,7 °C 0,0 km/h (0 Bft)
07.09.2017 19:38 12,7 °C 12,7 °C 83 % 1014,9 hPa 0,0 mm 0,0 km/h (0 Bft) W-SW 257 ° 0 min 0,000 mm 0,0 UV-I 5 W/m² 9,9 °C 12,7 °C 0,0 km/h (0 Bft)
07.09.2017 19:39 12,7 °C 12,7 °C 83 % 1014,9 hPa 0,0 mm 0,0 km/h (0 Bft) W-SW 257 ° 0 min 0,000 mm 0,0 UV-I 5 W/m² 9,9 °C 12,7 °C 0,0 km/h (0 Bft)
07.09.2017 19:40 12,7 °C 12,8 °C 82 % 1014,9 hPa 0,0 mm 0,0 km/h (0 Bft) W-SW 257 ° 0 min 0,000 mm 0,0 UV-I 5 W/m² 9,7 °C 12,7 °C 0,0 km/h (0 Bft)
07.09.2017 19:41 12,8 °C 12,8 °C 83 % 1014,9 hPa 0,0 mm 0,0 km/h (0 Bft) W-SW 257 ° 0 min 0,000 mm 0,0 UV-I 5 W/m² 10,0 °C 12,8 °C 0,0 km/h (0 Bft)
07.09.2017 19:42 12,7 °C 12,8 °C 84 % 1014,9 hPa 0,0 mm 0,0 km/h (0 Bft) W-SW 257 ° 0 min 0,000 mm 0,0 UV-I 5 W/m² 10,1 °C 12,7 °C 0,0 km/h (0 Bft)
07.09.2017 19:43 12,6 °C 12,7 °C 85 % 1015,0 hPa 0,0 mm 0,0 km/h (0 Bft) W-SW 257 ° 0 min 0,000 mm 0,0 UV-I 0 W/m² 10,1 °C 12,6 °C 0,0 km/h (0 Bft)
07.09.2017 19:44 12,6 °C 12,6 °C 85 % 1015,0 hPa 0,0 mm 0,0 km/h (0 Bft) W-SW 257 ° 0 min 0,000 mm 0,0 UV-I 0 W/m² 10,1 °C 12,6 °C 0,0 km/h (0 Bft)
07.09.2017 19:45 12,6 °C 12,6 °C 85 % 1015,1 hPa 0,0 mm 0,0 km/h (0 Bft) W-SW 257 ° 0 min 0,000 mm 0,0 UV-I 0 W/m² 10,1 °C 12,6 °C 0,0 km/h (0 Bft)
07.09.2017 19:46 12,6 °C 12,6 °C 83 % 1015,0 hPa 0,0 mm 0,0 km/h (0 Bft) W-SW 257 ° 0 min 0,000 mm 0,0 UV-I 0 W/m² 9,8 °C 12,6 °C 0,0 km/h (0 Bft)
07.09.2017 19:47 12,6 °C 12,6 °C 84 % 1015,0 hPa 0,0 mm 0,0 km/h (0 Bft) W-SW 257 ° 0 min 0,000 mm 0,0 UV-I 0 W/m² 10,0 °C 12,6 °C 0,0 km/h (0 Bft)
07.09.2017 19:48 12,6 °C 12,6 °C 85 % 1015,0 hPa 0,0 mm 0,0 km/h (0 Bft) W-SW 257 ° 0 min 0,000 mm 0,0 UV-I 0 W/m² 10,1 °C 12,6 °C 0,0 km/h (0 Bft)
07.09.2017 19:49 12,6 °C 12,6 °C 85 % 1015,0 hPa 0,0 mm 0,0 km/h (0 Bft) W-SW 257 ° 0 min 0,000 mm 0,0 UV-I 0 W/m² 10,1 °C 12,6 °C 0,0 km/h (0 Bft)
07.09.2017 19:50 12,6 °C 12,6 °C 85 % 1015,1 hPa 0,0 mm 0,0 km/h (0 Bft) W-SW 257 ° 0 min 0,000 mm 0,0 UV-I 0 W/m² 10,1 °C 12,6 °C 0,0 km/h (0 Bft)
07.09.2017 19:51 12,6 °C 12,6 °C 85 % 1015,0 hPa 0,0 mm 0,0 km/h (0 Bft) W-SW 257 ° 0 min 0,000 mm 0,0 UV-I 0 W/m² 10,1 °C 12,6 °C 0,0 km/h (0 Bft)
07.09.2017 19:52 12,5 °C 12,6 °C 85 % 1015,0 hPa 0,0 mm 0,0 km/h (0 Bft) W-SW 257 ° 0 min 0,000 mm 0,0 UV-I 0 W/m² 10,0 °C 12,5 °C 0,0 km/h (0 Bft)
07.09.2017 19:53 12,5 °C 12,5 °C 85 % 1015,1 hPa 0,0 mm 0,0 km/h (0 Bft) W-SW 257 ° 0 min 0,000 mm 0,0 UV-I 0 W/m² 10,0 °C 12,5 °C 0,0 km/h (0 Bft)
07.09.2017 19:54 12,5 °C 12,5 °C 85 % 1015,1 hPa 0,0 mm 0,0 km/h (0 Bft) W-SW 257 ° 0 min 0,000 mm 0,0 UV-I 0 W/m² 10,0 °C 12,5 °C 0,0 km/h (0 Bft)
07.09.2017 19:55 12,5 °C 12,5 °C 85 % 1015,1 hPa 0,0 mm 0,0 km/h (0 Bft) W-SW 257 ° 0 min 0,000 mm 0,0 UV-I 0 W/m² 10,0 °C 12,5 °C 0,0 km/h (0 Bft)
07.09.2017 19:56 12,6 °C 12,6 °C 85 % 1015,1 hPa 0,0 mm 0,0 km/h (0 Bft) W-SW 257 ° 0 min 0,000 mm 0,0 UV-I 0 W/m² 10,1 °C 12,6 °C 0,0 km/h (0 Bft)
07.09.2017 19:57 12,5 °C 12,6 °C 85 % 1015,1 hPa 0,0 mm 0,0 km/h (0 Bft) W-SW 257 ° 0 min 0,000 mm 0,0 UV-I 0 W/m² 10,0 °C 12,5 °C 0,0 km/h (0 Bft)
07.09.2017 19:58 12,5 °C 12,5 °C 85 % 1015,0 hPa 0,0 mm 0,0 km/h (0 Bft) W-SW 257 ° 0 min 0,000 mm 0,0 UV-I 0 W/m² 10,0 °C 12,5 °C 0,0 km/h (0 Bft)
07.09.2017 19:59 12,5 °C 12,5 °C 85 % 1015,1 hPa 0,0 mm 0,0 km/h (0 Bft) W-SW 257 ° 0 min 0,000 mm 0,0 UV-I 0 W/m² 10,0 °C 12,5 °C 0,0 km/h (0 Bft)
07.09.2017 20:00 12,4 °C 12,5 °C 85 % 1015,0 hPa 0,0 mm 0,0 km/h (0 Bft) W-SW 257 ° 0 min 0,000 mm 0,0 UV-I 0 W/m² 9,9 °C 12,4 °C 0,0 km/h (0 Bft)
07.09.2017 20:01 12,4 °C 12,4 °C 85 % 1015,0 hPa 0,0 mm 0,0 km/h (0 Bft) W-SW 257 ° 0 min 0,000 mm 0,0 UV-I 0 W/m² 9,9 °C 12,4 °C 0,0 km/h (0 Bft)
07.09.2017 20:02 12,4 °C 12,5 °C 85 % 1015,1 hPa 0,0 mm 0,0 km/h (0 Bft) W-SW 257 ° 0 min 0,000 mm 0,0 UV-I 0 W/m² 9,9 °C 12,4 °C 0,0 km/h (0 Bft)
07.09.2017 20:03 12,4 °C 12,4 °C 86 % 1015,0 hPa 0,0 mm 0,0 km/h (0 Bft) W-SW 257 ° 0 min 0,000 mm 0,0 UV-I 0 W/m² 10,1 °C 12,4 °C 0,0 km/h (0 Bft)
07.09.2017 20:04 12,4 °C 12,4 °C 86 % 1015,1 hPa 0,0 mm 0,0 km/h (0 Bft) W-SW 257 ° 0 min 0,000 mm 0,0 UV-I 0 W/m² 10,1 °C 12,4 °C 0,0 km/h (0 Bft)
07.09.2017 20:05 12,4 °C 12,4 °C 86 % 1015,1 hPa 0,0 mm 0,0 km/h (0 Bft) W-SW 257 ° 0 min 0,000 mm 0,0 UV-I 0 W/m² 10,1 °C 12,4 °C 0,0 km/h (0 Bft)
07.09.2017 20:06 12,4 °C 12,4 °C 86 % 1015,2 hPa 0,0 mm 0,0 km/h (0 Bft) W-SW 257 ° 0 min 0,000 mm 0,0 UV-I 0 W/m² 10,1 °C 12,4 °C 0,0 km/h (0 Bft)
07.09.2017 20:07 12,4 °C 12,4 °C 86 % 1015,2 hPa 0,0 mm 0,0 km/h (0 Bft) W-SW 257 ° 0 min 0,000 mm 0,0 UV-I 0 W/m² 10,1 °C 12,4 °C 0,0 km/h (0 Bft)
07.09.2017 20:08 12,3 °C 12,4 °C 86 % 1015,2 hPa 0,0 mm 0,0 km/h (0 Bft) W-SW 257 ° 0 min 0,000 mm 0,0 UV-I 0 W/m² 10,0 °C 12,3 °C 0,0 km/h (0 Bft)
07.09.2017 20:09 12,3 °C 12,3 °C 87 % 1015,2 hPa 0,0 mm 0,0 km/h (0 Bft) W-SW 257 ° 0 min 0,000 mm 0,0 UV-I 0 W/m² 10,2 °C 12,3 °C 0,0 km/h (0 Bft)
07.09.2017 20:10 12,3 °C 12,3 °C 87 % 1015,2 hPa 0,0 mm 0,0 km/h (0 Bft) W-SW 257 ° 0 min 0,000 mm 0,0 UV-I 0 W/m² 10,2 °C 12,3 °C 0,0 km/h (0 Bft)
07.09.2017 20:11 12,2 °C 12,3 °C 87 % 1015,2 hPa 0,0 mm 0,0 km/h (0 Bft) W-SW 257 ° 0 min 0,000 mm 0,0 UV-I 0 W/m² 10,1 °C 12,2 °C 0,0 km/h (0 Bft)
07.09.2017 20:12 12,2 °C 12,2 °C 87 % 1015,3 hPa 0,0 mm 0,0 km/h (0 Bft) W-SW 257 ° 0 min 0,000 mm 0,0 UV-I 0 W/m² 10,1 °C 12,2 °C 0,0 km/h (0 Bft)
07.09.2017 20:14 12,1 °C 12,2 °C 88 % 1015,3 hPa 0,0 mm 0,5 km/h (0 Bft) W-SW 256 ° 0 min 0,000 mm 0,0 UV-I 0 W/m² 10,2 °C 12,1 °C 3,2 km/h (1 Bft)
07.09.2017 20:15 12,1 °C 12,1 °C 87 % 1015,3 hPa 0,0 mm 2,3 km/h (1 Bft) W-SW 256 ° 0 min 0,000 mm 0,0 UV-I 0 W/m² 10,0 °C 12,1 °C 3,2 km/h (1 Bft)
07.09.2017 20:16 12,0 °C 12,1 °C 87 % 1015,3 hPa 0,0 mm 1,5 km/h (1 Bft) W-SW 256 ° 0 min 0,000 mm 0,0 UV-I 0 W/m² 9,9 °C 12,0 °C 3,2 km/h (1 Bft)
07.09.2017 20:17 12,0 °C 12,1 °C 87 % 1015,4 hPa 0,0 mm 0,9 km/h (0 Bft) W-SW 256 ° 0 min 0,000 mm 0,0 UV-I 0 W/m² 9,9 °C 12,0 °C 1,6 km/h (1 Bft)
07.09.2017 20:18 12,0 °C 12,0 °C 87 % 1015,4 hPa 0,0 mm 0,7 km/h (0 Bft) W-SW 256 ° 0 min 0,000 mm 0,0 UV-I 0 W/m² 9,9 °C 12,0 °C 1,6 km/h (1 Bft)
07.09.2017 20:19 11,9 °C 12,0 °C 87 % 1015,4 hPa 0,0 mm 2,6 km/h (1 Bft) W-SW 256 ° 0 min 0,000 mm 0,0 UV-I 0 W/m² 9,8 °C 11,9 °C 3,2 km/h (1 Bft)
07.09.2017 20:20 11,9 °C 12,0 °C 87 % 1015,4 hPa 0,0 mm 3,5 km/h (1 Bft) W-SW 256 ° 0 min 0,000 mm 0,0 UV-I 0 W/m² 9,8 °C 11,9 °C 4,8 km/h (1 Bft)
07.09.2017 20:21 12,0 °C 12,0 °C 86 % 1015,5 hPa 0,0 mm 3,8 km/h (1 Bft) SW 224 ° 0 min 0,000 mm 0,0 UV-I 0 W/m² 9,7 °C 12,0 °C 4,8 km/h (1 Bft)
07.09.2017 20:22 11,9 °C 12,0 °C 86 % 1015,5 hPa 0,0 mm 2,0 km/h (1 Bft) SW 224 ° 0 min 0,000 mm 0,0 UV-I 0 W/m² 9,6 °C 11,9 °C 3,2 km/h (1 Bft)
07.09.2017 20:23 11,9 °C 12,0 °C 86 % 1015,5 hPa 0,0 mm 1,6 km/h (1 Bft) SW 224 ° 0 min 0,000 mm 0,0 UV-I 0 W/m² 9,6 °C 11,9 °C 3,2 km/h (1 Bft)
07.09.2017 20:24 11,9 °C 11,9 °C 86 % 1015,5 hPa 0,0 mm 2,0 km/h (1 Bft) SW 224 ° 0 min 0,000 mm 0,0 UV-I 0 W/m² 9,6 °C 11,9 °C 3,2 km/h (1 Bft)
07.09.2017 20:25 11,9 °C 11,9 °C 87 % 1015,5 hPa 0,0 mm 2,0 km/h (1 Bft) SW 224 ° 0 min 0,000 mm 0,0 UV-I 0 W/m² 9,8 °C 11,9 °C 3,2 km/h (1 Bft)
07.09.2017 20:26 11,8 °C 11,9 °C 87 % 1015,5 hPa 0,0 mm 1,6 km/h (1 Bft) SW 224 ° 0 min 0,000 mm 0,0 UV-I 0 W/m² 9,7 °C 11,8 °C 1,6 km/h (1 Bft)
07.09.2017 20:27 11,8 °C 11,8 °C 87 % 1015,5 hPa 0,0 mm 1,7 km/h (1 Bft) SW 224 ° 0 min 0,000 mm 0,0 UV-I 0 W/m² 9,7 °C 11,8 °C 3,2 km/h (1 Bft)
07.09.2017 20:28 11,8 °C 11,8 °C 87 % 1015,5 hPa 0,0 mm 1,5 km/h (1 Bft) SW 224 ° 0 min 0,000 mm 0,0 UV-I 0 W/m² 9,7 °C 11,8 °C 3,2 km/h (1 Bft)
07.09.2017 20:29 11,8 °C 11,8 °C 87 % 1015,5 hPa 0,0 mm 1,5 km/h (1 Bft) SW 224 ° 0 min 0,000 mm 0,0 UV-I 0 W/m² 9,7 °C 11,8 °C 1,6 km/h (1 Bft)
07.09.2017 20:30 11,7 °C 11,8 °C 87 % 1015,5 hPa 0,0 mm 1,9 km/h (1 Bft) SW 224 ° 0 min 0,000 mm 0,0 UV-I 0 W/m² 9,6 °C 11,7 °C 3,2 km/h (1 Bft)
07.09.2017 20:31 11,7 °C 11,7 °C 87 % 1015,4 hPa 0,0 mm 3,2 km/h (1 Bft) SW 224 ° 0 min 0,000 mm 0,0 UV-I 0 W/m² 9,6 °C 11,7 °C 4,8 km/h (1 Bft)
07.09.2017 20:32 11,7 °C 11,7 °C 87 % 1015,5 hPa 0,0 mm 3,4 km/h (1 Bft) SW 224 ° 0 min 0,000 mm 0,0 UV-I 0 W/m² 9,6 °C 11,7 °C 4,8 km/h (1 Bft)
07.09.2017 20:34 11,7 °C 11,7 °C 87 % 1015,5 hPa 0,0 mm 3,1 km/h (1 Bft) SW 224 ° 0 min 0,000 mm 0,0 UV-I 0 W/m² 9,6 °C 11,7 °C 4,8 km/h (1 Bft)
07.09.2017 20:35 11,7 °C 11,7 °C 87 % 1015,5 hPa 0,0 mm 2,6 km/h (1 Bft) SW 224 ° 0 min 0,000 mm 0,0 UV-I 0 W/m² 9,6 °C 11,7 °C 3,2 km/h (1 Bft)
07.09.2017 20:36 11,7 °C 11,7 °C 86 % 1015,5 hPa 0,0 mm 0,5 km/h (0 Bft) SW 224 ° 0 min 0,000 mm 0,0 UV-I 0 W/m² 9,4 °C 11,7 °C 3,2 km/h (1 Bft)
07.09.2017 20:37 11,7 °C 11,7 °C 86 % 1015,5 hPa 0,0 mm 0,6 km/h (0 Bft) SW 224 ° 0 min 0,000 mm 0,0 UV-I 0 W/m² 9,4 °C 11,7 °C 1,6 km/h (1 Bft)
07.09.2017 20:38 11,6 °C 11,7 °C 87 % 1015,5 hPa 0,0 mm 0,7 km/h (0 Bft) SW 224 ° 0 min 0,000 mm 0,0 UV-I 0 W/m² 9,5 °C 11,6 °C 1,6 km/h (1 Bft)
07.09.2017 20:39 11,6 °C 11,6 °C 87 % 1015,5 hPa 0,0 mm 0,2 km/h (0 Bft) SW 224 ° 0 min 0,000 mm 0,0 UV-I 0 W/m² 9,5 °C 11,6 °C 1,6 km/h (1 Bft)
07.09.2017 20:40 11,6 °C 11,6 °C 87 % 1015,5 hPa 0,0 mm 0,6 km/h (0 Bft) SW 224 ° 0 min 0,000 mm 0,0 UV-I 0 W/m² 9,5 °C 11,6 °C 1,6 km/h (1 Bft)
07.09.2017 20:41 11,5 °C 11,6 °C 87 % 1015,6 hPa 0,0 mm 1,5 km/h (1 Bft) SW 224 ° 0 min 0,000 mm 0,0 UV-I 0 W/m² 9,4 °C 11,5 °C 3,2 km/h (1 Bft)
07.09.2017 20:42 11,5 °C 11,5 °C 87 % 1015,5 hPa 0,0 mm 0,4 km/h (0 Bft) SW 224 ° 0 min 0,000 mm 0,0 UV-I 0 W/m² 9,4 °C 11,5 °C 1,6 km/h (1 Bft)
07.09.2017 20:43 11,4 °C 11,5 °C 88 % 1015,5 hPa 0,0 mm 0,0 km/h (0 Bft) SW 224 ° 0 min 0,000 mm 0,0 UV-I 0 W/m² 9,5 °C 11,4 °C 0,0 km/h (0 Bft)
07.09.2017 20:44 11,4 °C 11,4 °C 88 % 1015,5 hPa 0,0 mm 0,0 km/h (0 Bft) SW 224 ° 0 min 0,000 mm 0,0 UV-I 0 W/m² 9,5 °C 11,4 °C 0,0 km/h (0 Bft)
07.09.2017 20:45 11,3 °C 11,4 °C 88 % 1015,5 hPa 0,0 mm 0,0 km/h (0 Bft) SW 224 ° 0 min 0,000 mm 0,0 UV-I 0 W/m² 9,4 °C 11,3 °C 0,0 km/h (0 Bft)
07.09.2017 20:46 11,3 °C 11,3 °C 88 % 1015,6 hPa 0,0 mm 0,0 km/h (0 Bft) SW 224 ° 0 min 0,000 mm 0,0 UV-I 0 W/m² 9,4 °C 11,3 °C 0,0 km/h (0 Bft)
07.09.2017 20:47 11,3 °C 11,3 °C 88 % 1015,5 hPa 0,0 mm 0,1 km/h (0 Bft) SW 224 ° 0 min 0,000 mm 0,0 UV-I 0 W/m² 9,4 °C 11,3 °C 1,6 km/h (1 Bft)
07.09.2017 20:48 11,2 °C 11,3 °C 88 % 1015,6 hPa 0,0 mm 0,0 km/h (0 Bft) SW 224 ° 0 min 0,000 mm 0,0 UV-I 0 W/m² 9,3 °C 11,2 °C 0,0 km/h (0 Bft)
07.09.2017 20:49 11,1 °C 11,2 °C 88 % 1015,6 hPa 0,0 mm 0,2 km/h (0 Bft) SW 224 ° 0 min 0,000 mm 0,0 UV-I 0 W/m² 9,2 °C 11,1 °C 1,6 km/h (1 Bft)
07.09.2017 20:50 11,1 °C 11,2 °C 88 % 1015,6 hPa 0,0 mm 0,0 km/h (0 Bft) SW 224 ° 0 min 0,000 mm 0,0 UV-I 0 W/m² 9,2 °C 11,1 °C 0,0 km/h (0 Bft)
07.09.2017 20:51 11,1 °C 11,1 °C 88 % 1015,6 hPa 0,0 mm 0,2 km/h (0 Bft) SW 224 ° 0 min 0,000 mm 0,0 UV-I 0 W/m² 9,2 °C 11,1 °C 1,6 km/h (1 Bft)
07.09.2017 20:52 11,0 °C 11,1 °C 89 % 1015,6 hPa 0,0 mm 0,3 km/h (0 Bft) SW 224 ° 0 min 0,000 mm 0,0 UV-I 0 W/m² 9,3 °C 11,0 °C 1,6 km/h (1 Bft)
07.09.2017 20:53 10,9 °C 11,0 °C 89 % 1015,5 hPa 0,0 mm 0,2 km/h (0 Bft) SW 224 ° 0 min 0,000 mm 0,0 UV-I 0 W/m² 9,2 °C 10,9 °C 1,6 km/h (1 Bft)
07.09.2017 20:54 10,9 °C 10,9 °C 88 % 1015,6 hPa 0,0 mm 0,5 km/h (0 Bft) SW 224 ° 0 min 0,000 mm 0,0 UV-I 0 W/m² 9,0 °C 10,9 °C 1,6 km/h (1 Bft)
07.09.2017 20:55 10,8 °C 10,9 °C 88 % 1015,6 hPa 0,0 mm 0,3 km/h (0 Bft) SW 224 ° 0 min 0,000 mm 0,0 UV-I 0 W/m² 8,9 °C 10,8 °C 1,6 km/h (1 Bft)
07.09.2017 20:56 10,8 °C 10,9 °C 89 % 1015,5 hPa 0,0 mm 0,6 km/h (0 Bft) SW 224 ° 0 min 0,000 mm 0,0 UV-I 0 W/m² 9,1 °C 10,8 °C 1,6 km/h (1 Bft)
07.09.2017 20:57 10,8 °C 10,8 °C 89 % 1015,5 hPa 0,0 mm 1,9 km/h (1 Bft) SW 224 ° 0 min 0,000 mm 0,0 UV-I 0 W/m² 9,1 °C 10,8 °C 3,2 km/h (1 Bft)
07.09.2017 20:58 10,7 °C 10,8 °C 89 % 1015,5 hPa 0,0 mm 2,8 km/h (1 Bft) SW 215 ° 0 min 0,000 mm 0,0 UV-I 0 W/m² 9,0 °C 10,7 °C 3,2 km/h (1 Bft)
07.09.2017 20:59 10,7 °C 10,7 °C 89 % 1015,5 hPa 0,0 mm 3,0 km/h (1 Bft) S-SW 194 ° 0 min 0,000 mm 0,0 UV-I 0 W/m² 9,0 °C 10,7 °C 3,2 km/h (1 Bft)
07.09.2017 21:00 10,7 °C 10,7 °C 89 % 1015,6 hPa 0,0 mm 2,9 km/h (1 Bft) S-SW 192 ° 0 min 0,000 mm 0,0 UV-I 0 W/m² 9,0 °C 10,7 °C 3,2 km/h (1 Bft)
07.09.2017 21:01 10,7 °C 10,7 °C 89 % 1015,6 hPa 0,0 mm 2,4 km/h (1 Bft) S-SW 192 ° 0 min 0,000 mm 0,0 UV-I 0 W/m² 9,0 °C 10,7 °C 4,8 km/h (1 Bft)
07.09.2017 21:02 10,6 °C 10,7 °C 89 % 1015,6 hPa 0,0 mm 2,3 km/h (1 Bft) S-SW 192 ° 0 min 0,000 mm 0,0 UV-I 0 W/m² 8,9 °C 10,6 °C 3,2 km/h (1 Bft)
07.09.2017 21:03 10,6 °C 10,6 °C 89 % 1015,6 hPa 0,0 mm 1,4 km/h (1 Bft) S-SW 192 ° 0 min 0,000 mm 0,0 UV-I 0 W/m² 8,9 °C 10,6 °C 3,2 km/h (1 Bft)
07.09.2017 21:04 10,5 °C 10,6 °C 89 % 1015,7 hPa 0,0 mm 1,9 km/h (1 Bft) S-SW 192 ° 0 min 0,000 mm 0,0 UV-I 0 W/m² 8,8 °C 10,5 °C 3,2 km/h (1 Bft)
07.09.2017 21:05 10,4 °C 10,5 °C 89 % 1015,7 hPa 0,0 mm 1,3 km/h (1 Bft) S-SW 192 ° 0 min 0,000 mm 0,0 UV-I 0 W/m² 8,7 °C 10,4 °C 1,6 km/h (1 Bft)
07.09.2017 21:06 10,4 °C 10,4 °C 89 % 1015,7 hPa 0,0 mm 0,1 km/h (0 Bft) S-SW 192 ° 0 min 0,000 mm 0,0 UV-I 0 W/m² 8,7 °C 10,4 °C 1,6 km/h (1 Bft)
07.09.2017 21:07 10,4 °C 10,4 °C 89 % 1015,7 hPa 0,0 mm 0,0 km/h (0 Bft) S-SW 192 ° 0 min 0,000 mm 0,0 UV-I 0 W/m² 8,7 °C 10,4 °C 0,0 km/h (0 Bft)
07.09.2017 21:08 10,4 °C 10,4 °C 89 % 1015,8 hPa 0,0 mm 1,9 km/h (1 Bft) S-SW 192 ° 0 min 0,000 mm 0,0 UV-I 0 W/m² 8,7 °C 10,4 °C 3,2 km/h (1 Bft)
07.09.2017 21:09 10,3 °C 10,4 °C 89 % 1015,8 hPa 0,0 mm 2,4 km/h (1 Bft) S-SW 192 ° 0 min 0,000 mm 0,0 UV-I 0 W/m² 8,6 °C 10,3 °C 3,2 km/h (1 Bft)
07.09.2017 21:10 10,3 °C 10,3 °C 89 % 1015,8 hPa 0,0 mm 0,8 km/h (0 Bft) S-SW 192 ° 0 min 0,000 mm 0,0 UV-I 0 W/m² 8,6 °C 10,3 °C 3,2 km/h (1 Bft)
07.09.2017 21:11 10,3 °C 10,3 °C 89 % 1015,8 hPa 0,0 mm 0,0 km/h (0 Bft) S-SW 192 ° 0 min 0,000 mm 0,0 UV-I 0 W/m² 8,6 °C 10,3 °C 0,0 km/h (0 Bft)
07.09.2017 21:12 10,2 °C 10,3 °C 90 % 1015,8 hPa 0,0 mm 0,0 km/h (0 Bft) S-SW 192 ° 0 min 0,000 mm 0,0 UV-I 0 W/m² 8,6 °C 10,2 °C 0,0 km/h (0 Bft)
07.09.2017 21:13 10,3 °C 10,3 °C 90 % 1015,8 hPa 0,0 mm 0,1 km/h (0 Bft) S-SW 192 ° 0 min 0,000 mm 0,0 UV-I 0 W/m² 8,7 °C 10,3 °C 1,6 km/h (1 Bft)
07.09.2017 21:14 10,3 °C 10,3 °C 90 % 1015,8 hPa 0,0 mm 0,0 km/h (0 Bft) S-SW 192 ° 0 min 0,000 mm 0,0 UV-I 0 W/m² 8,7 °C 10,3 °C 0,0 km/h (0 Bft)
07.09.2017 21:15 10,2 °C 10,3 °C 90 % 1015,8 hPa 0,0 mm 0,0 km/h (0 Bft) S-SW 192 ° 0 min 0,000 mm 0,0 UV-I 0 W/m² 8,6 °C 10,2 °C 0,0 km/h (0 Bft)
07.09.2017 21:16 10,2 °C 10,2 °C 90 % 1015,8 hPa 0,0 mm 0,0 km/h (0 Bft) S-SW 192 ° 0 min 0,000 mm 0,0 UV-I 0 W/m² 8,6 °C 10,2 °C 0,0 km/h (0 Bft)
07.09.2017 21:17 10,2 °C 10,2 °C 90 % 1015,8 hPa 0,0 mm 0,0 km/h (0 Bft) S-SW 192 ° 0 min 0,000 mm 0,0 UV-I 0 W/m² 8,6 °C 10,2 °C 0,0 km/h (0 Bft)
07.09.2017 21:18 10,2 °C 10,2 °C 90 % 1015,8 hPa 0,0 mm 0,0 km/h (0 Bft) S-SW 192 ° 0 min 0,000 mm 0,0 UV-I 0 W/m² 8,6 °C 10,2 °C 0,0 km/h (0 Bft)
07.09.2017 21:19 10,3 °C 10,3 °C 90 % 1015,8 hPa 0,0 mm 0,0 km/h (0 Bft) S-SW 192 ° 0 min 0,000 mm 0,0 UV-I 0 W/m² 8,7 °C 10,3 °C 0,0 km/h (0 Bft)
07.09.2017 21:20 10,3 °C 10,3 °C 90 % 1015,8 hPa 0,0 mm 0,0 km/h (0 Bft) S-SW 192 ° 0 min 0,000 mm 0,0 UV-I 0 W/m² 8,7 °C 10,3 °C 0,0 km/h (0 Bft)
07.09.2017 21:21 10,3 °C 10,3 °C 90 % 1015,7 hPa 0,0 mm 0,0 km/h (0 Bft) S-SW 192 ° 0 min 0,000 mm 0,0 UV-I 0 W/m² 8,7 °C 10,3 °C 0,0 km/h (0 Bft)
07.09.2017 21:22 10,3 °C 10,3 °C 90 % 1015,8 hPa 0,0 mm 0,0 km/h (0 Bft) S-SW 192 ° 0 min 0,000 mm 0,0 UV-I 0 W/m² 8,7 °C 10,3 °C 0,0 km/h (0 Bft)
07.09.2017 21:23 10,3 °C 10,3 °C 90 % 1015,8 hPa 0,0 mm 0,0 km/h (0 Bft) S-SW 192 ° 0 min 0,000 mm 0,0 UV-I 0 W/m² 8,7 °C 10,3 °C 0,0 km/h (0 Bft)
07.09.2017 21:24 10,3 °C 10,3 °C 90 % 1015,8 hPa 0,0 mm 0,5 km/h (0 Bft) S-SW 192 ° 0 min 0,000 mm 0,0 UV-I 0 W/m² 8,7 °C 10,3 °C 1,6 km/h (1 Bft)
07.09.2017 21:25 10,3 °C 10,3 °C 90 % 1015,8 hPa 0,0 mm 0,0 km/h (0 Bft) S-SW 192 ° 0 min 0,000 mm 0,0 UV-I 0 W/m² 8,7 °C 10,3 °C 0,0 km/h (0 Bft)
07.09.2017 21:26 10,3 °C 10,3 °C 90 % 1015,9 hPa 0,0 mm 0,5 km/h (0 Bft) S-SW 192 ° 0 min 0,000 mm 0,0 UV-I 0 W/m² 8,7 °C 10,3 °C 1,6 km/h (1 Bft)
07.09.2017 21:27 10,3 °C 10,3 °C 90 % 1015,9 hPa 0,0 mm 1,2 km/h (1 Bft) S-SW 192 ° 0 min 0,000 mm 0,0 UV-I 0 W/m² 8,7 °C 10,3 °C 3,2 km/h (1 Bft)
07.09.2017 21:28 10,4 °C 10,4 °C 90 % 1015,9 hPa 0,0 mm 1,7 km/h (1 Bft) S-SW 192 ° 0 min 0,000 mm 0,0 UV-I 0 W/m² 8,8 °C 10,4 °C 3,2 km/h (1 Bft)
07.09.2017 21:29 10,4 °C 10,4 °C 90 % 1015,8 hPa 0,0 mm 1,7 km/h (1 Bft) S-SW 192 ° 0 min 0,000 mm 0,0 UV-I 0 W/m² 8,8 °C 10,4 °C 3,2 km/h (1 Bft)
07.09.2017 21:30 10,4 °C 10,4 °C 90 % 1015,9 hPa 0,0 mm 1,1 km/h (1 Bft) S-SW 192 ° 0 min 0,000 mm 0,0 UV-I 0 W/m² 8,8 °C 10,4 °C 1,6 km/h (1 Bft)
07.09.2017 21:31 10,4 °C 10,4 °C 90 % 1015,9 hPa 0,0 mm 0,1 km/h (0 Bft) S-SW 192 ° 0 min 0,000 mm 0,0 UV-I 0 W/m² 8,8 °C 10,4 °C 1,6 km/h (1 Bft)
07.09.2017 21:32 10,4 °C 10,4 °C 90 % 1015,9 hPa 0,0 mm 0,0 km/h (0 Bft) S-SW 192 ° 0 min 0,000 mm 0,0 UV-I 0 W/m² 8,8 °C 10,4 °C 0,0 km/h (0 Bft)
07.09.2017 21:33 10,4 °C 10,4 °C 90 % 1015,9 hPa 0,0 mm 0,0 km/h (0 Bft) S-SW 192 ° 0 min 0,000 mm 0,0 UV-I 0 W/m² 8,8 °C 10,4 °C 0,0 km/h (0 Bft)
07.09.2017 21:34 10,4 °C 10,4 °C 89 % 1015,9 hPa 0,0 mm 0,0 km/h (0 Bft) S-SW 192 ° 0 min 0,000 mm 0,0 UV-I 0 W/m² 8,7 °C 10,4 °C 0,0 km/h (0 Bft)
07.09.2017 21:35 10,3 °C 10,4 °C 90 % 1015,9 hPa 0,0 mm 0,0 km/h (0 Bft) S-SW 192 ° 0 min 0,000 mm 0,0 UV-I 0 W/m² 8,7 °C 10,3 °C 0,0 km/h (0 Bft)
07.09.2017 21:36 10,3 °C 10,3 °C 89 % 1015,9 hPa 0,0 mm 0,0 km/h (0 Bft) S-SW 192 ° 0 min 0,000 mm 0,0 UV-I 0 W/m² 8,6 °C 10,3 °C 0,0 km/h (0 Bft)
07.09.2017 21:37 10,2 °C 10,3 °C 88 % 1015,9 hPa 0,0 mm 0,0 km/h (0 Bft) S-SW 192 ° 0 min 0,000 mm 0,0 UV-I 0 W/m² 8,3 °C 10,2 °C 0,0 km/h (0 Bft)
07.09.2017 21:38 10,1 °C 10,2 °C 89 % 1015,9 hPa 0,0 mm 1,0 km/h (0 Bft) S-SW 192 ° 0 min 0,000 mm 0,0 UV-I 0 W/m² 8,4 °C 10,1 °C 1,6 km/h (1 Bft)
07.09.2017 21:39 10,1 °C 10,1 °C 90 % 1015,9 hPa 0,0 mm 1,7 km/h (1 Bft) S-SW 192 ° 0 min 0,000 mm 0,0 UV-I 0 W/m² 8,5 °C 10,1 °C 3,2 km/h (1 Bft)
07.09.2017 21:40 10,1 °C 10,1 °C 90 % 1016,0 hPa 0,0 mm 0,7 km/h (0 Bft) S-SW 192 ° 0 min 0,000 mm 0,0 UV-I 0 W/m² 8,5 °C 10,1 °C 1,6 km/h (1 Bft)
07.09.2017 21:41 10,1 °C 10,1 °C 89 % 1015,9 hPa 0,0 mm 0,8 km/h (0 Bft) S-SW 192 ° 0 min 0,000 mm 0,0 UV-I 0 W/m² 8,4 °C 10,1 °C 3,2 km/h (1 Bft)
07.09.2017 21:42 10,1 °C 10,1 °C 90 % 1015,9 hPa 0,0 mm 0,5 km/h (0 Bft) S-SW 192 ° 0 min 0,000 mm 0,0 UV-I 0 W/m² 8,5 °C 10,1 °C 1,6 km/h (1 Bft)
07.09.2017 21:43 10,1 °C 10,1 °C 89 % 1015,9 hPa 0,0 mm 0,0 km/h (0 Bft) S-SW 192 ° 0 min 0,000 mm 0,0 UV-I 0 W/m² 8,4 °C 10,1 °C 0,0 km/h (0 Bft)
07.09.2017 21:44 9,9 °C 10,1 °C 89 % 1015,9 hPa 0,0 mm 0,1 km/h (0 Bft) S-SW 192 ° 0 min 0,000 mm 0,0 UV-I 0 W/m² 8,2 °C 9,9 °C 1,6 km/h (1 Bft)
07.09.2017 21:45 9,7 °C 9,9 °C 88 % 1016,0 hPa 0,0 mm 0,4 km/h (0 Bft) S-SW 192 ° 0 min 0,000 mm 0,0 UV-I 0 W/m² 7,8 °C 9,7 °C 1,6 km/h (1 Bft)
07.09.2017 21:46 9,6 °C 9,7 °C 88 % 1016,0 hPa 0,0 mm 1,5 km/h (1 Bft) S-SW 192 ° 0 min 0,000 mm 0,0 UV-I 0 W/m² 7,7 °C 9,6 °C 3,2 km/h (1 Bft)
07.09.2017 21:47 9,4 °C 9,6 °C 88 % 1016,1 hPa 0,0 mm 0,7 km/h (0 Bft) S-SW 192 ° 0 min 0,000 mm 0,0 UV-I 0 W/m² 7,5 °C 9,4 °C 1,6 km/h (1 Bft)
07.09.2017 21:48 9,4 °C 9,4 °C 90 % 1015,9 hPa 0,0 mm 0,0 km/h (0 Bft) S-SW 192 ° 0 min 0,000 mm 0,0 UV-I 0 W/m² 7,8 °C 9,4 °C 0,0 km/h (0 Bft)
07.09.2017 21:49 9,4 °C 9,5 °C 90 % 1016,1 hPa 0,0 mm 1,2 km/h (1 Bft) S-SW 192 ° 0 min 0,000 mm 0,0 UV-I 0 W/m² 7,8 °C 9,4 °C 3,2 km/h (1 Bft)
07.09.2017 21:50 9,4 °C 9,4 °C 90 % 1016,0 hPa 0,0 mm 0,3 km/h (0 Bft) S-SW 192 ° 0 min 0,000 mm 0,0 UV-I 0 W/m² 7,8 °C 9,4 °C 1,6 km/h (1 Bft)
07.09.2017 21:51 9,5 °C 9,5 °C 90 % 1016,0 hPa 0,0 mm 0,1 km/h (0 Bft) S-SW 192 ° 0 min 0,000 mm 0,0 UV-I 0 W/m² 7,9 °C 9,5 °C 1,6 km/h (1 Bft)
07.09.2017 21:52 9,4 °C 9,5 °C 90 % 1015,9 hPa 0,0 mm 2,2 km/h (1 Bft) S-SW 192 ° 0 min 0,000 mm 0,0 UV-I 0 W/m² 7,8 °C 9,4 °C 3,2 km/h (1 Bft)
07.09.2017 21:53 9,3 °C 9,4 °C 90 % 1015,9 hPa 0,0 mm 2,4 km/h (1 Bft) S-SW 192 ° 0 min 0,000 mm 0,0 UV-I 0 W/m² 7,7 °C 9,3 °C 3,2 km/h (1 Bft)
07.09.2017 21:54 9,3 °C 9,3 °C 90 % 1016,0 hPa 0,0 mm 2,8 km/h (1 Bft) S-SW 192 ° 0 min 0,000 mm 0,0 UV-I 0 W/m² 7,7 °C 9,3 °C 4,8 km/h (1 Bft)
07.09.2017 21:55 9,1 °C 9,3 °C 90 % 1016,0 hPa 0,0 mm 2,8 km/h (1 Bft) S-SW 192 ° 0 min 0,000 mm 0,0 UV-I 0 W/m² 7,5 °C 9,1 °C 3,2 km/h (1 Bft)
07.09.2017 21:56 9,1 °C 9,1 °C 90 % 1016,0 hPa 0,0 mm 3,2 km/h (1 Bft) S-SW 192 ° 0 min 0,000 mm 0,0 UV-I 0 W/m² 7,5 °C 9,1 °C 3,2 km/h (1 Bft)
07.09.2017 21:57 9,0 °C 9,1 °C 90 % 1016,1 hPa 0,0 mm 3,5 km/h (1 Bft) S-SW 192 ° 0 min 0,000 mm 0,0 UV-I 0 W/m² 7,4 °C 9,0 °C 4,8 km/h (1 Bft)
07.09.2017 21:58 8,9 °C 9,0 °C 91 % 1016,0 hPa 0,0 mm 3,8 km/h (1 Bft) S-SW 192 ° 0 min 0,000 mm 0,0 UV-I 0 W/m² 7,5 °C 8,9 °C 4,8 km/h (1 Bft)
07.09.2017 21:59 9,0 °C 9,0 °C 91 % 1016,0 hPa 0,0 mm 2,6 km/h (1 Bft) S-SW 192 ° 0 min 0,000 mm 0,0 UV-I 0 W/m² 7,6 °C 9,0 °C 4,8 km/h (1 Bft)
07.09.2017 22:00 9,1 °C 9,1 °C 92 % 1016,0 hPa 0,0 mm 2,2 km/h (1 Bft) S-SW 192 ° 0 min 0,000 mm 0,0 UV-I 0 W/m² 7,9 °C 9,1 °C 3,2 km/h (1 Bft)
07.09.2017 22:01 9,2 °C 9,2 °C 92 % 1016,1 hPa 0,0 mm 2,3 km/h (1 Bft) S-SW 192 ° 0 min 0,000 mm 0,0 UV-I 0 W/m² 8,0 °C 9,2 °C 3,2 km/h (1 Bft)
07.09.2017 22:02 9,3 °C 9,3 °C 92 % 1016,1 hPa 0,0 mm 1,7 km/h (1 Bft) S-SW 192 ° 0 min 0,000 mm 0,0 UV-I 0 W/m² 8,1 °C 9,3 °C 3,2 km/h (1 Bft)
07.09.2017 22:03 9,3 °C 9,3 °C 92 % 1016,1 hPa 0,0 mm 1,9 km/h (1 Bft) S-SW 192 ° 0 min 0,000 mm 0,0 UV-I 0 W/m² 8,1 °C 9,3 °C 3,2 km/h (1 Bft)
07.09.2017 22:04 9,4 °C 9,4 °C 92 % 1016,1 hPa 0,0 mm 1,4 km/h (1 Bft) S-SW 192 ° 0 min 0,000 mm 0,0 UV-I 0 W/m² 8,2 °C 9,4 °C 1,6 km/h (1 Bft)
07.09.2017 22:05 9,4 °C 9,4 °C 91 % 1016,1 hPa 0,0 mm 2,3 km/h (1 Bft) S-SW 192 ° 0 min 0,000 mm 0,0 UV-I 0 W/m² 8,0 °C 9,4 °C 3,2 km/h (1 Bft)
07.09.2017 22:06 9,4 °C 9,4 °C 91 % 1016,1 hPa 0,0 mm 1,6 km/h (1 Bft) S-SW 192 ° 0 min 0,000 mm 0,0 UV-I 0 W/m² 8,0 °C 9,4 °C 3,2 km/h (1 Bft)
07.09.2017 22:07 9,4 °C 9,4 °C 91 % 1016,1 hPa 0,0 mm 1,9 km/h (1 Bft) S-SW 192 ° 0 min 0,000 mm 0,0 UV-I 0 W/m² 8,0 °C 9,4 °C 3,2 km/h (1 Bft)
07.09.2017 22:08 9,5 °C 9,5 °C 91 % 1016,0 hPa 0,0 mm 2,3 km/h (1 Bft) S-SW 192 ° 0 min 0,000 mm 0,0 UV-I 0 W/m² 8,1 °C 9,5 °C 3,2 km/h (1 Bft)
07.09.2017 22:09 9,5 °C 9,6 °C 91 % 1016,0 hPa 0,0 mm 2,1 km/h (1 Bft) S-SW 192 ° 0 min 0,000 mm 0,0 UV-I 0 W/m² 8,1 °C 9,5 °C 3,2 km/h (1 Bft)
07.09.2017 22:10 9,5 °C 9,6 °C 91 % 1016,0 hPa 0,0 mm 1,0 km/h (0 Bft) S-SW 192 ° 0 min 0,000 mm 0,0 UV-I 0 W/m² 8,1 °C 9,5 °C 1,6 km/h (1 Bft)
07.09.2017 22:11 9,5 °C 9,6 °C 91 % 1016,0 hPa 0,0 mm 1,1 km/h (1 Bft) S-SW 192 ° 0 min 0,000 mm 0,0 UV-I 0 W/m² 8,1 °C 9,5 °C 1,6 km/h (1 Bft)
07.09.2017 22:12 9,5 °C 9,6 °C 91 % 1016,0 hPa 0,0 mm 0,5 km/h (0 Bft) S-SW 192 ° 0 min 0,000 mm 0,0 UV-I 0 W/m² 8,1 °C 9,5 °C 1,6 km/h (1 Bft)
07.09.2017 22:13 9,5 °C 9,6 °C 91 % 1016,0 hPa 0,0 mm 0,5 km/h (0 Bft) S-SW 192 ° 0 min 0,000 mm 0,0 UV-I 0 W/m² 8,1 °C 9,5 °C 1,6 km/h (1 Bft)
07.09.2017 22:14 9,5 °C 9,5 °C 91 % 1016,0 hPa 0,0 mm 0,0 km/h (0 Bft) S-SW 192 ° 0 min 0,000 mm 0,0 UV-I 0 W/m² 8,1 °C 9,5 °C 0,0 km/h (0 Bft)
07.09.2017 22:15 9,4 °C 9,5 °C 91 % 1016,0 hPa 0,0 mm 0,0 km/h (0 Bft) S-SW 192 ° 0 min 0,000 mm 0,0 UV-I 0 W/m² 8,0 °C 9,4 °C 0,0 km/h (0 Bft)
07.09.2017 22:16 9,4 °C 9,4 °C 91 % 1016,0 hPa 0,0 mm 0,0 km/h (0 Bft) S-SW 192 ° 0 min 0,000 mm 0,0 UV-I 0 W/m² 8,0 °C 9,4 °C 0,0 km/h (0 Bft)
07.09.2017 22:17 9,4 °C 9,4 °C 91 % 1016,0 hPa 0,0 mm 0,0 km/h (0 Bft) S-SW 192 ° 0 min 0,000 mm 0,0 UV-I 0 W/m² 8,0 °C 9,4 °C 0,0 km/h (0 Bft)
07.09.2017 22:18 9,4 °C 9,4 °C 91 % 1016,0 hPa 0,0 mm 0,0 km/h (0 Bft) S-SW 192 ° 0 min 0,000 mm 0,0 UV-I 0 W/m² 8,0 °C 9,4 °C 0,0 km/h (0 Bft)
07.09.2017 22:19 9,4 °C 9,4 °C 91 % 1016,0 hPa 0,0 mm 0,0 km/h (0 Bft) S-SW 192 ° 0 min 0,000 mm 0,0 UV-I 0 W/m² 8,0 °C 9,4 °C 0,0 km/h (0 Bft)
07.09.2017 22:20 9,3 °C 9,4 °C 91 % 1015,9 hPa 0,0 mm 0,0 km/h (0 Bft) S-SW 192 ° 0 min 0,000 mm 0,0 UV-I 0 W/m² 7,9 °C 9,3 °C 0,0 km/h (0 Bft)
07.09.2017 22:21 9,3 °C 9,4 °C 90 % 1015,9 hPa 0,0 mm 0,0 km/h (0 Bft) S-SW 192 ° 0 min 0,000 mm 0,0 UV-I 0 W/m² 7,7 °C 9,3 °C 0,0 km/h (0 Bft)
07.09.2017 22:22 9,2 °C 9,3 °C 91 % 1015,9 hPa 0,0 mm 0,0 km/h (0 Bft) S-SW 192 ° 0 min 0,000 mm 0,0 UV-I 0 W/m² 7,8 °C 9,2 °C 0,0 km/h (0 Bft)
07.09.2017 22:23 9,2 °C 9,2 °C 91 % 1015,9 hPa 0,0 mm 0,0 km/h (0 Bft) S-SW 192 ° 0 min 0,000 mm 0,0 UV-I 0 W/m² 7,8 °C 9,2 °C 0,0 km/h (0 Bft)
07.09.2017 22:24 9,3 °C 9,3 °C 91 % 1015,9 hPa 0,0 mm 0,0 km/h (0 Bft) S-SW 192 ° 0 min 0,000 mm 0,0 UV-I 0 W/m² 7,9 °C 9,3 °C 0,0 km/h (0 Bft)
07.09.2017 22:25 9,3 °C 9,3 °C 92 % 1015,9 hPa 0,0 mm 0,0 km/h (0 Bft) S-SW 192 ° 0 min 0,000 mm 0,0 UV-I 0 W/m² 8,1 °C 9,3 °C 0,0 km/h (0 Bft)
07.09.2017 22:26 9,3 °C 9,3 °C 91 % 1015,9 hPa 0,0 mm 0,0 km/h (0 Bft) S-SW 192 ° 0 min 0,000 mm 0,0 UV-I 0 W/m² 7,9 °C 9,3 °C 0,0 km/h (0 Bft)
07.09.2017 22:27 9,2 °C 9,3 °C 91 % 1015,9 hPa 0,0 mm 0,0 km/h (0 Bft) S-SW 192 ° 0 min 0,000 mm 0,0 UV-I 0 W/m² 7,8 °C 9,2 °C 0,0 km/h (0 Bft)
07.09.2017 22:28 9,2 °C 9,2 °C 91 % 1015,9 hPa 0,0 mm 0,0 km/h (0 Bft) S-SW 192 ° 0 min 0,000 mm 0,0 UV-I 0 W/m² 7,8 °C 9,2 °C 0,0 km/h (0 Bft)
07.09.2017 22:29 9,2 °C 9,2 °C 92 % 1015,9 hPa 0,0 mm 0,0 km/h (0 Bft) S-SW 192 ° 0 min 0,000 mm 0,0 UV-I 0 W/m² 8,0 °C 9,2 °C 0,0 km/h (0 Bft)
07.09.2017 22:30 9,1 °C 9,2 °C 92 % 1015,9 hPa 0,0 mm 0,0 km/h (0 Bft) S-SW 192 ° 0 min 0,000 mm 0,0 UV-I 0 W/m² 7,9 °C 9,1 °C 0,0 km/h (0 Bft)
07.09.2017 22:31 9,1 °C 9,1 °C 92 % 1015,9 hPa 0,0 mm 0,0 km/h (0 Bft) S-SW 192 ° 0 min 0,000 mm 0,0 UV-I 0 W/m² 7,9 °C 9,1 °C 0,0 km/h (0 Bft)
07.09.2017 22:32 9,1 °C 9,1 °C 92 % 1015,9 hPa 0,0 mm 0,0 km/h (0 Bft) S-SW 192 ° 0 min 0,000 mm 0,0 UV-I 0 W/m² 7,9 °C 9,1 °C 0,0 km/h (0 Bft)
07.09.2017 22:33 9,2 °C 9,2 °C 92 % 1016,0 hPa 0,0 mm 0,0 km/h (0 Bft) S-SW 192 ° 0 min 0,000 mm 0,0 UV-I 0 W/m² 8,0 °C 9,2 °C 0,0 km/h (0 Bft)
07.09.2017 22:34 9,2 °C 9,2 °C 92 % 1015,9 hPa 0,0 mm 0,0 km/h (0 Bft) S-SW 192 ° 0 min 0,000 mm 0,0 UV-I 0 W/m² 8,0 °C 9,2 °C 0,0 km/h (0 Bft)
07.09.2017 22:35 9,2 °C 9,2 °C 92 % 1015,9 hPa 0,0 mm 0,0 km/h (0 Bft) S-SW 192 ° 0 min 0,000 mm 0,0 UV-I 0 W/m² 8,0 °C 9,2 °C 0,0 km/h (0 Bft)
07.09.2017 22:36 9,2 °C 9,2 °C 92 % 1015,9 hPa 0,0 mm 0,0 km/h (0 Bft) S-SW 192 ° 0 min 0,000 mm 0,0 UV-I 0 W/m² 8,0 °C 9,2 °C 0,0 km/h (0 Bft)
07.09.2017 22:37 9,2 °C 9,2 °C 92 % 1016,0 hPa 0,0 mm 0,0 km/h (0 Bft) S-SW 192 ° 0 min 0,000 mm 0,0 UV-I 0 W/m² 8,0 °C 9,2 °C 0,0 km/h (0 Bft)
07.09.2017 22:38 9,2 °C 9,2 °C 92 % 1015,9 hPa 0,0 mm 0,0 km/h (0 Bft) S-SW 192 ° 0 min 0,000 mm 0,0 UV-I 0 W/m² 8,0 °C 9,2 °C 0,0 km/h (0 Bft)
07.09.2017 22:39 9,2 °C 9,2 °C 92 % 1015,9 hPa 0,0 mm 0,0 km/h (0 Bft) S-SW 192 ° 0 min 0,000 mm 0,0 UV-I 0 W/m² 8,0 °C 9,2 °C 0,0 km/h (0 Bft)
07.09.2017 22:40 9,2 °C 9,2 °C 92 % 1015,9 hPa 0,0 mm 0,0 km/h (0 Bft) S-SW 192 ° 0 min 0,000 mm 0,0 UV-I 0 W/m² 8,0 °C 9,2 °C 0,0 km/h (0 Bft)
07.09.2017 22:41 9,2 °C 9,2 °C 92 % 1015,9 hPa 0,0 mm 0,0 km/h (0 Bft) S-SW 192 ° 0 min 0,000 mm 0,0 UV-I 0 W/m² 8,0 °C 9,2 °C 0,0 km/h (0 Bft)
07.09.2017 22:42 9,2 °C 9,2 °C 92 % 1015,9 hPa 0,0 mm 0,0 km/h (0 Bft) S-SW 192 ° 0 min 0,000 mm 0,0 UV-I 0 W/m² 8,0 °C 9,2 °C 0,0 km/h (0 Bft)
07.09.2017 22:43 9,2 °C 9,2 °C 92 % 1015,9 hPa 0,0 mm 0,0 km/h (0 Bft) S-SW 192 ° 0 min 0,000 mm 0,0 UV-I 0 W/m² 8,0 °C 9,2 °C 0,0 km/h (0 Bft)
07.09.2017 22:44 9,2 °C 9,2 °C 92 % 1015,9 hPa 0,0 mm 0,0 km/h (0 Bft) S-SW 192 ° 0 min 0,000 mm 0,0 UV-I 0 W/m² 8,0 °C 9,2 °C 0,0 km/h (0 Bft)
07.09.2017 22:45 9,1 °C 9,2 °C 91 % 1015,9 hPa 0,0 mm 0,0 km/h (0 Bft) S-SW 192 ° 0 min 0,000 mm 0,0 UV-I 0 W/m² 7,7 °C 9,1 °C 0,0 km/h (0 Bft)
07.09.2017 22:46 9,1 °C 9,1 °C 92 % 1015,9 hPa 0,0 mm 0,0 km/h (0 Bft) S-SW 192 ° 0 min 0,000 mm 0,0 UV-I 0 W/m² 7,9 °C 9,1 °C 0,0 km/h (0 Bft)
07.09.2017 22:47 8,9 °C 9,1 °C 92 % 1015,9 hPa 0,0 mm 0,0 km/h (0 Bft) S-SW 192 ° 0 min 0,000 mm 0,0 UV-I 0 W/m² 7,7 °C 8,9 °C 0,0 km/h (0 Bft)
07.09.2017 22:48 8,9 °C 8,9 °C 92 % 1015,9 hPa 0,0 mm 0,0 km/h (0 Bft) S-SW 192 ° 0 min 0,000 mm 0,0 UV-I 0 W/m² 7,7 °C 8,9 °C 0,0 km/h (0 Bft)
07.09.2017 22:49 8,9 °C 8,9 °C 92 % 1015,9 hPa 0,0 mm 0,0 km/h (0 Bft) S-SW 192 ° 0 min 0,000 mm 0,0 UV-I 0 W/m² 7,7 °C 8,9 °C 0,0 km/h (0 Bft)
07.09.2017 22:50 8,8 °C 8,9 °C 92 % 1015,9 hPa 0,0 mm 0,0 km/h (0 Bft) S-SW 192 ° 0 min 0,000 mm 0,0 UV-I 0 W/m² 7,6 °C 8,8 °C 0,0 km/h (0 Bft)
07.09.2017 22:51 8,8 °C 8,8 °C 92 % 1015,9 hPa 0,0 mm 0,0 km/h (0 Bft) S-SW 192 ° 0 min 0,000 mm 0,0 UV-I 0 W/m² 7,6 °C 8,8 °C 0,0 km/h (0 Bft)
07.09.2017 22:52 8,8 °C 8,8 °C 92 % 1015,9 hPa 0,0 mm 0,0 km/h (0 Bft) S-SW 192 ° 0 min 0,000 mm 0,0 UV-I 0 W/m² 7,6 °C 8,8 °C 0,0 km/h (0 Bft)
07.09.2017 22:53 8,8 °C 8,8 °C 93 % 1015,9 hPa 0,0 mm 0,0 km/h (0 Bft) S-SW 192 ° 0 min 0,000 mm 0,0 UV-I 0 W/m² 7,7 °C 8,8 °C 0,0 km/h (0 Bft)
07.09.2017 22:54 8,9 °C 8,9 °C 93 % 1015,9 hPa 0,0 mm 0,0 km/h (0 Bft) S-SW 192 ° 0 min 0,000 mm 0,0 UV-I 0 W/m² 7,8 °C 8,9 °C 0,0 km/h (0 Bft)
07.09.2017 22:55 8,9 °C 8,9 °C 93 % 1015,9 hPa 0,0 mm 0,0 km/h (0 Bft) S-SW 192 ° 0 min 0,000 mm 0,0 UV-I 0 W/m² 7,8 °C 8,9 °C 0,0 km/h (0 Bft)
07.09.2017 22:56 8,9 °C 8,9 °C 92 % 1015,9 hPa 0,0 mm 0,0 km/h (0 Bft) S-SW 192 ° 0 min 0,000 mm 0,0 UV-I 0 W/m² 7,7 °C 8,9 °C 0,0 km/h (0 Bft)
07.09.2017 22:57 8,9 °C 8,9 °C 92 % 1015,8 hPa 0,0 mm 0,0 km/h (0 Bft) S-SW 192 ° 0 min 0,000 mm 0,0 UV-I 0 W/m² 7,7 °C 8,9 °C 0,0 km/h (0 Bft)
07.09.2017 22:58 8,9 °C 8,9 °C 93 % 1015,8 hPa 0,0 mm 0,0 km/h (0 Bft) S-SW 192 ° 0 min 0,000 mm 0,0 UV-I 0 W/m² 7,8 °C 8,9 °C 0,0 km/h (0 Bft)
07.09.2017 22:59 8,9 °C 9,0 °C 93 % 1015,8 hPa 0,0 mm 0,0 km/h (0 Bft) S-SW 192 ° 0 min 0,000 mm 0,0 UV-I 0 W/m² 7,8 °C 8,9 °C 0,0 km/h (0 Bft)
07.09.2017 23:00 9,0 °C 9,0 °C 92 % 1015,8 hPa 0,0 mm 0,0 km/h (0 Bft) S-SW 192 ° 0 min 0,000 mm 0,0 UV-I 0 W/m² 7,8 °C 9,0 °C 0,0 km/h (0 Bft)
07.09.2017 23:01 8,9 °C 9,0 °C 92 % 1015,8 hPa 0,0 mm 0,0 km/h (0 Bft) S-SW 192 ° 0 min 0,000 mm 0,0 UV-I 0 W/m² 7,7 °C 8,9 °C 0,0 km/h (0 Bft)
07.09.2017 23:02 9,0 °C 9,0 °C 92 % 1015,8 hPa 0,0 mm 0,0 km/h (0 Bft) S-SW 192 ° 0 min 0,000 mm 0,0 UV-I 0 W/m² 7,8 °C 9,0 °C 0,0 km/h (0 Bft)
07.09.2017 23:03 9,0 °C 9,0 °C 92 % 1015,8 hPa 0,0 mm 0,0 km/h (0 Bft) S-SW 192 ° 0 min 0,000 mm 0,0 UV-I 0 W/m² 7,8 °C 9,0 °C 0,0 km/h (0 Bft)
07.09.2017 23:04 9,1 °C 9,1 °C 92 % 1015,8 hPa 0,0 mm 0,0 km/h (0 Bft) S-SW 192 ° 0 min 0,000 mm 0,0 UV-I 0 W/m² 7,9 °C 9,1 °C 0,0 km/h (0 Bft)
07.09.2017 23:05 9,1 °C 9,1 °C 92 % 1015,7 hPa 0,0 mm 0,0 km/h (0 Bft) S-SW 192 ° 0 min 0,000 mm 0,0 UV-I 0 W/m² 7,9 °C 9,1 °C 0,0 km/h (0 Bft)
07.09.2017 23:06 9,1 °C 9,1 °C 92 % 1015,7 hPa 0,0 mm 0,2 km/h (0 Bft) S-SW 192 ° 0 min 0,000 mm 0,0 UV-I 0 W/m² 7,9 °C 9,1 °C 1,6 km/h (1 Bft)
07.09.2017 23:07 9,0 °C 9,1 °C 92 % 1015,7 hPa 0,0 mm 1,0 km/h (0 Bft) S-SW 192 ° 0 min 0,000 mm 0,0 UV-I 0 W/m² 7,8 °C 9,0 °C 3,2 km/h (1 Bft)
07.09.2017 23:08 8,8 °C 9,0 °C 91 % 1015,7 hPa 0,0 mm 0,5 km/h (0 Bft) S-SW 192 ° 0 min 0,000 mm 0,0 UV-I 0 W/m² 7,4 °C 8,8 °C 1,6 km/h (1 Bft)
07.09.2017 23:09 8,8 °C 8,8 °C 91 % 1015,7 hPa 0,0 mm 1,6 km/h (1 Bft) S-SW 192 ° 0 min 0,000 mm 0,0 UV-I 0 W/m² 7,4 °C 8,8 °C 3,2 km/h (1 Bft)
07.09.2017 23:10 8,7 °C 8,8 °C 92 % 1015,7 hPa 0,0 mm 0,4 km/h (0 Bft) S-SW 192 ° 0 min 0,000 mm 0,0 UV-I 0 W/m² 7,5 °C 8,7 °C 1,6 km/h (1 Bft)
07.09.2017 23:11 8,6 °C 8,7 °C 91 % 1015,6 hPa 0,0 mm 1,6 km/h (1 Bft) S-SW 192 ° 0 min 0,000 mm 0,0 UV-I 0 W/m² 7,2 °C 8,6 °C 3,2 km/h (1 Bft)
07.09.2017 23:12 8,6 °C 8,7 °C 92 % 1015,6 hPa 0,0 mm 0,8 km/h (0 Bft) S-SW 192 ° 0 min 0,000 mm 0,0 UV-I 0 W/m² 7,4 °C 8,6 °C 1,6 km/h (1 Bft)
07.09.2017 23:13 8,6 °C 8,6 °C 92 % 1015,6 hPa 0,0 mm 0,0 km/h (0 Bft) S-SW 192 ° 0 min 0,000 mm 0,0 UV-I 0 W/m² 7,4 °C 8,6 °C 0,0 km/h (0 Bft)
07.09.2017 23:14 8,5 °C 8,6 °C 92 % 1015,6 hPa 0,0 mm 0,0 km/h (0 Bft) S-SW 192 ° 0 min 0,000 mm 0,0 UV-I 0 W/m² 7,3 °C 8,5 °C 0,0 km/h (0 Bft)
07.09.2017 23:15 8,4 °C 8,5 °C 91 % 1015,6 hPa 0,0 mm 0,0 km/h (0 Bft) S-SW 192 ° 0 min 0,000 mm 0,0 UV-I 0 W/m² 7,0 °C 8,4 °C 0,0 km/h (0 Bft)
07.09.2017 23:16 8,4 °C 8,5 °C 92 % 1015,6 hPa 0,0 mm 0,0 km/h (0 Bft) S-SW 192 ° 0 min 0,000 mm 0,0 UV-I 0 W/m² 7,2 °C 8,4 °C 0,0 km/h (0 Bft)
07.09.2017 23:17 8,4 °C 8,4 °C 92 % 1015,5 hPa 0,0 mm 0,0 km/h (0 Bft) S-SW 192 ° 0 min 0,000 mm 0,0 UV-I 0 W/m² 7,2 °C 8,4 °C 0,0 km/h (0 Bft)
07.09.2017 23:18 8,4 °C 8,4 °C 92 % 1015,6 hPa 0,0 mm 0,0 km/h (0 Bft) S-SW 192 ° 0 min 0,000 mm 0,0 UV-I 0 W/m² 7,2 °C 8,4 °C 0,0 km/h (0 Bft)
07.09.2017 23:19 8,4 °C 8,4 °C 92 % 1015,6 hPa 0,0 mm 0,0 km/h (0 Bft) S-SW 192 ° 0 min 0,000 mm 0,0 UV-I 0 W/m² 7,2 °C 8,4 °C 0,0 km/h (0 Bft)
07.09.2017 23:20 8,4 °C 8,4 °C 92 % 1015,6 hPa 0,0 mm 0,0 km/h (0 Bft) S-SW 192 ° 0 min 0,000 mm 0,0 UV-I 0 W/m² 7,2 °C 8,4 °C 0,0 km/h (0 Bft)
07.09.2017 23:21 8,4 °C 8,4 °C 92 % 1015,7 hPa 0,0 mm 0,0 km/h (0 Bft) S-SW 192 ° 0 min 0,000 mm 0,0 UV-I 0 W/m² 7,2 °C 8,4 °C 0,0 km/h (0 Bft)
07.09.2017 23:22 8,4 °C 8,5 °C 92 % 1015,6 hPa 0,0 mm 0,0 km/h (0 Bft) S-SW 192 ° 0 min 0,000 mm 0,0 UV-I 0 W/m² 7,2 °C 8,4 °C 0,0 km/h (0 Bft)
07.09.2017 23:23 8,4 °C 8,4 °C 92 % 1015,6 hPa 0,0 mm 0,3 km/h (0 Bft) S-SW 192 ° 0 min 0,000 mm 0,0 UV-I 0 W/m² 7,2 °C 8,4 °C 1,6 km/h (1 Bft)
07.09.2017 23:24 8,3 °C 8,4 °C 92 % 1015,6 hPa 0,0 mm 0,0 km/h (0 Bft) S-SW 192 ° 0 min 0,000 mm 0,0 UV-I 0 W/m² 7,1 °C 8,3 °C 0,0 km/h (0 Bft)
07.09.2017 23:25 8,2 °C 8,3 °C 92 % 1015,6 hPa 0,0 mm 0,0 km/h (0 Bft) S-SW 192 ° 0 min 0,000 mm 0,0 UV-I 0 W/m² 7,0 °C 8,2 °C 0,0 km/h (0 Bft)
07.09.2017 23:26 8,2 °C 8,3 °C 92 % 1015,7 hPa 0,0 mm 0,0 km/h (0 Bft) S-SW 192 ° 0 min 0,000 mm 0,0 UV-I 0 W/m² 7,0 °C 8,2 °C 0,0 km/h (0 Bft)
07.09.2017 23:27 8,1 °C 8,2 °C 92 % 1015,7 hPa 0,0 mm 0,0 km/h (0 Bft) S-SW 192 ° 0 min 0,000 mm 0,0 UV-I 0 W/m² 6,9 °C 8,1 °C 0,0 km/h (0 Bft)
07.09.2017 23:28 8,0 °C 8,1 °C 92 % 1015,7 hPa 0,0 mm 0,0 km/h (0 Bft) S-SW 192 ° 0 min 0,000 mm 0,0 UV-I 0 W/m² 6,8 °C 8,0 °C 0,0 km/h (0 Bft)
07.09.2017 23:29 8,0 °C 8,0 °C 92 % 1015,7 hPa 0,0 mm 0,0 km/h (0 Bft) S-SW 192 ° 0 min 0,000 mm 0,0 UV-I 0 W/m² 6,8 °C 8,0 °C 0,0 km/h (0 Bft)
07.09.2017 23:30 8,0 °C 8,0 °C 92 % 1015,6 hPa 0,0 mm 0,0 km/h (0 Bft) S-SW 192 ° 0 min 0,000 mm 0,0 UV-I 0 W/m² 6,8 °C 8,0 °C 0,0 km/h (0 Bft)
07.09.2017 23:31 8,1 °C 8,1 °C 93 % 1015,7 hPa 0,0 mm 0,1 km/h (0 Bft) S-SW 192 ° 0 min 0,000 mm 0,0 UV-I 0 W/m² 7,0 °C 8,1 °C 1,6 km/h (1 Bft)
07.09.2017 23:32 8,1 °C 8,1 °C 93 % 1015,6 hPa 0,0 mm 0,0 km/h (0 Bft) S-SW 192 ° 0 min 0,000 mm 0,0 UV-I 0 W/m² 7,0 °C 8,1 °C 0,0 km/h (0 Bft)
07.09.2017 23:33 8,1 °C 8,1 °C 92 % 1015,7 hPa 0,0 mm 0,0 km/h (0 Bft) S-SW 192 ° 0 min 0,000 mm 0,0 UV-I 0 W/m² 6,9 °C 8,1 °C 0,0 km/h (0 Bft)
07.09.2017 23:34 8,1 °C 8,1 °C 93 % 1015,6 hPa 0,0 mm 0,0 km/h (0 Bft) S-SW 192 ° 0 min 0,000 mm 0,0 UV-I 0 W/m² 7,0 °C 8,1 °C 0,0 km/h (0 Bft)
07.09.2017 23:35 8,1 °C 8,2 °C 93 % 1015,7 hPa 0,0 mm 0,0 km/h (0 Bft) S-SW 192 ° 0 min 0,000 mm 0,0 UV-I 0 W/m² 7,0 °C 8,1 °C 0,0 km/h (0 Bft)
07.09.2017 23:36 8,2 °C 8,2 °C 93 % 1015,5 hPa 0,0 mm 0,0 km/h (0 Bft) S-SW 192 ° 0 min 0,000 mm 0,0 UV-I 0 W/m² 7,1 °C 8,2 °C 0,0 km/h (0 Bft)
07.09.2017 23:37 8,2 °C 8,2 °C 93 % 1015,5 hPa 0,0 mm 0,0 km/h (0 Bft) S-SW 192 ° 0 min 0,000 mm 0,0 UV-I 0 W/m² 7,1 °C 8,2 °C 0,0 km/h (0 Bft)
07.09.2017 23:38 8,2 °C 8,2 °C 93 % 1015,5 hPa 0,0 mm 0,0 km/h (0 Bft) S-SW 192 ° 0 min 0,000 mm 0,0 UV-I 0 W/m² 7,1 °C 8,2 °C 0,0 km/h (0 Bft)
07.09.2017 23:39 8,2 °C 8,2 °C 93 % 1015,5 hPa 0,0 mm 0,0 km/h (0 Bft) S-SW 192 ° 0 min 0,000 mm 0,0 UV-I 0 W/m² 7,1 °C 8,2 °C 0,0 km/h (0 Bft)
07.09.2017 23:40 8,2 °C 8,2 °C 93 % 1015,5 hPa 0,0 mm 0,0 km/h (0 Bft) S-SW 192 ° 0 min 0,000 mm 0,0 UV-I 0 W/m² 7,1 °C 8,2 °C 0,0 km/h (0 Bft)
07.09.2017 23:41 8,1 °C 8,2 °C 93 % 1015,5 hPa 0,0 mm 0,0 km/h (0 Bft) S-SW 192 ° 0 min 0,000 mm 0,0 UV-I 0 W/m² 7,0 °C 8,1 °C 0,0 km/h (0 Bft)
07.09.2017 23:42 8,1 °C 8,1 °C 93 % 1015,5 hPa 0,0 mm 0,0 km/h (0 Bft) S-SW 192 ° 0 min 0,000 mm 0,0 UV-I 0 W/m² 7,0 °C 8,1 °C 0,0 km/h (0 Bft)
07.09.2017 23:43 8,1 °C 8,1 °C 93 % 1015,5 hPa 0,0 mm 0,0 km/h (0 Bft) S-SW 192 ° 0 min 0,000 mm 0,0 UV-I 0 W/m² 7,0 °C 8,1 °C 0,0 km/h (0 Bft)
07.09.2017 23:44 8,1 °C 8,1 °C 93 % 1015,5 hPa 0,0 mm 0,0 km/h (0 Bft) S-SW 192 ° 0 min 0,000 mm 0,0 UV-I 0 W/m² 7,0 °C 8,1 °C 0,0 km/h (0 Bft)
07.09.2017 23:45 8,0 °C 8,1 °C 93 % 1015,5 hPa 0,0 mm 0,0 km/h (0 Bft) S-SW 192 ° 0 min 0,000 mm 0,0 UV-I 0 W/m² 6,9 °C 8,0 °C 0,0 km/h (0 Bft)
07.09.2017 23:46 8,0 °C 8,1 °C 93 % 1015,5 hPa 0,0 mm 0,0 km/h (0 Bft) S-SW 192 ° 0 min 0,000 mm 0,0 UV-I 0 W/m² 6,9 °C 8,0 °C 0,0 km/h (0 Bft)
07.09.2017 23:47 8,0 °C 8,1 °C 93 % 1015,4 hPa 0,0 mm 0,0 km/h (0 Bft) S-SW 192 ° 0 min 0,000 mm 0,0 UV-I 0 W/m² 6,9 °C 8,0 °C 0,0 km/h (0 Bft)
07.09.2017 23:48 8,0 °C 8,1 °C 93 % 1015,4 hPa 0,0 mm 0,0 km/h (0 Bft) S-SW 192 ° 0 min 0,000 mm 0,0 UV-I 0 W/m² 6,9 °C 8,0 °C 0,0 km/h (0 Bft)
07.09.2017 23:49 8,1 °C 8,1 °C 93 % 1015,4 hPa 0,0 mm 0,0 km/h (0 Bft) S-SW 192 ° 0 min 0,000 mm 0,0 UV-I 0 W/m² 7,0 °C 8,1 °C 0,0 km/h (0 Bft)
07.09.2017 23:50 8,1 °C 8,1 °C 94 % 1015,4 hPa 0,0 mm 0,0 km/h (0 Bft) S-SW 192 ° 0 min 0,000 mm 0,0 UV-I 0 W/m² 7,2 °C 8,1 °C 0,0 km/h (0 Bft)
07.09.2017 23:51 8,1 °C 8,1 °C 94 % 1015,4 hPa 0,0 mm 0,0 km/h (0 Bft) S-SW 192 ° 0 min 0,000 mm 0,0 UV-I 0 W/m² 7,2 °C 8,1 °C 0,0 km/h (0 Bft)
07.09.2017 23:52 8,1 °C 8,1 °C 94 % 1015,4 hPa 0,0 mm 0,0 km/h (0 Bft) S-SW 192 ° 0 min 0,000 mm 0,0 UV-I 0 W/m² 7,2 °C 8,1 °C 0,0 km/h (0 Bft)
07.09.2017 23:53 8,1 °C 8,1 °C 94 % 1015,3 hPa 0,0 mm 0,0 km/h (0 Bft) S-SW 192 ° 0 min 0,000 mm 0,0 UV-I 0 W/m² 7,2 °C 8,1 °C 0,0 km/h (0 Bft)
07.09.2017 23:54 8,1 °C 8,1 °C 94 % 1015,4 hPa 0,0 mm 0,0 km/h (0 Bft) S-SW 192 ° 0 min 0,000 mm 0,0 UV-I 0 W/m² 7,2 °C 8,1 °C 0,0 km/h (0 Bft)
07.09.2017 23:55 8,1 °C 8,1 °C 94 % 1015,4 hPa 0,0 mm 0,0 km/h (0 Bft) S-SW 192 ° 0 min 0,000 mm 0,0 UV-I 0 W/m² 7,2 °C 8,1 °C 0,0 km/h (0 Bft)
07.09.2017 23:56 8,1 °C 8,1 °C 94 % 1015,4 hPa 0,0 mm 0,0 km/h (0 Bft) S-SW 192 ° 0 min 0,000 mm 0,0 UV-I 0 W/m² 7,2 °C 8,1 °C 0,0 km/h (0 Bft)
07.09.2017 23:57 8,1 °C 8,1 °C 94 % 1015,4 hPa 0,0 mm 0,0 km/h (0 Bft) S-SW 192 ° 0 min 0,000 mm 0,0 UV-I 0 W/m² 7,2 °C 8,1 °C 0,0 km/h (0 Bft)
07.09.2017 23:58 8,1 °C 8,1 °C 94 % 1015,4 hPa 0,0 mm 0,0 km/h (0 Bft) S-SW 192 ° 0 min 0,000 mm 0,0 UV-I 0 W/m² 7,2 °C 8,1 °C 0,0 km/h (0 Bft)
07.09.2017 23:59 8,0 °C 8,1 °C 94 % 1015,4 hPa 0,0 mm 0,0 km/h (0 Bft) S-SW 192 ° 0 min 0,000 mm 0,0 UV-I 0 W/m² 7,1 °C 8,0 °C 0,0 km/h (0 Bft)
_ Min-Zeit 23:29 23:30 17:29 18:21 - 23:59 - - - - - - 23:30 23:59 23:59
Minimum _ 7,9 °C 8,0 °C 61 % 1014,5 hPa - 0,0 km/h (0 Bft) - - - - - - 6,8 °C 8,0 °C 0,0 km/h (0 Bft)
_ Max-Zeit 15:00 15:01 23:59 01:40 07:51 17:05 - - 16:14 16:01 12:49 14:42 14:42 15:00 17:06
Maximum _ 15,9 °C 15,9 °C 94 % 1017,5 hPa 0,2 mm 17,1 km/h
W (3 Bft)
- - 2 min 0,305 mm 5,9 UV-I 983 W/m² 10,9 °C 15,9 °C 22,5 km/h
W-SW (4 Bft)
Durchschnitt _ 12,1 °C 12,1 °C 82 % 1016,0 hPa #1,8 mm 3,9 km/h (1 Bft) W - #4:18 h #1,727 mm 2,3 UV-I 118 W/m² 9,0 °C 12,1 °C 6,6 km/h (2 Bft)